<?xml version="1.0" encoding="UTF-8" standalone="no" ?>
<gpx xmlns="http://www.topografix.com/GPX/1/1" xmlns:xsi="http://www.w3.org/2001/XMLSchema-instance" xsi:schemaLocation="http://www.topografix.com/GPX/1/1 http://www.topografix.com/GPX/1/1/gpx.xsd" version="1.1" creator="VisuGPX - https://www.visugpx.com">
  <metadata>
    <name>Boucle vers Fleurieux</name>
  </metadata>
  <trk>
    <name><![CDATA[2023 06 19 boucle vers Fleurieux]]></name>
    <trkseg>
      <trkpt lat="45.83333" lon="4.70921">
        <ele>310.53986</ele>
        <time>2023-06-19T15:22:59.000Z</time>
      </trkpt>
      <trkpt lat="45.83332" lon="4.70919">
        <ele>310.90643</ele>
        <time>2023-06-19T15:23:03.000Z</time>
      </trkpt>
      <trkpt lat="45.83332" lon="4.70915">
        <ele>311.48502</ele>
        <time>2023-06-19T15:23:05.000Z</time>
      </trkpt>
      <trkpt lat="45.83331" lon="4.70911">
        <ele>311.97241</ele>
        <time>2023-06-19T15:23:06.000Z</time>
      </trkpt>
      <trkpt lat="45.83332" lon="4.70908">
        <ele>312.10443</ele>
        <time>2023-06-19T15:23:07.000Z</time>
      </trkpt>
      <trkpt lat="45.83332" lon="4.70904">
        <ele>312.1987</ele>
        <time>2023-06-19T15:23:08.000Z</time>
      </trkpt>
      <trkpt lat="45.83333" lon="4.70901">
        <ele>312.21899</ele>
        <time>2023-06-19T15:23:09.000Z</time>
      </trkpt>
      <trkpt lat="45.83333" lon="4.70897">
        <ele>312.19131</ele>
        <time>2023-06-19T15:23:10.000Z</time>
      </trkpt>
      <trkpt lat="45.83332" lon="4.70894">
        <ele>312.10089</ele>
        <time>2023-06-19T15:23:11.000Z</time>
      </trkpt>
      <trkpt lat="45.83332" lon="4.7089">
        <ele>311.9964</ele>
        <time>2023-06-19T15:23:12.000Z</time>
      </trkpt>
      <trkpt lat="45.83332" lon="4.70887">
        <ele>311.90097</ele>
        <time>2023-06-19T15:23:13.000Z</time>
      </trkpt>
      <trkpt lat="45.83332" lon="4.70884">
        <ele>311.84192</ele>
        <time>2023-06-19T15:23:14.000Z</time>
      </trkpt>
      <trkpt lat="45.83333" lon="4.70881">
        <ele>311.77429</ele>
        <time>2023-06-19T15:23:15.000Z</time>
      </trkpt>
      <trkpt lat="45.83333" lon="4.70878">
        <ele>311.69318</ele>
        <time>2023-06-19T15:23:16.000Z</time>
      </trkpt>
      <trkpt lat="45.83334" lon="4.70875">
        <ele>311.62726</ele>
        <time>2023-06-19T15:23:17.000Z</time>
      </trkpt>
      <trkpt lat="45.83333" lon="4.70871">
        <ele>311.58344</ele>
        <time>2023-06-19T15:24:02.000Z</time>
      </trkpt>
      <trkpt lat="45.83333" lon="4.70867">
        <ele>311.56268</ele>
        <time>2023-06-19T15:24:03.000Z</time>
      </trkpt>
      <trkpt lat="45.83333" lon="4.70864">
        <ele>311.56226</ele>
        <time>2023-06-19T15:24:04.000Z</time>
      </trkpt>
      <trkpt lat="45.83334" lon="4.7086">
        <ele>311.57312</ele>
        <time>2023-06-19T15:24:05.000Z</time>
      </trkpt>
      <trkpt lat="45.83334" lon="4.70855">
        <ele>311.58099</ele>
        <time>2023-06-19T15:24:06.000Z</time>
      </trkpt>
      <trkpt lat="45.83335" lon="4.70851">
        <ele>311.63589</ele>
        <time>2023-06-19T15:24:07.000Z</time>
      </trkpt>
      <trkpt lat="45.83336" lon="4.70846">
        <ele>311.67194</ele>
        <time>2023-06-19T15:24:08.000Z</time>
      </trkpt>
      <trkpt lat="45.83336" lon="4.70842">
        <ele>311.65701</ele>
        <time>2023-06-19T15:24:09.000Z</time>
      </trkpt>
      <trkpt lat="45.83337" lon="4.70837">
        <ele>311.62137</ele>
        <time>2023-06-19T15:24:10.000Z</time>
      </trkpt>
      <trkpt lat="45.83338" lon="4.70832">
        <ele>311.62054</ele>
        <time>2023-06-19T15:24:11.000Z</time>
      </trkpt>
      <trkpt lat="45.83338" lon="4.70827">
        <ele>311.63895</ele>
        <time>2023-06-19T15:24:12.000Z</time>
      </trkpt>
      <trkpt lat="45.83339" lon="4.70822">
        <ele>311.68011</ele>
        <time>2023-06-19T15:24:13.000Z</time>
      </trkpt>
      <trkpt lat="45.83339" lon="4.70817">
        <ele>311.77197</ele>
        <time>2023-06-19T15:24:14.000Z</time>
      </trkpt>
      <trkpt lat="45.8334" lon="4.70812">
        <ele>311.92194</ele>
        <time>2023-06-19T15:24:15.000Z</time>
      </trkpt>
      <trkpt lat="45.83341" lon="4.70807">
        <ele>312.09189</ele>
        <time>2023-06-19T15:24:16.000Z</time>
      </trkpt>
      <trkpt lat="45.83341" lon="4.70802">
        <ele>312.26862</ele>
        <time>2023-06-19T15:24:17.000Z</time>
      </trkpt>
      <trkpt lat="45.83342" lon="4.70797">
        <ele>312.42413</ele>
        <time>2023-06-19T15:24:18.000Z</time>
      </trkpt>
      <trkpt lat="45.83342" lon="4.70791">
        <ele>312.55743</ele>
        <time>2023-06-19T15:24:19.000Z</time>
      </trkpt>
      <trkpt lat="45.83342" lon="4.70785">
        <ele>312.70627</ele>
        <time>2023-06-19T15:24:20.000Z</time>
      </trkpt>
      <trkpt lat="45.83342" lon="4.70779">
        <ele>312.85168</ele>
        <time>2023-06-19T15:24:21.000Z</time>
      </trkpt>
      <trkpt lat="45.83342" lon="4.70773">
        <ele>312.99451</ele>
        <time>2023-06-19T15:24:22.000Z</time>
      </trkpt>
      <trkpt lat="45.83343" lon="4.70768">
        <ele>313.12277</ele>
        <time>2023-06-19T15:24:23.000Z</time>
      </trkpt>
      <trkpt lat="45.83344" lon="4.70762">
        <ele>313.22845</ele>
        <time>2023-06-19T15:24:24.000Z</time>
      </trkpt>
      <trkpt lat="45.83344" lon="4.70756">
        <ele>313.31619</ele>
        <time>2023-06-19T15:24:25.000Z</time>
      </trkpt>
      <trkpt lat="45.83345" lon="4.7075">
        <ele>313.42035</ele>
        <time>2023-06-19T15:24:26.000Z</time>
      </trkpt>
      <trkpt lat="45.83345" lon="4.70744">
        <ele>313.58411</ele>
        <time>2023-06-19T15:24:27.000Z</time>
      </trkpt>
      <trkpt lat="45.83345" lon="4.70738">
        <ele>313.73395</ele>
        <time>2023-06-19T15:24:28.000Z</time>
      </trkpt>
      <trkpt lat="45.83345" lon="4.70731">
        <ele>313.85352</ele>
        <time>2023-06-19T15:24:29.000Z</time>
      </trkpt>
      <trkpt lat="45.83345" lon="4.70724">
        <ele>313.97382</ele>
        <time>2023-06-19T15:24:30.000Z</time>
      </trkpt>
      <trkpt lat="45.83346" lon="4.70717">
        <ele>314.11163</ele>
        <time>2023-06-19T15:24:31.000Z</time>
      </trkpt>
      <trkpt lat="45.83346" lon="4.7071">
        <ele>314.16617</ele>
        <time>2023-06-19T15:24:32.000Z</time>
      </trkpt>
      <trkpt lat="45.83346" lon="4.70703">
        <ele>314.1875</ele>
        <time>2023-06-19T15:24:33.000Z</time>
      </trkpt>
      <trkpt lat="45.83347" lon="4.70697">
        <ele>314.19525</ele>
        <time>2023-06-19T15:24:34.000Z</time>
      </trkpt>
      <trkpt lat="45.83347" lon="4.7069">
        <ele>314.17908</ele>
        <time>2023-06-19T15:24:35.000Z</time>
      </trkpt>
      <trkpt lat="45.83347" lon="4.70684">
        <ele>314.16318</ele>
        <time>2023-06-19T15:24:36.000Z</time>
      </trkpt>
      <trkpt lat="45.83348" lon="4.70677">
        <ele>314.13235</ele>
        <time>2023-06-19T15:24:37.000Z</time>
      </trkpt>
      <trkpt lat="45.83348" lon="4.70669">
        <ele>314.0885</ele>
        <time>2023-06-19T15:24:38.000Z</time>
      </trkpt>
      <trkpt lat="45.83349" lon="4.70663">
        <ele>314.06494</ele>
        <time>2023-06-19T15:24:39.000Z</time>
      </trkpt>
      <trkpt lat="45.83349" lon="4.70655">
        <ele>313.97552</ele>
        <time>2023-06-19T15:24:40.000Z</time>
      </trkpt>
      <trkpt lat="45.8335" lon="4.70647">
        <ele>313.99368</ele>
        <time>2023-06-19T15:24:41.000Z</time>
      </trkpt>
      <trkpt lat="45.83351" lon="4.70639">
        <ele>315.41782</ele>
        <time>2023-06-19T15:24:42.000Z</time>
      </trkpt>
      <trkpt lat="45.83351" lon="4.70631">
        <ele>316.81107</ele>
        <time>2023-06-19T15:24:43.000Z</time>
      </trkpt>
      <trkpt lat="45.83351" lon="4.70622">
        <ele>316.96817</ele>
        <time>2023-06-19T15:24:44.000Z</time>
      </trkpt>
      <trkpt lat="45.83354" lon="4.70616">
        <ele>317.14044</ele>
        <time>2023-06-19T15:24:45.000Z</time>
      </trkpt>
      <trkpt lat="45.83358" lon="4.70612">
        <ele>317.30679</ele>
        <time>2023-06-19T15:24:46.000Z</time>
      </trkpt>
      <trkpt lat="45.83364" lon="4.70609">
        <ele>317.42645</ele>
        <time>2023-06-19T15:24:47.000Z</time>
      </trkpt>
      <trkpt lat="45.8337" lon="4.70609">
        <ele>317.95038</ele>
        <time>2023-06-19T15:24:48.000Z</time>
      </trkpt>
      <trkpt lat="45.83376" lon="4.70609">
        <ele>318.45828</ele>
        <time>2023-06-19T15:24:49.000Z</time>
      </trkpt>
      <trkpt lat="45.83382" lon="4.70611">
        <ele>318.98477</ele>
        <time>2023-06-19T15:24:50.000Z</time>
      </trkpt>
      <trkpt lat="45.83389" lon="4.70612">
        <ele>319.53546</ele>
        <time>2023-06-19T15:24:51.000Z</time>
      </trkpt>
      <trkpt lat="45.83396" lon="4.70614">
        <ele>320.22147</ele>
        <time>2023-06-19T15:24:52.000Z</time>
      </trkpt>
      <trkpt lat="45.83403" lon="4.70614">
        <ele>320.92758</ele>
        <time>2023-06-19T15:24:53.000Z</time>
      </trkpt>
      <trkpt lat="45.8341" lon="4.70614">
        <ele>321.57846</ele>
        <time>2023-06-19T15:24:54.000Z</time>
      </trkpt>
      <trkpt lat="45.83417" lon="4.70614">
        <ele>322.29013</ele>
        <time>2023-06-19T15:24:55.000Z</time>
      </trkpt>
      <trkpt lat="45.83423" lon="4.70615">
        <ele>322.98172</ele>
        <time>2023-06-19T15:24:56.000Z</time>
      </trkpt>
      <trkpt lat="45.83429" lon="4.70617">
        <ele>323.63892</ele>
        <time>2023-06-19T15:24:57.000Z</time>
      </trkpt>
      <trkpt lat="45.83434" lon="4.70617">
        <ele>324.22073</ele>
        <time>2023-06-19T15:24:58.000Z</time>
      </trkpt>
      <trkpt lat="45.83439" lon="4.70619">
        <ele>325.02151</ele>
        <time>2023-06-19T15:24:59.000Z</time>
      </trkpt>
      <trkpt lat="45.83444" lon="4.7062">
        <ele>325.83154</ele>
        <time>2023-06-19T15:25:00.000Z</time>
      </trkpt>
      <trkpt lat="45.8345" lon="4.7062">
        <ele>326.61505</ele>
        <time>2023-06-19T15:25:01.000Z</time>
      </trkpt>
      <trkpt lat="45.83455" lon="4.7062">
        <ele>326.15073</ele>
        <time>2023-06-19T15:25:02.000Z</time>
      </trkpt>
      <trkpt lat="45.83459" lon="4.7062">
        <ele>325.70319</ele>
        <time>2023-06-19T15:25:03.000Z</time>
      </trkpt>
      <trkpt lat="45.83464" lon="4.70621">
        <ele>326.62799</ele>
        <time>2023-06-19T15:25:04.000Z</time>
      </trkpt>
      <trkpt lat="45.83468" lon="4.70621">
        <ele>326.87628</ele>
        <time>2023-06-19T15:25:05.000Z</time>
      </trkpt>
      <trkpt lat="45.83472" lon="4.7062">
        <ele>327.16418</ele>
        <time>2023-06-19T15:25:06.000Z</time>
      </trkpt>
      <trkpt lat="45.83477" lon="4.70621">
        <ele>327.51822</ele>
        <time>2023-06-19T15:25:07.000Z</time>
      </trkpt>
      <trkpt lat="45.83483" lon="4.7062">
        <ele>327.47241</ele>
        <time>2023-06-19T15:25:08.000Z</time>
      </trkpt>
      <trkpt lat="45.83488" lon="4.7062">
        <ele>327.38278</ele>
        <time>2023-06-19T15:25:09.000Z</time>
      </trkpt>
      <trkpt lat="45.83494" lon="4.70619">
        <ele>327.32004</ele>
        <time>2023-06-19T15:25:10.000Z</time>
      </trkpt>
      <trkpt lat="45.835" lon="4.70619">
        <ele>327.11664</ele>
        <time>2023-06-19T15:25:11.000Z</time>
      </trkpt>
      <trkpt lat="45.83506" lon="4.70619">
        <ele>326.81915</ele>
        <time>2023-06-19T15:25:12.000Z</time>
      </trkpt>
      <trkpt lat="45.83512" lon="4.70618">
        <ele>326.54178</ele>
        <time>2023-06-19T15:25:13.000Z</time>
      </trkpt>
      <trkpt lat="45.83518" lon="4.70618">
        <ele>326.3584</ele>
        <time>2023-06-19T15:25:14.000Z</time>
      </trkpt>
      <trkpt lat="45.83525" lon="4.70618">
        <ele>326.00409</ele>
        <time>2023-06-19T15:25:15.000Z</time>
      </trkpt>
      <trkpt lat="45.83532" lon="4.70619">
        <ele>325.53583</ele>
        <time>2023-06-19T15:25:16.000Z</time>
      </trkpt>
      <trkpt lat="45.83539" lon="4.70619">
        <ele>325.086</ele>
        <time>2023-06-19T15:25:17.000Z</time>
      </trkpt>
      <trkpt lat="45.83546" lon="4.70619">
        <ele>324.79077</ele>
        <time>2023-06-19T15:25:18.000Z</time>
      </trkpt>
      <trkpt lat="45.83553" lon="4.70619">
        <ele>324.49481</ele>
        <time>2023-06-19T15:25:19.000Z</time>
      </trkpt>
      <trkpt lat="45.8356" lon="4.70619">
        <ele>324.27252</ele>
        <time>2023-06-19T15:25:20.000Z</time>
      </trkpt>
      <trkpt lat="45.83566" lon="4.7062">
        <ele>324.0296</ele>
        <time>2023-06-19T15:25:21.000Z</time>
      </trkpt>
      <trkpt lat="45.83573" lon="4.7062">
        <ele>323.72308</ele>
        <time>2023-06-19T15:25:22.000Z</time>
      </trkpt>
      <trkpt lat="45.8358" lon="4.70621">
        <ele>322.85187</ele>
        <time>2023-06-19T15:25:23.000Z</time>
      </trkpt>
      <trkpt lat="45.83587" lon="4.70623">
        <ele>321.92584</ele>
        <time>2023-06-19T15:25:24.000Z</time>
      </trkpt>
      <trkpt lat="45.83594" lon="4.70623">
        <ele>321.66116</ele>
        <time>2023-06-19T15:25:25.000Z</time>
      </trkpt>
      <trkpt lat="45.836" lon="4.70625">
        <ele>321.32672</ele>
        <time>2023-06-19T15:25:26.000Z</time>
      </trkpt>
      <trkpt lat="45.83606" lon="4.70628">
        <ele>320.93689</ele>
        <time>2023-06-19T15:25:27.000Z</time>
      </trkpt>
      <trkpt lat="45.83611" lon="4.70631">
        <ele>320.51358</ele>
        <time>2023-06-19T15:25:28.000Z</time>
      </trkpt>
      <trkpt lat="45.83617" lon="4.70635">
        <ele>320.21332</ele>
        <time>2023-06-19T15:25:29.000Z</time>
      </trkpt>
      <trkpt lat="45.83621" lon="4.70641">
        <ele>319.90518</ele>
        <time>2023-06-19T15:25:30.000Z</time>
      </trkpt>
      <trkpt lat="45.83625" lon="4.70647">
        <ele>319.42914</ele>
        <time>2023-06-19T15:25:31.000Z</time>
      </trkpt>
      <trkpt lat="45.83628" lon="4.70654">
        <ele>318.90106</ele>
        <time>2023-06-19T15:25:32.000Z</time>
      </trkpt>
      <trkpt lat="45.83631" lon="4.70662">
        <ele>318.63763</ele>
        <time>2023-06-19T15:25:33.000Z</time>
      </trkpt>
      <trkpt lat="45.83634" lon="4.70669">
        <ele>317.90082</ele>
        <time>2023-06-19T15:25:34.000Z</time>
      </trkpt>
      <trkpt lat="45.83637" lon="4.70676">
        <ele>316.63126</ele>
        <time>2023-06-19T15:25:35.000Z</time>
      </trkpt>
      <trkpt lat="45.8364" lon="4.70682">
        <ele>315.51022</ele>
        <time>2023-06-19T15:25:36.000Z</time>
      </trkpt>
      <trkpt lat="45.83643" lon="4.70689">
        <ele>314.42828</ele>
        <time>2023-06-19T15:25:37.000Z</time>
      </trkpt>
      <trkpt lat="45.83645" lon="4.70696">
        <ele>313.29047</ele>
        <time>2023-06-19T15:25:38.000Z</time>
      </trkpt>
      <trkpt lat="45.83648" lon="4.70703">
        <ele>311.96252</ele>
        <time>2023-06-19T15:25:39.000Z</time>
      </trkpt>
      <trkpt lat="45.83651" lon="4.70709">
        <ele>310.65585</ele>
        <time>2023-06-19T15:25:40.000Z</time>
      </trkpt>
      <trkpt lat="45.83654" lon="4.70716">
        <ele>309.29242</ele>
        <time>2023-06-19T15:25:41.000Z</time>
      </trkpt>
      <trkpt lat="45.83658" lon="4.70722">
        <ele>307.80658</ele>
        <time>2023-06-19T15:25:42.000Z</time>
      </trkpt>
      <trkpt lat="45.83661" lon="4.70728">
        <ele>306.91428</ele>
        <time>2023-06-19T15:25:43.000Z</time>
      </trkpt>
      <trkpt lat="45.83664" lon="4.70734">
        <ele>305.93341</ele>
        <time>2023-06-19T15:25:44.000Z</time>
      </trkpt>
      <trkpt lat="45.83668" lon="4.70741">
        <ele>304.94278</ele>
        <time>2023-06-19T15:25:45.000Z</time>
      </trkpt>
      <trkpt lat="45.83671" lon="4.70748">
        <ele>303.99991</ele>
        <time>2023-06-19T15:25:46.000Z</time>
      </trkpt>
      <trkpt lat="45.83673" lon="4.70754">
        <ele>302.99274</ele>
        <time>2023-06-19T15:25:47.000Z</time>
      </trkpt>
      <trkpt lat="45.83676" lon="4.70761">
        <ele>301.98383</ele>
        <time>2023-06-19T15:25:48.000Z</time>
      </trkpt>
      <trkpt lat="45.83679" lon="4.70767">
        <ele>300.92194</ele>
        <time>2023-06-19T15:25:49.000Z</time>
      </trkpt>
      <trkpt lat="45.83682" lon="4.70774">
        <ele>299.8028</ele>
        <time>2023-06-19T15:25:50.000Z</time>
      </trkpt>
      <trkpt lat="45.83686" lon="4.7078">
        <ele>298.96988</ele>
        <time>2023-06-19T15:25:51.000Z</time>
      </trkpt>
      <trkpt lat="45.83689" lon="4.70788">
        <ele>298.22574</ele>
        <time>2023-06-19T15:25:52.000Z</time>
      </trkpt>
      <trkpt lat="45.83692" lon="4.70795">
        <ele>297.23093</ele>
        <time>2023-06-19T15:25:53.000Z</time>
      </trkpt>
      <trkpt lat="45.83695" lon="4.70802">
        <ele>296.6507</ele>
        <time>2023-06-19T15:25:54.000Z</time>
      </trkpt>
      <trkpt lat="45.83699" lon="4.70809">
        <ele>296.69427</ele>
        <time>2023-06-19T15:25:55.000Z</time>
      </trkpt>
      <trkpt lat="45.83702" lon="4.70816">
        <ele>296.73566</ele>
        <time>2023-06-19T15:25:56.000Z</time>
      </trkpt>
      <trkpt lat="45.83705" lon="4.70823">
        <ele>296.7533</ele>
        <time>2023-06-19T15:25:57.000Z</time>
      </trkpt>
      <trkpt lat="45.83708" lon="4.7083">
        <ele>296.77621</ele>
        <time>2023-06-19T15:25:58.000Z</time>
      </trkpt>
      <trkpt lat="45.83711" lon="4.70837">
        <ele>296.7612</ele>
        <time>2023-06-19T15:25:59.000Z</time>
      </trkpt>
      <trkpt lat="45.83714" lon="4.70844">
        <ele>296.70395</ele>
        <time>2023-06-19T15:26:00.000Z</time>
      </trkpt>
      <trkpt lat="45.83717" lon="4.70851">
        <ele>296.63022</ele>
        <time>2023-06-19T15:26:01.000Z</time>
      </trkpt>
      <trkpt lat="45.83721" lon="4.70858">
        <ele>296.58612</ele>
        <time>2023-06-19T15:26:02.000Z</time>
      </trkpt>
      <trkpt lat="45.83724" lon="4.70864">
        <ele>296.55792</ele>
        <time>2023-06-19T15:26:03.000Z</time>
      </trkpt>
      <trkpt lat="45.83727" lon="4.7087">
        <ele>296.53754</ele>
        <time>2023-06-19T15:26:04.000Z</time>
      </trkpt>
      <trkpt lat="45.83728" lon="4.70876">
        <ele>296.50757</ele>
        <time>2023-06-19T15:26:05.000Z</time>
      </trkpt>
      <trkpt lat="45.83731" lon="4.70881">
        <ele>296.45731</ele>
        <time>2023-06-19T15:26:06.000Z</time>
      </trkpt>
      <trkpt lat="45.83734" lon="4.70887">
        <ele>296.46835</ele>
        <time>2023-06-19T15:26:07.000Z</time>
      </trkpt>
      <trkpt lat="45.83737" lon="4.70894">
        <ele>296.49124</ele>
        <time>2023-06-19T15:26:08.000Z</time>
      </trkpt>
      <trkpt lat="45.8374" lon="4.709">
        <ele>296.51709</ele>
        <time>2023-06-19T15:26:09.000Z</time>
      </trkpt>
      <trkpt lat="45.83744" lon="4.70906">
        <ele>296.5105</ele>
        <time>2023-06-19T15:26:10.000Z</time>
      </trkpt>
      <trkpt lat="45.83748" lon="4.70913">
        <ele>296.4938</ele>
        <time>2023-06-19T15:26:11.000Z</time>
      </trkpt>
      <trkpt lat="45.83751" lon="4.70919">
        <ele>296.46301</ele>
        <time>2023-06-19T15:26:12.000Z</time>
      </trkpt>
      <trkpt lat="45.83754" lon="4.70925">
        <ele>296.42609</ele>
        <time>2023-06-19T15:26:13.000Z</time>
      </trkpt>
      <trkpt lat="45.83757" lon="4.70932">
        <ele>296.38614</ele>
        <time>2023-06-19T15:26:14.000Z</time>
      </trkpt>
      <trkpt lat="45.83761" lon="4.70939">
        <ele>296.36871</ele>
        <time>2023-06-19T15:26:15.000Z</time>
      </trkpt>
      <trkpt lat="45.83765" lon="4.70946">
        <ele>296.61938</ele>
        <time>2023-06-19T15:26:16.000Z</time>
      </trkpt>
      <trkpt lat="45.83767" lon="4.70954">
        <ele>296.80453</ele>
        <time>2023-06-19T15:26:17.000Z</time>
      </trkpt>
      <trkpt lat="45.8377" lon="4.70961">
        <ele>296.97162</ele>
        <time>2023-06-19T15:26:18.000Z</time>
      </trkpt>
      <trkpt lat="45.83773" lon="4.70969">
        <ele>296.92105</ele>
        <time>2023-06-19T15:26:19.000Z</time>
      </trkpt>
      <trkpt lat="45.83775" lon="4.70976">
        <ele>296.92465</ele>
        <time>2023-06-19T15:26:20.000Z</time>
      </trkpt>
      <trkpt lat="45.83778" lon="4.7098">
        <ele>296.92035</ele>
        <time>2023-06-19T15:26:21.000Z</time>
      </trkpt>
      <trkpt lat="45.8378" lon="4.70986">
        <ele>296.89178</ele>
        <time>2023-06-19T15:26:22.000Z</time>
      </trkpt>
      <trkpt lat="45.83783" lon="4.70992">
        <ele>296.81882</ele>
        <time>2023-06-19T15:26:23.000Z</time>
      </trkpt>
      <trkpt lat="45.83785" lon="4.70999">
        <ele>296.73282</ele>
        <time>2023-06-19T15:26:24.000Z</time>
      </trkpt>
      <trkpt lat="45.83786" lon="4.71006">
        <ele>296.63837</ele>
        <time>2023-06-19T15:26:25.000Z</time>
      </trkpt>
      <trkpt lat="45.83785" lon="4.71014">
        <ele>296.54095</ele>
        <time>2023-06-19T15:26:26.000Z</time>
      </trkpt>
      <trkpt lat="45.8378" lon="4.71018">
        <ele>296.42392</ele>
        <time>2023-06-19T15:26:27.000Z</time>
      </trkpt>
      <trkpt lat="45.83778" lon="4.71024">
        <ele>296.34167</ele>
        <time>2023-06-19T15:26:28.000Z</time>
      </trkpt>
      <trkpt lat="45.83775" lon="4.7103">
        <ele>296.27026</ele>
        <time>2023-06-19T15:26:29.000Z</time>
      </trkpt>
      <trkpt lat="45.83772" lon="4.71036">
        <ele>296.22568</ele>
        <time>2023-06-19T15:26:30.000Z</time>
      </trkpt>
      <trkpt lat="45.83768" lon="4.71043">
        <ele>296.17651</ele>
        <time>2023-06-19T15:26:31.000Z</time>
      </trkpt>
      <trkpt lat="45.83764" lon="4.71048">
        <ele>296.1073</ele>
        <time>2023-06-19T15:26:32.000Z</time>
      </trkpt>
      <trkpt lat="45.8376" lon="4.71054">
        <ele>296.013</ele>
        <time>2023-06-19T15:26:33.000Z</time>
      </trkpt>
      <trkpt lat="45.83757" lon="4.7106">
        <ele>295.90186</ele>
        <time>2023-06-19T15:26:34.000Z</time>
      </trkpt>
      <trkpt lat="45.83754" lon="4.71066">
        <ele>295.78391</ele>
        <time>2023-06-19T15:26:35.000Z</time>
      </trkpt>
      <trkpt lat="45.8375" lon="4.71071">
        <ele>295.38165</ele>
        <time>2023-06-19T15:26:36.000Z</time>
      </trkpt>
      <trkpt lat="45.83746" lon="4.71078">
        <ele>295.04581</ele>
        <time>2023-06-19T15:26:37.000Z</time>
      </trkpt>
      <trkpt lat="45.83743" lon="4.71083">
        <ele>294.69672</ele>
        <time>2023-06-19T15:26:38.000Z</time>
      </trkpt>
      <trkpt lat="45.83739" lon="4.71089">
        <ele>294.57697</ele>
        <time>2023-06-19T15:26:39.000Z</time>
      </trkpt>
      <trkpt lat="45.83735" lon="4.71094">
        <ele>294.3725</ele>
        <time>2023-06-19T15:26:40.000Z</time>
      </trkpt>
      <trkpt lat="45.83732" lon="4.71101">
        <ele>294.21405</ele>
        <time>2023-06-19T15:26:41.000Z</time>
      </trkpt>
      <trkpt lat="45.83728" lon="4.71106">
        <ele>294.08136</ele>
        <time>2023-06-19T15:26:42.000Z</time>
      </trkpt>
      <trkpt lat="45.83724" lon="4.71113">
        <ele>293.95245</ele>
        <time>2023-06-19T15:26:43.000Z</time>
      </trkpt>
      <trkpt lat="45.83721" lon="4.7112">
        <ele>294.04034</ele>
        <time>2023-06-19T15:26:44.000Z</time>
      </trkpt>
      <trkpt lat="45.83718" lon="4.71127">
        <ele>294.15625</ele>
        <time>2023-06-19T15:26:45.000Z</time>
      </trkpt>
      <trkpt lat="45.83714" lon="4.71133">
        <ele>294.24866</ele>
        <time>2023-06-19T15:26:46.000Z</time>
      </trkpt>
      <trkpt lat="45.8371" lon="4.71139">
        <ele>294.33295</ele>
        <time>2023-06-19T15:26:47.000Z</time>
      </trkpt>
      <trkpt lat="45.83707" lon="4.71145">
        <ele>294.38721</ele>
        <time>2023-06-19T15:26:48.000Z</time>
      </trkpt>
      <trkpt lat="45.83705" lon="4.71149">
        <ele>294.40643</ele>
        <time>2023-06-19T15:26:49.000Z</time>
      </trkpt>
      <trkpt lat="45.83703" lon="4.71152">
        <ele>294.45245</ele>
        <time>2023-06-19T15:26:50.000Z</time>
      </trkpt>
      <trkpt lat="45.83702" lon="4.71155">
        <ele>294.51282</ele>
        <time>2023-06-19T15:26:51.000Z</time>
      </trkpt>
      <trkpt lat="45.837" lon="4.71157">
        <ele>294.38947</ele>
        <time>2023-06-19T15:26:52.000Z</time>
      </trkpt>
      <trkpt lat="45.83698" lon="4.7116">
        <ele>294.24628</ele>
        <time>2023-06-19T15:26:53.000Z</time>
      </trkpt>
      <trkpt lat="45.83697" lon="4.71162">
        <ele>294.11008</ele>
        <time>2023-06-19T15:26:54.000Z</time>
      </trkpt>
      <trkpt lat="45.83695" lon="4.71166">
        <ele>293.95862</ele>
        <time>2023-06-19T15:26:55.000Z</time>
      </trkpt>
      <trkpt lat="45.83693" lon="4.7117">
        <ele>293.82278</ele>
        <time>2023-06-19T15:26:56.000Z</time>
      </trkpt>
      <trkpt lat="45.83692" lon="4.71174">
        <ele>293.69199</ele>
        <time>2023-06-19T15:26:57.000Z</time>
      </trkpt>
      <trkpt lat="45.8369" lon="4.71179">
        <ele>293.56866</ele>
        <time>2023-06-19T15:26:58.000Z</time>
      </trkpt>
      <trkpt lat="45.83688" lon="4.71184">
        <ele>293.45453</ele>
        <time>2023-06-19T15:26:59.000Z</time>
      </trkpt>
      <trkpt lat="45.83687" lon="4.71189">
        <ele>293.38443</ele>
        <time>2023-06-19T15:27:00.000Z</time>
      </trkpt>
      <trkpt lat="45.83686" lon="4.71194">
        <ele>293.28195</ele>
        <time>2023-06-19T15:27:01.000Z</time>
      </trkpt>
      <trkpt lat="45.83684" lon="4.712">
        <ele>293.17563</ele>
        <time>2023-06-19T15:27:02.000Z</time>
      </trkpt>
      <trkpt lat="45.83683" lon="4.71206">
        <ele>293.10565</ele>
        <time>2023-06-19T15:27:03.000Z</time>
      </trkpt>
      <trkpt lat="45.83681" lon="4.71212">
        <ele>292.8443</ele>
        <time>2023-06-19T15:27:04.000Z</time>
      </trkpt>
      <trkpt lat="45.83679" lon="4.71219">
        <ele>292.60117</ele>
        <time>2023-06-19T15:27:05.000Z</time>
      </trkpt>
      <trkpt lat="45.83678" lon="4.71225">
        <ele>292.37427</ele>
        <time>2023-06-19T15:27:06.000Z</time>
      </trkpt>
      <trkpt lat="45.83677" lon="4.71231">
        <ele>292.16162</ele>
        <time>2023-06-19T15:27:07.000Z</time>
      </trkpt>
      <trkpt lat="45.83676" lon="4.71238">
        <ele>291.97748</ele>
        <time>2023-06-19T15:27:08.000Z</time>
      </trkpt>
      <trkpt lat="45.83674" lon="4.71244">
        <ele>291.82523</ele>
        <time>2023-06-19T15:27:09.000Z</time>
      </trkpt>
      <trkpt lat="45.83673" lon="4.71251">
        <ele>291.62653</ele>
        <time>2023-06-19T15:27:10.000Z</time>
      </trkpt>
      <trkpt lat="45.83673" lon="4.71259">
        <ele>291.40305</ele>
        <time>2023-06-19T15:27:11.000Z</time>
      </trkpt>
      <trkpt lat="45.83671" lon="4.71265">
        <ele>291.38824</ele>
        <time>2023-06-19T15:27:12.000Z</time>
      </trkpt>
      <trkpt lat="45.8367" lon="4.71271">
        <ele>291.35669</ele>
        <time>2023-06-19T15:27:13.000Z</time>
      </trkpt>
      <trkpt lat="45.83669" lon="4.71276">
        <ele>291.33694</ele>
        <time>2023-06-19T15:27:14.000Z</time>
      </trkpt>
      <trkpt lat="45.83668" lon="4.7128">
        <ele>291.26883</ele>
        <time>2023-06-19T15:27:15.000Z</time>
      </trkpt>
      <trkpt lat="45.83666" lon="4.71287">
        <ele>291.18658</ele>
        <time>2023-06-19T15:27:16.000Z</time>
      </trkpt>
      <trkpt lat="45.83665" lon="4.71292">
        <ele>291.07535</ele>
        <time>2023-06-19T15:27:17.000Z</time>
      </trkpt>
      <trkpt lat="45.83663" lon="4.71296">
        <ele>290.99652</ele>
        <time>2023-06-19T15:27:18.000Z</time>
      </trkpt>
      <trkpt lat="45.83661" lon="4.71301">
        <ele>290.93518</ele>
        <time>2023-06-19T15:27:19.000Z</time>
      </trkpt>
      <trkpt lat="45.83658" lon="4.71309">
        <ele>290.87241</ele>
        <time>2023-06-19T15:27:20.000Z</time>
      </trkpt>
      <trkpt lat="45.83658" lon="4.71316">
        <ele>290.82025</ele>
        <time>2023-06-19T15:27:21.000Z</time>
      </trkpt>
      <trkpt lat="45.83657" lon="4.71323">
        <ele>290.76276</ele>
        <time>2023-06-19T15:27:22.000Z</time>
      </trkpt>
      <trkpt lat="45.83656" lon="4.7133">
        <ele>290.72183</ele>
        <time>2023-06-19T15:27:23.000Z</time>
      </trkpt>
      <trkpt lat="45.83654" lon="4.71336">
        <ele>290.68341</ele>
        <time>2023-06-19T15:27:24.000Z</time>
      </trkpt>
      <trkpt lat="45.83653" lon="4.71343">
        <ele>290.64215</ele>
        <time>2023-06-19T15:27:25.000Z</time>
      </trkpt>
      <trkpt lat="45.83652" lon="4.71349">
        <ele>290.61371</ele>
        <time>2023-06-19T15:27:26.000Z</time>
      </trkpt>
      <trkpt lat="45.8365" lon="4.71354">
        <ele>290.54584</ele>
        <time>2023-06-19T15:27:27.000Z</time>
      </trkpt>
      <trkpt lat="45.83648" lon="4.71359">
        <ele>290.41208</ele>
        <time>2023-06-19T15:27:28.000Z</time>
      </trkpt>
      <trkpt lat="45.83647" lon="4.71365">
        <ele>290.26639</ele>
        <time>2023-06-19T15:27:29.000Z</time>
      </trkpt>
      <trkpt lat="45.83646" lon="4.71372">
        <ele>290.16205</ele>
        <time>2023-06-19T15:27:30.000Z</time>
      </trkpt>
      <trkpt lat="45.83645" lon="4.71378">
        <ele>290.05853</ele>
        <time>2023-06-19T15:27:31.000Z</time>
      </trkpt>
      <trkpt lat="45.83644" lon="4.71385">
        <ele>290.1608</ele>
        <time>2023-06-19T15:27:32.000Z</time>
      </trkpt>
      <trkpt lat="45.83643" lon="4.71391">
        <ele>290.39163</ele>
        <time>2023-06-19T15:27:33.000Z</time>
      </trkpt>
      <trkpt lat="45.83641" lon="4.71397">
        <ele>290.33334</ele>
        <time>2023-06-19T15:27:34.000Z</time>
      </trkpt>
      <trkpt lat="45.83639" lon="4.71404">
        <ele>290.35205</ele>
        <time>2023-06-19T15:27:35.000Z</time>
      </trkpt>
      <trkpt lat="45.83637" lon="4.71411">
        <ele>290.34897</ele>
        <time>2023-06-19T15:27:36.000Z</time>
      </trkpt>
      <trkpt lat="45.83636" lon="4.71417">
        <ele>290.40405</ele>
        <time>2023-06-19T15:27:37.000Z</time>
      </trkpt>
      <trkpt lat="45.83635" lon="4.71423">
        <ele>290.44672</ele>
        <time>2023-06-19T15:27:38.000Z</time>
      </trkpt>
      <trkpt lat="45.83633" lon="4.71429">
        <ele>290.50406</ele>
        <time>2023-06-19T15:27:39.000Z</time>
      </trkpt>
      <trkpt lat="45.83632" lon="4.71436">
        <ele>290.55511</ele>
        <time>2023-06-19T15:27:40.000Z</time>
      </trkpt>
      <trkpt lat="45.8363" lon="4.71443">
        <ele>290.59506</ele>
        <time>2023-06-19T15:27:41.000Z</time>
      </trkpt>
      <trkpt lat="45.83629" lon="4.71449">
        <ele>290.63315</ele>
        <time>2023-06-19T15:27:42.000Z</time>
      </trkpt>
      <trkpt lat="45.83627" lon="4.71456">
        <ele>290.62833</ele>
        <time>2023-06-19T15:27:43.000Z</time>
      </trkpt>
      <trkpt lat="45.83625" lon="4.71463">
        <ele>290.62766</ele>
        <time>2023-06-19T15:27:44.000Z</time>
      </trkpt>
      <trkpt lat="45.83622" lon="4.71469">
        <ele>290.61188</ele>
        <time>2023-06-19T15:27:45.000Z</time>
      </trkpt>
      <trkpt lat="45.83619" lon="4.71475">
        <ele>290.5871</ele>
        <time>2023-06-19T15:27:46.000Z</time>
      </trkpt>
      <trkpt lat="45.83616" lon="4.7148">
        <ele>290.60748</ele>
        <time>2023-06-19T15:27:47.000Z</time>
      </trkpt>
      <trkpt lat="45.83612" lon="4.71485">
        <ele>290.66849</ele>
        <time>2023-06-19T15:27:48.000Z</time>
      </trkpt>
      <trkpt lat="45.83608" lon="4.71488">
        <ele>290.72397</ele>
        <time>2023-06-19T15:27:49.000Z</time>
      </trkpt>
      <trkpt lat="45.83606" lon="4.71492">
        <ele>290.7197</ele>
        <time>2023-06-19T15:27:50.000Z</time>
      </trkpt>
      <trkpt lat="45.83605" lon="4.71496">
        <ele>290.71771</ele>
        <time>2023-06-19T15:27:51.000Z</time>
      </trkpt>
      <trkpt lat="45.83605" lon="4.71501">
        <ele>290.51581</ele>
        <time>2023-06-19T15:27:52.000Z</time>
      </trkpt>
      <trkpt lat="45.83608" lon="4.71509">
        <ele>290.25912</ele>
        <time>2023-06-19T15:27:53.000Z</time>
      </trkpt>
      <trkpt lat="45.8361" lon="4.71515">
        <ele>290.30273</ele>
        <time>2023-06-19T15:27:54.000Z</time>
      </trkpt>
      <trkpt lat="45.83612" lon="4.71521">
        <ele>290.31354</ele>
        <time>2023-06-19T15:27:55.000Z</time>
      </trkpt>
      <trkpt lat="45.83613" lon="4.71526">
        <ele>290.33313</ele>
        <time>2023-06-19T15:27:56.000Z</time>
      </trkpt>
      <trkpt lat="45.83616" lon="4.71533">
        <ele>290.33545</ele>
        <time>2023-06-19T15:27:57.000Z</time>
      </trkpt>
      <trkpt lat="45.83617" lon="4.71539">
        <ele>290.33731</ele>
        <time>2023-06-19T15:27:58.000Z</time>
      </trkpt>
      <trkpt lat="45.83619" lon="4.71546">
        <ele>290.28519</ele>
        <time>2023-06-19T15:27:59.000Z</time>
      </trkpt>
      <trkpt lat="45.83619" lon="4.71552">
        <ele>290.2222</ele>
        <time>2023-06-19T15:28:00.000Z</time>
      </trkpt>
      <trkpt lat="45.83619" lon="4.71557">
        <ele>290.13965</ele>
        <time>2023-06-19T15:28:01.000Z</time>
      </trkpt>
      <trkpt lat="45.83619" lon="4.71564">
        <ele>290.04636</ele>
        <time>2023-06-19T15:28:02.000Z</time>
      </trkpt>
      <trkpt lat="45.83619" lon="4.71569">
        <ele>289.90924</ele>
        <time>2023-06-19T15:28:03.000Z</time>
      </trkpt>
      <trkpt lat="45.83619" lon="4.71575">
        <ele>289.72198</ele>
        <time>2023-06-19T15:28:04.000Z</time>
      </trkpt>
      <trkpt lat="45.8362" lon="4.71582">
        <ele>289.52618</ele>
        <time>2023-06-19T15:28:05.000Z</time>
      </trkpt>
      <trkpt lat="45.83619" lon="4.71587">
        <ele>289.30865</ele>
        <time>2023-06-19T15:28:06.000Z</time>
      </trkpt>
      <trkpt lat="45.83619" lon="4.71591">
        <ele>289.078</ele>
        <time>2023-06-19T15:28:07.000Z</time>
      </trkpt>
      <trkpt lat="45.83619" lon="4.71594">
        <ele>288.84094</ele>
        <time>2023-06-19T15:28:08.000Z</time>
      </trkpt>
      <trkpt lat="45.83619" lon="4.71597">
        <ele>288.59796</ele>
        <time>2023-06-19T15:28:09.000Z</time>
      </trkpt>
      <trkpt lat="45.83619" lon="4.71601">
        <ele>288.44049</ele>
        <time>2023-06-19T15:28:10.000Z</time>
      </trkpt>
      <trkpt lat="45.83619" lon="4.71604">
        <ele>288.6496</ele>
        <time>2023-06-19T15:28:11.000Z</time>
      </trkpt>
      <trkpt lat="45.8362" lon="4.71608">
        <ele>289.12393</ele>
        <time>2023-06-19T15:28:12.000Z</time>
      </trkpt>
      <trkpt lat="45.8362" lon="4.71612">
        <ele>289.33545</ele>
        <time>2023-06-19T15:28:13.000Z</time>
      </trkpt>
      <trkpt lat="45.83621" lon="4.71616">
        <ele>289.51743</ele>
        <time>2023-06-19T15:28:14.000Z</time>
      </trkpt>
      <trkpt lat="45.83622" lon="4.7162">
        <ele>289.67169</ele>
        <time>2023-06-19T15:28:15.000Z</time>
      </trkpt>
      <trkpt lat="45.83624" lon="4.71621">
        <ele>289.73395</ele>
        <time>2023-06-19T15:28:19.000Z</time>
      </trkpt>
      <trkpt lat="45.83626" lon="4.71625">
        <ele>289.75601</ele>
        <time>2023-06-19T15:28:21.000Z</time>
      </trkpt>
      <trkpt lat="45.83627" lon="4.71629">
        <ele>289.79657</ele>
        <time>2023-06-19T15:28:22.000Z</time>
      </trkpt>
      <trkpt lat="45.83629" lon="4.71632">
        <ele>289.85321</ele>
        <time>2023-06-19T15:28:23.000Z</time>
      </trkpt>
      <trkpt lat="45.8363" lon="4.71636">
        <ele>289.84552</ele>
        <time>2023-06-19T15:28:24.000Z</time>
      </trkpt>
      <trkpt lat="45.83632" lon="4.7164">
        <ele>289.79996</ele>
        <time>2023-06-19T15:28:25.000Z</time>
      </trkpt>
      <trkpt lat="45.83635" lon="4.71644">
        <ele>289.7811</ele>
        <time>2023-06-19T15:28:26.000Z</time>
      </trkpt>
      <trkpt lat="45.83637" lon="4.71647">
        <ele>289.73456</ele>
        <time>2023-06-19T15:28:27.000Z</time>
      </trkpt>
      <trkpt lat="45.83642" lon="4.71651">
        <ele>289.72363</ele>
        <time>2023-06-19T15:28:28.000Z</time>
      </trkpt>
      <trkpt lat="45.83646" lon="4.71654">
        <ele>289.66849</ele>
        <time>2023-06-19T15:28:29.000Z</time>
      </trkpt>
      <trkpt lat="45.8365" lon="4.71656">
        <ele>289.58212</ele>
        <time>2023-06-19T15:28:30.000Z</time>
      </trkpt>
      <trkpt lat="45.83654" lon="4.71657">
        <ele>289.56729</ele>
        <time>2023-06-19T15:28:31.000Z</time>
      </trkpt>
      <trkpt lat="45.83659" lon="4.71657">
        <ele>289.58081</ele>
        <time>2023-06-19T15:28:32.000Z</time>
      </trkpt>
      <trkpt lat="45.83663" lon="4.71656">
        <ele>289.59851</ele>
        <time>2023-06-19T15:28:33.000Z</time>
      </trkpt>
      <trkpt lat="45.83667" lon="4.71655">
        <ele>289.86569</ele>
        <time>2023-06-19T15:28:34.000Z</time>
      </trkpt>
      <trkpt lat="45.83674" lon="4.71655">
        <ele>289.71313</ele>
        <time>2023-06-19T15:28:35.000Z</time>
      </trkpt>
      <trkpt lat="45.83681" lon="4.71653">
        <ele>289.4317</ele>
        <time>2023-06-19T15:28:36.000Z</time>
      </trkpt>
      <trkpt lat="45.83686" lon="4.71654">
        <ele>289.40796</ele>
        <time>2023-06-19T15:28:37.000Z</time>
      </trkpt>
      <trkpt lat="45.8369" lon="4.71655">
        <ele>289.66516</ele>
        <time>2023-06-19T15:28:38.000Z</time>
      </trkpt>
      <trkpt lat="45.83696" lon="4.71654">
        <ele>289.99988</ele>
        <time>2023-06-19T15:28:39.000Z</time>
      </trkpt>
      <trkpt lat="45.83698" lon="4.71655">
        <ele>290.43274</ele>
        <time>2023-06-19T15:28:40.000Z</time>
      </trkpt>
      <trkpt lat="45.837" lon="4.71655">
        <ele>290.0239</ele>
        <time>2023-06-19T15:28:41.000Z</time>
      </trkpt>
      <trkpt lat="45.83702" lon="4.71659">
        <ele>289.55957</ele>
        <time>2023-06-19T15:28:42.000Z</time>
      </trkpt>
      <trkpt lat="45.83707" lon="4.71666">
        <ele>289.10837</ele>
        <time>2023-06-19T15:28:43.000Z</time>
      </trkpt>
      <trkpt lat="45.83709" lon="4.71672">
        <ele>288.71027</ele>
        <time>2023-06-19T15:28:44.000Z</time>
      </trkpt>
      <trkpt lat="45.83713" lon="4.71678">
        <ele>288.41</ele>
        <time>2023-06-19T15:28:45.000Z</time>
      </trkpt>
      <trkpt lat="45.83717" lon="4.71685">
        <ele>288.1058</ele>
        <time>2023-06-19T15:28:46.000Z</time>
      </trkpt>
      <trkpt lat="45.8372" lon="4.71692">
        <ele>287.66928</ele>
        <time>2023-06-19T15:28:47.000Z</time>
      </trkpt>
      <trkpt lat="45.83724" lon="4.71698">
        <ele>287.21585</ele>
        <time>2023-06-19T15:28:48.000Z</time>
      </trkpt>
      <trkpt lat="45.83729" lon="4.71702">
        <ele>286.84509</ele>
        <time>2023-06-19T15:28:49.000Z</time>
      </trkpt>
      <trkpt lat="45.83733" lon="4.71703">
        <ele>286.50818</ele>
        <time>2023-06-19T15:28:50.000Z</time>
      </trkpt>
      <trkpt lat="45.83738" lon="4.71703">
        <ele>286.12305</ele>
        <time>2023-06-19T15:28:51.000Z</time>
      </trkpt>
      <trkpt lat="45.83743" lon="4.71703">
        <ele>285.73892</ele>
        <time>2023-06-19T15:28:52.000Z</time>
      </trkpt>
      <trkpt lat="45.83747" lon="4.71703">
        <ele>285.37457</ele>
        <time>2023-06-19T15:28:53.000Z</time>
      </trkpt>
      <trkpt lat="45.83753" lon="4.71706">
        <ele>284.82379</ele>
        <time>2023-06-19T15:28:54.000Z</time>
      </trkpt>
      <trkpt lat="45.83755" lon="4.71706">
        <ele>284.33975</ele>
        <time>2023-06-19T15:28:55.000Z</time>
      </trkpt>
      <trkpt lat="45.83757" lon="4.71705">
        <ele>283.64456</ele>
        <time>2023-06-19T15:28:56.000Z</time>
      </trkpt>
      <trkpt lat="45.8376" lon="4.71703">
        <ele>282.81717</ele>
        <time>2023-06-19T15:28:57.000Z</time>
      </trkpt>
      <trkpt lat="45.83764" lon="4.71703">
        <ele>281.7243</ele>
        <time>2023-06-19T15:28:59.000Z</time>
      </trkpt>
      <trkpt lat="45.83767" lon="4.71704">
        <ele>280.58514</ele>
        <time>2023-06-19T15:29:00.000Z</time>
      </trkpt>
      <trkpt lat="45.8377" lon="4.71705">
        <ele>279.46564</ele>
        <time>2023-06-19T15:29:01.000Z</time>
      </trkpt>
      <trkpt lat="45.83773" lon="4.71704">
        <ele>279.19699</ele>
        <time>2023-06-19T15:29:02.000Z</time>
      </trkpt>
      <trkpt lat="45.83775" lon="4.71704">
        <ele>278.91864</ele>
        <time>2023-06-19T15:29:03.000Z</time>
      </trkpt>
      <trkpt lat="45.83778" lon="4.71705">
        <ele>278.60989</ele>
        <time>2023-06-19T15:29:04.000Z</time>
      </trkpt>
      <trkpt lat="45.83781" lon="4.71705">
        <ele>278.28696</ele>
        <time>2023-06-19T15:29:05.000Z</time>
      </trkpt>
      <trkpt lat="45.83784" lon="4.71706">
        <ele>277.90924</ele>
        <time>2023-06-19T15:29:06.000Z</time>
      </trkpt>
      <trkpt lat="45.83787" lon="4.71707">
        <ele>277.50531</ele>
        <time>2023-06-19T15:29:07.000Z</time>
      </trkpt>
      <trkpt lat="45.8379" lon="4.71707">
        <ele>277.37726</ele>
        <time>2023-06-19T15:29:08.000Z</time>
      </trkpt>
      <trkpt lat="45.83793" lon="4.71707">
        <ele>277.23584</ele>
        <time>2023-06-19T15:29:09.000Z</time>
      </trkpt>
      <trkpt lat="45.83795" lon="4.71707">
        <ele>277.01376</ele>
        <time>2023-06-19T15:29:10.000Z</time>
      </trkpt>
      <trkpt lat="45.83798" lon="4.71707">
        <ele>276.97308</ele>
        <time>2023-06-19T15:29:12.000Z</time>
      </trkpt>
      <trkpt lat="45.838" lon="4.71707">
        <ele>276.99173</ele>
        <time>2023-06-19T15:29:14.000Z</time>
      </trkpt>
      <trkpt lat="45.83802" lon="4.71707">
        <ele>277.01004</ele>
        <time>2023-06-19T15:29:15.000Z</time>
      </trkpt>
      <trkpt lat="45.83805" lon="4.71708">
        <ele>276.99698</ele>
        <time>2023-06-19T15:29:16.000Z</time>
      </trkpt>
      <trkpt lat="45.83808" lon="4.7171">
        <ele>276.92807</ele>
        <time>2023-06-19T15:29:17.000Z</time>
      </trkpt>
      <trkpt lat="45.83811" lon="4.71711">
        <ele>276.74811</ele>
        <time>2023-06-19T15:29:18.000Z</time>
      </trkpt>
      <trkpt lat="45.83814" lon="4.71713">
        <ele>276.58585</ele>
        <time>2023-06-19T15:29:19.000Z</time>
      </trkpt>
      <trkpt lat="45.83817" lon="4.71714">
        <ele>276.51068</ele>
        <time>2023-06-19T15:29:20.000Z</time>
      </trkpt>
      <trkpt lat="45.83819" lon="4.71715">
        <ele>276.45801</ele>
        <time>2023-06-19T15:29:21.000Z</time>
      </trkpt>
      <trkpt lat="45.83821" lon="4.71716">
        <ele>276.44769</ele>
        <time>2023-06-19T15:29:22.000Z</time>
      </trkpt>
      <trkpt lat="45.83824" lon="4.71717">
        <ele>276.39026</ele>
        <time>2023-06-19T15:29:23.000Z</time>
      </trkpt>
      <trkpt lat="45.83826" lon="4.71718">
        <ele>276.34549</ele>
        <time>2023-06-19T15:29:24.000Z</time>
      </trkpt>
      <trkpt lat="45.83829" lon="4.71719">
        <ele>276.30527</ele>
        <time>2023-06-19T15:29:25.000Z</time>
      </trkpt>
      <trkpt lat="45.83832" lon="4.7172">
        <ele>276.22476</ele>
        <time>2023-06-19T15:29:26.000Z</time>
      </trkpt>
      <trkpt lat="45.83835" lon="4.7172">
        <ele>276.15576</ele>
        <time>2023-06-19T15:29:27.000Z</time>
      </trkpt>
      <trkpt lat="45.83837" lon="4.71721">
        <ele>276.09259</ele>
        <time>2023-06-19T15:29:28.000Z</time>
      </trkpt>
      <trkpt lat="45.8384" lon="4.71723">
        <ele>275.98538</ele>
        <time>2023-06-19T15:29:29.000Z</time>
      </trkpt>
      <trkpt lat="45.83843" lon="4.71724">
        <ele>275.88715</ele>
        <time>2023-06-19T15:29:30.000Z</time>
      </trkpt>
      <trkpt lat="45.83846" lon="4.71725">
        <ele>275.82959</ele>
        <time>2023-06-19T15:29:31.000Z</time>
      </trkpt>
      <trkpt lat="45.83849" lon="4.71726">
        <ele>275.84509</ele>
        <time>2023-06-19T15:29:32.000Z</time>
      </trkpt>
      <trkpt lat="45.83851" lon="4.71727">
        <ele>275.68466</ele>
        <time>2023-06-19T15:29:33.000Z</time>
      </trkpt>
      <trkpt lat="45.83854" lon="4.71727">
        <ele>275.5473</ele>
        <time>2023-06-19T15:29:34.000Z</time>
      </trkpt>
      <trkpt lat="45.83857" lon="4.71729">
        <ele>275.85016</ele>
        <time>2023-06-19T15:29:35.000Z</time>
      </trkpt>
      <trkpt lat="45.83859" lon="4.7173">
        <ele>276.09787</ele>
        <time>2023-06-19T15:29:36.000Z</time>
      </trkpt>
      <trkpt lat="45.83862" lon="4.71731">
        <ele>276.33502</ele>
        <time>2023-06-19T15:29:37.000Z</time>
      </trkpt>
      <trkpt lat="45.83865" lon="4.71733">
        <ele>276.64093</ele>
        <time>2023-06-19T15:29:38.000Z</time>
      </trkpt>
      <trkpt lat="45.83869" lon="4.71734">
        <ele>277.00461</ele>
        <time>2023-06-19T15:29:39.000Z</time>
      </trkpt>
      <trkpt lat="45.83872" lon="4.71735">
        <ele>277.29654</ele>
        <time>2023-06-19T15:29:40.000Z</time>
      </trkpt>
      <trkpt lat="45.83874" lon="4.71736">
        <ele>277.55963</ele>
        <time>2023-06-19T15:29:41.000Z</time>
      </trkpt>
      <trkpt lat="45.83877" lon="4.71738">
        <ele>277.89444</ele>
        <time>2023-06-19T15:29:42.000Z</time>
      </trkpt>
      <trkpt lat="45.8388" lon="4.71739">
        <ele>278.44641</ele>
        <time>2023-06-19T15:29:43.000Z</time>
      </trkpt>
      <trkpt lat="45.83882" lon="4.7174">
        <ele>278.99847</ele>
        <time>2023-06-19T15:29:44.000Z</time>
      </trkpt>
      <trkpt lat="45.83885" lon="4.71741">
        <ele>279.64783</ele>
        <time>2023-06-19T15:29:45.000Z</time>
      </trkpt>
      <trkpt lat="45.83889" lon="4.71743">
        <ele>280.37628</ele>
        <time>2023-06-19T15:29:47.000Z</time>
      </trkpt>
      <trkpt lat="45.83891" lon="4.71744">
        <ele>281.1264</ele>
        <time>2023-06-19T15:29:48.000Z</time>
      </trkpt>
      <trkpt lat="45.83893" lon="4.71745">
        <ele>281.86118</ele>
        <time>2023-06-19T15:29:49.000Z</time>
      </trkpt>
      <trkpt lat="45.83895" lon="4.71745">
        <ele>282.67218</ele>
        <time>2023-06-19T15:29:50.000Z</time>
      </trkpt>
      <trkpt lat="45.83898" lon="4.71746">
        <ele>283.41812</ele>
        <time>2023-06-19T15:29:51.000Z</time>
      </trkpt>
      <trkpt lat="45.839" lon="4.71747">
        <ele>284.21173</ele>
        <time>2023-06-19T15:29:52.000Z</time>
      </trkpt>
      <trkpt lat="45.83902" lon="4.71748">
        <ele>285.03122</ele>
        <time>2023-06-19T15:29:53.000Z</time>
      </trkpt>
      <trkpt lat="45.83904" lon="4.71749">
        <ele>285.90128</ele>
        <time>2023-06-19T15:29:54.000Z</time>
      </trkpt>
      <trkpt lat="45.83906" lon="4.7175">
        <ele>286.59753</ele>
        <time>2023-06-19T15:29:55.000Z</time>
      </trkpt>
      <trkpt lat="45.83908" lon="4.7175">
        <ele>286.84601</ele>
        <time>2023-06-19T15:29:56.000Z</time>
      </trkpt>
      <trkpt lat="45.8391" lon="4.7175">
        <ele>287.19257</ele>
        <time>2023-06-19T15:29:57.000Z</time>
      </trkpt>
      <trkpt lat="45.83913" lon="4.71751">
        <ele>287.51492</ele>
        <time>2023-06-19T15:29:58.000Z</time>
      </trkpt>
      <trkpt lat="45.83914" lon="4.71752">
        <ele>287.82187</ele>
        <time>2023-06-19T15:29:59.000Z</time>
      </trkpt>
      <trkpt lat="45.83917" lon="4.71753">
        <ele>288.06992</ele>
        <time>2023-06-19T15:30:01.000Z</time>
      </trkpt>
      <trkpt lat="45.83915" lon="4.71751">
        <ele>288.27774</ele>
        <time>2023-06-19T15:30:47.000Z</time>
      </trkpt>
      <trkpt lat="45.83913" lon="4.7175">
        <ele>288.43576</ele>
        <time>2023-06-19T15:30:48.000Z</time>
      </trkpt>
      <trkpt lat="45.83911" lon="4.71749">
        <ele>288.46982</ele>
        <time>2023-06-19T15:30:49.000Z</time>
      </trkpt>
      <trkpt lat="45.83908" lon="4.71749">
        <ele>288.31216</ele>
        <time>2023-06-19T15:30:50.000Z</time>
      </trkpt>
      <trkpt lat="45.83906" lon="4.71748">
        <ele>288.22299</ele>
        <time>2023-06-19T15:30:51.000Z</time>
      </trkpt>
      <trkpt lat="45.83904" lon="4.71747">
        <ele>288.11667</ele>
        <time>2023-06-19T15:30:52.000Z</time>
      </trkpt>
      <trkpt lat="45.839" lon="4.71746">
        <ele>287.9537</ele>
        <time>2023-06-19T15:30:53.000Z</time>
      </trkpt>
      <trkpt lat="45.83897" lon="4.71744">
        <ele>287.86594</ele>
        <time>2023-06-19T15:30:54.000Z</time>
      </trkpt>
      <trkpt lat="45.83894" lon="4.71742">
        <ele>287.83798</ele>
        <time>2023-06-19T15:30:55.000Z</time>
      </trkpt>
      <trkpt lat="45.83889" lon="4.71739">
        <ele>287.76733</ele>
        <time>2023-06-19T15:30:56.000Z</time>
      </trkpt>
      <trkpt lat="45.83882" lon="4.71736">
        <ele>287.67383</ele>
        <time>2023-06-19T15:30:57.000Z</time>
      </trkpt>
      <trkpt lat="45.83877" lon="4.71733">
        <ele>287.54706</ele>
        <time>2023-06-19T15:30:58.000Z</time>
      </trkpt>
      <trkpt lat="45.83873" lon="4.7173">
        <ele>287.42523</ele>
        <time>2023-06-19T15:30:59.000Z</time>
      </trkpt>
      <trkpt lat="45.83867" lon="4.71729">
        <ele>286.80093</ele>
        <time>2023-06-19T15:31:00.000Z</time>
      </trkpt>
      <trkpt lat="45.83861" lon="4.71727">
        <ele>286.47241</ele>
        <time>2023-06-19T15:31:01.000Z</time>
      </trkpt>
      <trkpt lat="45.83856" lon="4.71725">
        <ele>286.17749</ele>
        <time>2023-06-19T15:31:02.000Z</time>
      </trkpt>
      <trkpt lat="45.83851" lon="4.71724">
        <ele>285.86917</ele>
        <time>2023-06-19T15:31:03.000Z</time>
      </trkpt>
      <trkpt lat="45.83846" lon="4.71722">
        <ele>285.55066</ele>
        <time>2023-06-19T15:31:04.000Z</time>
      </trkpt>
      <trkpt lat="45.83841" lon="4.71721">
        <ele>285.28238</ele>
        <time>2023-06-19T15:31:05.000Z</time>
      </trkpt>
      <trkpt lat="45.83837" lon="4.7172">
        <ele>285.07993</ele>
        <time>2023-06-19T15:31:06.000Z</time>
      </trkpt>
      <trkpt lat="45.83834" lon="4.7172">
        <ele>285.01382</ele>
        <time>2023-06-19T15:31:07.000Z</time>
      </trkpt>
      <trkpt lat="45.83831" lon="4.71719">
        <ele>284.98291</ele>
        <time>2023-06-19T15:31:08.000Z</time>
      </trkpt>
      <trkpt lat="45.83829" lon="4.71718">
        <ele>285.00598</ele>
        <time>2023-06-19T15:31:09.000Z</time>
      </trkpt>
      <trkpt lat="45.83826" lon="4.71717">
        <ele>285.0498</ele>
        <time>2023-06-19T15:31:10.000Z</time>
      </trkpt>
      <trkpt lat="45.83824" lon="4.71717">
        <ele>285.04486</ele>
        <time>2023-06-19T15:31:11.000Z</time>
      </trkpt>
      <trkpt lat="45.83822" lon="4.71715">
        <ele>285.01205</ele>
        <time>2023-06-19T15:31:12.000Z</time>
      </trkpt>
      <trkpt lat="45.83819" lon="4.71714">
        <ele>285.01431</ele>
        <time>2023-06-19T15:31:14.000Z</time>
      </trkpt>
      <trkpt lat="45.83816" lon="4.71714">
        <ele>284.9252</ele>
        <time>2023-06-19T15:31:15.000Z</time>
      </trkpt>
      <trkpt lat="45.83816" lon="4.71716">
        <ele>284.64655</ele>
        <time>2023-06-19T15:31:20.000Z</time>
      </trkpt>
      <trkpt lat="45.83819" lon="4.71717">
        <ele>284.76544</ele>
        <time>2023-06-19T15:32:48.000Z</time>
      </trkpt>
      <trkpt lat="45.8382" lon="4.71717">
        <ele>284.96722</ele>
        <time>2023-06-19T15:32:49.000Z</time>
      </trkpt>
      <trkpt lat="45.83822" lon="4.71718">
        <ele>285.12619</ele>
        <time>2023-06-19T15:32:50.000Z</time>
      </trkpt>
      <trkpt lat="45.83824" lon="4.7172">
        <ele>285.24908</ele>
        <time>2023-06-19T15:32:51.000Z</time>
      </trkpt>
      <trkpt lat="45.83827" lon="4.71721">
        <ele>285.95428</ele>
        <time>2023-06-19T15:32:52.000Z</time>
      </trkpt>
      <trkpt lat="45.83829" lon="4.71721">
        <ele>286.48477</ele>
        <time>2023-06-19T15:32:53.000Z</time>
      </trkpt>
      <trkpt lat="45.83831" lon="4.71721">
        <ele>286.93402</ele>
        <time>2023-06-19T15:32:54.000Z</time>
      </trkpt>
      <trkpt lat="45.83835" lon="4.71721">
        <ele>287.28265</ele>
        <time>2023-06-19T15:32:55.000Z</time>
      </trkpt>
      <trkpt lat="45.83838" lon="4.71721">
        <ele>287.53653</ele>
        <time>2023-06-19T15:32:56.000Z</time>
      </trkpt>
      <trkpt lat="45.83842" lon="4.71722">
        <ele>287.95493</ele>
        <time>2023-06-19T15:32:57.000Z</time>
      </trkpt>
      <trkpt lat="45.83846" lon="4.71724">
        <ele>288.31635</ele>
        <time>2023-06-19T15:32:58.000Z</time>
      </trkpt>
      <trkpt lat="45.83849" lon="4.71725">
        <ele>288.67648</ele>
        <time>2023-06-19T15:32:59.000Z</time>
      </trkpt>
      <trkpt lat="45.83853" lon="4.71727">
        <ele>289.24585</ele>
        <time>2023-06-19T15:33:00.000Z</time>
      </trkpt>
      <trkpt lat="45.83856" lon="4.71728">
        <ele>289.83945</ele>
        <time>2023-06-19T15:33:01.000Z</time>
      </trkpt>
      <trkpt lat="45.83859" lon="4.71728">
        <ele>290.534</ele>
        <time>2023-06-19T15:33:02.000Z</time>
      </trkpt>
      <trkpt lat="45.83863" lon="4.7173">
        <ele>290.87189</ele>
        <time>2023-06-19T15:33:03.000Z</time>
      </trkpt>
      <trkpt lat="45.83867" lon="4.7173">
        <ele>291.24973</ele>
        <time>2023-06-19T15:33:04.000Z</time>
      </trkpt>
      <trkpt lat="45.83871" lon="4.71731">
        <ele>291.66806</ele>
        <time>2023-06-19T15:33:05.000Z</time>
      </trkpt>
      <trkpt lat="45.83874" lon="4.71732">
        <ele>292.05533</ele>
        <time>2023-06-19T15:33:06.000Z</time>
      </trkpt>
      <trkpt lat="45.83878" lon="4.71733">
        <ele>292.65726</ele>
        <time>2023-06-19T15:33:07.000Z</time>
      </trkpt>
      <trkpt lat="45.83882" lon="4.71735">
        <ele>292.966</ele>
        <time>2023-06-19T15:33:08.000Z</time>
      </trkpt>
      <trkpt lat="45.83885" lon="4.71736">
        <ele>293.14761</ele>
        <time>2023-06-19T15:33:09.000Z</time>
      </trkpt>
      <trkpt lat="45.83888" lon="4.71737">
        <ele>293.30649</ele>
        <time>2023-06-19T15:33:10.000Z</time>
      </trkpt>
      <trkpt lat="45.83891" lon="4.71739">
        <ele>293.39703</ele>
        <time>2023-06-19T15:33:11.000Z</time>
      </trkpt>
      <trkpt lat="45.83894" lon="4.7174">
        <ele>293.29935</ele>
        <time>2023-06-19T15:33:12.000Z</time>
      </trkpt>
      <trkpt lat="45.83897" lon="4.71742">
        <ele>293.13745</ele>
        <time>2023-06-19T15:33:13.000Z</time>
      </trkpt>
      <trkpt lat="45.83901" lon="4.71743">
        <ele>293.01459</ele>
        <time>2023-06-19T15:33:14.000Z</time>
      </trkpt>
      <trkpt lat="45.83905" lon="4.71744">
        <ele>293.01019</ele>
        <time>2023-06-19T15:33:15.000Z</time>
      </trkpt>
      <trkpt lat="45.83909" lon="4.71745">
        <ele>293.1424</ele>
        <time>2023-06-19T15:33:16.000Z</time>
      </trkpt>
      <trkpt lat="45.83912" lon="4.71747">
        <ele>293.11597</ele>
        <time>2023-06-19T15:33:17.000Z</time>
      </trkpt>
      <trkpt lat="45.83916" lon="4.71748">
        <ele>293.14203</ele>
        <time>2023-06-19T15:33:18.000Z</time>
      </trkpt>
      <trkpt lat="45.8392" lon="4.7175">
        <ele>293.23773</ele>
        <time>2023-06-19T15:33:19.000Z</time>
      </trkpt>
      <trkpt lat="45.83924" lon="4.71752">
        <ele>293.21219</ele>
        <time>2023-06-19T15:33:20.000Z</time>
      </trkpt>
      <trkpt lat="45.83928" lon="4.71754">
        <ele>293.15097</ele>
        <time>2023-06-19T15:33:21.000Z</time>
      </trkpt>
      <trkpt lat="45.83932" lon="4.71757">
        <ele>292.84964</ele>
        <time>2023-06-19T15:33:22.000Z</time>
      </trkpt>
      <trkpt lat="45.83936" lon="4.71759">
        <ele>292.92093</ele>
        <time>2023-06-19T15:33:23.000Z</time>
      </trkpt>
      <trkpt lat="45.83939" lon="4.71763">
        <ele>292.89169</ele>
        <time>2023-06-19T15:33:24.000Z</time>
      </trkpt>
      <trkpt lat="45.83941" lon="4.71767">
        <ele>292.80484</ele>
        <time>2023-06-19T15:33:25.000Z</time>
      </trkpt>
      <trkpt lat="45.83943" lon="4.7177">
        <ele>292.76923</ele>
        <time>2023-06-19T15:33:26.000Z</time>
      </trkpt>
      <trkpt lat="45.83945" lon="4.71775">
        <ele>292.65619</ele>
        <time>2023-06-19T15:33:27.000Z</time>
      </trkpt>
      <trkpt lat="45.83947" lon="4.71779">
        <ele>292.4509</ele>
        <time>2023-06-19T15:33:28.000Z</time>
      </trkpt>
      <trkpt lat="45.83948" lon="4.71784">
        <ele>292.216</ele>
        <time>2023-06-19T15:33:29.000Z</time>
      </trkpt>
      <trkpt lat="45.83949" lon="4.7179">
        <ele>292.11871</ele>
        <time>2023-06-19T15:33:30.000Z</time>
      </trkpt>
      <trkpt lat="45.8395" lon="4.71794">
        <ele>292.05484</ele>
        <time>2023-06-19T15:33:31.000Z</time>
      </trkpt>
      <trkpt lat="45.83951" lon="4.71799">
        <ele>292.19284</ele>
        <time>2023-06-19T15:33:32.000Z</time>
      </trkpt>
      <trkpt lat="45.83953" lon="4.71805">
        <ele>292.25238</ele>
        <time>2023-06-19T15:33:33.000Z</time>
      </trkpt>
      <trkpt lat="45.83954" lon="4.7181">
        <ele>292.35126</ele>
        <time>2023-06-19T15:33:34.000Z</time>
      </trkpt>
      <trkpt lat="45.83959" lon="4.71816">
        <ele>292.29944</ele>
        <time>2023-06-19T15:33:35.000Z</time>
      </trkpt>
      <trkpt lat="45.83962" lon="4.71821">
        <ele>292.2374</ele>
        <time>2023-06-19T15:33:36.000Z</time>
      </trkpt>
      <trkpt lat="45.83966" lon="4.71825">
        <ele>292.18533</ele>
        <time>2023-06-19T15:33:37.000Z</time>
      </trkpt>
      <trkpt lat="45.83969" lon="4.7183">
        <ele>292.08099</ele>
        <time>2023-06-19T15:33:38.000Z</time>
      </trkpt>
      <trkpt lat="45.83971" lon="4.71835">
        <ele>291.89606</ele>
        <time>2023-06-19T15:33:39.000Z</time>
      </trkpt>
      <trkpt lat="45.83976" lon="4.71842">
        <ele>291.70554</ele>
        <time>2023-06-19T15:33:40.000Z</time>
      </trkpt>
      <trkpt lat="45.83979" lon="4.71847">
        <ele>291.50543</ele>
        <time>2023-06-19T15:33:41.000Z</time>
      </trkpt>
      <trkpt lat="45.83981" lon="4.71852">
        <ele>291.44281</ele>
        <time>2023-06-19T15:33:42.000Z</time>
      </trkpt>
      <trkpt lat="45.83985" lon="4.71857">
        <ele>291.30981</ele>
        <time>2023-06-19T15:33:43.000Z</time>
      </trkpt>
      <trkpt lat="45.83988" lon="4.71862">
        <ele>291.2207</ele>
        <time>2023-06-19T15:33:44.000Z</time>
      </trkpt>
      <trkpt lat="45.8399" lon="4.71865">
        <ele>290.92651</ele>
        <time>2023-06-19T15:33:45.000Z</time>
      </trkpt>
      <trkpt lat="45.83994" lon="4.71871">
        <ele>290.67416</ele>
        <time>2023-06-19T15:33:46.000Z</time>
      </trkpt>
      <trkpt lat="45.83997" lon="4.71875">
        <ele>290.38068</ele>
        <time>2023-06-19T15:33:47.000Z</time>
      </trkpt>
      <trkpt lat="45.84" lon="4.71879">
        <ele>290.16089</ele>
        <time>2023-06-19T15:33:48.000Z</time>
      </trkpt>
      <trkpt lat="45.84003" lon="4.71884">
        <ele>289.97824</ele>
        <time>2023-06-19T15:33:49.000Z</time>
      </trkpt>
      <trkpt lat="45.84005" lon="4.71889">
        <ele>289.82379</ele>
        <time>2023-06-19T15:33:50.000Z</time>
      </trkpt>
      <trkpt lat="45.84006" lon="4.71894">
        <ele>289.71588</ele>
        <time>2023-06-19T15:33:51.000Z</time>
      </trkpt>
      <trkpt lat="45.84007" lon="4.719">
        <ele>289.40097</ele>
        <time>2023-06-19T15:33:52.000Z</time>
      </trkpt>
      <trkpt lat="45.84007" lon="4.71907">
        <ele>289.19055</ele>
        <time>2023-06-19T15:33:53.000Z</time>
      </trkpt>
      <trkpt lat="45.84008" lon="4.71915">
        <ele>289.02505</ele>
        <time>2023-06-19T15:33:54.000Z</time>
      </trkpt>
      <trkpt lat="45.84009" lon="4.71923">
        <ele>288.95306</ele>
        <time>2023-06-19T15:33:55.000Z</time>
      </trkpt>
      <trkpt lat="45.8401" lon="4.71932">
        <ele>288.52094</ele>
        <time>2023-06-19T15:33:56.000Z</time>
      </trkpt>
      <trkpt lat="45.8401" lon="4.71941">
        <ele>288.12552</ele>
        <time>2023-06-19T15:33:57.000Z</time>
      </trkpt>
      <trkpt lat="45.8401" lon="4.71951">
        <ele>287.74252</ele>
        <time>2023-06-19T15:33:58.000Z</time>
      </trkpt>
      <trkpt lat="45.84011" lon="4.71961">
        <ele>287.37088</ele>
        <time>2023-06-19T15:33:59.000Z</time>
      </trkpt>
      <trkpt lat="45.84012" lon="4.71972">
        <ele>286.91641</ele>
        <time>2023-06-19T15:34:00.000Z</time>
      </trkpt>
      <trkpt lat="45.84013" lon="4.71983">
        <ele>286.45123</ele>
        <time>2023-06-19T15:34:01.000Z</time>
      </trkpt>
      <trkpt lat="45.84013" lon="4.71994">
        <ele>285.93353</ele>
        <time>2023-06-19T15:34:02.000Z</time>
      </trkpt>
      <trkpt lat="45.84013" lon="4.72005">
        <ele>285.45081</ele>
        <time>2023-06-19T15:34:03.000Z</time>
      </trkpt>
      <trkpt lat="45.84013" lon="4.72017">
        <ele>284.98752</ele>
        <time>2023-06-19T15:34:04.000Z</time>
      </trkpt>
      <trkpt lat="45.84013" lon="4.72028">
        <ele>284.70755</ele>
        <time>2023-06-19T15:34:05.000Z</time>
      </trkpt>
      <trkpt lat="45.84014" lon="4.72039">
        <ele>284.38867</ele>
        <time>2023-06-19T15:34:06.000Z</time>
      </trkpt>
      <trkpt lat="45.84014" lon="4.72051">
        <ele>284.15063</ele>
        <time>2023-06-19T15:34:07.000Z</time>
      </trkpt>
      <trkpt lat="45.84015" lon="4.72061">
        <ele>283.83218</ele>
        <time>2023-06-19T15:34:08.000Z</time>
      </trkpt>
      <trkpt lat="45.84015" lon="4.72071">
        <ele>283.55356</ele>
        <time>2023-06-19T15:34:09.000Z</time>
      </trkpt>
      <trkpt lat="45.84017" lon="4.72082">
        <ele>283.15601</ele>
        <time>2023-06-19T15:34:10.000Z</time>
      </trkpt>
      <trkpt lat="45.84018" lon="4.72091">
        <ele>282.72601</ele>
        <time>2023-06-19T15:34:11.000Z</time>
      </trkpt>
      <trkpt lat="45.84018" lon="4.721">
        <ele>282.37833</ele>
        <time>2023-06-19T15:34:12.000Z</time>
      </trkpt>
      <trkpt lat="45.84019" lon="4.72109">
        <ele>282.03043</ele>
        <time>2023-06-19T15:34:13.000Z</time>
      </trkpt>
      <trkpt lat="45.84019" lon="4.72116">
        <ele>281.60324</ele>
        <time>2023-06-19T15:34:14.000Z</time>
      </trkpt>
      <trkpt lat="45.8402" lon="4.72124">
        <ele>281.21463</ele>
        <time>2023-06-19T15:34:15.000Z</time>
      </trkpt>
      <trkpt lat="45.8402" lon="4.7213">
        <ele>281.16052</ele>
        <time>2023-06-19T15:34:16.000Z</time>
      </trkpt>
      <trkpt lat="45.84021" lon="4.72137">
        <ele>281.08405</ele>
        <time>2023-06-19T15:34:17.000Z</time>
      </trkpt>
      <trkpt lat="45.84021" lon="4.72143">
        <ele>281.04694</ele>
        <time>2023-06-19T15:34:18.000Z</time>
      </trkpt>
      <trkpt lat="45.8402" lon="4.72149">
        <ele>280.98102</ele>
        <time>2023-06-19T15:34:19.000Z</time>
      </trkpt>
      <trkpt lat="45.8402" lon="4.72154">
        <ele>280.9523</ele>
        <time>2023-06-19T15:34:20.000Z</time>
      </trkpt>
      <trkpt lat="45.8402" lon="4.72158">
        <ele>280.92303</ele>
        <time>2023-06-19T15:34:21.000Z</time>
      </trkpt>
      <trkpt lat="45.84022" lon="4.72163">
        <ele>280.57245</ele>
        <time>2023-06-19T15:34:22.000Z</time>
      </trkpt>
      <trkpt lat="45.84025" lon="4.72165">
        <ele>280.23819</ele>
        <time>2023-06-19T15:34:23.000Z</time>
      </trkpt>
      <trkpt lat="45.84028" lon="4.72167">
        <ele>279.95276</ele>
        <time>2023-06-19T15:34:24.000Z</time>
      </trkpt>
      <trkpt lat="45.84032" lon="4.72167">
        <ele>279.62329</ele>
        <time>2023-06-19T15:34:25.000Z</time>
      </trkpt>
      <trkpt lat="45.84036" lon="4.72166">
        <ele>279.43866</ele>
        <time>2023-06-19T15:34:26.000Z</time>
      </trkpt>
      <trkpt lat="45.84039" lon="4.72165">
        <ele>279.39667</ele>
        <time>2023-06-19T15:34:27.000Z</time>
      </trkpt>
      <trkpt lat="45.84043" lon="4.72164">
        <ele>279.37079</ele>
        <time>2023-06-19T15:34:28.000Z</time>
      </trkpt>
      <trkpt lat="45.84046" lon="4.72163">
        <ele>279.36652</ele>
        <time>2023-06-19T15:34:29.000Z</time>
      </trkpt>
      <trkpt lat="45.8405" lon="4.72162">
        <ele>279.3877</ele>
        <time>2023-06-19T15:34:30.000Z</time>
      </trkpt>
      <trkpt lat="45.84053" lon="4.72161">
        <ele>279.17932</ele>
        <time>2023-06-19T15:34:31.000Z</time>
      </trkpt>
      <trkpt lat="45.84057" lon="4.72159">
        <ele>278.98233</ele>
        <time>2023-06-19T15:34:32.000Z</time>
      </trkpt>
      <trkpt lat="45.8406" lon="4.72157">
        <ele>278.75558</ele>
        <time>2023-06-19T15:34:33.000Z</time>
      </trkpt>
      <trkpt lat="45.84064" lon="4.72155">
        <ele>278.52814</ele>
        <time>2023-06-19T15:34:34.000Z</time>
      </trkpt>
      <trkpt lat="45.84067" lon="4.72153">
        <ele>278.29623</ele>
        <time>2023-06-19T15:34:35.000Z</time>
      </trkpt>
      <trkpt lat="45.84071" lon="4.72151">
        <ele>278.05914</ele>
        <time>2023-06-19T15:34:36.000Z</time>
      </trkpt>
      <trkpt lat="45.84075" lon="4.72149">
        <ele>277.81668</ele>
        <time>2023-06-19T15:34:37.000Z</time>
      </trkpt>
      <trkpt lat="45.84078" lon="4.72146">
        <ele>277.88309</ele>
        <time>2023-06-19T15:34:38.000Z</time>
      </trkpt>
      <trkpt lat="45.84081" lon="4.72144">
        <ele>277.98004</ele>
        <time>2023-06-19T15:34:39.000Z</time>
      </trkpt>
      <trkpt lat="45.84084" lon="4.72142">
        <ele>278.19568</ele>
        <time>2023-06-19T15:34:40.000Z</time>
      </trkpt>
      <trkpt lat="45.84087" lon="4.72141">
        <ele>278.40756</ele>
        <time>2023-06-19T15:34:41.000Z</time>
      </trkpt>
      <trkpt lat="45.84091" lon="4.7214">
        <ele>278.96802</ele>
        <time>2023-06-19T15:34:42.000Z</time>
      </trkpt>
      <trkpt lat="45.84095" lon="4.72139">
        <ele>279.52728</ele>
        <time>2023-06-19T15:34:43.000Z</time>
      </trkpt>
      <trkpt lat="45.84098" lon="4.72137">
        <ele>280.17804</ele>
        <time>2023-06-19T15:34:44.000Z</time>
      </trkpt>
      <trkpt lat="45.84102" lon="4.72135">
        <ele>280.6015</ele>
        <time>2023-06-19T15:34:45.000Z</time>
      </trkpt>
      <trkpt lat="45.84105" lon="4.72133">
        <ele>280.94562</ele>
        <time>2023-06-19T15:34:46.000Z</time>
      </trkpt>
      <trkpt lat="45.84109" lon="4.7213">
        <ele>281.12622</ele>
        <time>2023-06-19T15:34:47.000Z</time>
      </trkpt>
      <trkpt lat="45.84112" lon="4.72128">
        <ele>281.31952</ele>
        <time>2023-06-19T15:34:48.000Z</time>
      </trkpt>
      <trkpt lat="45.84116" lon="4.72126">
        <ele>281.50864</ele>
        <time>2023-06-19T15:34:49.000Z</time>
      </trkpt>
      <trkpt lat="45.8412" lon="4.72124">
        <ele>281.65616</ele>
        <time>2023-06-19T15:34:50.000Z</time>
      </trkpt>
      <trkpt lat="45.84123" lon="4.72121">
        <ele>282.04196</ele>
        <time>2023-06-19T15:34:51.000Z</time>
      </trkpt>
      <trkpt lat="45.84127" lon="4.72119">
        <ele>282.40619</ele>
        <time>2023-06-19T15:34:52.000Z</time>
      </trkpt>
      <trkpt lat="45.84131" lon="4.72117">
        <ele>282.75775</ele>
        <time>2023-06-19T15:34:53.000Z</time>
      </trkpt>
      <trkpt lat="45.84135" lon="4.72114">
        <ele>283.12656</ele>
        <time>2023-06-19T15:34:54.000Z</time>
      </trkpt>
      <trkpt lat="45.84139" lon="4.72112">
        <ele>283.47757</ele>
        <time>2023-06-19T15:34:55.000Z</time>
      </trkpt>
      <trkpt lat="45.84143" lon="4.72108">
        <ele>283.79584</ele>
        <time>2023-06-19T15:34:56.000Z</time>
      </trkpt>
      <trkpt lat="45.84146" lon="4.72105">
        <ele>284.07724</ele>
        <time>2023-06-19T15:34:57.000Z</time>
      </trkpt>
      <trkpt lat="45.8415" lon="4.72101">
        <ele>284.02557</ele>
        <time>2023-06-19T15:34:58.000Z</time>
      </trkpt>
      <trkpt lat="45.84154" lon="4.72096">
        <ele>283.96277</ele>
        <time>2023-06-19T15:34:59.000Z</time>
      </trkpt>
      <trkpt lat="45.84158" lon="4.72091">
        <ele>283.90997</ele>
        <time>2023-06-19T15:35:00.000Z</time>
      </trkpt>
      <trkpt lat="45.84163" lon="4.72087">
        <ele>283.86346</ele>
        <time>2023-06-19T15:35:01.000Z</time>
      </trkpt>
      <trkpt lat="45.84168" lon="4.72082">
        <ele>283.82892</ele>
        <time>2023-06-19T15:35:02.000Z</time>
      </trkpt>
      <trkpt lat="45.84173" lon="4.72077">
        <ele>283.77875</ele>
        <time>2023-06-19T15:35:03.000Z</time>
      </trkpt>
      <trkpt lat="45.84177" lon="4.72074">
        <ele>283.56015</ele>
        <time>2023-06-19T15:35:04.000Z</time>
      </trkpt>
      <trkpt lat="45.84182" lon="4.72068">
        <ele>283.67377</ele>
        <time>2023-06-19T15:35:05.000Z</time>
      </trkpt>
      <trkpt lat="45.84187" lon="4.72065">
        <ele>283.69568</ele>
        <time>2023-06-19T15:35:06.000Z</time>
      </trkpt>
      <trkpt lat="45.84192" lon="4.7206">
        <ele>283.6973</ele>
        <time>2023-06-19T15:35:07.000Z</time>
      </trkpt>
      <trkpt lat="45.84196" lon="4.72056">
        <ele>283.68768</ele>
        <time>2023-06-19T15:35:08.000Z</time>
      </trkpt>
      <trkpt lat="45.84201" lon="4.72051">
        <ele>283.65936</ele>
        <time>2023-06-19T15:35:09.000Z</time>
      </trkpt>
      <trkpt lat="45.84206" lon="4.72047">
        <ele>283.65265</ele>
        <time>2023-06-19T15:35:10.000Z</time>
      </trkpt>
      <trkpt lat="45.8421" lon="4.72042">
        <ele>283.6442</ele>
        <time>2023-06-19T15:35:11.000Z</time>
      </trkpt>
      <trkpt lat="45.84216" lon="4.72039">
        <ele>283.61639</ele>
        <time>2023-06-19T15:35:12.000Z</time>
      </trkpt>
      <trkpt lat="45.84219" lon="4.72035">
        <ele>283.60809</ele>
        <time>2023-06-19T15:35:13.000Z</time>
      </trkpt>
      <trkpt lat="45.84222" lon="4.72033">
        <ele>283.65598</ele>
        <time>2023-06-19T15:35:14.000Z</time>
      </trkpt>
      <trkpt lat="45.84226" lon="4.72029">
        <ele>283.66626</ele>
        <time>2023-06-19T15:35:15.000Z</time>
      </trkpt>
      <trkpt lat="45.8423" lon="4.72027">
        <ele>283.69327</ele>
        <time>2023-06-19T15:35:16.000Z</time>
      </trkpt>
      <trkpt lat="45.84235" lon="4.72027">
        <ele>283.78555</ele>
        <time>2023-06-19T15:35:17.000Z</time>
      </trkpt>
      <trkpt lat="45.84238" lon="4.72024">
        <ele>283.97809</ele>
        <time>2023-06-19T15:35:18.000Z</time>
      </trkpt>
      <trkpt lat="45.84244" lon="4.72021">
        <ele>283.64853</ele>
        <time>2023-06-19T15:35:20.000Z</time>
      </trkpt>
      <trkpt lat="45.84249" lon="4.72019">
        <ele>283.17657</ele>
        <time>2023-06-19T15:35:21.000Z</time>
      </trkpt>
      <trkpt lat="45.84253" lon="4.72016">
        <ele>283.38828</ele>
        <time>2023-06-19T15:35:22.000Z</time>
      </trkpt>
      <trkpt lat="45.84258" lon="4.72013">
        <ele>283.2215</ele>
        <time>2023-06-19T15:35:23.000Z</time>
      </trkpt>
      <trkpt lat="45.84262" lon="4.7201">
        <ele>283.05145</ele>
        <time>2023-06-19T15:35:24.000Z</time>
      </trkpt>
      <trkpt lat="45.84267" lon="4.72007">
        <ele>282.45694</ele>
        <time>2023-06-19T15:35:25.000Z</time>
      </trkpt>
      <trkpt lat="45.84273" lon="4.72004">
        <ele>281.81186</ele>
        <time>2023-06-19T15:35:26.000Z</time>
      </trkpt>
      <trkpt lat="45.84278" lon="4.72001">
        <ele>281.17856</ele>
        <time>2023-06-19T15:35:27.000Z</time>
      </trkpt>
      <trkpt lat="45.84285" lon="4.71998">
        <ele>280.50446</ele>
        <time>2023-06-19T15:35:28.000Z</time>
      </trkpt>
      <trkpt lat="45.8429" lon="4.71995">
        <ele>279.83163</ele>
        <time>2023-06-19T15:35:29.000Z</time>
      </trkpt>
      <trkpt lat="45.84296" lon="4.71993">
        <ele>279.14899</ele>
        <time>2023-06-19T15:35:30.000Z</time>
      </trkpt>
      <trkpt lat="45.84302" lon="4.7199">
        <ele>278.44028</ele>
        <time>2023-06-19T15:35:31.000Z</time>
      </trkpt>
      <trkpt lat="45.84308" lon="4.71987">
        <ele>277.74847</ele>
        <time>2023-06-19T15:35:32.000Z</time>
      </trkpt>
      <trkpt lat="45.84314" lon="4.71984">
        <ele>277.04858</ele>
        <time>2023-06-19T15:35:33.000Z</time>
      </trkpt>
      <trkpt lat="45.84321" lon="4.71981">
        <ele>276.34839</ele>
        <time>2023-06-19T15:35:34.000Z</time>
      </trkpt>
      <trkpt lat="45.84327" lon="4.71978">
        <ele>275.54782</ele>
        <time>2023-06-19T15:35:35.000Z</time>
      </trkpt>
      <trkpt lat="45.84333" lon="4.71975">
        <ele>274.79575</ele>
        <time>2023-06-19T15:35:36.000Z</time>
      </trkpt>
      <trkpt lat="45.84339" lon="4.71971">
        <ele>274.03958</ele>
        <time>2023-06-19T15:35:37.000Z</time>
      </trkpt>
      <trkpt lat="45.84346" lon="4.71969">
        <ele>273.22028</ele>
        <time>2023-06-19T15:35:38.000Z</time>
      </trkpt>
      <trkpt lat="45.84352" lon="4.71967">
        <ele>272.32428</ele>
        <time>2023-06-19T15:35:39.000Z</time>
      </trkpt>
      <trkpt lat="45.84358" lon="4.71964">
        <ele>272.01819</ele>
        <time>2023-06-19T15:35:40.000Z</time>
      </trkpt>
      <trkpt lat="45.84364" lon="4.7196">
        <ele>271.75092</ele>
        <time>2023-06-19T15:35:41.000Z</time>
      </trkpt>
      <trkpt lat="45.84371" lon="4.71958">
        <ele>270.7677</ele>
        <time>2023-06-19T15:35:42.000Z</time>
      </trkpt>
      <trkpt lat="45.84379" lon="4.71955">
        <ele>270.17459</ele>
        <time>2023-06-19T15:35:43.000Z</time>
      </trkpt>
      <trkpt lat="45.84385" lon="4.71953">
        <ele>269.64328</ele>
        <time>2023-06-19T15:35:44.000Z</time>
      </trkpt>
      <trkpt lat="45.84393" lon="4.71951">
        <ele>269.54877</ele>
        <time>2023-06-19T15:35:45.000Z</time>
      </trkpt>
      <trkpt lat="45.844" lon="4.7195">
        <ele>269.3114</ele>
        <time>2023-06-19T15:35:46.000Z</time>
      </trkpt>
      <trkpt lat="45.84407" lon="4.71947">
        <ele>269.0943</ele>
        <time>2023-06-19T15:35:47.000Z</time>
      </trkpt>
      <trkpt lat="45.84414" lon="4.71945">
        <ele>268.86945</ele>
        <time>2023-06-19T15:35:48.000Z</time>
      </trkpt>
      <trkpt lat="45.8442" lon="4.71942">
        <ele>268.61606</ele>
        <time>2023-06-19T15:35:49.000Z</time>
      </trkpt>
      <trkpt lat="45.84427" lon="4.7194">
        <ele>268.38904</ele>
        <time>2023-06-19T15:35:50.000Z</time>
      </trkpt>
      <trkpt lat="45.84435" lon="4.7194">
        <ele>268.17853</ele>
        <time>2023-06-19T15:35:51.000Z</time>
      </trkpt>
      <trkpt lat="45.84443" lon="4.71938">
        <ele>267.99945</ele>
        <time>2023-06-19T15:35:52.000Z</time>
      </trkpt>
      <trkpt lat="45.84449" lon="4.71937">
        <ele>267.85846</ele>
        <time>2023-06-19T15:35:53.000Z</time>
      </trkpt>
      <trkpt lat="45.84456" lon="4.71936">
        <ele>267.7114</ele>
        <time>2023-06-19T15:35:54.000Z</time>
      </trkpt>
      <trkpt lat="45.84462" lon="4.71934">
        <ele>267.5686</ele>
        <time>2023-06-19T15:35:55.000Z</time>
      </trkpt>
      <trkpt lat="45.84468" lon="4.71931">
        <ele>267.40808</ele>
        <time>2023-06-19T15:35:56.000Z</time>
      </trkpt>
      <trkpt lat="45.84475" lon="4.71929">
        <ele>267.23734</ele>
        <time>2023-06-19T15:35:57.000Z</time>
      </trkpt>
      <trkpt lat="45.84482" lon="4.71927">
        <ele>266.98672</ele>
        <time>2023-06-19T15:35:58.000Z</time>
      </trkpt>
      <trkpt lat="45.84487" lon="4.71922">
        <ele>266.73645</ele>
        <time>2023-06-19T15:35:59.000Z</time>
      </trkpt>
      <trkpt lat="45.84492" lon="4.71917">
        <ele>266.40021</ele>
        <time>2023-06-19T15:36:00.000Z</time>
      </trkpt>
      <trkpt lat="45.84498" lon="4.71912">
        <ele>266.07211</ele>
        <time>2023-06-19T15:36:01.000Z</time>
      </trkpt>
      <trkpt lat="45.84503" lon="4.71908">
        <ele>265.78302</ele>
        <time>2023-06-19T15:36:02.000Z</time>
      </trkpt>
      <trkpt lat="45.84508" lon="4.71905">
        <ele>265.41077</ele>
        <time>2023-06-19T15:36:03.000Z</time>
      </trkpt>
      <trkpt lat="45.84514" lon="4.71899">
        <ele>265.03711</ele>
        <time>2023-06-19T15:36:04.000Z</time>
      </trkpt>
      <trkpt lat="45.84521" lon="4.71898">
        <ele>264.68124</ele>
        <time>2023-06-19T15:36:05.000Z</time>
      </trkpt>
      <trkpt lat="45.84525" lon="4.71894">
        <ele>264.49036</ele>
        <time>2023-06-19T15:36:06.000Z</time>
      </trkpt>
      <trkpt lat="45.8453" lon="4.71889">
        <ele>264.30463</ele>
        <time>2023-06-19T15:36:07.000Z</time>
      </trkpt>
      <trkpt lat="45.84535" lon="4.71884">
        <ele>264.10397</ele>
        <time>2023-06-19T15:36:08.000Z</time>
      </trkpt>
      <trkpt lat="45.8454" lon="4.7188">
        <ele>263.99329</ele>
        <time>2023-06-19T15:36:09.000Z</time>
      </trkpt>
      <trkpt lat="45.84544" lon="4.71873">
        <ele>263.82022</ele>
        <time>2023-06-19T15:36:10.000Z</time>
      </trkpt>
      <trkpt lat="45.8455" lon="4.71869">
        <ele>263.62073</ele>
        <time>2023-06-19T15:36:11.000Z</time>
      </trkpt>
      <trkpt lat="45.84556" lon="4.71866">
        <ele>263.39713</ele>
        <time>2023-06-19T15:36:12.000Z</time>
      </trkpt>
      <trkpt lat="45.84562" lon="4.71862">
        <ele>263.15338</ele>
        <time>2023-06-19T15:36:13.000Z</time>
      </trkpt>
      <trkpt lat="45.84568" lon="4.71859">
        <ele>262.98792</ele>
        <time>2023-06-19T15:36:14.000Z</time>
      </trkpt>
      <trkpt lat="45.84574" lon="4.71855">
        <ele>262.79428</ele>
        <time>2023-06-19T15:36:15.000Z</time>
      </trkpt>
      <trkpt lat="45.8458" lon="4.71851">
        <ele>262.59967</ele>
        <time>2023-06-19T15:36:16.000Z</time>
      </trkpt>
      <trkpt lat="45.84586" lon="4.71846">
        <ele>262.39999</ele>
        <time>2023-06-19T15:36:17.000Z</time>
      </trkpt>
      <trkpt lat="45.84591" lon="4.71841">
        <ele>262.57224</ele>
        <time>2023-06-19T15:36:18.000Z</time>
      </trkpt>
      <trkpt lat="45.84596" lon="4.71837">
        <ele>262.46744</ele>
        <time>2023-06-19T15:36:19.000Z</time>
      </trkpt>
      <trkpt lat="45.84602" lon="4.71834">
        <ele>262.37231</ele>
        <time>2023-06-19T15:36:20.000Z</time>
      </trkpt>
      <trkpt lat="45.84608" lon="4.71832">
        <ele>262.25864</ele>
        <time>2023-06-19T15:36:21.000Z</time>
      </trkpt>
      <trkpt lat="45.84614" lon="4.71829">
        <ele>262.18884</ele>
        <time>2023-06-19T15:36:22.000Z</time>
      </trkpt>
      <trkpt lat="45.84621" lon="4.71827">
        <ele>262.18854</ele>
        <time>2023-06-19T15:36:23.000Z</time>
      </trkpt>
      <trkpt lat="45.84628" lon="4.71825">
        <ele>262.1459</ele>
        <time>2023-06-19T15:36:24.000Z</time>
      </trkpt>
      <trkpt lat="45.84632" lon="4.71822">
        <ele>262.08389</ele>
        <time>2023-06-19T15:36:25.000Z</time>
      </trkpt>
      <trkpt lat="45.84636" lon="4.71821">
        <ele>262.03345</ele>
        <time>2023-06-19T15:36:26.000Z</time>
      </trkpt>
      <trkpt lat="45.84641" lon="4.71822">
        <ele>267.25192</ele>
        <time>2023-06-19T15:36:27.000Z</time>
      </trkpt>
      <trkpt lat="45.84645" lon="4.71821">
        <ele>267.5329</ele>
        <time>2023-06-19T15:36:28.000Z</time>
      </trkpt>
      <trkpt lat="45.84646" lon="4.71818">
        <ele>267.76605</ele>
        <time>2023-06-19T15:36:30.000Z</time>
      </trkpt>
      <trkpt lat="45.84644" lon="4.71816">
        <ele>273.52045</ele>
        <time>2023-06-19T15:36:36.000Z</time>
      </trkpt>
      <trkpt lat="45.84644" lon="4.71813">
        <ele>273.74539</ele>
        <time>2023-06-19T15:36:42.000Z</time>
      </trkpt>
      <trkpt lat="45.84646" lon="4.71812">
        <ele>273.83636</ele>
        <time>2023-06-19T15:37:58.000Z</time>
      </trkpt>
      <trkpt lat="45.84648" lon="4.71811">
        <ele>274.00031</ele>
        <time>2023-06-19T15:37:59.000Z</time>
      </trkpt>
      <trkpt lat="45.84651" lon="4.7181">
        <ele>274.10052</ele>
        <time>2023-06-19T15:38:00.000Z</time>
      </trkpt>
      <trkpt lat="45.84654" lon="4.71809">
        <ele>274.33386</ele>
        <time>2023-06-19T15:38:01.000Z</time>
      </trkpt>
      <trkpt lat="45.84658" lon="4.71807">
        <ele>274.53064</ele>
        <time>2023-06-19T15:38:02.000Z</time>
      </trkpt>
      <trkpt lat="45.84662" lon="4.71806">
        <ele>274.76944</ele>
        <time>2023-06-19T15:38:03.000Z</time>
      </trkpt>
      <trkpt lat="45.84666" lon="4.71803">
        <ele>274.74524</ele>
        <time>2023-06-19T15:38:04.000Z</time>
      </trkpt>
      <trkpt lat="45.84671" lon="4.71801">
        <ele>274.72614</ele>
        <time>2023-06-19T15:38:05.000Z</time>
      </trkpt>
      <trkpt lat="45.84675" lon="4.71798">
        <ele>274.76736</ele>
        <time>2023-06-19T15:38:06.000Z</time>
      </trkpt>
      <trkpt lat="45.84679" lon="4.71795">
        <ele>274.77521</ele>
        <time>2023-06-19T15:38:07.000Z</time>
      </trkpt>
      <trkpt lat="45.84684" lon="4.71792">
        <ele>274.73276</ele>
        <time>2023-06-19T15:38:08.000Z</time>
      </trkpt>
      <trkpt lat="45.84689" lon="4.71788">
        <ele>274.7309</ele>
        <time>2023-06-19T15:38:09.000Z</time>
      </trkpt>
      <trkpt lat="45.84694" lon="4.71785">
        <ele>274.75455</ele>
        <time>2023-06-19T15:38:10.000Z</time>
      </trkpt>
      <trkpt lat="45.84699" lon="4.71782">
        <ele>274.76602</ele>
        <time>2023-06-19T15:38:11.000Z</time>
      </trkpt>
      <trkpt lat="45.84705" lon="4.71779">
        <ele>274.76889</ele>
        <time>2023-06-19T15:38:12.000Z</time>
      </trkpt>
      <trkpt lat="45.8471" lon="4.71776">
        <ele>269.58743</ele>
        <time>2023-06-19T15:38:13.000Z</time>
      </trkpt>
      <trkpt lat="45.84715" lon="4.71773">
        <ele>269.41949</ele>
        <time>2023-06-19T15:38:14.000Z</time>
      </trkpt>
      <trkpt lat="45.84721" lon="4.71772">
        <ele>269.2525</ele>
        <time>2023-06-19T15:38:15.000Z</time>
      </trkpt>
      <trkpt lat="45.84728" lon="4.71771">
        <ele>263.61395</ele>
        <time>2023-06-19T15:38:16.000Z</time>
      </trkpt>
      <trkpt lat="45.84733" lon="4.71769">
        <ele>263.59018</ele>
        <time>2023-06-19T15:38:17.000Z</time>
      </trkpt>
      <trkpt lat="45.84738" lon="4.71764">
        <ele>263.84714</ele>
        <time>2023-06-19T15:38:18.000Z</time>
      </trkpt>
      <trkpt lat="45.84745" lon="4.71762">
        <ele>264.44724</ele>
        <time>2023-06-19T15:38:19.000Z</time>
      </trkpt>
      <trkpt lat="45.84751" lon="4.71759">
        <ele>264.95142</ele>
        <time>2023-06-19T15:38:20.000Z</time>
      </trkpt>
      <trkpt lat="45.84756" lon="4.71754">
        <ele>265.50668</ele>
        <time>2023-06-19T15:38:21.000Z</time>
      </trkpt>
      <trkpt lat="45.84762" lon="4.7175">
        <ele>266.25385</ele>
        <time>2023-06-19T15:38:22.000Z</time>
      </trkpt>
      <trkpt lat="45.84766" lon="4.71745">
        <ele>266.44824</ele>
        <time>2023-06-19T15:38:23.000Z</time>
      </trkpt>
      <trkpt lat="45.84771" lon="4.7174">
        <ele>266.64825</ele>
        <time>2023-06-19T15:38:24.000Z</time>
      </trkpt>
      <trkpt lat="45.84776" lon="4.71738">
        <ele>267.04254</ele>
        <time>2023-06-19T15:38:25.000Z</time>
      </trkpt>
      <trkpt lat="45.84781" lon="4.71734">
        <ele>267.43124</ele>
        <time>2023-06-19T15:38:26.000Z</time>
      </trkpt>
      <trkpt lat="45.84786" lon="4.7173">
        <ele>267.77832</ele>
        <time>2023-06-19T15:38:27.000Z</time>
      </trkpt>
      <trkpt lat="45.8479" lon="4.71725">
        <ele>268.09869</ele>
        <time>2023-06-19T15:38:28.000Z</time>
      </trkpt>
      <trkpt lat="45.84795" lon="4.71721">
        <ele>268.36871</ele>
        <time>2023-06-19T15:38:29.000Z</time>
      </trkpt>
      <trkpt lat="45.84799" lon="4.71717">
        <ele>268.73975</ele>
        <time>2023-06-19T15:38:30.000Z</time>
      </trkpt>
      <trkpt lat="45.84804" lon="4.71714">
        <ele>269.17154</ele>
        <time>2023-06-19T15:38:31.000Z</time>
      </trkpt>
      <trkpt lat="45.84809" lon="4.7171">
        <ele>269.58246</ele>
        <time>2023-06-19T15:38:32.000Z</time>
      </trkpt>
      <trkpt lat="45.84814" lon="4.71707">
        <ele>269.81848</ele>
        <time>2023-06-19T15:38:33.000Z</time>
      </trkpt>
      <trkpt lat="45.84821" lon="4.71705">
        <ele>270.06406</ele>
        <time>2023-06-19T15:38:34.000Z</time>
      </trkpt>
      <trkpt lat="45.84828" lon="4.71705">
        <ele>270.36066</ele>
        <time>2023-06-19T15:38:35.000Z</time>
      </trkpt>
      <trkpt lat="45.84834" lon="4.717">
        <ele>270.83209</ele>
        <time>2023-06-19T15:38:36.000Z</time>
      </trkpt>
      <trkpt lat="45.84839" lon="4.71697">
        <ele>271.32001</ele>
        <time>2023-06-19T15:38:37.000Z</time>
      </trkpt>
      <trkpt lat="45.84844" lon="4.71693">
        <ele>271.12833</ele>
        <time>2023-06-19T15:38:38.000Z</time>
      </trkpt>
      <trkpt lat="45.8485" lon="4.71689">
        <ele>270.74225</ele>
        <time>2023-06-19T15:38:39.000Z</time>
      </trkpt>
      <trkpt lat="45.84857" lon="4.71687">
        <ele>270.40744</ele>
        <time>2023-06-19T15:38:40.000Z</time>
      </trkpt>
      <trkpt lat="45.84861" lon="4.71683">
        <ele>270.06049</ele>
        <time>2023-06-19T15:38:41.000Z</time>
      </trkpt>
      <trkpt lat="45.84865" lon="4.7168">
        <ele>269.70233</ele>
        <time>2023-06-19T15:38:42.000Z</time>
      </trkpt>
      <trkpt lat="45.84872" lon="4.71678">
        <ele>269.89877</ele>
        <time>2023-06-19T15:38:43.000Z</time>
      </trkpt>
      <trkpt lat="45.84879" lon="4.71674">
        <ele>269.9877</ele>
        <time>2023-06-19T15:38:44.000Z</time>
      </trkpt>
      <trkpt lat="45.84886" lon="4.71674">
        <ele>270.1709</ele>
        <time>2023-06-19T15:38:45.000Z</time>
      </trkpt>
      <trkpt lat="45.84893" lon="4.71672">
        <ele>270.31393</ele>
        <time>2023-06-19T15:38:46.000Z</time>
      </trkpt>
      <trkpt lat="45.849" lon="4.7167">
        <ele>270.41074</ele>
        <time>2023-06-19T15:38:47.000Z</time>
      </trkpt>
      <trkpt lat="45.84907" lon="4.71669">
        <ele>270.54041</ele>
        <time>2023-06-19T15:38:48.000Z</time>
      </trkpt>
      <trkpt lat="45.84914" lon="4.71667">
        <ele>270.68982</ele>
        <time>2023-06-19T15:38:49.000Z</time>
      </trkpt>
      <trkpt lat="45.84921" lon="4.71666">
        <ele>270.72021</ele>
        <time>2023-06-19T15:38:50.000Z</time>
      </trkpt>
      <trkpt lat="45.84928" lon="4.71665">
        <ele>270.70563</ele>
        <time>2023-06-19T15:38:51.000Z</time>
      </trkpt>
      <trkpt lat="45.84935" lon="4.71664">
        <ele>275.90332</ele>
        <time>2023-06-19T15:38:52.000Z</time>
      </trkpt>
      <trkpt lat="45.84942" lon="4.71665">
        <ele>276.25473</ele>
        <time>2023-06-19T15:38:53.000Z</time>
      </trkpt>
      <trkpt lat="45.84949" lon="4.71665">
        <ele>276.62723</ele>
        <time>2023-06-19T15:38:54.000Z</time>
      </trkpt>
      <trkpt lat="45.84956" lon="4.71667">
        <ele>276.95233</ele>
        <time>2023-06-19T15:38:55.000Z</time>
      </trkpt>
      <trkpt lat="45.84964" lon="4.71667">
        <ele>277.11954</ele>
        <time>2023-06-19T15:38:56.000Z</time>
      </trkpt>
      <trkpt lat="45.84973" lon="4.71667">
        <ele>277.21884</ele>
        <time>2023-06-19T15:38:57.000Z</time>
      </trkpt>
      <trkpt lat="45.84981" lon="4.71665">
        <ele>281.85046</ele>
        <time>2023-06-19T15:38:58.000Z</time>
      </trkpt>
      <trkpt lat="45.8499" lon="4.71663">
        <ele>282.49118</ele>
        <time>2023-06-19T15:38:59.000Z</time>
      </trkpt>
      <trkpt lat="45.84998" lon="4.7166">
        <ele>283.21359</ele>
        <time>2023-06-19T15:39:00.000Z</time>
      </trkpt>
      <trkpt lat="45.85007" lon="4.71657">
        <ele>283.84726</ele>
        <time>2023-06-19T15:39:01.000Z</time>
      </trkpt>
      <trkpt lat="45.85015" lon="4.71653">
        <ele>284.39258</ele>
        <time>2023-06-19T15:39:02.000Z</time>
      </trkpt>
      <trkpt lat="45.85023" lon="4.7165">
        <ele>284.95169</ele>
        <time>2023-06-19T15:39:03.000Z</time>
      </trkpt>
      <trkpt lat="45.85032" lon="4.71645">
        <ele>288.15335</ele>
        <time>2023-06-19T15:39:04.000Z</time>
      </trkpt>
      <trkpt lat="45.8504" lon="4.71641">
        <ele>288.95367</ele>
        <time>2023-06-19T15:39:05.000Z</time>
      </trkpt>
      <trkpt lat="45.85049" lon="4.71638">
        <ele>289.79071</ele>
        <time>2023-06-19T15:39:06.000Z</time>
      </trkpt>
      <trkpt lat="45.85057" lon="4.71634">
        <ele>290.76456</ele>
        <time>2023-06-19T15:39:07.000Z</time>
      </trkpt>
      <trkpt lat="45.85065" lon="4.71632">
        <ele>291.78226</ele>
        <time>2023-06-19T15:39:08.000Z</time>
      </trkpt>
      <trkpt lat="45.85072" lon="4.71628">
        <ele>292.84433</ele>
        <time>2023-06-19T15:39:09.000Z</time>
      </trkpt>
      <trkpt lat="45.85081" lon="4.71623">
        <ele>296.55878</ele>
        <time>2023-06-19T15:39:10.000Z</time>
      </trkpt>
      <trkpt lat="45.85089" lon="4.71619">
        <ele>297.85068</ele>
        <time>2023-06-19T15:39:11.000Z</time>
      </trkpt>
      <trkpt lat="45.85095" lon="4.71613">
        <ele>294.02753</ele>
        <time>2023-06-19T15:39:12.000Z</time>
      </trkpt>
      <trkpt lat="45.85102" lon="4.71608">
        <ele>294.93372</ele>
        <time>2023-06-19T15:39:13.000Z</time>
      </trkpt>
      <trkpt lat="45.85109" lon="4.71602">
        <ele>296.93216</ele>
        <time>2023-06-19T15:39:14.000Z</time>
      </trkpt>
      <trkpt lat="45.85117" lon="4.71597">
        <ele>297.94739</ele>
        <time>2023-06-19T15:39:15.000Z</time>
      </trkpt>
      <trkpt lat="45.85125" lon="4.71598">
        <ele>298.99713</ele>
        <time>2023-06-19T15:39:16.000Z</time>
      </trkpt>
      <trkpt lat="45.85131" lon="4.71599">
        <ele>300.091</ele>
        <time>2023-06-19T15:39:17.000Z</time>
      </trkpt>
      <trkpt lat="45.85138" lon="4.71598">
        <ele>297.21942</ele>
        <time>2023-06-19T15:39:18.000Z</time>
      </trkpt>
      <trkpt lat="45.85145" lon="4.71595">
        <ele>297.98785</ele>
        <time>2023-06-19T15:39:19.000Z</time>
      </trkpt>
      <trkpt lat="45.85153" lon="4.71595">
        <ele>296.22321</ele>
        <time>2023-06-19T15:39:20.000Z</time>
      </trkpt>
      <trkpt lat="45.8516" lon="4.71591">
        <ele>296.87369</ele>
        <time>2023-06-19T15:39:21.000Z</time>
      </trkpt>
      <trkpt lat="45.85166" lon="4.71589">
        <ele>297.52499</ele>
        <time>2023-06-19T15:39:22.000Z</time>
      </trkpt>
      <trkpt lat="45.85173" lon="4.71587">
        <ele>298.18161</ele>
        <time>2023-06-19T15:39:23.000Z</time>
      </trkpt>
      <trkpt lat="45.85179" lon="4.71585">
        <ele>296.3132</ele>
        <time>2023-06-19T15:39:24.000Z</time>
      </trkpt>
      <trkpt lat="45.85185" lon="4.71583">
        <ele>296.72119</ele>
        <time>2023-06-19T15:39:25.000Z</time>
      </trkpt>
      <trkpt lat="45.85191" lon="4.7158">
        <ele>299.99127</ele>
        <time>2023-06-19T15:39:26.000Z</time>
      </trkpt>
      <trkpt lat="45.85196" lon="4.71577">
        <ele>300.50128</ele>
        <time>2023-06-19T15:39:27.000Z</time>
      </trkpt>
      <trkpt lat="45.85201" lon="4.71575">
        <ele>300.98813</ele>
        <time>2023-06-19T15:39:28.000Z</time>
      </trkpt>
      <trkpt lat="45.85207" lon="4.71572">
        <ele>301.02554</ele>
        <time>2023-06-19T15:39:29.000Z</time>
      </trkpt>
      <trkpt lat="45.85212" lon="4.71569">
        <ele>298.02072</ele>
        <time>2023-06-19T15:39:30.000Z</time>
      </trkpt>
      <trkpt lat="45.85218" lon="4.71567">
        <ele>297.40079</ele>
        <time>2023-06-19T15:39:31.000Z</time>
      </trkpt>
      <trkpt lat="45.85223" lon="4.71564">
        <ele>296.61188</ele>
        <time>2023-06-19T15:39:32.000Z</time>
      </trkpt>
      <trkpt lat="45.85229" lon="4.71562">
        <ele>295.85602</ele>
        <time>2023-06-19T15:39:33.000Z</time>
      </trkpt>
      <trkpt lat="45.85234" lon="4.7156">
        <ele>294.16653</ele>
        <time>2023-06-19T15:39:34.000Z</time>
      </trkpt>
      <trkpt lat="45.85239" lon="4.71558">
        <ele>293.4252</ele>
        <time>2023-06-19T15:39:35.000Z</time>
      </trkpt>
      <trkpt lat="45.85245" lon="4.71556">
        <ele>293.1991</ele>
        <time>2023-06-19T15:39:36.000Z</time>
      </trkpt>
      <trkpt lat="45.8525" lon="4.71554">
        <ele>292.90921</ele>
        <time>2023-06-19T15:39:37.000Z</time>
      </trkpt>
      <trkpt lat="45.85255" lon="4.71552">
        <ele>292.55011</ele>
        <time>2023-06-19T15:39:38.000Z</time>
      </trkpt>
      <trkpt lat="45.8526" lon="4.71551">
        <ele>292.31668</ele>
        <time>2023-06-19T15:39:39.000Z</time>
      </trkpt>
      <trkpt lat="45.85266" lon="4.71548">
        <ele>294.57263</ele>
        <time>2023-06-19T15:39:40.000Z</time>
      </trkpt>
      <trkpt lat="45.85271" lon="4.71546">
        <ele>292.08853</ele>
        <time>2023-06-19T15:39:41.000Z</time>
      </trkpt>
      <trkpt lat="45.85277" lon="4.71543">
        <ele>291.84927</ele>
        <time>2023-06-19T15:39:42.000Z</time>
      </trkpt>
      <trkpt lat="45.85282" lon="4.71539">
        <ele>291.56549</ele>
        <time>2023-06-19T15:39:43.000Z</time>
      </trkpt>
      <trkpt lat="45.85288" lon="4.71536">
        <ele>291.23468</ele>
        <time>2023-06-19T15:39:44.000Z</time>
      </trkpt>
      <trkpt lat="45.85292" lon="4.71533">
        <ele>290.98077</ele>
        <time>2023-06-19T15:39:45.000Z</time>
      </trkpt>
      <trkpt lat="45.85298" lon="4.71528">
        <ele>287.81207</ele>
        <time>2023-06-19T15:39:46.000Z</time>
      </trkpt>
      <trkpt lat="45.85304" lon="4.71521">
        <ele>285.01102</ele>
        <time>2023-06-19T15:39:47.000Z</time>
      </trkpt>
      <trkpt lat="45.85309" lon="4.71515">
        <ele>284.23651</ele>
        <time>2023-06-19T15:39:48.000Z</time>
      </trkpt>
      <trkpt lat="45.85315" lon="4.71509">
        <ele>283.82181</ele>
        <time>2023-06-19T15:39:49.000Z</time>
      </trkpt>
      <trkpt lat="45.85321" lon="4.71505">
        <ele>283.76877</ele>
        <time>2023-06-19T15:39:50.000Z</time>
      </trkpt>
      <trkpt lat="45.85326" lon="4.71497">
        <ele>283.74921</ele>
        <time>2023-06-19T15:39:51.000Z</time>
      </trkpt>
      <trkpt lat="45.85332" lon="4.7149">
        <ele>283.83304</ele>
        <time>2023-06-19T15:39:52.000Z</time>
      </trkpt>
      <trkpt lat="45.85339" lon="4.71487">
        <ele>282.23721</ele>
        <time>2023-06-19T15:39:53.000Z</time>
      </trkpt>
      <trkpt lat="45.85347" lon="4.71483">
        <ele>282.22739</ele>
        <time>2023-06-19T15:39:54.000Z</time>
      </trkpt>
      <trkpt lat="45.85352" lon="4.71477">
        <ele>282.23349</ele>
        <time>2023-06-19T15:39:55.000Z</time>
      </trkpt>
      <trkpt lat="45.8536" lon="4.71472">
        <ele>281.67389</ele>
        <time>2023-06-19T15:39:56.000Z</time>
      </trkpt>
      <trkpt lat="45.85366" lon="4.71468">
        <ele>281.09763</ele>
        <time>2023-06-19T15:39:57.000Z</time>
      </trkpt>
      <trkpt lat="45.85371" lon="4.71461">
        <ele>280.50705</ele>
        <time>2023-06-19T15:39:58.000Z</time>
      </trkpt>
      <trkpt lat="45.85377" lon="4.71454">
        <ele>278.16217</ele>
        <time>2023-06-19T15:39:59.000Z</time>
      </trkpt>
      <trkpt lat="45.85382" lon="4.71449">
        <ele>277.45441</ele>
        <time>2023-06-19T15:40:00.000Z</time>
      </trkpt>
      <trkpt lat="45.85387" lon="4.71442">
        <ele>279.00009</ele>
        <time>2023-06-19T15:40:01.000Z</time>
      </trkpt>
      <trkpt lat="45.85393" lon="4.71436">
        <ele>278.34567</ele>
        <time>2023-06-19T15:40:02.000Z</time>
      </trkpt>
      <trkpt lat="45.854" lon="4.71431">
        <ele>277.6705</ele>
        <time>2023-06-19T15:40:03.000Z</time>
      </trkpt>
      <trkpt lat="45.85406" lon="4.71426">
        <ele>276.97577</ele>
        <time>2023-06-19T15:40:04.000Z</time>
      </trkpt>
      <trkpt lat="45.85412" lon="4.71421">
        <ele>274.73718</ele>
        <time>2023-06-19T15:40:05.000Z</time>
      </trkpt>
      <trkpt lat="45.85417" lon="4.71415">
        <ele>272.42731</ele>
        <time>2023-06-19T15:40:06.000Z</time>
      </trkpt>
      <trkpt lat="45.85423" lon="4.7141">
        <ele>272.43027</ele>
        <time>2023-06-19T15:40:07.000Z</time>
      </trkpt>
      <trkpt lat="45.85428" lon="4.71404">
        <ele>270.36261</ele>
        <time>2023-06-19T15:40:08.000Z</time>
      </trkpt>
      <trkpt lat="45.85436" lon="4.71399">
        <ele>268.35767</ele>
        <time>2023-06-19T15:40:09.000Z</time>
      </trkpt>
      <trkpt lat="45.85442" lon="4.71394">
        <ele>266.31165</ele>
        <time>2023-06-19T15:40:10.000Z</time>
      </trkpt>
      <trkpt lat="45.85449" lon="4.71388">
        <ele>264.22214</ele>
        <time>2023-06-19T15:40:11.000Z</time>
      </trkpt>
      <trkpt lat="45.85457" lon="4.71381">
        <ele>262.13782</ele>
        <time>2023-06-19T15:40:12.000Z</time>
      </trkpt>
      <trkpt lat="45.85466" lon="4.71375">
        <ele>261.87915</ele>
        <time>2023-06-19T15:40:13.000Z</time>
      </trkpt>
      <trkpt lat="45.85475" lon="4.71371">
        <ele>259.77963</ele>
        <time>2023-06-19T15:40:14.000Z</time>
      </trkpt>
      <trkpt lat="45.85484" lon="4.71365">
        <ele>257.60071</ele>
        <time>2023-06-19T15:40:15.000Z</time>
      </trkpt>
      <trkpt lat="45.85495" lon="4.71362">
        <ele>255.31711</ele>
        <time>2023-06-19T15:40:16.000Z</time>
      </trkpt>
      <trkpt lat="45.85506" lon="4.71359">
        <ele>253.05754</ele>
        <time>2023-06-19T15:40:17.000Z</time>
      </trkpt>
      <trkpt lat="45.85517" lon="4.71355">
        <ele>250.75766</ele>
        <time>2023-06-19T15:40:18.000Z</time>
      </trkpt>
      <trkpt lat="45.8553" lon="4.71351">
        <ele>250.16879</ele>
        <time>2023-06-19T15:40:19.000Z</time>
      </trkpt>
      <trkpt lat="45.85541" lon="4.71347">
        <ele>247.88638</ele>
        <time>2023-06-19T15:40:20.000Z</time>
      </trkpt>
      <trkpt lat="45.85554" lon="4.71344">
        <ele>245.61772</ele>
        <time>2023-06-19T15:40:21.000Z</time>
      </trkpt>
      <trkpt lat="45.85566" lon="4.71339">
        <ele>243.24313</ele>
        <time>2023-06-19T15:40:22.000Z</time>
      </trkpt>
      <trkpt lat="45.85577" lon="4.71333">
        <ele>240.86533</ele>
        <time>2023-06-19T15:40:23.000Z</time>
      </trkpt>
      <trkpt lat="45.85586" lon="4.71325">
        <ele>238.47701</ele>
        <time>2023-06-19T15:40:24.000Z</time>
      </trkpt>
      <trkpt lat="45.85595" lon="4.71318">
        <ele>237.61942</ele>
        <time>2023-06-19T15:40:25.000Z</time>
      </trkpt>
      <trkpt lat="45.85604" lon="4.71309">
        <ele>236.8262</ele>
        <time>2023-06-19T15:40:26.000Z</time>
      </trkpt>
      <trkpt lat="45.8561" lon="4.71298">
        <ele>236.04099</ele>
        <time>2023-06-19T15:40:27.000Z</time>
      </trkpt>
      <trkpt lat="45.85617" lon="4.71288">
        <ele>235.39519</ele>
        <time>2023-06-19T15:40:28.000Z</time>
      </trkpt>
      <trkpt lat="45.85623" lon="4.71278">
        <ele>234.77275</ele>
        <time>2023-06-19T15:40:29.000Z</time>
      </trkpt>
      <trkpt lat="45.85631" lon="4.7127">
        <ele>234.29158</ele>
        <time>2023-06-19T15:40:30.000Z</time>
      </trkpt>
      <trkpt lat="45.85638" lon="4.71265">
        <ele>233.53555</ele>
        <time>2023-06-19T15:40:31.000Z</time>
      </trkpt>
      <trkpt lat="45.85646" lon="4.71263">
        <ele>232.77322</ele>
        <time>2023-06-19T15:40:32.000Z</time>
      </trkpt>
      <trkpt lat="45.85654" lon="4.71264">
        <ele>231.97485</ele>
        <time>2023-06-19T15:40:33.000Z</time>
      </trkpt>
      <trkpt lat="45.85662" lon="4.71269">
        <ele>231.19365</ele>
        <time>2023-06-19T15:40:34.000Z</time>
      </trkpt>
      <trkpt lat="45.85669" lon="4.71277">
        <ele>230.47807</ele>
        <time>2023-06-19T15:40:35.000Z</time>
      </trkpt>
      <trkpt lat="45.85678" lon="4.71282">
        <ele>229.83469</ele>
        <time>2023-06-19T15:40:36.000Z</time>
      </trkpt>
      <trkpt lat="45.85685" lon="4.71286">
        <ele>229.15915</ele>
        <time>2023-06-19T15:40:37.000Z</time>
      </trkpt>
      <trkpt lat="45.85692" lon="4.71291">
        <ele>228.53421</ele>
        <time>2023-06-19T15:40:38.000Z</time>
      </trkpt>
      <trkpt lat="45.85699" lon="4.71295">
        <ele>227.92973</ele>
        <time>2023-06-19T15:40:39.000Z</time>
      </trkpt>
      <trkpt lat="45.85704" lon="4.71297">
        <ele>227.61597</ele>
        <time>2023-06-19T15:40:40.000Z</time>
      </trkpt>
      <trkpt lat="45.85711" lon="4.71299">
        <ele>227.28867</ele>
        <time>2023-06-19T15:40:41.000Z</time>
      </trkpt>
      <trkpt lat="45.85716" lon="4.713">
        <ele>227.08044</ele>
        <time>2023-06-19T15:40:42.000Z</time>
      </trkpt>
      <trkpt lat="45.8572" lon="4.71299">
        <ele>226.48953</ele>
        <time>2023-06-19T15:40:43.000Z</time>
      </trkpt>
      <trkpt lat="45.85724" lon="4.713">
        <ele>225.95923</ele>
        <time>2023-06-19T15:40:44.000Z</time>
      </trkpt>
      <trkpt lat="45.85728" lon="4.713">
        <ele>225.45609</ele>
        <time>2023-06-19T15:40:45.000Z</time>
      </trkpt>
      <trkpt lat="45.85731" lon="4.71301">
        <ele>224.96475</ele>
        <time>2023-06-19T15:40:46.000Z</time>
      </trkpt>
      <trkpt lat="45.85733" lon="4.71302">
        <ele>224.53694</ele>
        <time>2023-06-19T15:40:47.000Z</time>
      </trkpt>
      <trkpt lat="45.85738" lon="4.71304">
        <ele>223.86227</ele>
        <time>2023-06-19T15:40:48.000Z</time>
      </trkpt>
      <trkpt lat="45.85741" lon="4.71306">
        <ele>223.11569</ele>
        <time>2023-06-19T15:40:49.000Z</time>
      </trkpt>
      <trkpt lat="45.85743" lon="4.71304">
        <ele>222.69174</ele>
        <time>2023-06-19T15:40:50.000Z</time>
      </trkpt>
      <trkpt lat="45.85746" lon="4.71303">
        <ele>222.48344</ele>
        <time>2023-06-19T15:40:51.000Z</time>
      </trkpt>
      <trkpt lat="45.85749" lon="4.713">
        <ele>222.26682</ele>
        <time>2023-06-19T15:40:52.000Z</time>
      </trkpt>
      <trkpt lat="45.85751" lon="4.71297">
        <ele>222.08749</ele>
        <time>2023-06-19T15:40:53.000Z</time>
      </trkpt>
      <trkpt lat="45.85752" lon="4.71294">
        <ele>221.96072</ele>
        <time>2023-06-19T15:40:54.000Z</time>
      </trkpt>
      <trkpt lat="45.85752" lon="4.71291">
        <ele>221.84189</ele>
        <time>2023-06-19T15:40:55.000Z</time>
      </trkpt>
      <trkpt lat="45.85753" lon="4.71287">
        <ele>228.76138</ele>
        <time>2023-06-19T15:40:56.000Z</time>
      </trkpt>
      <trkpt lat="45.85754" lon="4.71283">
        <ele>229.05086</ele>
        <time>2023-06-19T15:40:57.000Z</time>
      </trkpt>
      <trkpt lat="45.85756" lon="4.71279">
        <ele>229.37334</ele>
        <time>2023-06-19T15:40:58.000Z</time>
      </trkpt>
      <trkpt lat="45.85757" lon="4.71275">
        <ele>229.75273</ele>
        <time>2023-06-19T15:40:59.000Z</time>
      </trkpt>
      <trkpt lat="45.85759" lon="4.71271">
        <ele>229.92847</ele>
        <time>2023-06-19T15:41:00.000Z</time>
      </trkpt>
      <trkpt lat="45.8576" lon="4.71268">
        <ele>230.1481</ele>
        <time>2023-06-19T15:41:01.000Z</time>
      </trkpt>
      <trkpt lat="45.85761" lon="4.71264">
        <ele>233.75211</ele>
        <time>2023-06-19T15:41:02.000Z</time>
      </trkpt>
      <trkpt lat="45.85762" lon="4.7126">
        <ele>234.49113</ele>
        <time>2023-06-19T15:41:03.000Z</time>
      </trkpt>
      <trkpt lat="45.85763" lon="4.71255">
        <ele>235.25081</ele>
        <time>2023-06-19T15:41:04.000Z</time>
      </trkpt>
      <trkpt lat="45.85764" lon="4.71251">
        <ele>236.05093</ele>
        <time>2023-06-19T15:41:05.000Z</time>
      </trkpt>
      <trkpt lat="45.85765" lon="4.71247">
        <ele>236.89885</ele>
        <time>2023-06-19T15:41:06.000Z</time>
      </trkpt>
      <trkpt lat="45.85766" lon="4.71243">
        <ele>237.75533</ele>
        <time>2023-06-19T15:41:07.000Z</time>
      </trkpt>
      <trkpt lat="45.85767" lon="4.7124">
        <ele>241.83792</ele>
        <time>2023-06-19T15:41:08.000Z</time>
      </trkpt>
      <trkpt lat="45.85768" lon="4.71236">
        <ele>243.09195</ele>
        <time>2023-06-19T15:41:09.000Z</time>
      </trkpt>
      <trkpt lat="45.85769" lon="4.71232">
        <ele>244.00659</ele>
        <time>2023-06-19T15:41:10.000Z</time>
      </trkpt>
      <trkpt lat="45.85771" lon="4.71229">
        <ele>245.07231</ele>
        <time>2023-06-19T15:41:11.000Z</time>
      </trkpt>
      <trkpt lat="45.85772" lon="4.71225">
        <ele>246.20175</ele>
        <time>2023-06-19T15:41:12.000Z</time>
      </trkpt>
      <trkpt lat="45.85773" lon="4.71222">
        <ele>247.39851</ele>
        <time>2023-06-19T15:41:13.000Z</time>
      </trkpt>
      <trkpt lat="45.85774" lon="4.71218">
        <ele>253.61426</ele>
        <time>2023-06-19T15:41:14.000Z</time>
      </trkpt>
      <trkpt lat="45.85775" lon="4.71215">
        <ele>255.19693</ele>
        <time>2023-06-19T15:41:15.000Z</time>
      </trkpt>
      <trkpt lat="45.85775" lon="4.71211">
        <ele>249.85258</ele>
        <time>2023-06-19T15:41:16.000Z</time>
      </trkpt>
      <trkpt lat="45.85776" lon="4.71207">
        <ele>250.90715</ele>
        <time>2023-06-19T15:41:17.000Z</time>
      </trkpt>
      <trkpt lat="45.85777" lon="4.71203">
        <ele>251.99997</ele>
        <time>2023-06-19T15:41:18.000Z</time>
      </trkpt>
      <trkpt lat="45.85778" lon="4.71199">
        <ele>253.1313</ele>
        <time>2023-06-19T15:41:19.000Z</time>
      </trkpt>
      <trkpt lat="45.8578" lon="4.71197">
        <ele>251.7336</ele>
        <time>2023-06-19T15:41:20.000Z</time>
      </trkpt>
      <trkpt lat="45.85782" lon="4.71195">
        <ele>252.82382</ele>
        <time>2023-06-19T15:41:21.000Z</time>
      </trkpt>
      <trkpt lat="45.85784" lon="4.71194">
        <ele>250.49382</ele>
        <time>2023-06-19T15:41:22.000Z</time>
      </trkpt>
      <trkpt lat="45.85786" lon="4.7119">
        <ele>251.3309</ele>
        <time>2023-06-19T15:41:23.000Z</time>
      </trkpt>
      <trkpt lat="45.85786" lon="4.71186">
        <ele>252.1729</ele>
        <time>2023-06-19T15:41:24.000Z</time>
      </trkpt>
      <trkpt lat="45.85786" lon="4.71182">
        <ele>253.019</ele>
        <time>2023-06-19T15:41:25.000Z</time>
      </trkpt>
      <trkpt lat="45.85786" lon="4.71178">
        <ele>251.29964</ele>
        <time>2023-06-19T15:41:26.000Z</time>
      </trkpt>
      <trkpt lat="45.85786" lon="4.71174">
        <ele>252.01968</ele>
        <time>2023-06-19T15:41:27.000Z</time>
      </trkpt>
      <trkpt lat="45.85786" lon="4.7117">
        <ele>249.67563</ele>
        <time>2023-06-19T15:41:28.000Z</time>
      </trkpt>
      <trkpt lat="45.85786" lon="4.71166">
        <ele>250.06754</ele>
        <time>2023-06-19T15:41:29.000Z</time>
      </trkpt>
      <trkpt lat="45.85786" lon="4.71161">
        <ele>250.41631</ele>
        <time>2023-06-19T15:41:30.000Z</time>
      </trkpt>
      <trkpt lat="45.85786" lon="4.71157">
        <ele>250.73679</ele>
        <time>2023-06-19T15:41:31.000Z</time>
      </trkpt>
      <trkpt lat="45.85785" lon="4.71152">
        <ele>248.5312</ele>
        <time>2023-06-19T15:41:32.000Z</time>
      </trkpt>
      <trkpt lat="45.85785" lon="4.71149">
        <ele>248.64767</ele>
        <time>2023-06-19T15:41:33.000Z</time>
      </trkpt>
      <trkpt lat="45.85784" lon="4.71145">
        <ele>243.75993</ele>
        <time>2023-06-19T15:41:35.000Z</time>
      </trkpt>
      <trkpt lat="45.85787" lon="4.71144">
        <ele>243.26721</ele>
        <time>2023-06-19T15:41:37.000Z</time>
      </trkpt>
      <trkpt lat="45.8579" lon="4.71146">
        <ele>240.62859</ele>
        <time>2023-06-19T15:41:39.000Z</time>
      </trkpt>
      <trkpt lat="45.85792" lon="4.71149">
        <ele>240.16739</ele>
        <time>2023-06-19T15:41:40.000Z</time>
      </trkpt>
      <trkpt lat="45.85794" lon="4.71151">
        <ele>239.6304</ele>
        <time>2023-06-19T15:41:41.000Z</time>
      </trkpt>
      <trkpt lat="45.85797" lon="4.71153">
        <ele>239.01192</ele>
        <time>2023-06-19T15:41:42.000Z</time>
      </trkpt>
      <trkpt lat="45.858" lon="4.71154">
        <ele>240.87256</ele>
        <time>2023-06-19T15:41:43.000Z</time>
      </trkpt>
      <trkpt lat="45.85803" lon="4.71152">
        <ele>240.32951</ele>
        <time>2023-06-19T15:41:44.000Z</time>
      </trkpt>
      <trkpt lat="45.85806" lon="4.71149">
        <ele>237.78191</ele>
        <time>2023-06-19T15:41:45.000Z</time>
      </trkpt>
      <trkpt lat="45.85808" lon="4.71141">
        <ele>237.14632</ele>
        <time>2023-06-19T15:41:46.000Z</time>
      </trkpt>
      <trkpt lat="45.85811" lon="4.71135">
        <ele>236.43709</ele>
        <time>2023-06-19T15:41:47.000Z</time>
      </trkpt>
      <trkpt lat="45.85815" lon="4.7113">
        <ele>235.6503</ele>
        <time>2023-06-19T15:41:48.000Z</time>
      </trkpt>
      <trkpt lat="45.85819" lon="4.71124">
        <ele>237.34964</ele>
        <time>2023-06-19T15:41:49.000Z</time>
      </trkpt>
      <trkpt lat="45.85822" lon="4.71118">
        <ele>236.65213</ele>
        <time>2023-06-19T15:41:50.000Z</time>
      </trkpt>
      <trkpt lat="45.85826" lon="4.71111">
        <ele>234.02554</ele>
        <time>2023-06-19T15:41:51.000Z</time>
      </trkpt>
      <trkpt lat="45.85829" lon="4.71105">
        <ele>233.24301</ele>
        <time>2023-06-19T15:41:52.000Z</time>
      </trkpt>
      <trkpt lat="45.85833" lon="4.711">
        <ele>232.40181</ele>
        <time>2023-06-19T15:41:53.000Z</time>
      </trkpt>
      <trkpt lat="45.85836" lon="4.71093">
        <ele>231.50107</ele>
        <time>2023-06-19T15:41:54.000Z</time>
      </trkpt>
      <trkpt lat="45.85839" lon="4.71088">
        <ele>233.02811</ele>
        <time>2023-06-19T15:41:55.000Z</time>
      </trkpt>
      <trkpt lat="45.85843" lon="4.71082">
        <ele>232.25296</ele>
        <time>2023-06-19T15:41:56.000Z</time>
      </trkpt>
      <trkpt lat="45.85846" lon="4.71076">
        <ele>229.70114</ele>
        <time>2023-06-19T15:41:57.000Z</time>
      </trkpt>
      <trkpt lat="45.85849" lon="4.7107">
        <ele>228.99821</ele>
        <time>2023-06-19T15:41:58.000Z</time>
      </trkpt>
      <trkpt lat="45.85853" lon="4.71065">
        <ele>230.3269</ele>
        <time>2023-06-19T15:41:59.000Z</time>
      </trkpt>
      <trkpt lat="45.85857" lon="4.71061">
        <ele>229.81181</ele>
        <time>2023-06-19T15:42:00.000Z</time>
      </trkpt>
      <trkpt lat="45.85861" lon="4.71054">
        <ele>229.29404</ele>
        <time>2023-06-19T15:42:01.000Z</time>
      </trkpt>
      <trkpt lat="45.85864" lon="4.71048">
        <ele>228.77722</ele>
        <time>2023-06-19T15:42:02.000Z</time>
      </trkpt>
      <trkpt lat="45.85868" lon="4.71043">
        <ele>226.73325</ele>
        <time>2023-06-19T15:42:03.000Z</time>
      </trkpt>
      <trkpt lat="45.85872" lon="4.71038">
        <ele>224.57889</ele>
        <time>2023-06-19T15:42:04.000Z</time>
      </trkpt>
      <trkpt lat="45.85877" lon="4.71033">
        <ele>224.37199</ele>
        <time>2023-06-19T15:42:05.000Z</time>
      </trkpt>
      <trkpt lat="45.85881" lon="4.71029">
        <ele>222.35721</ele>
        <time>2023-06-19T15:42:06.000Z</time>
      </trkpt>
      <trkpt lat="45.85885" lon="4.71024">
        <ele>220.36673</ele>
        <time>2023-06-19T15:42:07.000Z</time>
      </trkpt>
      <trkpt lat="45.85889" lon="4.71019">
        <ele>218.39551</ele>
        <time>2023-06-19T15:42:08.000Z</time>
      </trkpt>
      <trkpt lat="45.85893" lon="4.71013">
        <ele>216.4351</ele>
        <time>2023-06-19T15:42:09.000Z</time>
      </trkpt>
      <trkpt lat="45.85898" lon="4.71008">
        <ele>214.38628</ele>
        <time>2023-06-19T15:42:10.000Z</time>
      </trkpt>
      <trkpt lat="45.85903" lon="4.71004">
        <ele>214.24895</ele>
        <time>2023-06-19T15:42:11.000Z</time>
      </trkpt>
      <trkpt lat="45.85908" lon="4.70999">
        <ele>212.3835</ele>
        <time>2023-06-19T15:42:12.000Z</time>
      </trkpt>
      <trkpt lat="45.85912" lon="4.70993">
        <ele>210.58118</ele>
        <time>2023-06-19T15:42:13.000Z</time>
      </trkpt>
      <trkpt lat="45.85917" lon="4.70988">
        <ele>208.8223</ele>
        <time>2023-06-19T15:42:14.000Z</time>
      </trkpt>
      <trkpt lat="45.85923" lon="4.70983">
        <ele>207.08919</ele>
        <time>2023-06-19T15:42:15.000Z</time>
      </trkpt>
      <trkpt lat="45.85928" lon="4.7098">
        <ele>205.29329</ele>
        <time>2023-06-19T15:42:16.000Z</time>
      </trkpt>
      <trkpt lat="45.85934" lon="4.70977">
        <ele>205.26823</ele>
        <time>2023-06-19T15:42:17.000Z</time>
      </trkpt>
      <trkpt lat="45.85941" lon="4.70975">
        <ele>203.63577</ele>
        <time>2023-06-19T15:42:18.000Z</time>
      </trkpt>
      <trkpt lat="45.85947" lon="4.70974">
        <ele>202.03325</ele>
        <time>2023-06-19T15:42:19.000Z</time>
      </trkpt>
      <trkpt lat="45.85953" lon="4.70973">
        <ele>200.33301</ele>
        <time>2023-06-19T15:42:20.000Z</time>
      </trkpt>
      <trkpt lat="45.85959" lon="4.70974">
        <ele>198.6577</ele>
        <time>2023-06-19T15:42:21.000Z</time>
      </trkpt>
      <trkpt lat="45.85964" lon="4.70974">
        <ele>196.99007</ele>
        <time>2023-06-19T15:42:22.000Z</time>
      </trkpt>
      <trkpt lat="45.8597" lon="4.70975">
        <ele>196.90584</ele>
        <time>2023-06-19T15:42:23.000Z</time>
      </trkpt>
      <trkpt lat="45.85976" lon="4.70976">
        <ele>196.7831</ele>
        <time>2023-06-19T15:42:24.000Z</time>
      </trkpt>
      <trkpt lat="45.85982" lon="4.70978">
        <ele>196.59128</ele>
        <time>2023-06-19T15:42:25.000Z</time>
      </trkpt>
      <trkpt lat="45.85988" lon="4.70981">
        <ele>196.4476</ele>
        <time>2023-06-19T15:42:26.000Z</time>
      </trkpt>
      <trkpt lat="45.85994" lon="4.70984">
        <ele>196.30649</ele>
        <time>2023-06-19T15:42:27.000Z</time>
      </trkpt>
      <trkpt lat="45.85999" lon="4.70987">
        <ele>196.29124</ele>
        <time>2023-06-19T15:42:28.000Z</time>
      </trkpt>
      <trkpt lat="45.86003" lon="4.70992">
        <ele>196.29681</ele>
        <time>2023-06-19T15:42:29.000Z</time>
      </trkpt>
      <trkpt lat="45.86008" lon="4.70997">
        <ele>196.31552</ele>
        <time>2023-06-19T15:42:30.000Z</time>
      </trkpt>
      <trkpt lat="45.86013" lon="4.71003">
        <ele>196.32999</ele>
        <time>2023-06-19T15:42:31.000Z</time>
      </trkpt>
      <trkpt lat="45.86017" lon="4.71008">
        <ele>196.32259</ele>
        <time>2023-06-19T15:42:32.000Z</time>
      </trkpt>
      <trkpt lat="45.86021" lon="4.71015">
        <ele>196.31589</ele>
        <time>2023-06-19T15:42:33.000Z</time>
      </trkpt>
      <trkpt lat="45.86024" lon="4.71021">
        <ele>196.30807</ele>
        <time>2023-06-19T15:42:34.000Z</time>
      </trkpt>
      <trkpt lat="45.86027" lon="4.71028">
        <ele>196.36162</ele>
        <time>2023-06-19T15:42:35.000Z</time>
      </trkpt>
      <trkpt lat="45.8603" lon="4.71036">
        <ele>196.40782</ele>
        <time>2023-06-19T15:42:36.000Z</time>
      </trkpt>
      <trkpt lat="45.86032" lon="4.71043">
        <ele>196.47188</ele>
        <time>2023-06-19T15:42:37.000Z</time>
      </trkpt>
      <trkpt lat="45.86034" lon="4.71051">
        <ele>196.5565</ele>
        <time>2023-06-19T15:42:38.000Z</time>
      </trkpt>
      <trkpt lat="45.86036" lon="4.71059">
        <ele>196.65262</ele>
        <time>2023-06-19T15:42:39.000Z</time>
      </trkpt>
      <trkpt lat="45.86037" lon="4.71067">
        <ele>196.7863</ele>
        <time>2023-06-19T15:42:40.000Z</time>
      </trkpt>
      <trkpt lat="45.86039" lon="4.71075">
        <ele>196.91617</ele>
        <time>2023-06-19T15:42:41.000Z</time>
      </trkpt>
      <trkpt lat="45.8604" lon="4.71083">
        <ele>197.08784</ele>
        <time>2023-06-19T15:42:42.000Z</time>
      </trkpt>
      <trkpt lat="45.86043" lon="4.71091">
        <ele>197.22923</ele>
        <time>2023-06-19T15:42:43.000Z</time>
      </trkpt>
      <trkpt lat="45.86045" lon="4.71098">
        <ele>197.42451</ele>
        <time>2023-06-19T15:42:44.000Z</time>
      </trkpt>
      <trkpt lat="45.86049" lon="4.71105">
        <ele>197.70352</ele>
        <time>2023-06-19T15:42:45.000Z</time>
      </trkpt>
      <trkpt lat="45.86053" lon="4.7111">
        <ele>197.97157</ele>
        <time>2023-06-19T15:42:46.000Z</time>
      </trkpt>
      <trkpt lat="45.86056" lon="4.71116">
        <ele>198.23187</ele>
        <time>2023-06-19T15:42:47.000Z</time>
      </trkpt>
      <trkpt lat="45.86061" lon="4.71122">
        <ele>198.40067</ele>
        <time>2023-06-19T15:42:48.000Z</time>
      </trkpt>
      <trkpt lat="45.86065" lon="4.71127">
        <ele>198.54565</ele>
        <time>2023-06-19T15:42:49.000Z</time>
      </trkpt>
      <trkpt lat="45.8607" lon="4.71131">
        <ele>198.67447</ele>
        <time>2023-06-19T15:42:50.000Z</time>
      </trkpt>
      <trkpt lat="45.86074" lon="4.71135">
        <ele>198.80774</ele>
        <time>2023-06-19T15:42:51.000Z</time>
      </trkpt>
      <trkpt lat="45.86079" lon="4.7114">
        <ele>198.95007</ele>
        <time>2023-06-19T15:42:52.000Z</time>
      </trkpt>
      <trkpt lat="45.86083" lon="4.71143">
        <ele>199.04788</ele>
        <time>2023-06-19T15:42:53.000Z</time>
      </trkpt>
      <trkpt lat="45.86087" lon="4.71147">
        <ele>199.22391</ele>
        <time>2023-06-19T15:42:54.000Z</time>
      </trkpt>
      <trkpt lat="45.86091" lon="4.71148">
        <ele>199.3633</ele>
        <time>2023-06-19T15:42:55.000Z</time>
      </trkpt>
      <trkpt lat="45.86095" lon="4.71143">
        <ele>199.49837</ele>
        <time>2023-06-19T15:42:56.000Z</time>
      </trkpt>
      <trkpt lat="45.86099" lon="4.7114">
        <ele>199.58047</ele>
        <time>2023-06-19T15:42:57.000Z</time>
      </trkpt>
      <trkpt lat="45.86103" lon="4.71136">
        <ele>199.62312</ele>
        <time>2023-06-19T15:42:58.000Z</time>
      </trkpt>
      <trkpt lat="45.86107" lon="4.71132">
        <ele>199.63229</ele>
        <time>2023-06-19T15:42:59.000Z</time>
      </trkpt>
      <trkpt lat="45.86111" lon="4.71127">
        <ele>199.60179</ele>
        <time>2023-06-19T15:43:00.000Z</time>
      </trkpt>
      <trkpt lat="45.86115" lon="4.71122">
        <ele>199.53468</ele>
        <time>2023-06-19T15:43:01.000Z</time>
      </trkpt>
      <trkpt lat="45.86118" lon="4.71116">
        <ele>199.44699</ele>
        <time>2023-06-19T15:43:02.000Z</time>
      </trkpt>
      <trkpt lat="45.8612" lon="4.71109">
        <ele>199.38148</ele>
        <time>2023-06-19T15:43:03.000Z</time>
      </trkpt>
      <trkpt lat="45.86122" lon="4.71103">
        <ele>199.27768</ele>
        <time>2023-06-19T15:43:04.000Z</time>
      </trkpt>
      <trkpt lat="45.86125" lon="4.71097">
        <ele>199.03648</ele>
        <time>2023-06-19T15:43:05.000Z</time>
      </trkpt>
      <trkpt lat="45.86129" lon="4.7109">
        <ele>198.84074</ele>
        <time>2023-06-19T15:43:06.000Z</time>
      </trkpt>
      <trkpt lat="45.86131" lon="4.71083">
        <ele>198.6185</ele>
        <time>2023-06-19T15:43:07.000Z</time>
      </trkpt>
      <trkpt lat="45.86134" lon="4.71076">
        <ele>198.38852</ele>
        <time>2023-06-19T15:43:08.000Z</time>
      </trkpt>
      <trkpt lat="45.86137" lon="4.71069">
        <ele>198.21149</ele>
        <time>2023-06-19T15:43:09.000Z</time>
      </trkpt>
      <trkpt lat="45.86142" lon="4.71066">
        <ele>198.06479</ele>
        <time>2023-06-19T15:43:10.000Z</time>
      </trkpt>
      <trkpt lat="45.86146" lon="4.71062">
        <ele>197.88243</ele>
        <time>2023-06-19T15:43:11.000Z</time>
      </trkpt>
      <trkpt lat="45.86151" lon="4.71058">
        <ele>197.72273</ele>
        <time>2023-06-19T15:43:12.000Z</time>
      </trkpt>
      <trkpt lat="45.86157" lon="4.71055">
        <ele>197.57201</ele>
        <time>2023-06-19T15:43:13.000Z</time>
      </trkpt>
      <trkpt lat="45.86163" lon="4.71054">
        <ele>197.30103</ele>
        <time>2023-06-19T15:43:14.000Z</time>
      </trkpt>
      <trkpt lat="45.86168" lon="4.71052">
        <ele>197.03928</ele>
        <time>2023-06-19T15:43:15.000Z</time>
      </trkpt>
      <trkpt lat="45.86174" lon="4.7105">
        <ele>196.76282</ele>
        <time>2023-06-19T15:43:16.000Z</time>
      </trkpt>
      <trkpt lat="45.86179" lon="4.71048">
        <ele>196.53725</ele>
        <time>2023-06-19T15:43:17.000Z</time>
      </trkpt>
      <trkpt lat="45.86184" lon="4.71045">
        <ele>196.37393</ele>
        <time>2023-06-19T15:43:18.000Z</time>
      </trkpt>
      <trkpt lat="45.86188" lon="4.7104">
        <ele>196.22993</ele>
        <time>2023-06-19T15:43:19.000Z</time>
      </trkpt>
      <trkpt lat="45.86193" lon="4.71036">
        <ele>196.1293</ele>
        <time>2023-06-19T15:43:20.000Z</time>
      </trkpt>
      <trkpt lat="45.86195" lon="4.71034">
        <ele>196.08377</ele>
        <time>2023-06-19T15:43:21.000Z</time>
      </trkpt>
      <trkpt lat="45.86198" lon="4.71033">
        <ele>196.00826</ele>
        <time>2023-06-19T15:43:22.000Z</time>
      </trkpt>
      <trkpt lat="45.862" lon="4.71031">
        <ele>195.91066</ele>
        <time>2023-06-19T15:43:23.000Z</time>
      </trkpt>
      <trkpt lat="45.86203" lon="4.71029">
        <ele>195.86121</ele>
        <time>2023-06-19T15:43:24.000Z</time>
      </trkpt>
      <trkpt lat="45.86207" lon="4.71029">
        <ele>195.86644</ele>
        <time>2023-06-19T15:43:25.000Z</time>
      </trkpt>
      <trkpt lat="45.86208" lon="4.71026">
        <ele>195.7717</ele>
        <time>2023-06-19T15:43:26.000Z</time>
      </trkpt>
      <trkpt lat="45.86209" lon="4.71022">
        <ele>195.72696</ele>
        <time>2023-06-19T15:43:27.000Z</time>
      </trkpt>
      <trkpt lat="45.86211" lon="4.71018">
        <ele>195.70821</ele>
        <time>2023-06-19T15:43:28.000Z</time>
      </trkpt>
      <trkpt lat="45.86213" lon="4.71015">
        <ele>195.69498</ele>
        <time>2023-06-19T15:43:29.000Z</time>
      </trkpt>
      <trkpt lat="45.86216" lon="4.71012">
        <ele>195.65929</ele>
        <time>2023-06-19T15:43:30.000Z</time>
      </trkpt>
      <trkpt lat="45.86218" lon="4.71009">
        <ele>195.62076</ele>
        <time>2023-06-19T15:43:31.000Z</time>
      </trkpt>
      <trkpt lat="45.86221" lon="4.71006">
        <ele>195.56796</ele>
        <time>2023-06-19T15:43:32.000Z</time>
      </trkpt>
      <trkpt lat="45.86222" lon="4.71003">
        <ele>195.558</ele>
        <time>2023-06-19T15:43:32.335Z</time>
      </trkpt>
      <trkpt lat="45.86227" lon="4.70998">
        <ele>195.49155</ele>
        <time>2023-06-19T15:43:34.334Z</time>
      </trkpt>
      <trkpt lat="45.86229" lon="4.70999">
        <ele>195.45367</ele>
        <time>2023-06-19T15:43:35.000Z</time>
      </trkpt>
      <trkpt lat="45.86237" lon="4.70998">
        <ele>195.36794</ele>
        <time>2023-06-19T15:43:37.000Z</time>
      </trkpt>
      <trkpt lat="45.86241" lon="4.70999">
        <ele>195.26105</ele>
        <time>2023-06-19T15:43:38.000Z</time>
      </trkpt>
      <trkpt lat="45.86244" lon="4.71002">
        <ele>195.12514</ele>
        <time>2023-06-19T15:43:39.000Z</time>
      </trkpt>
      <trkpt lat="45.86247" lon="4.71006">
        <ele>194.98781</ele>
        <time>2023-06-19T15:43:40.000Z</time>
      </trkpt>
      <trkpt lat="45.86249" lon="4.7101">
        <ele>194.83614</ele>
        <time>2023-06-19T15:43:41.000Z</time>
      </trkpt>
      <trkpt lat="45.86252" lon="4.71013">
        <ele>194.68298</ele>
        <time>2023-06-19T15:43:42.000Z</time>
      </trkpt>
      <trkpt lat="45.86254" lon="4.71017">
        <ele>194.55296</ele>
        <time>2023-06-19T15:43:43.000Z</time>
      </trkpt>
      <trkpt lat="45.86256" lon="4.7102">
        <ele>194.43663</ele>
        <time>2023-06-19T15:43:44.000Z</time>
      </trkpt>
      <trkpt lat="45.86259" lon="4.71024">
        <ele>194.31171</ele>
        <time>2023-06-19T15:43:45.000Z</time>
      </trkpt>
      <trkpt lat="45.86262" lon="4.71028">
        <ele>194.25302</ele>
        <time>2023-06-19T15:43:46.000Z</time>
      </trkpt>
      <trkpt lat="45.86265" lon="4.71032">
        <ele>194.23784</ele>
        <time>2023-06-19T15:43:47.000Z</time>
      </trkpt>
      <trkpt lat="45.86269" lon="4.71034">
        <ele>194.18672</ele>
        <time>2023-06-19T15:43:48.000Z</time>
      </trkpt>
      <trkpt lat="45.86274" lon="4.71034">
        <ele>194.14458</ele>
        <time>2023-06-19T15:43:49.000Z</time>
      </trkpt>
      <trkpt lat="45.86278" lon="4.71034">
        <ele>194.05931</ele>
        <time>2023-06-19T15:43:50.000Z</time>
      </trkpt>
      <trkpt lat="45.86283" lon="4.71029">
        <ele>193.97787</ele>
        <time>2023-06-19T15:43:51.000Z</time>
      </trkpt>
      <trkpt lat="45.86288" lon="4.71029">
        <ele>193.89188</ele>
        <time>2023-06-19T15:43:52.000Z</time>
      </trkpt>
      <trkpt lat="45.86293" lon="4.71029">
        <ele>193.77733</ele>
        <time>2023-06-19T15:43:53.000Z</time>
      </trkpt>
      <trkpt lat="45.86298" lon="4.71028">
        <ele>193.65512</ele>
        <time>2023-06-19T15:43:54.000Z</time>
      </trkpt>
      <trkpt lat="45.86303" lon="4.71028">
        <ele>193.63272</ele>
        <time>2023-06-19T15:43:55.000Z</time>
      </trkpt>
      <trkpt lat="45.86307" lon="4.71028">
        <ele>193.54817</ele>
        <time>2023-06-19T15:43:56.000Z</time>
      </trkpt>
      <trkpt lat="45.86313" lon="4.71028">
        <ele>193.51053</ele>
        <time>2023-06-19T15:43:57.000Z</time>
      </trkpt>
      <trkpt lat="45.86318" lon="4.71028">
        <ele>193.47586</ele>
        <time>2023-06-19T15:43:58.000Z</time>
      </trkpt>
      <trkpt lat="45.86323" lon="4.71028">
        <ele>193.4476</ele>
        <time>2023-06-19T15:43:59.000Z</time>
      </trkpt>
      <trkpt lat="45.86328" lon="4.71028">
        <ele>193.45328</ele>
        <time>2023-06-19T15:44:00.000Z</time>
      </trkpt>
      <trkpt lat="45.86332" lon="4.71028">
        <ele>193.45969</ele>
        <time>2023-06-19T15:44:01.000Z</time>
      </trkpt>
      <trkpt lat="45.86337" lon="4.71029">
        <ele>193.44193</ele>
        <time>2023-06-19T15:44:02.000Z</time>
      </trkpt>
      <trkpt lat="45.86342" lon="4.7103">
        <ele>193.3605</ele>
        <time>2023-06-19T15:44:03.000Z</time>
      </trkpt>
      <trkpt lat="45.86348" lon="4.7103">
        <ele>193.27869</ele>
        <time>2023-06-19T15:44:04.000Z</time>
      </trkpt>
      <trkpt lat="45.86354" lon="4.71029">
        <ele>193.18384</ele>
        <time>2023-06-19T15:44:05.000Z</time>
      </trkpt>
      <trkpt lat="45.8636" lon="4.71028">
        <ele>193.08569</ele>
        <time>2023-06-19T15:44:06.000Z</time>
      </trkpt>
      <trkpt lat="45.86366" lon="4.71025">
        <ele>192.97711</ele>
        <time>2023-06-19T15:44:07.000Z</time>
      </trkpt>
      <trkpt lat="45.86371" lon="4.71023">
        <ele>192.88348</ele>
        <time>2023-06-19T15:44:08.000Z</time>
      </trkpt>
      <trkpt lat="45.86377" lon="4.7102">
        <ele>192.73933</ele>
        <time>2023-06-19T15:44:09.000Z</time>
      </trkpt>
      <trkpt lat="45.86382" lon="4.71017">
        <ele>192.60426</ele>
        <time>2023-06-19T15:44:10.000Z</time>
      </trkpt>
      <trkpt lat="45.86388" lon="4.71014">
        <ele>192.43863</ele>
        <time>2023-06-19T15:44:11.000Z</time>
      </trkpt>
      <trkpt lat="45.86393" lon="4.71011">
        <ele>192.27985</ele>
        <time>2023-06-19T15:44:12.000Z</time>
      </trkpt>
      <trkpt lat="45.86397" lon="4.71008">
        <ele>192.16409</ele>
        <time>2023-06-19T15:44:13.000Z</time>
      </trkpt>
      <trkpt lat="45.86401" lon="4.71006">
        <ele>192.00143</ele>
        <time>2023-06-19T15:44:14.000Z</time>
      </trkpt>
      <trkpt lat="45.86404" lon="4.71003">
        <ele>191.85161</ele>
        <time>2023-06-19T15:44:15.000Z</time>
      </trkpt>
      <trkpt lat="45.86408" lon="4.71001">
        <ele>191.71515</ele>
        <time>2023-06-19T15:44:16.000Z</time>
      </trkpt>
      <trkpt lat="45.86412" lon="4.70999">
        <ele>191.62242</ele>
        <time>2023-06-19T15:44:17.000Z</time>
      </trkpt>
      <trkpt lat="45.86416" lon="4.70997">
        <ele>191.54625</ele>
        <time>2023-06-19T15:44:18.000Z</time>
      </trkpt>
      <trkpt lat="45.8642" lon="4.70995">
        <ele>191.45451</ele>
        <time>2023-06-19T15:44:19.000Z</time>
      </trkpt>
      <trkpt lat="45.86424" lon="4.70993">
        <ele>191.34976</ele>
        <time>2023-06-19T15:44:20.000Z</time>
      </trkpt>
      <trkpt lat="45.86429" lon="4.70991">
        <ele>191.23793</ele>
        <time>2023-06-19T15:44:21.000Z</time>
      </trkpt>
      <trkpt lat="45.86433" lon="4.70989">
        <ele>191.16405</ele>
        <time>2023-06-19T15:44:22.000Z</time>
      </trkpt>
      <trkpt lat="45.86437" lon="4.70987">
        <ele>191.15375</ele>
        <time>2023-06-19T15:44:23.000Z</time>
      </trkpt>
      <trkpt lat="45.8644" lon="4.70986">
        <ele>191.15808</ele>
        <time>2023-06-19T15:44:24.000Z</time>
      </trkpt>
      <trkpt lat="45.86445" lon="4.70984">
        <ele>191.16702</ele>
        <time>2023-06-19T15:44:25.000Z</time>
      </trkpt>
      <trkpt lat="45.8645" lon="4.70984">
        <ele>191.17328</ele>
        <time>2023-06-19T15:44:26.000Z</time>
      </trkpt>
      <trkpt lat="45.86453" lon="4.70985">
        <ele>191.17764</ele>
        <time>2023-06-19T15:44:27.000Z</time>
      </trkpt>
      <trkpt lat="45.86458" lon="4.70985">
        <ele>191.17</ele>
        <time>2023-06-19T15:44:28.000Z</time>
      </trkpt>
      <trkpt lat="45.86462" lon="4.70986">
        <ele>191.15189</ele>
        <time>2023-06-19T15:44:29.000Z</time>
      </trkpt>
      <trkpt lat="45.86467" lon="4.70987">
        <ele>191.14832</ele>
        <time>2023-06-19T15:44:30.000Z</time>
      </trkpt>
      <trkpt lat="45.86471" lon="4.70987">
        <ele>191.18373</ele>
        <time>2023-06-19T15:44:31.000Z</time>
      </trkpt>
      <trkpt lat="45.86474" lon="4.70988">
        <ele>191.23869</ele>
        <time>2023-06-19T15:44:32.000Z</time>
      </trkpt>
      <trkpt lat="45.86478" lon="4.70988">
        <ele>191.28297</ele>
        <time>2023-06-19T15:44:33.000Z</time>
      </trkpt>
      <trkpt lat="45.86484" lon="4.70989">
        <ele>191.35442</ele>
        <time>2023-06-19T15:44:34.000Z</time>
      </trkpt>
      <trkpt lat="45.86488" lon="4.70988">
        <ele>191.40578</ele>
        <time>2023-06-19T15:44:35.000Z</time>
      </trkpt>
      <trkpt lat="45.86492" lon="4.70989">
        <ele>191.47311</ele>
        <time>2023-06-19T15:44:36.000Z</time>
      </trkpt>
      <trkpt lat="45.86495" lon="4.70989">
        <ele>191.50339</ele>
        <time>2023-06-19T15:44:37.000Z</time>
      </trkpt>
      <trkpt lat="45.86498" lon="4.70989">
        <ele>191.5383</ele>
        <time>2023-06-19T15:44:38.000Z</time>
      </trkpt>
      <trkpt lat="45.86501" lon="4.70989">
        <ele>191.54483</ele>
        <time>2023-06-19T15:44:39.000Z</time>
      </trkpt>
      <trkpt lat="45.86505" lon="4.7099">
        <ele>191.51373</ele>
        <time>2023-06-19T15:44:40.000Z</time>
      </trkpt>
      <trkpt lat="45.86508" lon="4.7099">
        <ele>191.50078</ele>
        <time>2023-06-19T15:44:41.000Z</time>
      </trkpt>
      <trkpt lat="45.86512" lon="4.70991">
        <ele>191.45963</ele>
        <time>2023-06-19T15:44:42.000Z</time>
      </trkpt>
      <trkpt lat="45.86516" lon="4.70992">
        <ele>191.40842</ele>
        <time>2023-06-19T15:44:43.000Z</time>
      </trkpt>
      <trkpt lat="45.8652" lon="4.70992">
        <ele>191.33328</ele>
        <time>2023-06-19T15:44:44.000Z</time>
      </trkpt>
      <trkpt lat="45.86524" lon="4.70992">
        <ele>191.25339</ele>
        <time>2023-06-19T15:44:45.000Z</time>
      </trkpt>
      <trkpt lat="45.86529" lon="4.70993">
        <ele>191.1871</ele>
        <time>2023-06-19T15:44:46.000Z</time>
      </trkpt>
      <trkpt lat="45.86534" lon="4.70993">
        <ele>191.12039</ele>
        <time>2023-06-19T15:44:47.000Z</time>
      </trkpt>
      <trkpt lat="45.86538" lon="4.70994">
        <ele>191.09166</ele>
        <time>2023-06-19T15:44:48.000Z</time>
      </trkpt>
      <trkpt lat="45.86543" lon="4.70995">
        <ele>191.08243</ele>
        <time>2023-06-19T15:44:49.000Z</time>
      </trkpt>
      <trkpt lat="45.86547" lon="4.70994">
        <ele>191.06049</ele>
        <time>2023-06-19T15:44:50.000Z</time>
      </trkpt>
      <trkpt lat="45.86551" lon="4.70996">
        <ele>191.02895</ele>
        <time>2023-06-19T15:44:51.000Z</time>
      </trkpt>
      <trkpt lat="45.86556" lon="4.70996">
        <ele>191.00854</ele>
        <time>2023-06-19T15:44:52.000Z</time>
      </trkpt>
      <trkpt lat="45.86561" lon="4.70998">
        <ele>191.00717</ele>
        <time>2023-06-19T15:44:53.000Z</time>
      </trkpt>
      <trkpt lat="45.86566" lon="4.71">
        <ele>191.00552</ele>
        <time>2023-06-19T15:44:54.000Z</time>
      </trkpt>
      <trkpt lat="45.86571" lon="4.71002">
        <ele>191.00203</ele>
        <time>2023-06-19T15:44:55.000Z</time>
      </trkpt>
      <trkpt lat="45.86576" lon="4.71004">
        <ele>190.97765</ele>
        <time>2023-06-19T15:44:56.000Z</time>
      </trkpt>
      <trkpt lat="45.86582" lon="4.71006">
        <ele>190.96944</ele>
        <time>2023-06-19T15:44:57.000Z</time>
      </trkpt>
      <trkpt lat="45.86588" lon="4.71007">
        <ele>190.9355</ele>
        <time>2023-06-19T15:44:58.000Z</time>
      </trkpt>
      <trkpt lat="45.86594" lon="4.71008">
        <ele>190.8985</ele>
        <time>2023-06-19T15:44:59.000Z</time>
      </trkpt>
      <trkpt lat="45.866" lon="4.7101">
        <ele>190.897</ele>
        <time>2023-06-19T15:45:00.000Z</time>
      </trkpt>
      <trkpt lat="45.86605" lon="4.71012">
        <ele>190.87727</ele>
        <time>2023-06-19T15:45:01.000Z</time>
      </trkpt>
      <trkpt lat="45.86611" lon="4.71015">
        <ele>190.85672</ele>
        <time>2023-06-19T15:45:02.000Z</time>
      </trkpt>
      <trkpt lat="45.86616" lon="4.71017">
        <ele>190.84175</ele>
        <time>2023-06-19T15:45:03.000Z</time>
      </trkpt>
      <trkpt lat="45.86621" lon="4.71019">
        <ele>190.8215</ele>
        <time>2023-06-19T15:45:04.000Z</time>
      </trkpt>
      <trkpt lat="45.86625" lon="4.71021">
        <ele>190.82773</ele>
        <time>2023-06-19T15:45:05.000Z</time>
      </trkpt>
      <trkpt lat="45.8663" lon="4.71023">
        <ele>190.83113</ele>
        <time>2023-06-19T15:45:06.000Z</time>
      </trkpt>
      <trkpt lat="45.86635" lon="4.71026">
        <ele>190.8278</ele>
        <time>2023-06-19T15:45:07.000Z</time>
      </trkpt>
      <trkpt lat="45.86641" lon="4.71029">
        <ele>190.80737</ele>
        <time>2023-06-19T15:45:08.000Z</time>
      </trkpt>
      <trkpt lat="45.86645" lon="4.71032">
        <ele>190.77448</ele>
        <time>2023-06-19T15:45:09.000Z</time>
      </trkpt>
      <trkpt lat="45.86649" lon="4.71034">
        <ele>190.7242</ele>
        <time>2023-06-19T15:45:10.000Z</time>
      </trkpt>
      <trkpt lat="45.86654" lon="4.71036">
        <ele>190.68399</ele>
        <time>2023-06-19T15:45:11.000Z</time>
      </trkpt>
      <trkpt lat="45.86659" lon="4.71037">
        <ele>190.62822</ele>
        <time>2023-06-19T15:45:12.000Z</time>
      </trkpt>
      <trkpt lat="45.86664" lon="4.71039">
        <ele>190.55711</ele>
        <time>2023-06-19T15:45:13.000Z</time>
      </trkpt>
      <trkpt lat="45.86669" lon="4.71041">
        <ele>190.4838</ele>
        <time>2023-06-19T15:45:14.000Z</time>
      </trkpt>
      <trkpt lat="45.86674" lon="4.71042">
        <ele>190.43564</ele>
        <time>2023-06-19T15:45:15.000Z</time>
      </trkpt>
      <trkpt lat="45.86679" lon="4.71045">
        <ele>190.34691</ele>
        <time>2023-06-19T15:45:16.000Z</time>
      </trkpt>
      <trkpt lat="45.86683" lon="4.71047">
        <ele>190.21338</ele>
        <time>2023-06-19T15:45:17.000Z</time>
      </trkpt>
      <trkpt lat="45.86688" lon="4.7105">
        <ele>190.10704</ele>
        <time>2023-06-19T15:45:18.000Z</time>
      </trkpt>
      <trkpt lat="45.86693" lon="4.71052">
        <ele>190.02545</ele>
        <time>2023-06-19T15:45:19.000Z</time>
      </trkpt>
      <trkpt lat="45.86698" lon="4.71054">
        <ele>189.94218</ele>
        <time>2023-06-19T15:45:20.000Z</time>
      </trkpt>
      <trkpt lat="45.86703" lon="4.71057">
        <ele>189.87363</ele>
        <time>2023-06-19T15:45:21.000Z</time>
      </trkpt>
      <trkpt lat="45.86708" lon="4.71059">
        <ele>189.78111</ele>
        <time>2023-06-19T15:45:22.000Z</time>
      </trkpt>
      <trkpt lat="45.86712" lon="4.71062">
        <ele>189.69199</ele>
        <time>2023-06-19T15:45:23.000Z</time>
      </trkpt>
      <trkpt lat="45.86717" lon="4.71065">
        <ele>189.60672</ele>
        <time>2023-06-19T15:45:24.000Z</time>
      </trkpt>
      <trkpt lat="45.86722" lon="4.71067">
        <ele>189.55336</ele>
        <time>2023-06-19T15:45:25.000Z</time>
      </trkpt>
      <trkpt lat="45.86727" lon="4.71069">
        <ele>189.49023</ele>
        <time>2023-06-19T15:45:26.000Z</time>
      </trkpt>
      <trkpt lat="45.86732" lon="4.71072">
        <ele>189.44693</ele>
        <time>2023-06-19T15:45:27.000Z</time>
      </trkpt>
      <trkpt lat="45.86737" lon="4.71074">
        <ele>189.40874</ele>
        <time>2023-06-19T15:45:28.000Z</time>
      </trkpt>
      <trkpt lat="45.86741" lon="4.71077">
        <ele>189.35501</ele>
        <time>2023-06-19T15:45:29.000Z</time>
      </trkpt>
      <trkpt lat="45.86747" lon="4.71079">
        <ele>190.56342</ele>
        <time>2023-06-19T15:45:30.000Z</time>
      </trkpt>
      <trkpt lat="45.86752" lon="4.71081">
        <ele>191.70406</ele>
        <time>2023-06-19T15:45:31.000Z</time>
      </trkpt>
      <trkpt lat="45.86756" lon="4.71083">
        <ele>192.84285</ele>
        <time>2023-06-19T15:45:32.000Z</time>
      </trkpt>
      <trkpt lat="45.86761" lon="4.71085">
        <ele>193.06253</ele>
        <time>2023-06-19T15:45:33.000Z</time>
      </trkpt>
      <trkpt lat="45.86766" lon="4.71087">
        <ele>193.2758</ele>
        <time>2023-06-19T15:45:34.000Z</time>
      </trkpt>
      <trkpt lat="45.86771" lon="4.71088">
        <ele>193.22662</ele>
        <time>2023-06-19T15:45:35.000Z</time>
      </trkpt>
      <trkpt lat="45.86777" lon="4.71088">
        <ele>193.18616</ele>
        <time>2023-06-19T15:45:36.000Z</time>
      </trkpt>
      <trkpt lat="45.86782" lon="4.71088">
        <ele>193.19913</ele>
        <time>2023-06-19T15:45:37.000Z</time>
      </trkpt>
      <trkpt lat="45.86787" lon="4.71089">
        <ele>193.12675</ele>
        <time>2023-06-19T15:45:38.000Z</time>
      </trkpt>
      <trkpt lat="45.86792" lon="4.71088">
        <ele>193.07208</ele>
        <time>2023-06-19T15:45:39.000Z</time>
      </trkpt>
      <trkpt lat="45.86797" lon="4.71087">
        <ele>193.01376</ele>
        <time>2023-06-19T15:45:40.000Z</time>
      </trkpt>
      <trkpt lat="45.86801" lon="4.71086">
        <ele>192.97781</ele>
        <time>2023-06-19T15:45:41.000Z</time>
      </trkpt>
      <trkpt lat="45.86806" lon="4.71085">
        <ele>192.96553</ele>
        <time>2023-06-19T15:45:42.000Z</time>
      </trkpt>
      <trkpt lat="45.8681" lon="4.71084">
        <ele>192.94339</ele>
        <time>2023-06-19T15:45:43.000Z</time>
      </trkpt>
      <trkpt lat="45.86813" lon="4.71083">
        <ele>192.92839</ele>
        <time>2023-06-19T15:45:44.000Z</time>
      </trkpt>
      <trkpt lat="45.86816" lon="4.71084">
        <ele>192.90685</ele>
        <time>2023-06-19T15:45:45.000Z</time>
      </trkpt>
      <trkpt lat="45.86818" lon="4.71085">
        <ele>192.90741</ele>
        <time>2023-06-19T15:45:46.000Z</time>
      </trkpt>
      <trkpt lat="45.8682" lon="4.71086">
        <ele>193.41147</ele>
        <time>2023-06-19T15:45:53.000Z</time>
      </trkpt>
      <trkpt lat="45.86823" lon="4.71086">
        <ele>193.46164</ele>
        <time>2023-06-19T15:45:58.000Z</time>
      </trkpt>
      <trkpt lat="45.86825" lon="4.71087">
        <ele>193.38898</ele>
        <time>2023-06-19T15:46:21.000Z</time>
      </trkpt>
      <trkpt lat="45.86826" lon="4.71089">
        <ele>192.06229</ele>
        <time>2023-06-19T15:46:37.000Z</time>
      </trkpt>
      <trkpt lat="45.86828" lon="4.71088">
        <ele>190.80571</ele>
        <time>2023-06-19T15:46:39.000Z</time>
      </trkpt>
      <trkpt lat="45.86831" lon="4.71087">
        <ele>189.56638</ele>
        <time>2023-06-19T15:46:41.000Z</time>
      </trkpt>
      <trkpt lat="45.86832" lon="4.71088">
        <ele>189.32175</ele>
        <time>2023-06-19T15:46:47.000Z</time>
      </trkpt>
      <trkpt lat="45.86835" lon="4.71088">
        <ele>189.03557</ele>
        <time>2023-06-19T15:46:49.000Z</time>
      </trkpt>
      <trkpt lat="45.86837" lon="4.71086">
        <ele>189.02164</ele>
        <time>2023-06-19T15:46:55.000Z</time>
      </trkpt>
      <trkpt lat="45.86841" lon="4.71086">
        <ele>189.05122</ele>
        <time>2023-06-19T15:46:57.000Z</time>
      </trkpt>
      <trkpt lat="45.86843" lon="4.71086">
        <ele>189.01765</ele>
        <time>2023-06-19T15:46:58.000Z</time>
      </trkpt>
      <trkpt lat="45.86846" lon="4.71086">
        <ele>189.07834</ele>
        <time>2023-06-19T15:46:59.000Z</time>
      </trkpt>
      <trkpt lat="45.86848" lon="4.71086">
        <ele>189.12436</ele>
        <time>2023-06-19T15:47:00.000Z</time>
      </trkpt>
      <trkpt lat="45.86851" lon="4.71086">
        <ele>189.16631</ele>
        <time>2023-06-19T15:47:01.000Z</time>
      </trkpt>
      <trkpt lat="45.86854" lon="4.71087">
        <ele>189.17545</ele>
        <time>2023-06-19T15:47:02.000Z</time>
      </trkpt>
      <trkpt lat="45.86857" lon="4.71087">
        <ele>189.19682</ele>
        <time>2023-06-19T15:47:03.000Z</time>
      </trkpt>
      <trkpt lat="45.8686" lon="4.71087">
        <ele>189.18941</ele>
        <time>2023-06-19T15:47:04.000Z</time>
      </trkpt>
      <trkpt lat="45.86862" lon="4.71087">
        <ele>189.19595</ele>
        <time>2023-06-19T15:47:05.000Z</time>
      </trkpt>
      <trkpt lat="45.86865" lon="4.71087">
        <ele>189.16217</ele>
        <time>2023-06-19T15:47:06.000Z</time>
      </trkpt>
      <trkpt lat="45.86868" lon="4.71087">
        <ele>189.11234</ele>
        <time>2023-06-19T15:47:07.000Z</time>
      </trkpt>
      <trkpt lat="45.86871" lon="4.71087">
        <ele>188.55455</ele>
        <time>2023-06-19T15:47:08.000Z</time>
      </trkpt>
      <trkpt lat="45.86873" lon="4.71086">
        <ele>188.44504</ele>
        <time>2023-06-19T15:47:09.000Z</time>
      </trkpt>
      <trkpt lat="45.86876" lon="4.71085">
        <ele>188.48683</ele>
        <time>2023-06-19T15:47:10.000Z</time>
      </trkpt>
      <trkpt lat="45.86879" lon="4.71084">
        <ele>188.56497</ele>
        <time>2023-06-19T15:47:11.000Z</time>
      </trkpt>
      <trkpt lat="45.86882" lon="4.71082">
        <ele>188.62682</ele>
        <time>2023-06-19T15:47:12.000Z</time>
      </trkpt>
      <trkpt lat="45.86885" lon="4.7108">
        <ele>188.6788</ele>
        <time>2023-06-19T15:47:13.000Z</time>
      </trkpt>
      <trkpt lat="45.86888" lon="4.71078">
        <ele>188.62979</ele>
        <time>2023-06-19T15:47:14.000Z</time>
      </trkpt>
      <trkpt lat="45.86889" lon="4.71077">
        <ele>188.68886</ele>
        <time>2023-06-19T15:47:16.000Z</time>
      </trkpt>
      <trkpt lat="45.86891" lon="4.71073">
        <ele>188.73184</ele>
        <time>2023-06-19T15:47:26.000Z</time>
      </trkpt>
      <trkpt lat="45.8689" lon="4.7107">
        <ele>188.73691</ele>
        <time>2023-06-19T15:47:27.000Z</time>
      </trkpt>
      <trkpt lat="45.86888" lon="4.71067">
        <ele>188.78494</ele>
        <time>2023-06-19T15:47:29.000Z</time>
      </trkpt>
      <trkpt lat="45.86884" lon="4.71066">
        <ele>188.80092</ele>
        <time>2023-06-19T15:47:31.000Z</time>
      </trkpt>
      <trkpt lat="45.86882" lon="4.71064">
        <ele>188.82462</ele>
        <time>2023-06-19T15:47:33.000Z</time>
      </trkpt>
      <trkpt lat="45.86884" lon="4.71063">
        <ele>188.77635</ele>
        <time>2023-06-19T15:47:53.000Z</time>
      </trkpt>
      <trkpt lat="45.86885" lon="4.71061">
        <ele>189.91165</ele>
        <time>2023-06-19T15:48:18.000Z</time>
      </trkpt>
      <trkpt lat="45.86883" lon="4.71057">
        <ele>191.25858</ele>
        <time>2023-06-19T15:48:20.000Z</time>
      </trkpt>
      <trkpt lat="45.86882" lon="4.71055">
        <ele>191.34265</ele>
        <time>2023-06-19T15:48:21.000Z</time>
      </trkpt>
      <trkpt lat="45.86881" lon="4.71053">
        <ele>191.39996</ele>
        <time>2023-06-19T15:48:22.000Z</time>
      </trkpt>
      <trkpt lat="45.8688" lon="4.7105">
        <ele>191.44276</ele>
        <time>2023-06-19T15:48:23.000Z</time>
      </trkpt>
      <trkpt lat="45.86879" lon="4.71045">
        <ele>191.46967</ele>
        <time>2023-06-19T15:48:24.000Z</time>
      </trkpt>
      <trkpt lat="45.86878" lon="4.71039">
        <ele>191.48813</ele>
        <time>2023-06-19T15:48:25.000Z</time>
      </trkpt>
      <trkpt lat="45.86876" lon="4.71033">
        <ele>191.50705</ele>
        <time>2023-06-19T15:48:26.000Z</time>
      </trkpt>
      <trkpt lat="45.86875" lon="4.71028">
        <ele>191.50154</ele>
        <time>2023-06-19T15:48:27.000Z</time>
      </trkpt>
      <trkpt lat="45.86874" lon="4.71022">
        <ele>191.48235</ele>
        <time>2023-06-19T15:48:28.000Z</time>
      </trkpt>
      <trkpt lat="45.86874" lon="4.71016">
        <ele>191.46707</ele>
        <time>2023-06-19T15:48:29.000Z</time>
      </trkpt>
      <trkpt lat="45.86873" lon="4.7101">
        <ele>191.4556</ele>
        <time>2023-06-19T15:48:30.000Z</time>
      </trkpt>
      <trkpt lat="45.86872" lon="4.71004">
        <ele>191.42422</ele>
        <time>2023-06-19T15:48:31.000Z</time>
      </trkpt>
      <trkpt lat="45.86871" lon="4.70998">
        <ele>191.31952</ele>
        <time>2023-06-19T15:48:32.000Z</time>
      </trkpt>
      <trkpt lat="45.8687" lon="4.70993">
        <ele>191.21867</ele>
        <time>2023-06-19T15:48:33.000Z</time>
      </trkpt>
      <trkpt lat="45.8687" lon="4.70987">
        <ele>191.14972</ele>
        <time>2023-06-19T15:48:34.000Z</time>
      </trkpt>
      <trkpt lat="45.86869" lon="4.70982">
        <ele>191.09154</ele>
        <time>2023-06-19T15:48:35.000Z</time>
      </trkpt>
      <trkpt lat="45.86868" lon="4.70978">
        <ele>191.04066</ele>
        <time>2023-06-19T15:48:36.000Z</time>
      </trkpt>
      <trkpt lat="45.86866" lon="4.70973">
        <ele>190.98569</ele>
        <time>2023-06-19T15:48:37.000Z</time>
      </trkpt>
      <trkpt lat="45.86864" lon="4.70968">
        <ele>190.96049</ele>
        <time>2023-06-19T15:48:38.000Z</time>
      </trkpt>
      <trkpt lat="45.86862" lon="4.70964">
        <ele>189.73665</ele>
        <time>2023-06-19T15:48:39.000Z</time>
      </trkpt>
      <trkpt lat="45.8686" lon="4.7096">
        <ele>188.28072</ele>
        <time>2023-06-19T15:48:40.000Z</time>
      </trkpt>
      <trkpt lat="45.86858" lon="4.70956">
        <ele>188.14255</ele>
        <time>2023-06-19T15:48:41.000Z</time>
      </trkpt>
      <trkpt lat="45.86856" lon="4.70951">
        <ele>188.00766</ele>
        <time>2023-06-19T15:48:42.000Z</time>
      </trkpt>
      <trkpt lat="45.86854" lon="4.70947">
        <ele>187.88301</ele>
        <time>2023-06-19T15:48:43.000Z</time>
      </trkpt>
      <trkpt lat="45.86852" lon="4.70942">
        <ele>187.79822</ele>
        <time>2023-06-19T15:48:44.000Z</time>
      </trkpt>
      <trkpt lat="45.8685" lon="4.70938">
        <ele>187.72629</ele>
        <time>2023-06-19T15:48:45.000Z</time>
      </trkpt>
      <trkpt lat="45.86848" lon="4.70933">
        <ele>187.63779</ele>
        <time>2023-06-19T15:48:46.000Z</time>
      </trkpt>
      <trkpt lat="45.86846" lon="4.70927">
        <ele>187.60086</ele>
        <time>2023-06-19T15:48:47.000Z</time>
      </trkpt>
      <trkpt lat="45.86844" lon="4.70922">
        <ele>188.92941</ele>
        <time>2023-06-19T15:48:48.000Z</time>
      </trkpt>
      <trkpt lat="45.86842" lon="4.70917">
        <ele>190.24982</ele>
        <time>2023-06-19T15:48:49.000Z</time>
      </trkpt>
      <trkpt lat="45.86839" lon="4.70911">
        <ele>190.32442</ele>
        <time>2023-06-19T15:48:50.000Z</time>
      </trkpt>
      <trkpt lat="45.86837" lon="4.70906">
        <ele>190.4462</ele>
        <time>2023-06-19T15:48:51.000Z</time>
      </trkpt>
      <trkpt lat="45.86835" lon="4.70898">
        <ele>190.58521</ele>
        <time>2023-06-19T15:48:52.000Z</time>
      </trkpt>
      <trkpt lat="45.86832" lon="4.70892">
        <ele>191.80472</ele>
        <time>2023-06-19T15:48:53.000Z</time>
      </trkpt>
      <trkpt lat="45.8683" lon="4.70887">
        <ele>193.15935</ele>
        <time>2023-06-19T15:48:54.000Z</time>
      </trkpt>
      <trkpt lat="45.86827" lon="4.70882">
        <ele>194.46777</ele>
        <time>2023-06-19T15:48:55.000Z</time>
      </trkpt>
      <trkpt lat="45.86825" lon="4.70877">
        <ele>195.85248</ele>
        <time>2023-06-19T15:48:56.000Z</time>
      </trkpt>
      <trkpt lat="45.86823" lon="4.70871">
        <ele>197.24535</ele>
        <time>2023-06-19T15:48:57.000Z</time>
      </trkpt>
      <trkpt lat="45.8682" lon="4.70866">
        <ele>198.67935</ele>
        <time>2023-06-19T15:48:58.000Z</time>
      </trkpt>
      <trkpt lat="45.86817" lon="4.70861">
        <ele>200.12648</ele>
        <time>2023-06-19T15:48:59.000Z</time>
      </trkpt>
      <trkpt lat="45.86814" lon="4.70855">
        <ele>201.57823</ele>
        <time>2023-06-19T15:49:00.000Z</time>
      </trkpt>
      <trkpt lat="45.86813" lon="4.7085">
        <ele>203.42699</ele>
        <time>2023-06-19T15:49:01.000Z</time>
      </trkpt>
      <trkpt lat="45.86809" lon="4.70845">
        <ele>205.29141</ele>
        <time>2023-06-19T15:49:02.000Z</time>
      </trkpt>
      <trkpt lat="45.86806" lon="4.70841">
        <ele>207.25467</ele>
        <time>2023-06-19T15:49:03.000Z</time>
      </trkpt>
      <trkpt lat="45.86803" lon="4.70837">
        <ele>209.44785</ele>
        <time>2023-06-19T15:49:04.000Z</time>
      </trkpt>
      <trkpt lat="45.868" lon="4.70833">
        <ele>211.61783</ele>
        <time>2023-06-19T15:49:05.000Z</time>
      </trkpt>
      <trkpt lat="45.86795" lon="4.7083">
        <ele>212.91599</ele>
        <time>2023-06-19T15:49:06.000Z</time>
      </trkpt>
      <trkpt lat="45.86791" lon="4.70827">
        <ele>214.32303</ele>
        <time>2023-06-19T15:49:07.000Z</time>
      </trkpt>
      <trkpt lat="45.86787" lon="4.70825">
        <ele>215.04184</ele>
        <time>2023-06-19T15:49:08.000Z</time>
      </trkpt>
      <trkpt lat="45.86784" lon="4.70819">
        <ele>214.26643</ele>
        <time>2023-06-19T15:49:09.000Z</time>
      </trkpt>
      <trkpt lat="45.86781" lon="4.70813">
        <ele>214.72415</ele>
        <time>2023-06-19T15:49:10.000Z</time>
      </trkpt>
      <trkpt lat="45.86777" lon="4.70808">
        <ele>215.16093</ele>
        <time>2023-06-19T15:49:11.000Z</time>
      </trkpt>
      <trkpt lat="45.86775" lon="4.70801">
        <ele>215.55661</ele>
        <time>2023-06-19T15:49:12.000Z</time>
      </trkpt>
      <trkpt lat="45.86772" lon="4.70795">
        <ele>214.91589</ele>
        <time>2023-06-19T15:49:13.000Z</time>
      </trkpt>
      <trkpt lat="45.86769" lon="4.70788">
        <ele>214.20134</ele>
        <time>2023-06-19T15:49:14.000Z</time>
      </trkpt>
      <trkpt lat="45.86766" lon="4.70782">
        <ele>213.47375</ele>
        <time>2023-06-19T15:49:15.000Z</time>
      </trkpt>
      <trkpt lat="45.86764" lon="4.70777">
        <ele>212.7677</ele>
        <time>2023-06-19T15:49:16.000Z</time>
      </trkpt>
      <trkpt lat="45.86764" lon="4.7077">
        <ele>212.10237</ele>
        <time>2023-06-19T15:49:17.000Z</time>
      </trkpt>
      <trkpt lat="45.86764" lon="4.70764">
        <ele>211.39334</ele>
        <time>2023-06-19T15:49:18.000Z</time>
      </trkpt>
      <trkpt lat="45.86763" lon="4.70758">
        <ele>210.87508</ele>
        <time>2023-06-19T15:49:19.000Z</time>
      </trkpt>
      <trkpt lat="45.86763" lon="4.7075">
        <ele>210.43021</ele>
        <time>2023-06-19T15:49:20.000Z</time>
      </trkpt>
      <trkpt lat="45.86762" lon="4.70744">
        <ele>209.24605</ele>
        <time>2023-06-19T15:49:21.000Z</time>
      </trkpt>
      <trkpt lat="45.86761" lon="4.70738">
        <ele>208.10173</ele>
        <time>2023-06-19T15:49:22.000Z</time>
      </trkpt>
      <trkpt lat="45.86759" lon="4.70734">
        <ele>206.89082</ele>
        <time>2023-06-19T15:49:23.000Z</time>
      </trkpt>
      <trkpt lat="45.86756" lon="4.70732">
        <ele>205.46123</ele>
        <time>2023-06-19T15:49:24.000Z</time>
      </trkpt>
      <trkpt lat="45.86753" lon="4.7073">
        <ele>203.59253</ele>
        <time>2023-06-19T15:49:25.000Z</time>
      </trkpt>
      <trkpt lat="45.86746" lon="4.70726">
        <ele>202.59058</ele>
        <time>2023-06-19T15:49:26.000Z</time>
      </trkpt>
      <trkpt lat="45.86741" lon="4.70724">
        <ele>201.4711</ele>
        <time>2023-06-19T15:49:27.000Z</time>
      </trkpt>
      <trkpt lat="45.86734" lon="4.70718">
        <ele>199.67302</ele>
        <time>2023-06-19T15:49:28.000Z</time>
      </trkpt>
      <trkpt lat="45.8673" lon="4.70714">
        <ele>199.44852</ele>
        <time>2023-06-19T15:49:29.000Z</time>
      </trkpt>
      <trkpt lat="45.86727" lon="4.70709">
        <ele>199.45073</ele>
        <time>2023-06-19T15:49:30.000Z</time>
      </trkpt>
      <trkpt lat="45.86724" lon="4.70704">
        <ele>199.47026</ele>
        <time>2023-06-19T15:49:31.000Z</time>
      </trkpt>
      <trkpt lat="45.86722" lon="4.70701">
        <ele>199.52577</ele>
        <time>2023-06-19T15:49:32.000Z</time>
      </trkpt>
      <trkpt lat="45.86719" lon="4.70696">
        <ele>200.59195</ele>
        <time>2023-06-19T15:49:33.000Z</time>
      </trkpt>
      <trkpt lat="45.86716" lon="4.70691">
        <ele>201.90883</ele>
        <time>2023-06-19T15:49:34.000Z</time>
      </trkpt>
      <trkpt lat="45.86713" lon="4.70687">
        <ele>203.36526</ele>
        <time>2023-06-19T15:49:35.000Z</time>
      </trkpt>
      <trkpt lat="45.86711" lon="4.70682">
        <ele>204.84209</ele>
        <time>2023-06-19T15:49:36.000Z</time>
      </trkpt>
      <trkpt lat="45.86708" lon="4.70677">
        <ele>206.2424</ele>
        <time>2023-06-19T15:49:37.000Z</time>
      </trkpt>
      <trkpt lat="45.86706" lon="4.70674">
        <ele>206.46297</ele>
        <time>2023-06-19T15:49:38.000Z</time>
      </trkpt>
      <trkpt lat="45.86705" lon="4.70671">
        <ele>206.51228</ele>
        <time>2023-06-19T15:49:39.000Z</time>
      </trkpt>
      <trkpt lat="45.86703" lon="4.70666">
        <ele>207.87845</ele>
        <time>2023-06-19T15:49:41.000Z</time>
      </trkpt>
      <trkpt lat="45.86702" lon="4.70662">
        <ele>209.49869</ele>
        <time>2023-06-19T15:49:42.000Z</time>
      </trkpt>
      <trkpt lat="45.86701" lon="4.70658">
        <ele>210.98233</ele>
        <time>2023-06-19T15:49:43.000Z</time>
      </trkpt>
      <trkpt lat="45.86699" lon="4.70654">
        <ele>210.73502</ele>
        <time>2023-06-19T15:49:44.000Z</time>
      </trkpt>
      <trkpt lat="45.86697" lon="4.7065">
        <ele>210.42715</ele>
        <time>2023-06-19T15:49:45.000Z</time>
      </trkpt>
      <trkpt lat="45.86696" lon="4.70647">
        <ele>210.52588</ele>
        <time>2023-06-19T15:49:46.000Z</time>
      </trkpt>
      <trkpt lat="45.86694" lon="4.70644">
        <ele>210.69363</ele>
        <time>2023-06-19T15:49:47.000Z</time>
      </trkpt>
      <trkpt lat="45.86692" lon="4.7064">
        <ele>210.8584</ele>
        <time>2023-06-19T15:49:48.000Z</time>
      </trkpt>
      <trkpt lat="45.8669" lon="4.70635">
        <ele>210.99829</ele>
        <time>2023-06-19T15:49:49.000Z</time>
      </trkpt>
      <trkpt lat="45.86689" lon="4.7063">
        <ele>211.02713</ele>
        <time>2023-06-19T15:49:50.000Z</time>
      </trkpt>
      <trkpt lat="45.86687" lon="4.70625">
        <ele>210.87065</ele>
        <time>2023-06-19T15:49:51.000Z</time>
      </trkpt>
      <trkpt lat="45.86686" lon="4.70621">
        <ele>210.741</ele>
        <time>2023-06-19T15:49:52.000Z</time>
      </trkpt>
      <trkpt lat="45.86684" lon="4.70617">
        <ele>210.62137</ele>
        <time>2023-06-19T15:49:53.000Z</time>
      </trkpt>
      <trkpt lat="45.86681" lon="4.70614">
        <ele>209.45944</ele>
        <time>2023-06-19T15:49:54.000Z</time>
      </trkpt>
      <trkpt lat="45.86677" lon="4.70611">
        <ele>208.0022</ele>
        <time>2023-06-19T15:49:55.000Z</time>
      </trkpt>
      <trkpt lat="45.86673" lon="4.70609">
        <ele>206.44043</ele>
        <time>2023-06-19T15:49:56.000Z</time>
      </trkpt>
      <trkpt lat="45.86669" lon="4.70609">
        <ele>204.74983</ele>
        <time>2023-06-19T15:49:57.000Z</time>
      </trkpt>
      <trkpt lat="45.86665" lon="4.7061">
        <ele>203.05437</ele>
        <time>2023-06-19T15:49:58.000Z</time>
      </trkpt>
      <trkpt lat="45.8666" lon="4.70612">
        <ele>202.58371</ele>
        <time>2023-06-19T15:49:59.000Z</time>
      </trkpt>
      <trkpt lat="45.86656" lon="4.70615">
        <ele>202.04752</ele>
        <time>2023-06-19T15:50:00.000Z</time>
      </trkpt>
      <trkpt lat="45.86653" lon="4.70618">
        <ele>200.13995</ele>
        <time>2023-06-19T15:50:01.000Z</time>
      </trkpt>
      <trkpt lat="45.86651" lon="4.70629">
        <ele>198.29544</ele>
        <time>2023-06-19T15:50:02.000Z</time>
      </trkpt>
      <trkpt lat="45.86649" lon="4.70634">
        <ele>196.5257</ele>
        <time>2023-06-19T15:50:03.000Z</time>
      </trkpt>
      <trkpt lat="45.86646" lon="4.70641">
        <ele>196.4642</ele>
        <time>2023-06-19T15:50:04.000Z</time>
      </trkpt>
      <trkpt lat="45.8664" lon="4.70644">
        <ele>196.38844</ele>
        <time>2023-06-19T15:50:05.000Z</time>
      </trkpt>
      <trkpt lat="45.86636" lon="4.70646">
        <ele>196.35019</ele>
        <time>2023-06-19T15:50:06.000Z</time>
      </trkpt>
      <trkpt lat="45.8663" lon="4.70646">
        <ele>196.27386</ele>
        <time>2023-06-19T15:50:07.000Z</time>
      </trkpt>
      <trkpt lat="45.86626" lon="4.70645">
        <ele>196.20222</ele>
        <time>2023-06-19T15:50:08.000Z</time>
      </trkpt>
      <trkpt lat="45.86622" lon="4.70643">
        <ele>196.18233</ele>
        <time>2023-06-19T15:50:09.000Z</time>
      </trkpt>
      <trkpt lat="45.86618" lon="4.7064">
        <ele>196.25195</ele>
        <time>2023-06-19T15:50:10.000Z</time>
      </trkpt>
      <trkpt lat="45.86614" lon="4.70636">
        <ele>196.29657</ele>
        <time>2023-06-19T15:50:11.000Z</time>
      </trkpt>
      <trkpt lat="45.8661" lon="4.70635">
        <ele>196.29311</ele>
        <time>2023-06-19T15:50:12.000Z</time>
      </trkpt>
      <trkpt lat="45.86606" lon="4.70632">
        <ele>196.29834</ele>
        <time>2023-06-19T15:50:13.000Z</time>
      </trkpt>
      <trkpt lat="45.86603" lon="4.70633">
        <ele>196.2444</ele>
        <time>2023-06-19T15:50:14.000Z</time>
      </trkpt>
      <trkpt lat="45.86598" lon="4.70633">
        <ele>196.19022</ele>
        <time>2023-06-19T15:50:15.000Z</time>
      </trkpt>
      <trkpt lat="45.86593" lon="4.70633">
        <ele>196.16818</ele>
        <time>2023-06-19T15:50:16.000Z</time>
      </trkpt>
      <trkpt lat="45.8659" lon="4.70634">
        <ele>196.1544</ele>
        <time>2023-06-19T15:50:17.000Z</time>
      </trkpt>
      <trkpt lat="45.86586" lon="4.70634">
        <ele>196.12112</ele>
        <time>2023-06-19T15:50:18.000Z</time>
      </trkpt>
      <trkpt lat="45.8658" lon="4.70634">
        <ele>196.11794</ele>
        <time>2023-06-19T15:50:19.000Z</time>
      </trkpt>
      <trkpt lat="45.86576" lon="4.70634">
        <ele>196.17992</ele>
        <time>2023-06-19T15:50:20.000Z</time>
      </trkpt>
      <trkpt lat="45.86571" lon="4.70634">
        <ele>196.1257</ele>
        <time>2023-06-19T15:50:21.000Z</time>
      </trkpt>
      <trkpt lat="45.86565" lon="4.70634">
        <ele>196.07193</ele>
        <time>2023-06-19T15:50:22.000Z</time>
      </trkpt>
      <trkpt lat="45.86561" lon="4.70632">
        <ele>196.01736</ele>
        <time>2023-06-19T15:50:23.000Z</time>
      </trkpt>
      <trkpt lat="45.86556" lon="4.70629">
        <ele>195.93362</ele>
        <time>2023-06-19T15:50:24.000Z</time>
      </trkpt>
      <trkpt lat="45.86552" lon="4.70625">
        <ele>195.91068</ele>
        <time>2023-06-19T15:50:25.000Z</time>
      </trkpt>
      <trkpt lat="45.86549" lon="4.70619">
        <ele>195.88754</ele>
        <time>2023-06-19T15:50:26.000Z</time>
      </trkpt>
      <trkpt lat="45.86546" lon="4.70614">
        <ele>195.89528</ele>
        <time>2023-06-19T15:50:27.000Z</time>
      </trkpt>
      <trkpt lat="45.86543" lon="4.70608">
        <ele>195.88979</ele>
        <time>2023-06-19T15:50:28.000Z</time>
      </trkpt>
      <trkpt lat="45.8654" lon="4.70602">
        <ele>195.76529</ele>
        <time>2023-06-19T15:50:29.000Z</time>
      </trkpt>
      <trkpt lat="45.86537" lon="4.70595">
        <ele>195.60953</ele>
        <time>2023-06-19T15:50:30.000Z</time>
      </trkpt>
      <trkpt lat="45.86533" lon="4.7059">
        <ele>195.49197</ele>
        <time>2023-06-19T15:50:31.000Z</time>
      </trkpt>
      <trkpt lat="45.86531" lon="4.70585">
        <ele>195.4117</ele>
        <time>2023-06-19T15:50:32.000Z</time>
      </trkpt>
      <trkpt lat="45.86527" lon="4.70581">
        <ele>195.34659</ele>
        <time>2023-06-19T15:50:33.000Z</time>
      </trkpt>
      <trkpt lat="45.86524" lon="4.70578">
        <ele>195.29338</ele>
        <time>2023-06-19T15:50:34.000Z</time>
      </trkpt>
      <trkpt lat="45.86521" lon="4.70575">
        <ele>195.26898</ele>
        <time>2023-06-19T15:50:35.000Z</time>
      </trkpt>
      <trkpt lat="45.86518" lon="4.7057">
        <ele>195.20193</ele>
        <time>2023-06-19T15:50:36.000Z</time>
      </trkpt>
      <trkpt lat="45.86514" lon="4.70568">
        <ele>195.10847</ele>
        <time>2023-06-19T15:50:37.000Z</time>
      </trkpt>
      <trkpt lat="45.86509" lon="4.70567">
        <ele>195.05557</ele>
        <time>2023-06-19T15:50:38.000Z</time>
      </trkpt>
      <trkpt lat="45.86505" lon="4.70564">
        <ele>194.94722</ele>
        <time>2023-06-19T15:50:39.000Z</time>
      </trkpt>
      <trkpt lat="45.865" lon="4.70563">
        <ele>194.86748</ele>
        <time>2023-06-19T15:50:40.000Z</time>
      </trkpt>
      <trkpt lat="45.86496" lon="4.70562">
        <ele>194.90071</ele>
        <time>2023-06-19T15:50:41.000Z</time>
      </trkpt>
      <trkpt lat="45.86492" lon="4.70561">
        <ele>194.93916</ele>
        <time>2023-06-19T15:50:42.000Z</time>
      </trkpt>
      <trkpt lat="45.86488" lon="4.70561">
        <ele>194.89137</ele>
        <time>2023-06-19T15:50:43.000Z</time>
      </trkpt>
      <trkpt lat="45.86484" lon="4.70561">
        <ele>194.92493</ele>
        <time>2023-06-19T15:50:44.000Z</time>
      </trkpt>
      <trkpt lat="45.8648" lon="4.70561">
        <ele>194.93214</ele>
        <time>2023-06-19T15:50:45.000Z</time>
      </trkpt>
      <trkpt lat="45.86476" lon="4.70561">
        <ele>194.95085</ele>
        <time>2023-06-19T15:50:46.000Z</time>
      </trkpt>
      <trkpt lat="45.8647" lon="4.70561">
        <ele>194.98991</ele>
        <time>2023-06-19T15:50:47.000Z</time>
      </trkpt>
      <trkpt lat="45.86464" lon="4.70561">
        <ele>195.03917</ele>
        <time>2023-06-19T15:50:48.000Z</time>
      </trkpt>
      <trkpt lat="45.86459" lon="4.70563">
        <ele>195.06073</ele>
        <time>2023-06-19T15:50:49.000Z</time>
      </trkpt>
      <trkpt lat="45.86454" lon="4.70564">
        <ele>195.07535</ele>
        <time>2023-06-19T15:50:50.000Z</time>
      </trkpt>
      <trkpt lat="45.8645" lon="4.70565">
        <ele>195.01572</ele>
        <time>2023-06-19T15:50:51.000Z</time>
      </trkpt>
      <trkpt lat="45.86444" lon="4.70565">
        <ele>194.94287</ele>
        <time>2023-06-19T15:50:52.000Z</time>
      </trkpt>
      <trkpt lat="45.86439" lon="4.70568">
        <ele>194.89423</ele>
        <time>2023-06-19T15:50:53.000Z</time>
      </trkpt>
      <trkpt lat="45.86433" lon="4.70568">
        <ele>194.80087</ele>
        <time>2023-06-19T15:50:54.000Z</time>
      </trkpt>
      <trkpt lat="45.86428" lon="4.7057">
        <ele>194.67641</ele>
        <time>2023-06-19T15:50:55.000Z</time>
      </trkpt>
      <trkpt lat="45.86422" lon="4.70571">
        <ele>194.59476</ele>
        <time>2023-06-19T15:50:56.000Z</time>
      </trkpt>
      <trkpt lat="45.86417" lon="4.70573">
        <ele>194.50488</ele>
        <time>2023-06-19T15:50:57.000Z</time>
      </trkpt>
      <trkpt lat="45.86412" lon="4.70574">
        <ele>194.41776</ele>
        <time>2023-06-19T15:50:58.000Z</time>
      </trkpt>
      <trkpt lat="45.86406" lon="4.70577">
        <ele>194.38086</ele>
        <time>2023-06-19T15:50:59.000Z</time>
      </trkpt>
      <trkpt lat="45.864" lon="4.70579">
        <ele>194.39134</ele>
        <time>2023-06-19T15:51:00.000Z</time>
      </trkpt>
      <trkpt lat="45.86394" lon="4.70579">
        <ele>194.33488</ele>
        <time>2023-06-19T15:51:01.000Z</time>
      </trkpt>
      <trkpt lat="45.86389" lon="4.7058">
        <ele>194.30502</ele>
        <time>2023-06-19T15:51:02.000Z</time>
      </trkpt>
      <trkpt lat="45.86385" lon="4.70578">
        <ele>194.25348</ele>
        <time>2023-06-19T15:51:03.000Z</time>
      </trkpt>
      <trkpt lat="45.86384" lon="4.70576">
        <ele>194.20204</ele>
        <time>2023-06-19T15:51:04.000Z</time>
      </trkpt>
      <trkpt lat="45.8638" lon="4.70571">
        <ele>194.16525</ele>
        <time>2023-06-19T15:51:05.000Z</time>
      </trkpt>
      <trkpt lat="45.86378" lon="4.70566">
        <ele>194.18507</ele>
        <time>2023-06-19T15:51:06.000Z</time>
      </trkpt>
      <trkpt lat="45.86376" lon="4.7056">
        <ele>194.16194</ele>
        <time>2023-06-19T15:51:07.000Z</time>
      </trkpt>
      <trkpt lat="45.86376" lon="4.70555">
        <ele>194.06912</ele>
        <time>2023-06-19T15:51:08.000Z</time>
      </trkpt>
      <trkpt lat="45.86376" lon="4.70548">
        <ele>194.0918</ele>
        <time>2023-06-19T15:51:09.000Z</time>
      </trkpt>
      <trkpt lat="45.86375" lon="4.70541">
        <ele>194.18468</ele>
        <time>2023-06-19T15:51:10.000Z</time>
      </trkpt>
      <trkpt lat="45.86374" lon="4.70534">
        <ele>194.2948</ele>
        <time>2023-06-19T15:51:11.000Z</time>
      </trkpt>
      <trkpt lat="45.86374" lon="4.70528">
        <ele>194.43161</ele>
        <time>2023-06-19T15:51:12.000Z</time>
      </trkpt>
      <trkpt lat="45.86373" lon="4.70522">
        <ele>194.52534</ele>
        <time>2023-06-19T15:51:13.000Z</time>
      </trkpt>
      <trkpt lat="45.86372" lon="4.70514">
        <ele>194.56647</ele>
        <time>2023-06-19T15:51:14.000Z</time>
      </trkpt>
      <trkpt lat="45.86374" lon="4.70506">
        <ele>194.62961</ele>
        <time>2023-06-19T15:51:15.000Z</time>
      </trkpt>
      <trkpt lat="45.86374" lon="4.70498">
        <ele>194.70726</ele>
        <time>2023-06-19T15:51:16.000Z</time>
      </trkpt>
      <trkpt lat="45.86376" lon="4.70492">
        <ele>194.78946</ele>
        <time>2023-06-19T15:51:17.000Z</time>
      </trkpt>
      <trkpt lat="45.86381" lon="4.70486">
        <ele>194.83957</ele>
        <time>2023-06-19T15:51:18.000Z</time>
      </trkpt>
      <trkpt lat="45.86385" lon="4.70481">
        <ele>194.90382</ele>
        <time>2023-06-19T15:51:19.000Z</time>
      </trkpt>
      <trkpt lat="45.86387" lon="4.70476">
        <ele>194.93936</ele>
        <time>2023-06-19T15:51:20.000Z</time>
      </trkpt>
      <trkpt lat="45.8639" lon="4.70469">
        <ele>195.03757</ele>
        <time>2023-06-19T15:51:21.000Z</time>
      </trkpt>
      <trkpt lat="45.86391" lon="4.70462">
        <ele>195.17328</ele>
        <time>2023-06-19T15:51:22.000Z</time>
      </trkpt>
      <trkpt lat="45.86394" lon="4.70458">
        <ele>195.38647</ele>
        <time>2023-06-19T15:51:23.000Z</time>
      </trkpt>
      <trkpt lat="45.86396" lon="4.70452">
        <ele>195.56703</ele>
        <time>2023-06-19T15:51:24.000Z</time>
      </trkpt>
      <trkpt lat="45.86396" lon="4.70443">
        <ele>195.73926</ele>
        <time>2023-06-19T15:51:25.000Z</time>
      </trkpt>
      <trkpt lat="45.86396" lon="4.70435">
        <ele>195.80775</ele>
        <time>2023-06-19T15:51:26.000Z</time>
      </trkpt>
      <trkpt lat="45.86396" lon="4.70427">
        <ele>195.87657</ele>
        <time>2023-06-19T15:51:27.000Z</time>
      </trkpt>
      <trkpt lat="45.86395" lon="4.70418">
        <ele>196.0061</ele>
        <time>2023-06-19T15:51:28.000Z</time>
      </trkpt>
      <trkpt lat="45.86392" lon="4.70411">
        <ele>196.10617</ele>
        <time>2023-06-19T15:51:29.000Z</time>
      </trkpt>
      <trkpt lat="45.86391" lon="4.70402">
        <ele>196.10669</ele>
        <time>2023-06-19T15:51:30.000Z</time>
      </trkpt>
      <trkpt lat="45.86389" lon="4.70395">
        <ele>196.12149</ele>
        <time>2023-06-19T15:51:31.000Z</time>
      </trkpt>
      <trkpt lat="45.86386" lon="4.7039">
        <ele>196.14871</ele>
        <time>2023-06-19T15:51:32.000Z</time>
      </trkpt>
      <trkpt lat="45.86381" lon="4.70386">
        <ele>196.22107</ele>
        <time>2023-06-19T15:51:33.000Z</time>
      </trkpt>
      <trkpt lat="45.86377" lon="4.70381">
        <ele>196.41281</ele>
        <time>2023-06-19T15:51:34.000Z</time>
      </trkpt>
      <trkpt lat="45.86371" lon="4.70375">
        <ele>196.55103</ele>
        <time>2023-06-19T15:51:35.000Z</time>
      </trkpt>
      <trkpt lat="45.86366" lon="4.70371">
        <ele>196.6557</ele>
        <time>2023-06-19T15:51:36.000Z</time>
      </trkpt>
      <trkpt lat="45.86364" lon="4.70367">
        <ele>196.78859</ele>
        <time>2023-06-19T15:51:37.000Z</time>
      </trkpt>
      <trkpt lat="45.86361" lon="4.70364">
        <ele>197.00143</ele>
        <time>2023-06-19T15:51:38.000Z</time>
      </trkpt>
      <trkpt lat="45.86356" lon="4.7036">
        <ele>197.18442</ele>
        <time>2023-06-19T15:51:39.000Z</time>
      </trkpt>
      <trkpt lat="45.86351" lon="4.70355">
        <ele>197.32999</ele>
        <time>2023-06-19T15:51:40.000Z</time>
      </trkpt>
      <trkpt lat="45.86347" lon="4.7035">
        <ele>197.46854</ele>
        <time>2023-06-19T15:51:41.000Z</time>
      </trkpt>
      <trkpt lat="45.86343" lon="4.70345">
        <ele>197.56223</ele>
        <time>2023-06-19T15:51:42.000Z</time>
      </trkpt>
      <trkpt lat="45.86339" lon="4.70339">
        <ele>197.67914</ele>
        <time>2023-06-19T15:51:43.000Z</time>
      </trkpt>
      <trkpt lat="45.86335" lon="4.70331">
        <ele>197.66725</ele>
        <time>2023-06-19T15:51:44.000Z</time>
      </trkpt>
      <trkpt lat="45.86331" lon="4.70325">
        <ele>197.67152</ele>
        <time>2023-06-19T15:51:45.000Z</time>
      </trkpt>
      <trkpt lat="45.86327" lon="4.70319">
        <ele>197.71776</ele>
        <time>2023-06-19T15:51:46.000Z</time>
      </trkpt>
      <trkpt lat="45.86325" lon="4.70311">
        <ele>197.71054</ele>
        <time>2023-06-19T15:51:47.000Z</time>
      </trkpt>
      <trkpt lat="45.86325" lon="4.70304">
        <ele>197.69789</ele>
        <time>2023-06-19T15:51:48.000Z</time>
      </trkpt>
      <trkpt lat="45.86328" lon="4.70297">
        <ele>197.6987</ele>
        <time>2023-06-19T15:51:49.000Z</time>
      </trkpt>
      <trkpt lat="45.8633" lon="4.70292">
        <ele>197.74857</ele>
        <time>2023-06-19T15:51:50.000Z</time>
      </trkpt>
      <trkpt lat="45.86331" lon="4.70284">
        <ele>197.72992</ele>
        <time>2023-06-19T15:51:51.000Z</time>
      </trkpt>
      <trkpt lat="45.86333" lon="4.70277">
        <ele>197.70432</ele>
        <time>2023-06-19T15:51:52.000Z</time>
      </trkpt>
      <trkpt lat="45.86333" lon="4.70268">
        <ele>197.59567</ele>
        <time>2023-06-19T15:51:53.000Z</time>
      </trkpt>
      <trkpt lat="45.86334" lon="4.70261">
        <ele>197.47391</ele>
        <time>2023-06-19T15:51:54.000Z</time>
      </trkpt>
      <trkpt lat="45.86335" lon="4.70252">
        <ele>197.37527</ele>
        <time>2023-06-19T15:51:55.000Z</time>
      </trkpt>
      <trkpt lat="45.86339" lon="4.70244">
        <ele>197.22137</ele>
        <time>2023-06-19T15:51:56.000Z</time>
      </trkpt>
      <trkpt lat="45.86342" lon="4.70236">
        <ele>197.08945</ele>
        <time>2023-06-19T15:51:57.000Z</time>
      </trkpt>
      <trkpt lat="45.86345" lon="4.70228">
        <ele>196.98824</ele>
        <time>2023-06-19T15:51:58.000Z</time>
      </trkpt>
      <trkpt lat="45.86349" lon="4.70222">
        <ele>196.84395</ele>
        <time>2023-06-19T15:51:59.000Z</time>
      </trkpt>
      <trkpt lat="45.86353" lon="4.70217">
        <ele>196.63614</ele>
        <time>2023-06-19T15:52:00.000Z</time>
      </trkpt>
      <trkpt lat="45.86358" lon="4.70212">
        <ele>196.46582</ele>
        <time>2023-06-19T15:52:01.000Z</time>
      </trkpt>
      <trkpt lat="45.86363" lon="4.70206">
        <ele>196.33908</ele>
        <time>2023-06-19T15:52:02.000Z</time>
      </trkpt>
      <trkpt lat="45.86365" lon="4.70201">
        <ele>196.12383</ele>
        <time>2023-06-19T15:52:03.000Z</time>
      </trkpt>
      <trkpt lat="45.86368" lon="4.70191">
        <ele>196.07553</ele>
        <time>2023-06-19T15:52:04.000Z</time>
      </trkpt>
      <trkpt lat="45.86372" lon="4.70185">
        <ele>195.98285</ele>
        <time>2023-06-19T15:52:05.000Z</time>
      </trkpt>
      <trkpt lat="45.86376" lon="4.70179">
        <ele>195.84935</ele>
        <time>2023-06-19T15:52:06.000Z</time>
      </trkpt>
      <trkpt lat="45.86378" lon="4.70172">
        <ele>195.72897</ele>
        <time>2023-06-19T15:52:07.000Z</time>
      </trkpt>
      <trkpt lat="45.8638" lon="4.70165">
        <ele>195.68155</ele>
        <time>2023-06-19T15:52:08.000Z</time>
      </trkpt>
      <trkpt lat="45.8638" lon="4.70156">
        <ele>195.62541</ele>
        <time>2023-06-19T15:52:09.000Z</time>
      </trkpt>
      <trkpt lat="45.8638" lon="4.70149">
        <ele>195.56418</ele>
        <time>2023-06-19T15:52:10.000Z</time>
      </trkpt>
      <trkpt lat="45.86382" lon="4.70141">
        <ele>195.46777</ele>
        <time>2023-06-19T15:52:11.000Z</time>
      </trkpt>
      <trkpt lat="45.86383" lon="4.70133">
        <ele>195.34048</ele>
        <time>2023-06-19T15:52:12.000Z</time>
      </trkpt>
      <trkpt lat="45.86385" lon="4.70126">
        <ele>195.2626</ele>
        <time>2023-06-19T15:52:13.000Z</time>
      </trkpt>
      <trkpt lat="45.86386" lon="4.70118">
        <ele>195.29358</ele>
        <time>2023-06-19T15:52:14.000Z</time>
      </trkpt>
      <trkpt lat="45.86387" lon="4.70111">
        <ele>195.34669</ele>
        <time>2023-06-19T15:52:15.000Z</time>
      </trkpt>
      <trkpt lat="45.8639" lon="4.70103">
        <ele>195.48973</ele>
        <time>2023-06-19T15:52:16.000Z</time>
      </trkpt>
      <trkpt lat="45.86392" lon="4.70096">
        <ele>195.53568</ele>
        <time>2023-06-19T15:52:17.000Z</time>
      </trkpt>
      <trkpt lat="45.86394" lon="4.70087">
        <ele>195.5434</ele>
        <time>2023-06-19T15:52:18.000Z</time>
      </trkpt>
      <trkpt lat="45.86394" lon="4.70079">
        <ele>195.64128</ele>
        <time>2023-06-19T15:52:19.000Z</time>
      </trkpt>
      <trkpt lat="45.86394" lon="4.70072">
        <ele>195.76102</ele>
        <time>2023-06-19T15:52:20.000Z</time>
      </trkpt>
      <trkpt lat="45.86394" lon="4.70064">
        <ele>195.77725</ele>
        <time>2023-06-19T15:52:21.000Z</time>
      </trkpt>
      <trkpt lat="45.86395" lon="4.70055">
        <ele>195.74446</ele>
        <time>2023-06-19T15:52:22.000Z</time>
      </trkpt>
      <trkpt lat="45.86398" lon="4.70048">
        <ele>195.79678</ele>
        <time>2023-06-19T15:52:23.000Z</time>
      </trkpt>
      <trkpt lat="45.86399" lon="4.7004">
        <ele>195.80801</ele>
        <time>2023-06-19T15:52:24.000Z</time>
      </trkpt>
      <trkpt lat="45.86399" lon="4.70031">
        <ele>195.85727</ele>
        <time>2023-06-19T15:52:25.000Z</time>
      </trkpt>
      <trkpt lat="45.864" lon="4.70024">
        <ele>195.91458</ele>
        <time>2023-06-19T15:52:26.000Z</time>
      </trkpt>
      <trkpt lat="45.86402" lon="4.70016">
        <ele>195.98528</ele>
        <time>2023-06-19T15:52:27.000Z</time>
      </trkpt>
      <trkpt lat="45.86403" lon="4.70008">
        <ele>195.97249</ele>
        <time>2023-06-19T15:52:28.000Z</time>
      </trkpt>
      <trkpt lat="45.86403" lon="4.7">
        <ele>196.02632</ele>
        <time>2023-06-19T15:52:29.000Z</time>
      </trkpt>
      <trkpt lat="45.86403" lon="4.69991">
        <ele>196.10857</ele>
        <time>2023-06-19T15:52:30.000Z</time>
      </trkpt>
      <trkpt lat="45.86402" lon="4.69984">
        <ele>196.3064</ele>
        <time>2023-06-19T15:52:31.000Z</time>
      </trkpt>
      <trkpt lat="45.86403" lon="4.69975">
        <ele>196.50446</ele>
        <time>2023-06-19T15:52:32.000Z</time>
      </trkpt>
      <trkpt lat="45.86404" lon="4.69968">
        <ele>196.57138</ele>
        <time>2023-06-19T15:52:33.000Z</time>
      </trkpt>
      <trkpt lat="45.86403" lon="4.6996">
        <ele>196.52762</ele>
        <time>2023-06-19T15:52:34.000Z</time>
      </trkpt>
      <trkpt lat="45.86403" lon="4.69951">
        <ele>196.47513</ele>
        <time>2023-06-19T15:52:35.000Z</time>
      </trkpt>
      <trkpt lat="45.86403" lon="4.69943">
        <ele>196.43074</ele>
        <time>2023-06-19T15:52:36.000Z</time>
      </trkpt>
      <trkpt lat="45.86402" lon="4.69934">
        <ele>196.51677</ele>
        <time>2023-06-19T15:52:37.000Z</time>
      </trkpt>
      <trkpt lat="45.86403" lon="4.69926">
        <ele>196.5079</ele>
        <time>2023-06-19T15:52:38.000Z</time>
      </trkpt>
      <trkpt lat="45.86403" lon="4.69919">
        <ele>196.4437</ele>
        <time>2023-06-19T15:52:39.000Z</time>
      </trkpt>
      <trkpt lat="45.86402" lon="4.69909">
        <ele>196.39578</ele>
        <time>2023-06-19T15:52:40.000Z</time>
      </trkpt>
      <trkpt lat="45.86401" lon="4.69902">
        <ele>196.45685</ele>
        <time>2023-06-19T15:52:41.000Z</time>
      </trkpt>
      <trkpt lat="45.864" lon="4.69894">
        <ele>196.54477</ele>
        <time>2023-06-19T15:52:42.000Z</time>
      </trkpt>
      <trkpt lat="45.86398" lon="4.69885">
        <ele>196.58919</ele>
        <time>2023-06-19T15:52:43.000Z</time>
      </trkpt>
      <trkpt lat="45.86397" lon="4.69878">
        <ele>196.62213</ele>
        <time>2023-06-19T15:52:44.000Z</time>
      </trkpt>
      <trkpt lat="45.86396" lon="4.69869">
        <ele>196.6633</ele>
        <time>2023-06-19T15:52:45.000Z</time>
      </trkpt>
      <trkpt lat="45.86393" lon="4.69862">
        <ele>196.75266</ele>
        <time>2023-06-19T15:52:46.000Z</time>
      </trkpt>
      <trkpt lat="45.86392" lon="4.69855">
        <ele>196.88396</ele>
        <time>2023-06-19T15:52:47.000Z</time>
      </trkpt>
      <trkpt lat="45.8639" lon="4.6985">
        <ele>197.00966</ele>
        <time>2023-06-19T15:52:48.000Z</time>
      </trkpt>
      <trkpt lat="45.86387" lon="4.69844">
        <ele>197.05954</ele>
        <time>2023-06-19T15:52:49.000Z</time>
      </trkpt>
      <trkpt lat="45.86383" lon="4.69838">
        <ele>197.05392</ele>
        <time>2023-06-19T15:52:50.000Z</time>
      </trkpt>
      <trkpt lat="45.86378" lon="4.69832">
        <ele>197.05171</ele>
        <time>2023-06-19T15:52:51.000Z</time>
      </trkpt>
      <trkpt lat="45.86378" lon="4.69827">
        <ele>197.03636</ele>
        <time>2023-06-19T15:52:52.000Z</time>
      </trkpt>
      <trkpt lat="45.86374" lon="4.6982">
        <ele>197.00851</ele>
        <time>2023-06-19T15:52:53.000Z</time>
      </trkpt>
      <trkpt lat="45.86369" lon="4.69812">
        <ele>196.97922</ele>
        <time>2023-06-19T15:52:54.000Z</time>
      </trkpt>
      <trkpt lat="45.86365" lon="4.69805">
        <ele>196.8989</ele>
        <time>2023-06-19T15:52:55.000Z</time>
      </trkpt>
      <trkpt lat="45.8636" lon="4.69797">
        <ele>196.74043</ele>
        <time>2023-06-19T15:52:56.000Z</time>
      </trkpt>
      <trkpt lat="45.86356" lon="4.69792">
        <ele>196.51631</ele>
        <time>2023-06-19T15:52:57.000Z</time>
      </trkpt>
      <trkpt lat="45.86353" lon="4.69786">
        <ele>196.35602</ele>
        <time>2023-06-19T15:52:58.000Z</time>
      </trkpt>
      <trkpt lat="45.86348" lon="4.69781">
        <ele>196.16023</ele>
        <time>2023-06-19T15:52:59.000Z</time>
      </trkpt>
      <trkpt lat="45.86344" lon="4.69775">
        <ele>196.01208</ele>
        <time>2023-06-19T15:53:00.000Z</time>
      </trkpt>
      <trkpt lat="45.8634" lon="4.6977">
        <ele>195.80292</ele>
        <time>2023-06-19T15:53:01.000Z</time>
      </trkpt>
      <trkpt lat="45.86337" lon="4.69767">
        <ele>195.55522</ele>
        <time>2023-06-19T15:53:02.000Z</time>
      </trkpt>
      <trkpt lat="45.86332" lon="4.69765">
        <ele>195.37369</ele>
        <time>2023-06-19T15:53:03.000Z</time>
      </trkpt>
      <trkpt lat="45.86325" lon="4.69761">
        <ele>195.20045</ele>
        <time>2023-06-19T15:53:04.000Z</time>
      </trkpt>
      <trkpt lat="45.86319" lon="4.69759">
        <ele>195.02953</ele>
        <time>2023-06-19T15:53:05.000Z</time>
      </trkpt>
      <trkpt lat="45.86312" lon="4.69758">
        <ele>194.90254</ele>
        <time>2023-06-19T15:53:06.000Z</time>
      </trkpt>
      <trkpt lat="45.86306" lon="4.69757">
        <ele>194.71558</ele>
        <time>2023-06-19T15:53:07.000Z</time>
      </trkpt>
      <trkpt lat="45.86299" lon="4.69757">
        <ele>194.52475</ele>
        <time>2023-06-19T15:53:08.000Z</time>
      </trkpt>
      <trkpt lat="45.86293" lon="4.69757">
        <ele>194.33966</ele>
        <time>2023-06-19T15:53:09.000Z</time>
      </trkpt>
      <trkpt lat="45.86287" lon="4.69757">
        <ele>194.17349</ele>
        <time>2023-06-19T15:53:10.000Z</time>
      </trkpt>
      <trkpt lat="45.8628" lon="4.69758">
        <ele>193.9906</ele>
        <time>2023-06-19T15:53:11.000Z</time>
      </trkpt>
      <trkpt lat="45.86273" lon="4.69758">
        <ele>193.82216</ele>
        <time>2023-06-19T15:53:12.000Z</time>
      </trkpt>
      <trkpt lat="45.86268" lon="4.6976">
        <ele>193.80734</ele>
        <time>2023-06-19T15:53:13.000Z</time>
      </trkpt>
      <trkpt lat="45.86262" lon="4.69761">
        <ele>193.81792</ele>
        <time>2023-06-19T15:53:14.000Z</time>
      </trkpt>
      <trkpt lat="45.86256" lon="4.69761">
        <ele>193.84065</ele>
        <time>2023-06-19T15:53:15.000Z</time>
      </trkpt>
      <trkpt lat="45.86251" lon="4.69762">
        <ele>193.86923</ele>
        <time>2023-06-19T15:53:16.000Z</time>
      </trkpt>
      <trkpt lat="45.86246" lon="4.69765">
        <ele>193.89319</ele>
        <time>2023-06-19T15:53:17.000Z</time>
      </trkpt>
      <trkpt lat="45.86241" lon="4.69769">
        <ele>193.89485</ele>
        <time>2023-06-19T15:53:18.000Z</time>
      </trkpt>
      <trkpt lat="45.86236" lon="4.69773">
        <ele>193.97485</ele>
        <time>2023-06-19T15:53:19.000Z</time>
      </trkpt>
      <trkpt lat="45.86231" lon="4.69777">
        <ele>194.04124</ele>
        <time>2023-06-19T15:53:20.000Z</time>
      </trkpt>
      <trkpt lat="45.86227" lon="4.69783">
        <ele>194.13713</ele>
        <time>2023-06-19T15:53:21.000Z</time>
      </trkpt>
      <trkpt lat="45.86222" lon="4.69788">
        <ele>194.42368</ele>
        <time>2023-06-19T15:53:22.000Z</time>
      </trkpt>
      <trkpt lat="45.86217" lon="4.69792">
        <ele>194.68254</ele>
        <time>2023-06-19T15:53:23.000Z</time>
      </trkpt>
      <trkpt lat="45.86211" lon="4.69795">
        <ele>194.86563</ele>
        <time>2023-06-19T15:53:24.000Z</time>
      </trkpt>
      <trkpt lat="45.86204" lon="4.69798">
        <ele>195.01411</ele>
        <time>2023-06-19T15:53:25.000Z</time>
      </trkpt>
      <trkpt lat="45.86197" lon="4.69801">
        <ele>195.0963</ele>
        <time>2023-06-19T15:53:26.000Z</time>
      </trkpt>
      <trkpt lat="45.86192" lon="4.69805">
        <ele>195.25565</ele>
        <time>2023-06-19T15:53:27.000Z</time>
      </trkpt>
      <trkpt lat="45.86188" lon="4.69811">
        <ele>195.4108</ele>
        <time>2023-06-19T15:53:28.000Z</time>
      </trkpt>
      <trkpt lat="45.86182" lon="4.69815">
        <ele>195.52252</ele>
        <time>2023-06-19T15:53:29.000Z</time>
      </trkpt>
      <trkpt lat="45.86177" lon="4.69819">
        <ele>195.63222</ele>
        <time>2023-06-19T15:53:30.000Z</time>
      </trkpt>
      <trkpt lat="45.86173" lon="4.69823">
        <ele>195.73236</ele>
        <time>2023-06-19T15:53:31.000Z</time>
      </trkpt>
      <trkpt lat="45.86168" lon="4.69827">
        <ele>195.82095</ele>
        <time>2023-06-19T15:53:32.000Z</time>
      </trkpt>
      <trkpt lat="45.86163" lon="4.69832">
        <ele>195.86807</ele>
        <time>2023-06-19T15:53:33.000Z</time>
      </trkpt>
      <trkpt lat="45.86157" lon="4.69836">
        <ele>195.91284</ele>
        <time>2023-06-19T15:53:34.000Z</time>
      </trkpt>
      <trkpt lat="45.86152" lon="4.69839">
        <ele>195.99597</ele>
        <time>2023-06-19T15:53:35.000Z</time>
      </trkpt>
      <trkpt lat="45.86147" lon="4.69842">
        <ele>196.10356</ele>
        <time>2023-06-19T15:53:36.000Z</time>
      </trkpt>
      <trkpt lat="45.86142" lon="4.69845">
        <ele>196.22983</ele>
        <time>2023-06-19T15:53:37.000Z</time>
      </trkpt>
      <trkpt lat="45.86137" lon="4.6985">
        <ele>196.39346</ele>
        <time>2023-06-19T15:53:38.000Z</time>
      </trkpt>
      <trkpt lat="45.86133" lon="4.69855">
        <ele>196.53084</ele>
        <time>2023-06-19T15:53:39.000Z</time>
      </trkpt>
      <trkpt lat="45.86127" lon="4.6986">
        <ele>196.61728</ele>
        <time>2023-06-19T15:53:40.000Z</time>
      </trkpt>
      <trkpt lat="45.86123" lon="4.69863">
        <ele>196.69226</ele>
        <time>2023-06-19T15:53:41.000Z</time>
      </trkpt>
      <trkpt lat="45.86118" lon="4.69868">
        <ele>196.57481</ele>
        <time>2023-06-19T15:53:42.000Z</time>
      </trkpt>
      <trkpt lat="45.86114" lon="4.6987">
        <ele>196.39801</ele>
        <time>2023-06-19T15:53:43.000Z</time>
      </trkpt>
      <trkpt lat="45.86109" lon="4.69874">
        <ele>196.29111</ele>
        <time>2023-06-19T15:53:44.000Z</time>
      </trkpt>
      <trkpt lat="45.86103" lon="4.69877">
        <ele>196.18631</ele>
        <time>2023-06-19T15:53:45.000Z</time>
      </trkpt>
      <trkpt lat="45.86097" lon="4.6988">
        <ele>196.09311</ele>
        <time>2023-06-19T15:53:46.000Z</time>
      </trkpt>
      <trkpt lat="45.8609" lon="4.69883">
        <ele>195.95822</ele>
        <time>2023-06-19T15:53:47.000Z</time>
      </trkpt>
      <trkpt lat="45.86084" lon="4.69883">
        <ele>195.871</ele>
        <time>2023-06-19T15:53:48.000Z</time>
      </trkpt>
      <trkpt lat="45.86079" lon="4.69885">
        <ele>195.85828</ele>
        <time>2023-06-19T15:53:49.000Z</time>
      </trkpt>
      <trkpt lat="45.86073" lon="4.69887">
        <ele>195.84508</ele>
        <time>2023-06-19T15:53:50.000Z</time>
      </trkpt>
      <trkpt lat="45.86068" lon="4.69888">
        <ele>195.74153</ele>
        <time>2023-06-19T15:53:51.000Z</time>
      </trkpt>
      <trkpt lat="45.86063" lon="4.6989">
        <ele>195.65347</ele>
        <time>2023-06-19T15:53:52.000Z</time>
      </trkpt>
      <trkpt lat="45.86057" lon="4.69891">
        <ele>195.56879</ele>
        <time>2023-06-19T15:53:53.000Z</time>
      </trkpt>
      <trkpt lat="45.86052" lon="4.69891">
        <ele>195.52071</ele>
        <time>2023-06-19T15:53:54.000Z</time>
      </trkpt>
      <trkpt lat="45.86046" lon="4.69892">
        <ele>195.49326</ele>
        <time>2023-06-19T15:53:55.000Z</time>
      </trkpt>
      <trkpt lat="45.86041" lon="4.69892">
        <ele>195.39728</ele>
        <time>2023-06-19T15:53:56.000Z</time>
      </trkpt>
      <trkpt lat="45.86035" lon="4.69892">
        <ele>195.3028</ele>
        <time>2023-06-19T15:53:57.000Z</time>
      </trkpt>
      <trkpt lat="45.86028" lon="4.69892">
        <ele>195.19771</ele>
        <time>2023-06-19T15:53:58.000Z</time>
      </trkpt>
      <trkpt lat="45.86024" lon="4.69891">
        <ele>195.0898</ele>
        <time>2023-06-19T15:53:59.000Z</time>
      </trkpt>
      <trkpt lat="45.86019" lon="4.69889">
        <ele>195.08261</ele>
        <time>2023-06-19T15:54:00.000Z</time>
      </trkpt>
      <trkpt lat="45.86014" lon="4.69887">
        <ele>195.13496</ele>
        <time>2023-06-19T15:54:01.000Z</time>
      </trkpt>
      <trkpt lat="45.86009" lon="4.69885">
        <ele>195.20938</ele>
        <time>2023-06-19T15:54:02.000Z</time>
      </trkpt>
      <trkpt lat="45.86003" lon="4.69881">
        <ele>195.30098</ele>
        <time>2023-06-19T15:54:03.000Z</time>
      </trkpt>
      <trkpt lat="45.85999" lon="4.69878">
        <ele>195.37561</ele>
        <time>2023-06-19T15:54:04.000Z</time>
      </trkpt>
      <trkpt lat="45.85993" lon="4.69874">
        <ele>195.47673</ele>
        <time>2023-06-19T15:54:05.000Z</time>
      </trkpt>
      <trkpt lat="45.85989" lon="4.6987">
        <ele>195.55704</ele>
        <time>2023-06-19T15:54:06.000Z</time>
      </trkpt>
      <trkpt lat="45.85984" lon="4.69866">
        <ele>195.62335</ele>
        <time>2023-06-19T15:54:07.000Z</time>
      </trkpt>
      <trkpt lat="45.85981" lon="4.69861">
        <ele>195.61209</ele>
        <time>2023-06-19T15:54:08.000Z</time>
      </trkpt>
      <trkpt lat="45.85976" lon="4.69857">
        <ele>195.57996</ele>
        <time>2023-06-19T15:54:09.000Z</time>
      </trkpt>
      <trkpt lat="45.85971" lon="4.69853">
        <ele>195.52298</ele>
        <time>2023-06-19T15:54:10.000Z</time>
      </trkpt>
      <trkpt lat="45.85966" lon="4.69848">
        <ele>195.50444</ele>
        <time>2023-06-19T15:54:11.000Z</time>
      </trkpt>
      <trkpt lat="45.8596" lon="4.69844">
        <ele>195.48592</ele>
        <time>2023-06-19T15:54:12.000Z</time>
      </trkpt>
      <trkpt lat="45.85955" lon="4.69838">
        <ele>195.50424</ele>
        <time>2023-06-19T15:54:13.000Z</time>
      </trkpt>
      <trkpt lat="45.8595" lon="4.69832">
        <ele>195.49104</ele>
        <time>2023-06-19T15:54:14.000Z</time>
      </trkpt>
      <trkpt lat="45.85946" lon="4.69827">
        <ele>195.48123</ele>
        <time>2023-06-19T15:54:15.000Z</time>
      </trkpt>
      <trkpt lat="45.85942" lon="4.69822">
        <ele>195.46347</ele>
        <time>2023-06-19T15:54:16.000Z</time>
      </trkpt>
      <trkpt lat="45.85937" lon="4.69816">
        <ele>195.4769</ele>
        <time>2023-06-19T15:54:17.000Z</time>
      </trkpt>
      <trkpt lat="45.85932" lon="4.69811">
        <ele>195.49194</ele>
        <time>2023-06-19T15:54:18.000Z</time>
      </trkpt>
      <trkpt lat="45.85928" lon="4.69805">
        <ele>195.51381</ele>
        <time>2023-06-19T15:54:19.000Z</time>
      </trkpt>
      <trkpt lat="45.85924" lon="4.69799">
        <ele>195.43777</ele>
        <time>2023-06-19T15:54:20.000Z</time>
      </trkpt>
      <trkpt lat="45.85919" lon="4.69793">
        <ele>195.32529</ele>
        <time>2023-06-19T15:54:21.000Z</time>
      </trkpt>
      <trkpt lat="45.85915" lon="4.69788">
        <ele>195.19992</ele>
        <time>2023-06-19T15:54:22.000Z</time>
      </trkpt>
      <trkpt lat="45.85911" lon="4.69782">
        <ele>195.16287</ele>
        <time>2023-06-19T15:54:23.000Z</time>
      </trkpt>
      <trkpt lat="45.85907" lon="4.69777">
        <ele>195.12776</ele>
        <time>2023-06-19T15:54:24.000Z</time>
      </trkpt>
      <trkpt lat="45.85904" lon="4.69771">
        <ele>195.10226</ele>
        <time>2023-06-19T15:54:25.000Z</time>
      </trkpt>
      <trkpt lat="45.859" lon="4.69763">
        <ele>195.14581</ele>
        <time>2023-06-19T15:54:26.000Z</time>
      </trkpt>
      <trkpt lat="45.85897" lon="4.69759">
        <ele>195.22284</ele>
        <time>2023-06-19T15:54:27.000Z</time>
      </trkpt>
      <trkpt lat="45.85893" lon="4.69752">
        <ele>195.28169</ele>
        <time>2023-06-19T15:54:28.000Z</time>
      </trkpt>
      <trkpt lat="45.85889" lon="4.69745">
        <ele>195.40767</ele>
        <time>2023-06-19T15:54:29.000Z</time>
      </trkpt>
      <trkpt lat="45.85886" lon="4.69737">
        <ele>195.49522</ele>
        <time>2023-06-19T15:54:30.000Z</time>
      </trkpt>
      <trkpt lat="45.85882" lon="4.6973">
        <ele>195.64334</ele>
        <time>2023-06-19T15:54:31.000Z</time>
      </trkpt>
      <trkpt lat="45.85879" lon="4.69724">
        <ele>195.77141</ele>
        <time>2023-06-19T15:54:32.000Z</time>
      </trkpt>
      <trkpt lat="45.85875" lon="4.69717">
        <ele>195.85605</ele>
        <time>2023-06-19T15:54:33.000Z</time>
      </trkpt>
      <trkpt lat="45.85871" lon="4.69711">
        <ele>195.85043</ele>
        <time>2023-06-19T15:54:34.000Z</time>
      </trkpt>
      <trkpt lat="45.85868" lon="4.69704">
        <ele>195.78738</ele>
        <time>2023-06-19T15:54:35.000Z</time>
      </trkpt>
      <trkpt lat="45.85865" lon="4.69698">
        <ele>195.81679</ele>
        <time>2023-06-19T15:54:36.000Z</time>
      </trkpt>
      <trkpt lat="45.85862" lon="4.6969">
        <ele>195.77525</ele>
        <time>2023-06-19T15:54:37.000Z</time>
      </trkpt>
      <trkpt lat="45.85861" lon="4.69684">
        <ele>195.75369</ele>
        <time>2023-06-19T15:54:38.000Z</time>
      </trkpt>
      <trkpt lat="45.85858" lon="4.69679">
        <ele>195.7144</ele>
        <time>2023-06-19T15:54:39.000Z</time>
      </trkpt>
      <trkpt lat="45.85855" lon="4.69671">
        <ele>195.68208</ele>
        <time>2023-06-19T15:54:40.000Z</time>
      </trkpt>
      <trkpt lat="45.85853" lon="4.69665">
        <ele>195.63029</ele>
        <time>2023-06-19T15:54:41.000Z</time>
      </trkpt>
      <trkpt lat="45.85851" lon="4.69659">
        <ele>195.57277</ele>
        <time>2023-06-19T15:54:42.000Z</time>
      </trkpt>
      <trkpt lat="45.85851" lon="4.69654">
        <ele>195.45932</ele>
        <time>2023-06-19T15:54:43.000Z</time>
      </trkpt>
      <trkpt lat="45.85849" lon="4.69646">
        <ele>195.28888</ele>
        <time>2023-06-19T15:54:44.000Z</time>
      </trkpt>
      <trkpt lat="45.85848" lon="4.69639">
        <ele>195.09421</ele>
        <time>2023-06-19T15:54:45.000Z</time>
      </trkpt>
      <trkpt lat="45.85847" lon="4.69633">
        <ele>194.78571</ele>
        <time>2023-06-19T15:54:46.000Z</time>
      </trkpt>
      <trkpt lat="45.85844" lon="4.69624">
        <ele>194.4919</ele>
        <time>2023-06-19T15:54:47.000Z</time>
      </trkpt>
      <trkpt lat="45.85841" lon="4.69616">
        <ele>194.29829</ele>
        <time>2023-06-19T15:54:48.000Z</time>
      </trkpt>
      <trkpt lat="45.85839" lon="4.69607">
        <ele>194.05598</ele>
        <time>2023-06-19T15:54:49.000Z</time>
      </trkpt>
      <trkpt lat="45.85835" lon="4.69598">
        <ele>193.83809</ele>
        <time>2023-06-19T15:54:50.000Z</time>
      </trkpt>
      <trkpt lat="45.85834" lon="4.69589">
        <ele>193.63214</ele>
        <time>2023-06-19T15:54:51.000Z</time>
      </trkpt>
      <trkpt lat="45.85832" lon="4.69578">
        <ele>193.47386</ele>
        <time>2023-06-19T15:54:52.000Z</time>
      </trkpt>
      <trkpt lat="45.85831" lon="4.69568">
        <ele>193.29382</ele>
        <time>2023-06-19T15:54:53.000Z</time>
      </trkpt>
      <trkpt lat="45.8583" lon="4.69559">
        <ele>193.18886</ele>
        <time>2023-06-19T15:54:54.000Z</time>
      </trkpt>
      <trkpt lat="45.85829" lon="4.69552">
        <ele>193.10042</ele>
        <time>2023-06-19T15:54:55.000Z</time>
      </trkpt>
      <trkpt lat="45.85829" lon="4.69543">
        <ele>192.99843</ele>
        <time>2023-06-19T15:54:56.000Z</time>
      </trkpt>
      <trkpt lat="45.85829" lon="4.69534">
        <ele>192.94719</ele>
        <time>2023-06-19T15:54:57.000Z</time>
      </trkpt>
      <trkpt lat="45.85827" lon="4.69524">
        <ele>192.87576</ele>
        <time>2023-06-19T15:54:58.000Z</time>
      </trkpt>
      <trkpt lat="45.85826" lon="4.69513">
        <ele>192.78639</ele>
        <time>2023-06-19T15:54:59.000Z</time>
      </trkpt>
      <trkpt lat="45.85825" lon="4.69505">
        <ele>192.75272</ele>
        <time>2023-06-19T15:55:00.000Z</time>
      </trkpt>
      <trkpt lat="45.85824" lon="4.69496">
        <ele>192.70743</ele>
        <time>2023-06-19T15:55:01.000Z</time>
      </trkpt>
      <trkpt lat="45.85823" lon="4.69487">
        <ele>192.64679</ele>
        <time>2023-06-19T15:55:02.000Z</time>
      </trkpt>
      <trkpt lat="45.85823" lon="4.69477">
        <ele>192.62296</ele>
        <time>2023-06-19T15:55:03.000Z</time>
      </trkpt>
      <trkpt lat="45.85823" lon="4.69468">
        <ele>192.6575</ele>
        <time>2023-06-19T15:55:04.000Z</time>
      </trkpt>
      <trkpt lat="45.85822" lon="4.69459">
        <ele>192.70938</ele>
        <time>2023-06-19T15:55:05.000Z</time>
      </trkpt>
      <trkpt lat="45.85822" lon="4.69452">
        <ele>192.87909</ele>
        <time>2023-06-19T15:55:06.000Z</time>
      </trkpt>
      <trkpt lat="45.85822" lon="4.69443">
        <ele>192.96248</ele>
        <time>2023-06-19T15:55:07.000Z</time>
      </trkpt>
      <trkpt lat="45.85823" lon="4.69434">
        <ele>192.97845</ele>
        <time>2023-06-19T15:55:08.000Z</time>
      </trkpt>
      <trkpt lat="45.85824" lon="4.69427">
        <ele>193.00137</ele>
        <time>2023-06-19T15:55:09.000Z</time>
      </trkpt>
      <trkpt lat="45.85825" lon="4.69424">
        <ele>193.07071</ele>
        <time>2023-06-19T15:55:10.000Z</time>
      </trkpt>
      <trkpt lat="45.85826" lon="4.6942">
        <ele>193.17216</ele>
        <time>2023-06-19T15:55:11.000Z</time>
      </trkpt>
      <trkpt lat="45.85828" lon="4.69419">
        <ele>193.22208</ele>
        <time>2023-06-19T15:55:12.000Z</time>
      </trkpt>
      <trkpt lat="45.8583" lon="4.69418">
        <ele>193.3512</ele>
        <time>2023-06-19T15:55:14.000Z</time>
      </trkpt>
      <trkpt lat="45.85828" lon="4.69417">
        <ele>193.66171</ele>
        <time>2023-06-19T15:55:23.000Z</time>
      </trkpt>
      <trkpt lat="45.85827" lon="4.69414">
        <ele>193.87807</ele>
        <time>2023-06-19T15:55:50.000Z</time>
      </trkpt>
      <trkpt lat="45.85825" lon="4.69417">
        <ele>194.11127</ele>
        <time>2023-06-19T15:55:52.000Z</time>
      </trkpt>
      <trkpt lat="45.85824" lon="4.69419">
        <ele>194.30269</ele>
        <time>2023-06-19T15:55:53.000Z</time>
      </trkpt>
      <trkpt lat="45.85824" lon="4.69422">
        <ele>194.48215</ele>
        <time>2023-06-19T15:55:54.000Z</time>
      </trkpt>
      <trkpt lat="45.85827" lon="4.69423">
        <ele>194.70355</ele>
        <time>2023-06-19T15:55:56.000Z</time>
      </trkpt>
      <trkpt lat="45.85829" lon="4.6942">
        <ele>194.90276</ele>
        <time>2023-06-19T15:55:57.000Z</time>
      </trkpt>
      <trkpt lat="45.85831" lon="4.69416">
        <ele>195.09746</ele>
        <time>2023-06-19T15:55:58.000Z</time>
      </trkpt>
      <trkpt lat="45.85833" lon="4.69412">
        <ele>195.2896</ele>
        <time>2023-06-19T15:55:59.000Z</time>
      </trkpt>
      <trkpt lat="45.85834" lon="4.69408">
        <ele>195.42348</ele>
        <time>2023-06-19T15:56:00.000Z</time>
      </trkpt>
      <trkpt lat="45.85836" lon="4.69403">
        <ele>195.56422</ele>
        <time>2023-06-19T15:56:01.000Z</time>
      </trkpt>
      <trkpt lat="45.85839" lon="4.69398">
        <ele>195.68878</ele>
        <time>2023-06-19T15:56:02.000Z</time>
      </trkpt>
      <trkpt lat="45.85841" lon="4.69394">
        <ele>195.74869</ele>
        <time>2023-06-19T15:56:03.000Z</time>
      </trkpt>
      <trkpt lat="45.85844" lon="4.6939">
        <ele>195.83838</ele>
        <time>2023-06-19T15:56:04.000Z</time>
      </trkpt>
      <trkpt lat="45.85846" lon="4.69385">
        <ele>195.97723</ele>
        <time>2023-06-19T15:56:05.000Z</time>
      </trkpt>
      <trkpt lat="45.85848" lon="4.6938">
        <ele>196.09816</ele>
        <time>2023-06-19T15:56:06.000Z</time>
      </trkpt>
      <trkpt lat="45.8585" lon="4.69375">
        <ele>196.17622</ele>
        <time>2023-06-19T15:56:07.000Z</time>
      </trkpt>
      <trkpt lat="45.85851" lon="4.69369">
        <ele>196.23505</ele>
        <time>2023-06-19T15:56:08.000Z</time>
      </trkpt>
      <trkpt lat="45.85848" lon="4.69361">
        <ele>196.31056</ele>
        <time>2023-06-19T15:56:09.000Z</time>
      </trkpt>
      <trkpt lat="45.85847" lon="4.69356">
        <ele>196.34889</ele>
        <time>2023-06-19T15:56:10.000Z</time>
      </trkpt>
      <trkpt lat="45.85845" lon="4.6935">
        <ele>196.20897</ele>
        <time>2023-06-19T15:56:11.000Z</time>
      </trkpt>
      <trkpt lat="45.85844" lon="4.69345">
        <ele>196.18521</ele>
        <time>2023-06-19T15:56:12.000Z</time>
      </trkpt>
      <trkpt lat="45.85842" lon="4.69339">
        <ele>196.15675</ele>
        <time>2023-06-19T15:56:13.000Z</time>
      </trkpt>
      <trkpt lat="45.85841" lon="4.69332">
        <ele>196.1886</ele>
        <time>2023-06-19T15:56:14.000Z</time>
      </trkpt>
      <trkpt lat="45.85839" lon="4.69326">
        <ele>196.23315</ele>
        <time>2023-06-19T15:56:15.000Z</time>
      </trkpt>
      <trkpt lat="45.85838" lon="4.6932">
        <ele>196.24075</ele>
        <time>2023-06-19T15:56:16.000Z</time>
      </trkpt>
      <trkpt lat="45.85836" lon="4.69314">
        <ele>196.22336</ele>
        <time>2023-06-19T15:56:17.000Z</time>
      </trkpt>
      <trkpt lat="45.85835" lon="4.69308">
        <ele>196.21579</ele>
        <time>2023-06-19T15:56:18.000Z</time>
      </trkpt>
      <trkpt lat="45.85835" lon="4.69301">
        <ele>196.19308</ele>
        <time>2023-06-19T15:56:19.000Z</time>
      </trkpt>
      <trkpt lat="45.85833" lon="4.69294">
        <ele>196.23755</ele>
        <time>2023-06-19T15:56:20.000Z</time>
      </trkpt>
      <trkpt lat="45.85833" lon="4.69287">
        <ele>196.34059</ele>
        <time>2023-06-19T15:56:21.000Z</time>
      </trkpt>
      <trkpt lat="45.85832" lon="4.6928">
        <ele>196.46193</ele>
        <time>2023-06-19T15:56:22.000Z</time>
      </trkpt>
      <trkpt lat="45.85833" lon="4.69274">
        <ele>196.64835</ele>
        <time>2023-06-19T15:56:23.000Z</time>
      </trkpt>
      <trkpt lat="45.85834" lon="4.69266">
        <ele>196.80534</ele>
        <time>2023-06-19T15:56:24.000Z</time>
      </trkpt>
      <trkpt lat="45.85835" lon="4.6926">
        <ele>196.94397</ele>
        <time>2023-06-19T15:56:25.000Z</time>
      </trkpt>
      <trkpt lat="45.85835" lon="4.69254">
        <ele>197.08348</ele>
        <time>2023-06-19T15:56:26.000Z</time>
      </trkpt>
      <trkpt lat="45.85836" lon="4.69246">
        <ele>197.23718</ele>
        <time>2023-06-19T15:56:27.000Z</time>
      </trkpt>
      <trkpt lat="45.85837" lon="4.69239">
        <ele>197.35934</ele>
        <time>2023-06-19T15:56:28.000Z</time>
      </trkpt>
      <trkpt lat="45.85839" lon="4.69232">
        <ele>197.44823</ele>
        <time>2023-06-19T15:56:29.000Z</time>
      </trkpt>
      <trkpt lat="45.8584" lon="4.69225">
        <ele>197.50778</ele>
        <time>2023-06-19T15:56:30.000Z</time>
      </trkpt>
      <trkpt lat="45.85842" lon="4.69218">
        <ele>197.56125</ele>
        <time>2023-06-19T15:56:31.000Z</time>
      </trkpt>
      <trkpt lat="45.85844" lon="4.69209">
        <ele>197.54936</ele>
        <time>2023-06-19T15:56:32.000Z</time>
      </trkpt>
      <trkpt lat="45.85847" lon="4.69203">
        <ele>197.50134</ele>
        <time>2023-06-19T15:56:33.000Z</time>
      </trkpt>
      <trkpt lat="45.85848" lon="4.69194">
        <ele>197.39703</ele>
        <time>2023-06-19T15:56:34.000Z</time>
      </trkpt>
      <trkpt lat="45.85849" lon="4.69186">
        <ele>197.29877</ele>
        <time>2023-06-19T15:56:35.000Z</time>
      </trkpt>
      <trkpt lat="45.8585" lon="4.69178">
        <ele>197.14203</ele>
        <time>2023-06-19T15:56:36.000Z</time>
      </trkpt>
      <trkpt lat="45.8585" lon="4.69171">
        <ele>196.99362</ele>
        <time>2023-06-19T15:56:37.000Z</time>
      </trkpt>
      <trkpt lat="45.85851" lon="4.69162">
        <ele>196.90834</ele>
        <time>2023-06-19T15:56:38.000Z</time>
      </trkpt>
      <trkpt lat="45.85851" lon="4.69153">
        <ele>196.86502</ele>
        <time>2023-06-19T15:56:39.000Z</time>
      </trkpt>
      <trkpt lat="45.85854" lon="4.69144">
        <ele>196.79308</ele>
        <time>2023-06-19T15:56:40.000Z</time>
      </trkpt>
      <trkpt lat="45.85856" lon="4.69135">
        <ele>196.66151</ele>
        <time>2023-06-19T15:56:41.000Z</time>
      </trkpt>
      <trkpt lat="45.85858" lon="4.69127">
        <ele>196.5407</ele>
        <time>2023-06-19T15:56:42.000Z</time>
      </trkpt>
      <trkpt lat="45.85859" lon="4.69119">
        <ele>196.33531</ele>
        <time>2023-06-19T15:56:43.000Z</time>
      </trkpt>
      <trkpt lat="45.85857" lon="4.69111">
        <ele>196.14603</ele>
        <time>2023-06-19T15:56:44.000Z</time>
      </trkpt>
      <trkpt lat="45.85858" lon="4.69103">
        <ele>195.95706</ele>
        <time>2023-06-19T15:56:45.000Z</time>
      </trkpt>
      <trkpt lat="45.85858" lon="4.69095">
        <ele>195.7959</ele>
        <time>2023-06-19T15:56:46.000Z</time>
      </trkpt>
      <trkpt lat="45.85857" lon="4.69086">
        <ele>195.64079</ele>
        <time>2023-06-19T15:56:47.000Z</time>
      </trkpt>
      <trkpt lat="45.85858" lon="4.69078">
        <ele>195.43365</ele>
        <time>2023-06-19T15:56:48.000Z</time>
      </trkpt>
      <trkpt lat="45.85861" lon="4.6907">
        <ele>195.25978</ele>
        <time>2023-06-19T15:56:49.000Z</time>
      </trkpt>
      <trkpt lat="45.85863" lon="4.69062">
        <ele>195.07846</ele>
        <time>2023-06-19T15:56:50.000Z</time>
      </trkpt>
      <trkpt lat="45.85864" lon="4.69054">
        <ele>194.92276</ele>
        <time>2023-06-19T15:56:51.000Z</time>
      </trkpt>
      <trkpt lat="45.85866" lon="4.69048">
        <ele>194.79697</ele>
        <time>2023-06-19T15:56:52.000Z</time>
      </trkpt>
      <trkpt lat="45.85869" lon="4.69042">
        <ele>194.72473</ele>
        <time>2023-06-19T15:56:53.000Z</time>
      </trkpt>
      <trkpt lat="45.8587" lon="4.69037">
        <ele>194.68707</ele>
        <time>2023-06-19T15:56:54.000Z</time>
      </trkpt>
      <trkpt lat="45.8587" lon="4.6903">
        <ele>194.67096</ele>
        <time>2023-06-19T15:56:55.000Z</time>
      </trkpt>
      <trkpt lat="45.85868" lon="4.69024">
        <ele>194.73993</ele>
        <time>2023-06-19T15:56:56.000Z</time>
      </trkpt>
      <trkpt lat="45.85867" lon="4.69018">
        <ele>194.83191</ele>
        <time>2023-06-19T15:56:57.000Z</time>
      </trkpt>
      <trkpt lat="45.85866" lon="4.6901">
        <ele>194.8916</ele>
        <time>2023-06-19T15:56:58.000Z</time>
      </trkpt>
      <trkpt lat="45.85864" lon="4.69005">
        <ele>194.97823</ele>
        <time>2023-06-19T15:56:59.000Z</time>
      </trkpt>
      <trkpt lat="45.85863" lon="4.69">
        <ele>195.00487</ele>
        <time>2023-06-19T15:57:00.000Z</time>
      </trkpt>
      <trkpt lat="45.85863" lon="4.68995">
        <ele>195.00237</ele>
        <time>2023-06-19T15:57:01.000Z</time>
      </trkpt>
      <trkpt lat="45.85862" lon="4.68989">
        <ele>195.0063</ele>
        <time>2023-06-19T15:57:02.000Z</time>
      </trkpt>
      <trkpt lat="45.85862" lon="4.68984">
        <ele>195.04929</ele>
        <time>2023-06-19T15:57:03.000Z</time>
      </trkpt>
      <trkpt lat="45.85862" lon="4.68978">
        <ele>195.09377</ele>
        <time>2023-06-19T15:57:04.000Z</time>
      </trkpt>
      <trkpt lat="45.85861" lon="4.68973">
        <ele>195.13736</ele>
        <time>2023-06-19T15:57:05.000Z</time>
      </trkpt>
      <trkpt lat="45.85861" lon="4.68968">
        <ele>195.16159</ele>
        <time>2023-06-19T15:57:06.000Z</time>
      </trkpt>
      <trkpt lat="45.8586" lon="4.68963">
        <ele>195.20799</ele>
        <time>2023-06-19T15:57:07.000Z</time>
      </trkpt>
      <trkpt lat="45.8586" lon="4.68959">
        <ele>195.2785</ele>
        <time>2023-06-19T15:57:08.000Z</time>
      </trkpt>
      <trkpt lat="45.8586" lon="4.68954">
        <ele>195.38698</ele>
        <time>2023-06-19T15:57:09.000Z</time>
      </trkpt>
      <trkpt lat="45.8586" lon="4.68949">
        <ele>195.52364</ele>
        <time>2023-06-19T15:57:10.000Z</time>
      </trkpt>
      <trkpt lat="45.8586" lon="4.68944">
        <ele>195.66508</ele>
        <time>2023-06-19T15:57:11.000Z</time>
      </trkpt>
      <trkpt lat="45.8586" lon="4.68939">
        <ele>195.82417</ele>
        <time>2023-06-19T15:57:12.000Z</time>
      </trkpt>
      <trkpt lat="45.8586" lon="4.68935">
        <ele>195.9649</ele>
        <time>2023-06-19T15:57:13.000Z</time>
      </trkpt>
      <trkpt lat="45.8586" lon="4.68929">
        <ele>196.10367</ele>
        <time>2023-06-19T15:57:14.000Z</time>
      </trkpt>
      <trkpt lat="45.8586" lon="4.68924">
        <ele>196.18497</ele>
        <time>2023-06-19T15:57:15.000Z</time>
      </trkpt>
      <trkpt lat="45.8586" lon="4.68919">
        <ele>196.2379</ele>
        <time>2023-06-19T15:57:16.000Z</time>
      </trkpt>
      <trkpt lat="45.8586" lon="4.68914">
        <ele>196.29562</ele>
        <time>2023-06-19T15:57:17.000Z</time>
      </trkpt>
      <trkpt lat="45.85861" lon="4.68908">
        <ele>196.32838</ele>
        <time>2023-06-19T15:57:18.000Z</time>
      </trkpt>
      <trkpt lat="45.85861" lon="4.68902">
        <ele>196.31898</ele>
        <time>2023-06-19T15:57:19.000Z</time>
      </trkpt>
      <trkpt lat="45.85861" lon="4.68897">
        <ele>196.39474</ele>
        <time>2023-06-19T15:57:20.000Z</time>
      </trkpt>
      <trkpt lat="45.85862" lon="4.68891">
        <ele>196.54031</ele>
        <time>2023-06-19T15:57:21.000Z</time>
      </trkpt>
      <trkpt lat="45.85862" lon="4.68885">
        <ele>196.58586</ele>
        <time>2023-06-19T15:57:22.000Z</time>
      </trkpt>
      <trkpt lat="45.85862" lon="4.6888">
        <ele>196.64763</ele>
        <time>2023-06-19T15:57:23.000Z</time>
      </trkpt>
      <trkpt lat="45.85863" lon="4.68876">
        <ele>196.74507</ele>
        <time>2023-06-19T15:57:24.000Z</time>
      </trkpt>
      <trkpt lat="45.85863" lon="4.6887">
        <ele>196.81915</ele>
        <time>2023-06-19T15:57:25.000Z</time>
      </trkpt>
      <trkpt lat="45.85863" lon="4.68864">
        <ele>196.93217</ele>
        <time>2023-06-19T15:57:26.000Z</time>
      </trkpt>
      <trkpt lat="45.85864" lon="4.68858">
        <ele>197.0087</ele>
        <time>2023-06-19T15:57:27.000Z</time>
      </trkpt>
      <trkpt lat="45.85864" lon="4.68852">
        <ele>197.12621</ele>
        <time>2023-06-19T15:57:28.000Z</time>
      </trkpt>
      <trkpt lat="45.85865" lon="4.68846">
        <ele>197.19177</ele>
        <time>2023-06-19T15:57:29.000Z</time>
      </trkpt>
      <trkpt lat="45.85866" lon="4.68841">
        <ele>197.23033</ele>
        <time>2023-06-19T15:57:30.000Z</time>
      </trkpt>
      <trkpt lat="45.85866" lon="4.68835">
        <ele>197.21858</ele>
        <time>2023-06-19T15:57:31.000Z</time>
      </trkpt>
      <trkpt lat="45.85867" lon="4.6883">
        <ele>197.21219</ele>
        <time>2023-06-19T15:57:32.000Z</time>
      </trkpt>
      <trkpt lat="45.85868" lon="4.68825">
        <ele>197.23032</ele>
        <time>2023-06-19T15:57:33.000Z</time>
      </trkpt>
      <trkpt lat="45.85868" lon="4.68819">
        <ele>197.2655</ele>
        <time>2023-06-19T15:57:34.000Z</time>
      </trkpt>
      <trkpt lat="45.85869" lon="4.68814">
        <ele>197.34048</ele>
        <time>2023-06-19T15:57:35.000Z</time>
      </trkpt>
      <trkpt lat="45.8587" lon="4.68809">
        <ele>197.3497</ele>
        <time>2023-06-19T15:57:36.000Z</time>
      </trkpt>
      <trkpt lat="45.85871" lon="4.68803">
        <ele>197.3208</ele>
        <time>2023-06-19T15:57:37.000Z</time>
      </trkpt>
      <trkpt lat="45.85872" lon="4.68798">
        <ele>197.28728</ele>
        <time>2023-06-19T15:57:38.000Z</time>
      </trkpt>
      <trkpt lat="45.85873" lon="4.68793">
        <ele>197.25443</ele>
        <time>2023-06-19T15:57:39.000Z</time>
      </trkpt>
      <trkpt lat="45.85874" lon="4.68789">
        <ele>197.18033</ele>
        <time>2023-06-19T15:57:40.000Z</time>
      </trkpt>
      <trkpt lat="45.85875" lon="4.68784">
        <ele>197.07388</ele>
        <time>2023-06-19T15:57:41.000Z</time>
      </trkpt>
      <trkpt lat="45.85876" lon="4.68779">
        <ele>197.04073</ele>
        <time>2023-06-19T15:57:42.000Z</time>
      </trkpt>
      <trkpt lat="45.85877" lon="4.68774">
        <ele>196.97818</ele>
        <time>2023-06-19T15:57:43.000Z</time>
      </trkpt>
      <trkpt lat="45.85878" lon="4.68769">
        <ele>196.884</ele>
        <time>2023-06-19T15:57:44.000Z</time>
      </trkpt>
      <trkpt lat="45.85878" lon="4.68764">
        <ele>196.83214</ele>
        <time>2023-06-19T15:57:45.000Z</time>
      </trkpt>
      <trkpt lat="45.85879" lon="4.68759">
        <ele>196.75531</ele>
        <time>2023-06-19T15:57:46.000Z</time>
      </trkpt>
      <trkpt lat="45.85879" lon="4.68753">
        <ele>196.72183</ele>
        <time>2023-06-19T15:57:47.000Z</time>
      </trkpt>
      <trkpt lat="45.85881" lon="4.68748">
        <ele>196.70267</ele>
        <time>2023-06-19T15:57:48.000Z</time>
      </trkpt>
      <trkpt lat="45.85882" lon="4.68743">
        <ele>196.57997</ele>
        <time>2023-06-19T15:57:49.000Z</time>
      </trkpt>
      <trkpt lat="45.85884" lon="4.68737">
        <ele>196.47391</ele>
        <time>2023-06-19T15:57:50.000Z</time>
      </trkpt>
      <trkpt lat="45.85886" lon="4.6873">
        <ele>196.37981</ele>
        <time>2023-06-19T15:57:51.000Z</time>
      </trkpt>
      <trkpt lat="45.85884" lon="4.68725">
        <ele>196.24136</ele>
        <time>2023-06-19T15:57:52.000Z</time>
      </trkpt>
      <trkpt lat="45.85883" lon="4.68721">
        <ele>196.10393</ele>
        <time>2023-06-19T15:57:53.000Z</time>
      </trkpt>
      <trkpt lat="45.85884" lon="4.68717">
        <ele>195.97702</ele>
        <time>2023-06-19T15:57:54.000Z</time>
      </trkpt>
      <trkpt lat="45.85885" lon="4.68713">
        <ele>195.87521</ele>
        <time>2023-06-19T15:57:55.000Z</time>
      </trkpt>
      <trkpt lat="45.85886" lon="4.68709">
        <ele>195.87341</ele>
        <time>2023-06-19T15:57:56.000Z</time>
      </trkpt>
      <trkpt lat="45.85886" lon="4.68705">
        <ele>195.84712</ele>
        <time>2023-06-19T15:57:57.000Z</time>
      </trkpt>
      <trkpt lat="45.85887" lon="4.68701">
        <ele>195.83009</ele>
        <time>2023-06-19T15:57:58.000Z</time>
      </trkpt>
      <trkpt lat="45.85887" lon="4.68696">
        <ele>195.84337</ele>
        <time>2023-06-19T15:57:59.000Z</time>
      </trkpt>
      <trkpt lat="45.85888" lon="4.68692">
        <ele>195.91878</ele>
        <time>2023-06-19T15:58:00.000Z</time>
      </trkpt>
      <trkpt lat="45.85889" lon="4.68687">
        <ele>196.00276</ele>
        <time>2023-06-19T15:58:01.000Z</time>
      </trkpt>
      <trkpt lat="45.8589" lon="4.68683">
        <ele>196.10715</ele>
        <time>2023-06-19T15:58:02.000Z</time>
      </trkpt>
      <trkpt lat="45.85891" lon="4.68677">
        <ele>196.22556</ele>
        <time>2023-06-19T15:58:03.000Z</time>
      </trkpt>
      <trkpt lat="45.85891" lon="4.68673">
        <ele>196.3791</ele>
        <time>2023-06-19T15:58:04.000Z</time>
      </trkpt>
      <trkpt lat="45.85891" lon="4.68668">
        <ele>196.49127</ele>
        <time>2023-06-19T15:58:05.000Z</time>
      </trkpt>
      <trkpt lat="45.85891" lon="4.68663">
        <ele>196.5788</ele>
        <time>2023-06-19T15:58:06.000Z</time>
      </trkpt>
      <trkpt lat="45.85891" lon="4.68658">
        <ele>196.6432</ele>
        <time>2023-06-19T15:58:07.000Z</time>
      </trkpt>
      <trkpt lat="45.8589" lon="4.68653">
        <ele>196.64586</ele>
        <time>2023-06-19T15:58:08.000Z</time>
      </trkpt>
      <trkpt lat="45.8589" lon="4.68648">
        <ele>196.76228</ele>
        <time>2023-06-19T15:58:09.000Z</time>
      </trkpt>
      <trkpt lat="45.8589" lon="4.68643">
        <ele>196.88165</ele>
        <time>2023-06-19T15:58:10.000Z</time>
      </trkpt>
      <trkpt lat="45.85889" lon="4.68637">
        <ele>197.00943</ele>
        <time>2023-06-19T15:58:11.000Z</time>
      </trkpt>
      <trkpt lat="45.85889" lon="4.68631">
        <ele>197.15048</ele>
        <time>2023-06-19T15:58:12.000Z</time>
      </trkpt>
      <trkpt lat="45.85888" lon="4.68626">
        <ele>197.25244</ele>
        <time>2023-06-19T15:58:13.000Z</time>
      </trkpt>
      <trkpt lat="45.85888" lon="4.6862">
        <ele>197.27737</ele>
        <time>2023-06-19T15:58:14.000Z</time>
      </trkpt>
      <trkpt lat="45.85888" lon="4.68615">
        <ele>197.31125</ele>
        <time>2023-06-19T15:58:15.000Z</time>
      </trkpt>
      <trkpt lat="45.85888" lon="4.68609">
        <ele>197.3094</ele>
        <time>2023-06-19T15:58:16.000Z</time>
      </trkpt>
      <trkpt lat="45.85887" lon="4.68604">
        <ele>197.36392</ele>
        <time>2023-06-19T15:58:17.000Z</time>
      </trkpt>
      <trkpt lat="45.85887" lon="4.68598">
        <ele>197.32594</ele>
        <time>2023-06-19T15:58:18.000Z</time>
      </trkpt>
      <trkpt lat="45.85886" lon="4.68593">
        <ele>197.27853</ele>
        <time>2023-06-19T15:58:19.000Z</time>
      </trkpt>
      <trkpt lat="45.85884" lon="4.68587">
        <ele>197.23311</ele>
        <time>2023-06-19T15:58:20.000Z</time>
      </trkpt>
      <trkpt lat="45.85883" lon="4.68581">
        <ele>197.17712</ele>
        <time>2023-06-19T15:58:21.000Z</time>
      </trkpt>
      <trkpt lat="45.85881" lon="4.68575">
        <ele>197.1451</ele>
        <time>2023-06-19T15:58:22.000Z</time>
      </trkpt>
      <trkpt lat="45.8588" lon="4.68568">
        <ele>197.08371</ele>
        <time>2023-06-19T15:58:23.000Z</time>
      </trkpt>
      <trkpt lat="45.85879" lon="4.68562">
        <ele>197.01799</ele>
        <time>2023-06-19T15:58:24.000Z</time>
      </trkpt>
      <trkpt lat="45.85878" lon="4.68556">
        <ele>196.98688</ele>
        <time>2023-06-19T15:58:25.000Z</time>
      </trkpt>
      <trkpt lat="45.85877" lon="4.68549">
        <ele>196.94736</ele>
        <time>2023-06-19T15:58:26.000Z</time>
      </trkpt>
      <trkpt lat="45.85876" lon="4.68543">
        <ele>196.89914</ele>
        <time>2023-06-19T15:58:27.000Z</time>
      </trkpt>
      <trkpt lat="45.85875" lon="4.68536">
        <ele>196.92323</ele>
        <time>2023-06-19T15:58:28.000Z</time>
      </trkpt>
      <trkpt lat="45.85874" lon="4.6853">
        <ele>196.94609</ele>
        <time>2023-06-19T15:58:29.000Z</time>
      </trkpt>
      <trkpt lat="45.85874" lon="4.68524">
        <ele>196.97118</ele>
        <time>2023-06-19T15:58:30.000Z</time>
      </trkpt>
      <trkpt lat="45.85872" lon="4.68517">
        <ele>196.96822</ele>
        <time>2023-06-19T15:58:31.000Z</time>
      </trkpt>
      <trkpt lat="45.85872" lon="4.68511">
        <ele>196.99277</ele>
        <time>2023-06-19T15:58:32.000Z</time>
      </trkpt>
      <trkpt lat="45.85871" lon="4.68504">
        <ele>197.01721</ele>
        <time>2023-06-19T15:58:33.000Z</time>
      </trkpt>
      <trkpt lat="45.8587" lon="4.68498">
        <ele>197.08369</ele>
        <time>2023-06-19T15:58:34.000Z</time>
      </trkpt>
      <trkpt lat="45.85869" lon="4.68492">
        <ele>197.10721</ele>
        <time>2023-06-19T15:58:35.000Z</time>
      </trkpt>
      <trkpt lat="45.85868" lon="4.68486">
        <ele>197.1152</ele>
        <time>2023-06-19T15:58:36.000Z</time>
      </trkpt>
      <trkpt lat="45.85867" lon="4.6848">
        <ele>197.09665</ele>
        <time>2023-06-19T15:58:37.000Z</time>
      </trkpt>
      <trkpt lat="45.85867" lon="4.68474">
        <ele>197.17334</ele>
        <time>2023-06-19T15:58:38.000Z</time>
      </trkpt>
      <trkpt lat="45.85866" lon="4.68467">
        <ele>197.26974</ele>
        <time>2023-06-19T15:58:39.000Z</time>
      </trkpt>
      <trkpt lat="45.85866" lon="4.68461">
        <ele>197.33961</ele>
        <time>2023-06-19T15:58:40.000Z</time>
      </trkpt>
      <trkpt lat="45.85866" lon="4.68454">
        <ele>197.418</ele>
        <time>2023-06-19T15:58:41.000Z</time>
      </trkpt>
      <trkpt lat="45.85865" lon="4.68448">
        <ele>197.39615</ele>
        <time>2023-06-19T15:58:42.000Z</time>
      </trkpt>
      <trkpt lat="45.85864" lon="4.68442">
        <ele>197.38278</ele>
        <time>2023-06-19T15:58:43.000Z</time>
      </trkpt>
      <trkpt lat="45.85863" lon="4.68436">
        <ele>197.38809</ele>
        <time>2023-06-19T15:58:44.000Z</time>
      </trkpt>
      <trkpt lat="45.85862" lon="4.6843">
        <ele>197.36649</ele>
        <time>2023-06-19T15:58:45.000Z</time>
      </trkpt>
      <trkpt lat="45.85861" lon="4.68423">
        <ele>197.3842</ele>
        <time>2023-06-19T15:58:46.000Z</time>
      </trkpt>
      <trkpt lat="45.85859" lon="4.68416">
        <ele>197.3985</ele>
        <time>2023-06-19T15:58:47.000Z</time>
      </trkpt>
      <trkpt lat="45.85857" lon="4.68409">
        <ele>197.38474</ele>
        <time>2023-06-19T15:58:48.000Z</time>
      </trkpt>
      <trkpt lat="45.85854" lon="4.68404">
        <ele>197.37627</ele>
        <time>2023-06-19T15:58:49.000Z</time>
      </trkpt>
      <trkpt lat="45.85851" lon="4.68398">
        <ele>197.41156</ele>
        <time>2023-06-19T15:58:50.000Z</time>
      </trkpt>
      <trkpt lat="45.85849" lon="4.68392">
        <ele>197.47031</ele>
        <time>2023-06-19T15:58:51.000Z</time>
      </trkpt>
      <trkpt lat="45.85846" lon="4.68387">
        <ele>197.47057</ele>
        <time>2023-06-19T15:58:52.000Z</time>
      </trkpt>
      <trkpt lat="45.85844" lon="4.68383">
        <ele>197.44644</ele>
        <time>2023-06-19T15:58:53.000Z</time>
      </trkpt>
      <trkpt lat="45.85842" lon="4.68381">
        <ele>197.40033</ele>
        <time>2023-06-19T15:58:54.000Z</time>
      </trkpt>
      <trkpt lat="45.8584" lon="4.68377">
        <ele>197.34282</ele>
        <time>2023-06-19T15:58:55.000Z</time>
      </trkpt>
      <trkpt lat="45.85838" lon="4.68374">
        <ele>197.3308</ele>
        <time>2023-06-19T15:58:56.000Z</time>
      </trkpt>
      <trkpt lat="45.85835" lon="4.68369">
        <ele>197.29866</ele>
        <time>2023-06-19T15:58:57.000Z</time>
      </trkpt>
      <trkpt lat="45.85832" lon="4.68365">
        <ele>197.25302</ele>
        <time>2023-06-19T15:58:58.000Z</time>
      </trkpt>
      <trkpt lat="45.8583" lon="4.68363">
        <ele>197.21068</ele>
        <time>2023-06-19T15:58:59.000Z</time>
      </trkpt>
      <trkpt lat="45.85827" lon="4.68359">
        <ele>197.16789</ele>
        <time>2023-06-19T15:59:00.000Z</time>
      </trkpt>
      <trkpt lat="45.85826" lon="4.68357">
        <ele>197.13538</ele>
        <time>2023-06-19T15:59:01.000Z</time>
      </trkpt>
      <trkpt lat="45.85825" lon="4.68355">
        <ele>197.16516</ele>
        <time>2023-06-19T15:59:02.000Z</time>
      </trkpt>
      <trkpt lat="45.85823" lon="4.68352">
        <ele>197.19249</ele>
        <time>2023-06-19T15:59:03.000Z</time>
      </trkpt>
      <trkpt lat="45.8582" lon="4.68348">
        <ele>197.0833</ele>
        <time>2023-06-19T15:59:04.000Z</time>
      </trkpt>
      <trkpt lat="45.85817" lon="4.68345">
        <ele>196.98813</ele>
        <time>2023-06-19T15:59:05.000Z</time>
      </trkpt>
      <trkpt lat="45.85814" lon="4.68342">
        <ele>196.89177</ele>
        <time>2023-06-19T15:59:06.000Z</time>
      </trkpt>
      <trkpt lat="45.85811" lon="4.68338">
        <ele>196.78432</ele>
        <time>2023-06-19T15:59:07.000Z</time>
      </trkpt>
      <trkpt lat="45.85807" lon="4.68335">
        <ele>196.66217</ele>
        <time>2023-06-19T15:59:08.000Z</time>
      </trkpt>
      <trkpt lat="45.85804" lon="4.68332">
        <ele>196.52985</ele>
        <time>2023-06-19T15:59:09.000Z</time>
      </trkpt>
      <trkpt lat="45.85799" lon="4.68328">
        <ele>196.36618</ele>
        <time>2023-06-19T15:59:10.000Z</time>
      </trkpt>
      <trkpt lat="45.85796" lon="4.68325">
        <ele>196.20596</ele>
        <time>2023-06-19T15:59:11.000Z</time>
      </trkpt>
      <trkpt lat="45.85792" lon="4.68323">
        <ele>196.16092</ele>
        <time>2023-06-19T15:59:12.000Z</time>
      </trkpt>
      <trkpt lat="45.85788" lon="4.68319">
        <ele>196.1492</ele>
        <time>2023-06-19T15:59:13.000Z</time>
      </trkpt>
      <trkpt lat="45.85784" lon="4.68316">
        <ele>196.16589</ele>
        <time>2023-06-19T15:59:14.000Z</time>
      </trkpt>
      <trkpt lat="45.85781" lon="4.68311">
        <ele>196.18889</ele>
        <time>2023-06-19T15:59:15.000Z</time>
      </trkpt>
      <trkpt lat="45.85777" lon="4.68306">
        <ele>196.15147</ele>
        <time>2023-06-19T15:59:16.000Z</time>
      </trkpt>
      <trkpt lat="45.85774" lon="4.68302">
        <ele>196.1387</ele>
        <time>2023-06-19T15:59:17.000Z</time>
      </trkpt>
      <trkpt lat="45.85771" lon="4.68299">
        <ele>196.10953</ele>
        <time>2023-06-19T15:59:18.000Z</time>
      </trkpt>
      <trkpt lat="45.85766" lon="4.68295">
        <ele>196.01129</ele>
        <time>2023-06-19T15:59:19.000Z</time>
      </trkpt>
      <trkpt lat="45.85764" lon="4.68291">
        <ele>195.98996</ele>
        <time>2023-06-19T15:59:20.000Z</time>
      </trkpt>
      <trkpt lat="45.8576" lon="4.68287">
        <ele>195.94756</ele>
        <time>2023-06-19T15:59:21.000Z</time>
      </trkpt>
      <trkpt lat="45.85756" lon="4.68283">
        <ele>195.90376</ele>
        <time>2023-06-19T15:59:22.000Z</time>
      </trkpt>
      <trkpt lat="45.85753" lon="4.68279">
        <ele>195.8837</ele>
        <time>2023-06-19T15:59:23.000Z</time>
      </trkpt>
      <trkpt lat="45.85749" lon="4.68275">
        <ele>195.90021</ele>
        <time>2023-06-19T15:59:24.000Z</time>
      </trkpt>
      <trkpt lat="45.85746" lon="4.68273">
        <ele>195.97113</ele>
        <time>2023-06-19T15:59:25.000Z</time>
      </trkpt>
      <trkpt lat="45.85743" lon="4.68269">
        <ele>196.07117</ele>
        <time>2023-06-19T15:59:26.000Z</time>
      </trkpt>
      <trkpt lat="45.85739" lon="4.68265">
        <ele>196.19022</ele>
        <time>2023-06-19T15:59:27.000Z</time>
      </trkpt>
      <trkpt lat="45.85736" lon="4.68262">
        <ele>196.34349</ele>
        <time>2023-06-19T15:59:28.000Z</time>
      </trkpt>
      <trkpt lat="45.85733" lon="4.68259">
        <ele>196.50433</ele>
        <time>2023-06-19T15:59:29.000Z</time>
      </trkpt>
      <trkpt lat="45.85731" lon="4.68258">
        <ele>196.64244</ele>
        <time>2023-06-19T15:59:30.000Z</time>
      </trkpt>
      <trkpt lat="45.85728" lon="4.68254">
        <ele>196.77365</ele>
        <time>2023-06-19T15:59:31.000Z</time>
      </trkpt>
      <trkpt lat="45.85725" lon="4.6825">
        <ele>196.85641</ele>
        <time>2023-06-19T15:59:32.000Z</time>
      </trkpt>
      <trkpt lat="45.85722" lon="4.68247">
        <ele>196.92758</ele>
        <time>2023-06-19T15:59:33.000Z</time>
      </trkpt>
      <trkpt lat="45.85719" lon="4.68243">
        <ele>196.98038</ele>
        <time>2023-06-19T15:59:34.000Z</time>
      </trkpt>
      <trkpt lat="45.85717" lon="4.6824">
        <ele>197.01999</ele>
        <time>2023-06-19T15:59:35.000Z</time>
      </trkpt>
      <trkpt lat="45.85714" lon="4.68237">
        <ele>197.10638</ele>
        <time>2023-06-19T15:59:36.000Z</time>
      </trkpt>
      <trkpt lat="45.85712" lon="4.68233">
        <ele>197.21773</ele>
        <time>2023-06-19T15:59:37.000Z</time>
      </trkpt>
      <trkpt lat="45.8571" lon="4.6823">
        <ele>197.34741</ele>
        <time>2023-06-19T15:59:38.000Z</time>
      </trkpt>
      <trkpt lat="45.85708" lon="4.68227">
        <ele>197.54477</ele>
        <time>2023-06-19T15:59:39.000Z</time>
      </trkpt>
      <trkpt lat="45.85706" lon="4.68224">
        <ele>197.63974</ele>
        <time>2023-06-19T15:59:40.000Z</time>
      </trkpt>
      <trkpt lat="45.85704" lon="4.68221">
        <ele>197.73474</ele>
        <time>2023-06-19T15:59:41.000Z</time>
      </trkpt>
      <trkpt lat="45.85701" lon="4.68217">
        <ele>197.81703</ele>
        <time>2023-06-19T15:59:42.000Z</time>
      </trkpt>
      <trkpt lat="45.85698" lon="4.68213">
        <ele>197.89044</ele>
        <time>2023-06-19T15:59:43.000Z</time>
      </trkpt>
      <trkpt lat="45.85693" lon="4.68208">
        <ele>198.06715</ele>
        <time>2023-06-19T15:59:44.000Z</time>
      </trkpt>
      <trkpt lat="45.85689" lon="4.68202">
        <ele>198.20399</ele>
        <time>2023-06-19T15:59:45.000Z</time>
      </trkpt>
      <trkpt lat="45.85687" lon="4.68198">
        <ele>198.26852</ele>
        <time>2023-06-19T15:59:46.000Z</time>
      </trkpt>
      <trkpt lat="45.85685" lon="4.68194">
        <ele>198.31624</ele>
        <time>2023-06-19T15:59:47.000Z</time>
      </trkpt>
      <trkpt lat="45.85682" lon="4.68191">
        <ele>198.30453</ele>
        <time>2023-06-19T15:59:48.000Z</time>
      </trkpt>
      <trkpt lat="45.85679" lon="4.68184">
        <ele>198.32863</ele>
        <time>2023-06-19T15:59:49.000Z</time>
      </trkpt>
      <trkpt lat="45.85676" lon="4.68179">
        <ele>198.3241</ele>
        <time>2023-06-19T15:59:50.000Z</time>
      </trkpt>
      <trkpt lat="45.85672" lon="4.68174">
        <ele>198.35405</ele>
        <time>2023-06-19T15:59:51.000Z</time>
      </trkpt>
      <trkpt lat="45.85669" lon="4.6817">
        <ele>198.35132</ele>
        <time>2023-06-19T15:59:52.000Z</time>
      </trkpt>
      <trkpt lat="45.85666" lon="4.68166">
        <ele>198.35983</ele>
        <time>2023-06-19T15:59:53.000Z</time>
      </trkpt>
      <trkpt lat="45.85663" lon="4.68161">
        <ele>198.36568</ele>
        <time>2023-06-19T15:59:54.000Z</time>
      </trkpt>
      <trkpt lat="45.8566" lon="4.68156">
        <ele>198.36942</ele>
        <time>2023-06-19T15:59:55.000Z</time>
      </trkpt>
      <trkpt lat="45.85658" lon="4.6815">
        <ele>198.37192</ele>
        <time>2023-06-19T15:59:56.000Z</time>
      </trkpt>
      <trkpt lat="45.85656" lon="4.68144">
        <ele>198.35626</ele>
        <time>2023-06-19T15:59:57.000Z</time>
      </trkpt>
      <trkpt lat="45.85655" lon="4.6814">
        <ele>198.34747</ele>
        <time>2023-06-19T15:59:58.000Z</time>
      </trkpt>
      <trkpt lat="45.85654" lon="4.68134">
        <ele>198.32002</ele>
        <time>2023-06-19T15:59:59.000Z</time>
      </trkpt>
      <trkpt lat="45.85653" lon="4.6813">
        <ele>198.28529</ele>
        <time>2023-06-19T16:00:00.000Z</time>
      </trkpt>
      <trkpt lat="45.85651" lon="4.68126">
        <ele>198.28854</ele>
        <time>2023-06-19T16:00:01.000Z</time>
      </trkpt>
      <trkpt lat="45.85648" lon="4.68125">
        <ele>198.29884</ele>
        <time>2023-06-19T16:00:02.000Z</time>
      </trkpt>
      <trkpt lat="45.85644" lon="4.68125">
        <ele>198.34286</ele>
        <time>2023-06-19T16:00:03.000Z</time>
      </trkpt>
      <trkpt lat="45.85646" lon="4.68127">
        <ele>198.28281</ele>
        <time>2023-06-19T16:00:04.000Z</time>
      </trkpt>
      <trkpt lat="45.85647" lon="4.6813">
        <ele>198.22359</ele>
        <time>2023-06-19T16:00:06.000Z</time>
      </trkpt>
      <trkpt lat="45.8565" lon="4.68127">
        <ele>198.14059</ele>
        <time>2023-06-19T16:00:16.000Z</time>
      </trkpt>
      <trkpt lat="45.85652" lon="4.68124">
        <ele>198.0546</ele>
        <time>2023-06-19T16:00:17.000Z</time>
      </trkpt>
      <trkpt lat="45.85652" lon="4.6812">
        <ele>198.01753</ele>
        <time>2023-06-19T16:00:18.000Z</time>
      </trkpt>
      <trkpt lat="45.8565" lon="4.68118">
        <ele>197.95259</ele>
        <time>2023-06-19T16:00:19.000Z</time>
      </trkpt>
      <trkpt lat="45.85648" lon="4.68118">
        <ele>197.952</ele>
        <time>2023-06-19T16:00:20.000Z</time>
      </trkpt>
      <trkpt lat="45.85645" lon="4.68121">
        <ele>197.94345</ele>
        <time>2023-06-19T16:00:21.000Z</time>
      </trkpt>
      <trkpt lat="45.85645" lon="4.68125">
        <ele>197.96776</ele>
        <time>2023-06-19T16:00:22.000Z</time>
      </trkpt>
      <trkpt lat="45.85646" lon="4.6813">
        <ele>198.02182</ele>
        <time>2023-06-19T16:00:23.000Z</time>
      </trkpt>
      <trkpt lat="45.85647" lon="4.68133">
        <ele>198.01537</ele>
        <time>2023-06-19T16:00:24.000Z</time>
      </trkpt>
      <trkpt lat="45.85648" lon="4.68136">
        <ele>198.07135</ele>
        <time>2023-06-19T16:00:25.000Z</time>
      </trkpt>
      <trkpt lat="45.85649" lon="4.68139">
        <ele>198.13095</ele>
        <time>2023-06-19T16:00:26.000Z</time>
      </trkpt>
      <trkpt lat="45.85649" lon="4.68143">
        <ele>198.22736</ele>
        <time>2023-06-19T16:00:28.000Z</time>
      </trkpt>
      <trkpt lat="45.85648" lon="4.68146">
        <ele>198.311</ele>
        <time>2023-06-19T16:00:29.000Z</time>
      </trkpt>
      <trkpt lat="45.85647" lon="4.68148">
        <ele>198.3465</ele>
        <time>2023-06-19T16:00:30.000Z</time>
      </trkpt>
      <trkpt lat="45.85645" lon="4.6815">
        <ele>198.41794</ele>
        <time>2023-06-19T16:00:31.000Z</time>
      </trkpt>
      <trkpt lat="45.85643" lon="4.68153">
        <ele>198.46799</ele>
        <time>2023-06-19T16:00:32.000Z</time>
      </trkpt>
      <trkpt lat="45.85641" lon="4.68156">
        <ele>198.54164</ele>
        <time>2023-06-19T16:00:33.000Z</time>
      </trkpt>
      <trkpt lat="45.85638" lon="4.68159">
        <ele>198.59219</ele>
        <time>2023-06-19T16:00:34.000Z</time>
      </trkpt>
      <trkpt lat="45.85635" lon="4.68161">
        <ele>198.72546</ele>
        <time>2023-06-19T16:00:35.000Z</time>
      </trkpt>
      <trkpt lat="45.85633" lon="4.68164">
        <ele>198.76816</ele>
        <time>2023-06-19T16:00:36.000Z</time>
      </trkpt>
      <trkpt lat="45.8563" lon="4.68167">
        <ele>198.89291</ele>
        <time>2023-06-19T16:00:37.000Z</time>
      </trkpt>
      <trkpt lat="45.85628" lon="4.6817">
        <ele>199.0197</ele>
        <time>2023-06-19T16:00:38.000Z</time>
      </trkpt>
      <trkpt lat="45.85626" lon="4.68172">
        <ele>199.08177</ele>
        <time>2023-06-19T16:00:39.000Z</time>
      </trkpt>
      <trkpt lat="45.85624" lon="4.68173">
        <ele>199.14279</ele>
        <time>2023-06-19T16:00:40.000Z</time>
      </trkpt>
      <trkpt lat="45.85622" lon="4.68172">
        <ele>199.18863</ele>
        <time>2023-06-19T16:00:41.000Z</time>
      </trkpt>
      <trkpt lat="45.8562" lon="4.6817">
        <ele>199.24257</ele>
        <time>2023-06-19T16:00:42.000Z</time>
      </trkpt>
      <trkpt lat="45.85617" lon="4.68168">
        <ele>199.25732</ele>
        <time>2023-06-19T16:00:43.000Z</time>
      </trkpt>
      <trkpt lat="45.85615" lon="4.68166">
        <ele>199.24844</ele>
        <time>2023-06-19T16:00:44.000Z</time>
      </trkpt>
      <trkpt lat="45.85613" lon="4.68165">
        <ele>199.34164</ele>
        <time>2023-06-19T16:00:45.000Z</time>
      </trkpt>
      <trkpt lat="45.85611" lon="4.68163">
        <ele>199.38599</ele>
        <time>2023-06-19T16:00:46.000Z</time>
      </trkpt>
      <trkpt lat="45.8561" lon="4.6816">
        <ele>199.42065</ele>
        <time>2023-06-19T16:00:47.000Z</time>
      </trkpt>
      <trkpt lat="45.85609" lon="4.68157">
        <ele>199.42142</ele>
        <time>2023-06-19T16:00:48.000Z</time>
      </trkpt>
      <trkpt lat="45.85608" lon="4.68155">
        <ele>199.43622</ele>
        <time>2023-06-19T16:00:49.000Z</time>
      </trkpt>
      <trkpt lat="45.85606" lon="4.68152">
        <ele>199.49367</ele>
        <time>2023-06-19T16:00:50.000Z</time>
      </trkpt>
      <trkpt lat="45.85605" lon="4.68149">
        <ele>199.5379</ele>
        <time>2023-06-19T16:00:51.000Z</time>
      </trkpt>
      <trkpt lat="45.85604" lon="4.68147">
        <ele>199.58145</ele>
        <time>2023-06-19T16:00:52.000Z</time>
      </trkpt>
      <trkpt lat="45.85603" lon="4.68145">
        <ele>199.58569</ele>
        <time>2023-06-19T16:00:53.000Z</time>
      </trkpt>
      <trkpt lat="45.85601" lon="4.68142">
        <ele>199.55814</ele>
        <time>2023-06-19T16:00:54.000Z</time>
      </trkpt>
      <trkpt lat="45.856" lon="4.6814">
        <ele>199.51396</ele>
        <time>2023-06-19T16:00:55.000Z</time>
      </trkpt>
      <trkpt lat="45.85599" lon="4.68139">
        <ele>199.52554</ele>
        <time>2023-06-19T16:00:56.000Z</time>
      </trkpt>
      <trkpt lat="45.85596" lon="4.68135">
        <ele>199.47816</ele>
        <time>2023-06-19T16:00:58.000Z</time>
      </trkpt>
      <trkpt lat="45.85595" lon="4.68133">
        <ele>199.45891</ele>
        <time>2023-06-19T16:00:59.000Z</time>
      </trkpt>
      <trkpt lat="45.85594" lon="4.68131">
        <ele>199.52841</ele>
        <time>2023-06-19T16:01:00.000Z</time>
      </trkpt>
      <trkpt lat="45.85591" lon="4.68127">
        <ele>199.62772</ele>
        <time>2023-06-19T16:01:02.000Z</time>
      </trkpt>
      <trkpt lat="45.85589" lon="4.68123">
        <ele>199.68564</ele>
        <time>2023-06-19T16:01:04.000Z</time>
      </trkpt>
      <trkpt lat="45.85588" lon="4.68118">
        <ele>199.66216</ele>
        <time>2023-06-19T16:01:06.000Z</time>
      </trkpt>
      <trkpt lat="45.85587" lon="4.68116">
        <ele>199.66837</ele>
        <time>2023-06-19T16:01:07.000Z</time>
      </trkpt>
      <trkpt lat="45.85585" lon="4.68113">
        <ele>199.68665</ele>
        <time>2023-06-19T16:01:08.000Z</time>
      </trkpt>
      <trkpt lat="45.85584" lon="4.68111">
        <ele>199.64882</ele>
        <time>2023-06-19T16:01:09.000Z</time>
      </trkpt>
      <trkpt lat="45.85583" lon="4.68109">
        <ele>199.61292</ele>
        <time>2023-06-19T16:01:10.000Z</time>
      </trkpt>
      <trkpt lat="45.85582" lon="4.68106">
        <ele>199.57834</ele>
        <time>2023-06-19T16:01:11.000Z</time>
      </trkpt>
      <trkpt lat="45.85581" lon="4.68103">
        <ele>199.52403</ele>
        <time>2023-06-19T16:01:12.000Z</time>
      </trkpt>
      <trkpt lat="45.8558" lon="4.68101">
        <ele>199.43588</ele>
        <time>2023-06-19T16:01:13.000Z</time>
      </trkpt>
      <trkpt lat="45.85578" lon="4.68098">
        <ele>199.36948</ele>
        <time>2023-06-19T16:01:14.000Z</time>
      </trkpt>
      <trkpt lat="45.85576" lon="4.68095">
        <ele>199.33252</ele>
        <time>2023-06-19T16:01:15.000Z</time>
      </trkpt>
      <trkpt lat="45.85574" lon="4.68091">
        <ele>199.27249</ele>
        <time>2023-06-19T16:01:16.000Z</time>
      </trkpt>
      <trkpt lat="45.85573" lon="4.68087">
        <ele>199.22435</ele>
        <time>2023-06-19T16:01:17.000Z</time>
      </trkpt>
      <trkpt lat="45.85571" lon="4.68084">
        <ele>199.15781</ele>
        <time>2023-06-19T16:01:18.000Z</time>
      </trkpt>
      <trkpt lat="45.8557" lon="4.6808">
        <ele>199.09961</ele>
        <time>2023-06-19T16:01:19.000Z</time>
      </trkpt>
      <trkpt lat="45.85568" lon="4.68076">
        <ele>199.06908</ele>
        <time>2023-06-19T16:01:20.000Z</time>
      </trkpt>
      <trkpt lat="45.85567" lon="4.68072">
        <ele>199.06102</ele>
        <time>2023-06-19T16:01:21.000Z</time>
      </trkpt>
      <trkpt lat="45.85565" lon="4.68068">
        <ele>199.05006</ele>
        <time>2023-06-19T16:01:22.000Z</time>
      </trkpt>
      <trkpt lat="45.85564" lon="4.68065">
        <ele>199.01166</ele>
        <time>2023-06-19T16:01:23.000Z</time>
      </trkpt>
      <trkpt lat="45.85562" lon="4.68061">
        <ele>198.87906</ele>
        <time>2023-06-19T16:01:24.000Z</time>
      </trkpt>
      <trkpt lat="45.85561" lon="4.68057">
        <ele>198.80936</ele>
        <time>2023-06-19T16:01:25.000Z</time>
      </trkpt>
      <trkpt lat="45.8556" lon="4.68053">
        <ele>198.80467</ele>
        <time>2023-06-19T16:01:26.000Z</time>
      </trkpt>
      <trkpt lat="45.85558" lon="4.68049">
        <ele>198.81335</ele>
        <time>2023-06-19T16:01:27.000Z</time>
      </trkpt>
      <trkpt lat="45.85557" lon="4.68045">
        <ele>198.82608</ele>
        <time>2023-06-19T16:01:28.000Z</time>
      </trkpt>
      <trkpt lat="45.85555" lon="4.68041">
        <ele>198.86542</ele>
        <time>2023-06-19T16:01:29.000Z</time>
      </trkpt>
      <trkpt lat="45.85554" lon="4.68037">
        <ele>198.8963</ele>
        <time>2023-06-19T16:01:30.000Z</time>
      </trkpt>
      <trkpt lat="45.85553" lon="4.68034">
        <ele>198.92392</ele>
        <time>2023-06-19T16:01:31.000Z</time>
      </trkpt>
      <trkpt lat="45.85552" lon="4.6803">
        <ele>198.94913</ele>
        <time>2023-06-19T16:01:32.000Z</time>
      </trkpt>
      <trkpt lat="45.85551" lon="4.68026">
        <ele>198.9987</ele>
        <time>2023-06-19T16:01:33.000Z</time>
      </trkpt>
      <trkpt lat="45.8555" lon="4.68023">
        <ele>199.02094</ele>
        <time>2023-06-19T16:01:34.000Z</time>
      </trkpt>
      <trkpt lat="45.85548" lon="4.68019">
        <ele>199.04022</ele>
        <time>2023-06-19T16:01:35.000Z</time>
      </trkpt>
      <trkpt lat="45.85547" lon="4.68016">
        <ele>199.08408</ele>
        <time>2023-06-19T16:01:36.000Z</time>
      </trkpt>
      <trkpt lat="45.85546" lon="4.68012">
        <ele>199.11847</ele>
        <time>2023-06-19T16:01:37.000Z</time>
      </trkpt>
      <trkpt lat="45.85546" lon="4.68009">
        <ele>199.19601</ele>
        <time>2023-06-19T16:01:38.000Z</time>
      </trkpt>
      <trkpt lat="45.85545" lon="4.68005">
        <ele>199.28767</ele>
        <time>2023-06-19T16:01:39.000Z</time>
      </trkpt>
      <trkpt lat="45.85543" lon="4.68003">
        <ele>199.3799</ele>
        <time>2023-06-19T16:01:40.000Z</time>
      </trkpt>
      <trkpt lat="45.85542" lon="4.68">
        <ele>199.49646</ele>
        <time>2023-06-19T16:01:41.000Z</time>
      </trkpt>
      <trkpt lat="45.85541" lon="4.67997">
        <ele>199.59599</ele>
        <time>2023-06-19T16:01:42.000Z</time>
      </trkpt>
      <trkpt lat="45.8554" lon="4.67994">
        <ele>199.68069</ele>
        <time>2023-06-19T16:01:43.000Z</time>
      </trkpt>
      <trkpt lat="45.8554" lon="4.6799">
        <ele>199.83177</ele>
        <time>2023-06-19T16:01:44.000Z</time>
      </trkpt>
      <trkpt lat="45.85539" lon="4.67987">
        <ele>199.97966</ele>
        <time>2023-06-19T16:01:45.000Z</time>
      </trkpt>
      <trkpt lat="45.85539" lon="4.67984">
        <ele>200.16422</ele>
        <time>2023-06-19T16:01:46.000Z</time>
      </trkpt>
      <trkpt lat="45.85539" lon="4.67981">
        <ele>200.326</ele>
        <time>2023-06-19T16:01:47.000Z</time>
      </trkpt>
      <trkpt lat="45.85539" lon="4.67977">
        <ele>200.42841</ele>
        <time>2023-06-19T16:01:48.000Z</time>
      </trkpt>
      <trkpt lat="45.85538" lon="4.67973">
        <ele>200.50165</ele>
        <time>2023-06-19T16:01:50.000Z</time>
      </trkpt>
      <trkpt lat="45.85537" lon="4.67971">
        <ele>200.61295</ele>
        <time>2023-06-19T16:01:51.000Z</time>
      </trkpt>
      <trkpt lat="45.85536" lon="4.67968">
        <ele>200.72487</ele>
        <time>2023-06-19T16:01:52.000Z</time>
      </trkpt>
      <trkpt lat="45.85536" lon="4.67965">
        <ele>200.87872</ele>
        <time>2023-06-19T16:01:54.000Z</time>
      </trkpt>
      <trkpt lat="45.85535" lon="4.67962">
        <ele>201.03705</ele>
        <time>2023-06-19T16:01:56.000Z</time>
      </trkpt>
      <trkpt lat="45.85535" lon="4.67958">
        <ele>201.18161</ele>
        <time>2023-06-19T16:01:58.000Z</time>
      </trkpt>
      <trkpt lat="45.85534" lon="4.67955">
        <ele>201.32182</ele>
        <time>2023-06-19T16:01:59.000Z</time>
      </trkpt>
      <trkpt lat="45.85534" lon="4.67951">
        <ele>201.44595</ele>
        <time>2023-06-19T16:02:00.000Z</time>
      </trkpt>
      <trkpt lat="45.85532" lon="4.67946">
        <ele>201.59283</ele>
        <time>2023-06-19T16:02:01.000Z</time>
      </trkpt>
      <trkpt lat="45.85531" lon="4.67942">
        <ele>201.73885</ele>
        <time>2023-06-19T16:02:02.000Z</time>
      </trkpt>
      <trkpt lat="45.85529" lon="4.67937">
        <ele>201.87648</ele>
        <time>2023-06-19T16:02:03.000Z</time>
      </trkpt>
      <trkpt lat="45.85527" lon="4.67932">
        <ele>201.99625</ele>
        <time>2023-06-19T16:02:04.000Z</time>
      </trkpt>
      <trkpt lat="45.85525" lon="4.67927">
        <ele>202.08012</ele>
        <time>2023-06-19T16:02:05.000Z</time>
      </trkpt>
      <trkpt lat="45.85523" lon="4.67922">
        <ele>202.1861</ele>
        <time>2023-06-19T16:02:06.000Z</time>
      </trkpt>
      <trkpt lat="45.85521" lon="4.67916">
        <ele>202.26186</ele>
        <time>2023-06-19T16:02:07.000Z</time>
      </trkpt>
      <trkpt lat="45.85519" lon="4.67911">
        <ele>202.31859</ele>
        <time>2023-06-19T16:02:08.000Z</time>
      </trkpt>
      <trkpt lat="45.85516" lon="4.67904">
        <ele>202.3063</ele>
        <time>2023-06-19T16:02:09.000Z</time>
      </trkpt>
      <trkpt lat="45.85514" lon="4.67897">
        <ele>202.26596</ele>
        <time>2023-06-19T16:02:10.000Z</time>
      </trkpt>
      <trkpt lat="45.85511" lon="4.67888">
        <ele>202.25859</ele>
        <time>2023-06-19T16:02:11.000Z</time>
      </trkpt>
      <trkpt lat="45.8551" lon="4.67879">
        <ele>202.26204</ele>
        <time>2023-06-19T16:02:12.000Z</time>
      </trkpt>
      <trkpt lat="45.85507" lon="4.6787">
        <ele>202.29303</ele>
        <time>2023-06-19T16:02:13.000Z</time>
      </trkpt>
      <trkpt lat="45.85506" lon="4.67862">
        <ele>202.27927</ele>
        <time>2023-06-19T16:02:14.000Z</time>
      </trkpt>
      <trkpt lat="45.85505" lon="4.67854">
        <ele>202.2858</ele>
        <time>2023-06-19T16:02:15.000Z</time>
      </trkpt>
      <trkpt lat="45.85503" lon="4.67845">
        <ele>202.24155</ele>
        <time>2023-06-19T16:02:16.000Z</time>
      </trkpt>
      <trkpt lat="45.85501" lon="4.67839">
        <ele>202.19235</ele>
        <time>2023-06-19T16:02:17.000Z</time>
      </trkpt>
      <trkpt lat="45.85499" lon="4.67833">
        <ele>202.16483</ele>
        <time>2023-06-19T16:02:18.000Z</time>
      </trkpt>
      <trkpt lat="45.85497" lon="4.67828">
        <ele>202.12236</ele>
        <time>2023-06-19T16:02:19.000Z</time>
      </trkpt>
      <trkpt lat="45.85496" lon="4.67822">
        <ele>202.09323</ele>
        <time>2023-06-19T16:02:20.000Z</time>
      </trkpt>
      <trkpt lat="45.85495" lon="4.67817">
        <ele>202.05069</ele>
        <time>2023-06-19T16:02:21.000Z</time>
      </trkpt>
      <trkpt lat="45.85494" lon="4.67813">
        <ele>202.00076</ele>
        <time>2023-06-19T16:02:22.000Z</time>
      </trkpt>
      <trkpt lat="45.85491" lon="4.67806">
        <ele>201.90018</ele>
        <time>2023-06-19T16:02:23.000Z</time>
      </trkpt>
      <trkpt lat="45.8549" lon="4.678">
        <ele>201.78745</ele>
        <time>2023-06-19T16:02:24.000Z</time>
      </trkpt>
      <trkpt lat="45.85489" lon="4.67795">
        <ele>201.6904</ele>
        <time>2023-06-19T16:02:25.000Z</time>
      </trkpt>
      <trkpt lat="45.85489" lon="4.67788">
        <ele>201.56871</ele>
        <time>2023-06-19T16:02:26.000Z</time>
      </trkpt>
      <trkpt lat="45.85488" lon="4.6778">
        <ele>201.44516</ele>
        <time>2023-06-19T16:02:27.000Z</time>
      </trkpt>
      <trkpt lat="45.85489" lon="4.67774">
        <ele>201.33298</ele>
        <time>2023-06-19T16:02:28.000Z</time>
      </trkpt>
      <trkpt lat="45.8549" lon="4.67768">
        <ele>201.27271</ele>
        <time>2023-06-19T16:02:29.000Z</time>
      </trkpt>
      <trkpt lat="45.85492" lon="4.67761">
        <ele>201.19624</ele>
        <time>2023-06-19T16:02:30.000Z</time>
      </trkpt>
      <trkpt lat="45.85494" lon="4.67753">
        <ele>201.15129</ele>
        <time>2023-06-19T16:02:31.000Z</time>
      </trkpt>
      <trkpt lat="45.85497" lon="4.67748">
        <ele>201.10576</ele>
        <time>2023-06-19T16:02:32.000Z</time>
      </trkpt>
      <trkpt lat="45.85499" lon="4.67742">
        <ele>201.07965</ele>
        <time>2023-06-19T16:02:33.000Z</time>
      </trkpt>
      <trkpt lat="45.85502" lon="4.67735">
        <ele>201.05145</ele>
        <time>2023-06-19T16:02:34.000Z</time>
      </trkpt>
      <trkpt lat="45.85505" lon="4.67729">
        <ele>201.00305</ele>
        <time>2023-06-19T16:02:35.000Z</time>
      </trkpt>
      <trkpt lat="45.85508" lon="4.67723">
        <ele>200.98117</ele>
        <time>2023-06-19T16:02:36.000Z</time>
      </trkpt>
      <trkpt lat="45.85511" lon="4.67716">
        <ele>200.97211</ele>
        <time>2023-06-19T16:02:37.000Z</time>
      </trkpt>
      <trkpt lat="45.85515" lon="4.6771">
        <ele>200.94884</ele>
        <time>2023-06-19T16:02:38.000Z</time>
      </trkpt>
      <trkpt lat="45.85518" lon="4.67703">
        <ele>200.9422</ele>
        <time>2023-06-19T16:02:39.000Z</time>
      </trkpt>
      <trkpt lat="45.85521" lon="4.67698">
        <ele>200.89847</ele>
        <time>2023-06-19T16:02:40.000Z</time>
      </trkpt>
      <trkpt lat="45.85524" lon="4.67692">
        <ele>200.85637</ele>
        <time>2023-06-19T16:02:41.000Z</time>
      </trkpt>
      <trkpt lat="45.85527" lon="4.67686">
        <ele>200.81564</ele>
        <time>2023-06-19T16:02:42.000Z</time>
      </trkpt>
      <trkpt lat="45.8553" lon="4.67681">
        <ele>200.81076</ele>
        <time>2023-06-19T16:02:43.000Z</time>
      </trkpt>
      <trkpt lat="45.85533" lon="4.67676">
        <ele>200.83899</ele>
        <time>2023-06-19T16:02:44.000Z</time>
      </trkpt>
      <trkpt lat="45.85537" lon="4.67672">
        <ele>200.85959</ele>
        <time>2023-06-19T16:02:45.000Z</time>
      </trkpt>
      <trkpt lat="45.85541" lon="4.67667">
        <ele>200.91745</ele>
        <time>2023-06-19T16:02:46.000Z</time>
      </trkpt>
      <trkpt lat="45.85544" lon="4.67663">
        <ele>201.01605</ele>
        <time>2023-06-19T16:02:47.000Z</time>
      </trkpt>
      <trkpt lat="45.85548" lon="4.67659">
        <ele>201.14508</ele>
        <time>2023-06-19T16:02:48.000Z</time>
      </trkpt>
      <trkpt lat="45.85551" lon="4.67655">
        <ele>201.26576</ele>
        <time>2023-06-19T16:02:49.000Z</time>
      </trkpt>
      <trkpt lat="45.85554" lon="4.67652">
        <ele>201.4037</ele>
        <time>2023-06-19T16:02:50.000Z</time>
      </trkpt>
      <trkpt lat="45.85557" lon="4.67647">
        <ele>201.49289</ele>
        <time>2023-06-19T16:02:51.000Z</time>
      </trkpt>
      <trkpt lat="45.85561" lon="4.67644">
        <ele>201.62715</ele>
        <time>2023-06-19T16:02:52.000Z</time>
      </trkpt>
      <trkpt lat="45.85565" lon="4.67639">
        <ele>201.72945</ele>
        <time>2023-06-19T16:02:53.000Z</time>
      </trkpt>
      <trkpt lat="45.85569" lon="4.67635">
        <ele>201.84218</ele>
        <time>2023-06-19T16:02:54.000Z</time>
      </trkpt>
      <trkpt lat="45.85573" lon="4.6763">
        <ele>201.9501</ele>
        <time>2023-06-19T16:02:55.000Z</time>
      </trkpt>
      <trkpt lat="45.85577" lon="4.67626">
        <ele>202.04605</ele>
        <time>2023-06-19T16:02:56.000Z</time>
      </trkpt>
      <trkpt lat="45.85582" lon="4.67621">
        <ele>202.13831</ele>
        <time>2023-06-19T16:02:57.000Z</time>
      </trkpt>
      <trkpt lat="45.85586" lon="4.67617">
        <ele>202.20389</ele>
        <time>2023-06-19T16:02:58.000Z</time>
      </trkpt>
      <trkpt lat="45.8559" lon="4.67612">
        <ele>202.27054</ele>
        <time>2023-06-19T16:02:59.000Z</time>
      </trkpt>
      <trkpt lat="45.85593" lon="4.67608">
        <ele>202.34329</ele>
        <time>2023-06-19T16:03:00.000Z</time>
      </trkpt>
      <trkpt lat="45.85598" lon="4.67603">
        <ele>202.3739</ele>
        <time>2023-06-19T16:03:01.000Z</time>
      </trkpt>
      <trkpt lat="45.85602" lon="4.67598">
        <ele>202.40469</ele>
        <time>2023-06-19T16:03:02.000Z</time>
      </trkpt>
      <trkpt lat="45.85605" lon="4.67594">
        <ele>202.43611</ele>
        <time>2023-06-19T16:03:03.000Z</time>
      </trkpt>
      <trkpt lat="45.85609" lon="4.6759">
        <ele>202.44212</ele>
        <time>2023-06-19T16:03:04.000Z</time>
      </trkpt>
      <trkpt lat="45.85613" lon="4.67586">
        <ele>202.45703</ele>
        <time>2023-06-19T16:03:05.000Z</time>
      </trkpt>
      <trkpt lat="45.85617" lon="4.67583">
        <ele>202.4402</ele>
        <time>2023-06-19T16:03:06.000Z</time>
      </trkpt>
      <trkpt lat="45.85621" lon="4.67579">
        <ele>202.44765</ele>
        <time>2023-06-19T16:03:07.000Z</time>
      </trkpt>
      <trkpt lat="45.85625" lon="4.67576">
        <ele>202.43683</ele>
        <time>2023-06-19T16:03:08.000Z</time>
      </trkpt>
      <trkpt lat="45.85628" lon="4.67571">
        <ele>202.44786</ele>
        <time>2023-06-19T16:03:09.000Z</time>
      </trkpt>
      <trkpt lat="45.85633" lon="4.67567">
        <ele>202.45099</ele>
        <time>2023-06-19T16:03:10.000Z</time>
      </trkpt>
      <trkpt lat="45.85637" lon="4.67564">
        <ele>202.44301</ele>
        <time>2023-06-19T16:03:11.000Z</time>
      </trkpt>
      <trkpt lat="45.8564" lon="4.6756">
        <ele>202.42134</ele>
        <time>2023-06-19T16:03:12.000Z</time>
      </trkpt>
      <trkpt lat="45.85644" lon="4.67557">
        <ele>202.41772</ele>
        <time>2023-06-19T16:03:13.000Z</time>
      </trkpt>
      <trkpt lat="45.85649" lon="4.67554">
        <ele>202.44359</ele>
        <time>2023-06-19T16:03:14.000Z</time>
      </trkpt>
      <trkpt lat="45.85653" lon="4.6755">
        <ele>202.47023</ele>
        <time>2023-06-19T16:03:15.000Z</time>
      </trkpt>
      <trkpt lat="45.85657" lon="4.67545">
        <ele>202.48958</ele>
        <time>2023-06-19T16:03:16.000Z</time>
      </trkpt>
      <trkpt lat="45.85661" lon="4.67541">
        <ele>202.49504</ele>
        <time>2023-06-19T16:03:17.000Z</time>
      </trkpt>
      <trkpt lat="45.85665" lon="4.67538">
        <ele>202.56335</ele>
        <time>2023-06-19T16:03:18.000Z</time>
      </trkpt>
      <trkpt lat="45.85669" lon="4.67533">
        <ele>202.60432</ele>
        <time>2023-06-19T16:03:19.000Z</time>
      </trkpt>
      <trkpt lat="45.85674" lon="4.67529">
        <ele>202.6463</ele>
        <time>2023-06-19T16:03:20.000Z</time>
      </trkpt>
      <trkpt lat="45.85678" lon="4.67525">
        <ele>202.70979</ele>
        <time>2023-06-19T16:03:21.000Z</time>
      </trkpt>
      <trkpt lat="45.85683" lon="4.6752">
        <ele>202.77621</ele>
        <time>2023-06-19T16:03:22.000Z</time>
      </trkpt>
      <trkpt lat="45.85687" lon="4.67514">
        <ele>202.84572</ele>
        <time>2023-06-19T16:03:23.000Z</time>
      </trkpt>
      <trkpt lat="45.85692" lon="4.67509">
        <ele>202.9308</ele>
        <time>2023-06-19T16:03:24.000Z</time>
      </trkpt>
      <trkpt lat="45.85696" lon="4.67503">
        <ele>203.01904</ele>
        <time>2023-06-19T16:03:25.000Z</time>
      </trkpt>
      <trkpt lat="45.85701" lon="4.67497">
        <ele>203.09068</ele>
        <time>2023-06-19T16:03:26.000Z</time>
      </trkpt>
      <trkpt lat="45.85705" lon="4.6749">
        <ele>203.12401</ele>
        <time>2023-06-19T16:03:27.000Z</time>
      </trkpt>
      <trkpt lat="45.8571" lon="4.67484">
        <ele>203.12454</ele>
        <time>2023-06-19T16:03:28.000Z</time>
      </trkpt>
      <trkpt lat="45.85714" lon="4.67477">
        <ele>203.12077</ele>
        <time>2023-06-19T16:03:29.000Z</time>
      </trkpt>
      <trkpt lat="45.85718" lon="4.6747">
        <ele>203.11217</ele>
        <time>2023-06-19T16:03:30.000Z</time>
      </trkpt>
      <trkpt lat="45.85722" lon="4.67463">
        <ele>203.11859</ele>
        <time>2023-06-19T16:03:31.000Z</time>
      </trkpt>
      <trkpt lat="45.85726" lon="4.67457">
        <ele>203.09966</ele>
        <time>2023-06-19T16:03:32.000Z</time>
      </trkpt>
      <trkpt lat="45.8573" lon="4.6745">
        <ele>203.10417</ele>
        <time>2023-06-19T16:03:33.000Z</time>
      </trkpt>
      <trkpt lat="45.85733" lon="4.67443">
        <ele>203.08945</ele>
        <time>2023-06-19T16:03:34.000Z</time>
      </trkpt>
      <trkpt lat="45.85737" lon="4.67435">
        <ele>203.07518</ele>
        <time>2023-06-19T16:03:35.000Z</time>
      </trkpt>
      <trkpt lat="45.85741" lon="4.67427">
        <ele>203.0744</ele>
        <time>2023-06-19T16:03:36.000Z</time>
      </trkpt>
      <trkpt lat="45.85745" lon="4.67418">
        <ele>203.07466</ele>
        <time>2023-06-19T16:03:37.000Z</time>
      </trkpt>
      <trkpt lat="45.85749" lon="4.67411">
        <ele>203.03441</ele>
        <time>2023-06-19T16:03:38.000Z</time>
      </trkpt>
      <trkpt lat="45.85752" lon="4.67402">
        <ele>203.00485</ele>
        <time>2023-06-19T16:03:39.000Z</time>
      </trkpt>
      <trkpt lat="45.85757" lon="4.67394">
        <ele>202.97078</ele>
        <time>2023-06-19T16:03:40.000Z</time>
      </trkpt>
      <trkpt lat="45.85761" lon="4.67386">
        <ele>202.93982</ele>
        <time>2023-06-19T16:03:41.000Z</time>
      </trkpt>
      <trkpt lat="45.85765" lon="4.67379">
        <ele>202.89876</ele>
        <time>2023-06-19T16:03:42.000Z</time>
      </trkpt>
      <trkpt lat="45.85768" lon="4.67374">
        <ele>202.86003</ele>
        <time>2023-06-19T16:03:43.000Z</time>
      </trkpt>
      <trkpt lat="45.85772" lon="4.67368">
        <ele>202.83054</ele>
        <time>2023-06-19T16:03:44.000Z</time>
      </trkpt>
      <trkpt lat="45.85774" lon="4.67363">
        <ele>202.76073</ele>
        <time>2023-06-19T16:03:45.000Z</time>
      </trkpt>
      <trkpt lat="45.85776" lon="4.67358">
        <ele>202.69365</ele>
        <time>2023-06-19T16:03:46.000Z</time>
      </trkpt>
      <trkpt lat="45.85775" lon="4.67353">
        <ele>202.58888</ele>
        <time>2023-06-19T16:03:47.000Z</time>
      </trkpt>
      <trkpt lat="45.85773" lon="4.67347">
        <ele>202.53534</ele>
        <time>2023-06-19T16:03:48.000Z</time>
      </trkpt>
      <trkpt lat="45.85774" lon="4.67344">
        <ele>202.45111</ele>
        <time>2023-06-19T16:03:49.000Z</time>
      </trkpt>
      <trkpt lat="45.85775" lon="4.67341">
        <ele>202.35365</ele>
        <time>2023-06-19T16:03:50.000Z</time>
      </trkpt>
      <trkpt lat="45.85775" lon="4.67338">
        <ele>202.25005</ele>
        <time>2023-06-19T16:03:51.000Z</time>
      </trkpt>
      <trkpt lat="45.85774" lon="4.67335">
        <ele>202.17747</ele>
        <time>2023-06-19T16:03:52.000Z</time>
      </trkpt>
      <trkpt lat="45.85773" lon="4.67333">
        <ele>202.07578</ele>
        <time>2023-06-19T16:03:53.000Z</time>
      </trkpt>
      <trkpt lat="45.85772" lon="4.6733">
        <ele>201.96577</ele>
        <time>2023-06-19T16:03:55.000Z</time>
      </trkpt>
      <trkpt lat="45.85769" lon="4.67326">
        <ele>201.87286</ele>
        <time>2023-06-19T16:03:56.000Z</time>
      </trkpt>
      <trkpt lat="45.85767" lon="4.67324">
        <ele>201.78958</ele>
        <time>2023-06-19T16:03:57.000Z</time>
      </trkpt>
      <trkpt lat="45.85765" lon="4.67322">
        <ele>201.7205</ele>
        <time>2023-06-19T16:03:58.000Z</time>
      </trkpt>
      <trkpt lat="45.85763" lon="4.67321">
        <ele>201.6142</ele>
        <time>2023-06-19T16:03:59.000Z</time>
      </trkpt>
      <trkpt lat="45.85761" lon="4.67319">
        <ele>201.52664</ele>
        <time>2023-06-19T16:04:00.000Z</time>
      </trkpt>
      <trkpt lat="45.85759" lon="4.67317">
        <ele>201.49387</ele>
        <time>2023-06-19T16:04:01.000Z</time>
      </trkpt>
      <trkpt lat="45.85757" lon="4.67315">
        <ele>201.47115</ele>
        <time>2023-06-19T16:04:02.000Z</time>
      </trkpt>
      <trkpt lat="45.85755" lon="4.67312">
        <ele>201.47205</ele>
        <time>2023-06-19T16:04:03.000Z</time>
      </trkpt>
      <trkpt lat="45.85752" lon="4.67309">
        <ele>201.49146</ele>
        <time>2023-06-19T16:04:04.000Z</time>
      </trkpt>
      <trkpt lat="45.85749" lon="4.67306">
        <ele>201.49968</ele>
        <time>2023-06-19T16:04:05.000Z</time>
      </trkpt>
      <trkpt lat="45.85747" lon="4.67302">
        <ele>201.50571</ele>
        <time>2023-06-19T16:04:06.000Z</time>
      </trkpt>
      <trkpt lat="45.85746" lon="4.673">
        <ele>201.49963</ele>
        <time>2023-06-19T16:04:07.000Z</time>
      </trkpt>
      <trkpt lat="45.85744" lon="4.67297">
        <ele>201.5667</ele>
        <time>2023-06-19T16:04:08.000Z</time>
      </trkpt>
      <trkpt lat="45.85741" lon="4.67294">
        <ele>201.56256</ele>
        <time>2023-06-19T16:04:09.000Z</time>
      </trkpt>
      <trkpt lat="45.85739" lon="4.67291">
        <ele>201.5594</ele>
        <time>2023-06-19T16:04:10.000Z</time>
      </trkpt>
      <trkpt lat="45.85737" lon="4.67288">
        <ele>201.56738</ele>
        <time>2023-06-19T16:04:11.000Z</time>
      </trkpt>
      <trkpt lat="45.85735" lon="4.67286">
        <ele>201.54849</ele>
        <time>2023-06-19T16:04:12.000Z</time>
      </trkpt>
      <trkpt lat="45.85732" lon="4.67283">
        <ele>201.53606</ele>
        <time>2023-06-19T16:04:13.000Z</time>
      </trkpt>
      <trkpt lat="45.8573" lon="4.67282">
        <ele>201.45277</ele>
        <time>2023-06-19T16:04:14.000Z</time>
      </trkpt>
      <trkpt lat="45.85726" lon="4.67279">
        <ele>201.37231</ele>
        <time>2023-06-19T16:04:15.000Z</time>
      </trkpt>
      <trkpt lat="45.85723" lon="4.67277">
        <ele>201.33989</ele>
        <time>2023-06-19T16:04:16.000Z</time>
      </trkpt>
      <trkpt lat="45.8572" lon="4.67274">
        <ele>201.29134</ele>
        <time>2023-06-19T16:04:17.000Z</time>
      </trkpt>
      <trkpt lat="45.85717" lon="4.67272">
        <ele>201.27217</ele>
        <time>2023-06-19T16:04:18.000Z</time>
      </trkpt>
      <trkpt lat="45.85714" lon="4.6727">
        <ele>201.26309</ele>
        <time>2023-06-19T16:04:19.000Z</time>
      </trkpt>
      <trkpt lat="45.85711" lon="4.67269">
        <ele>201.19875</ele>
        <time>2023-06-19T16:04:20.000Z</time>
      </trkpt>
      <trkpt lat="45.85708" lon="4.67267">
        <ele>201.07669</ele>
        <time>2023-06-19T16:04:21.000Z</time>
      </trkpt>
      <trkpt lat="45.85705" lon="4.67266">
        <ele>200.97391</ele>
        <time>2023-06-19T16:04:22.000Z</time>
      </trkpt>
      <trkpt lat="45.85702" lon="4.67265">
        <ele>200.85886</ele>
        <time>2023-06-19T16:04:23.000Z</time>
      </trkpt>
      <trkpt lat="45.85698" lon="4.67263">
        <ele>200.74385</ele>
        <time>2023-06-19T16:04:24.000Z</time>
      </trkpt>
      <trkpt lat="45.85695" lon="4.67261">
        <ele>200.58237</ele>
        <time>2023-06-19T16:04:25.000Z</time>
      </trkpt>
      <trkpt lat="45.85691" lon="4.6726">
        <ele>200.46706</ele>
        <time>2023-06-19T16:04:26.000Z</time>
      </trkpt>
      <trkpt lat="45.85688" lon="4.67258">
        <ele>200.358</ele>
        <time>2023-06-19T16:04:27.000Z</time>
      </trkpt>
      <trkpt lat="45.85684" lon="4.67256">
        <ele>200.23222</ele>
        <time>2023-06-19T16:04:28.000Z</time>
      </trkpt>
      <trkpt lat="45.8568" lon="4.67255">
        <ele>200.17915</ele>
        <time>2023-06-19T16:04:29.000Z</time>
      </trkpt>
      <trkpt lat="45.85676" lon="4.67253">
        <ele>200.14926</ele>
        <time>2023-06-19T16:04:30.000Z</time>
      </trkpt>
      <trkpt lat="45.85673" lon="4.6725">
        <ele>200.08603</ele>
        <time>2023-06-19T16:04:31.000Z</time>
      </trkpt>
      <trkpt lat="45.85668" lon="4.67245">
        <ele>200.13014</ele>
        <time>2023-06-19T16:04:32.000Z</time>
      </trkpt>
      <trkpt lat="45.85665" lon="4.67242">
        <ele>200.16734</ele>
        <time>2023-06-19T16:04:33.000Z</time>
      </trkpt>
      <trkpt lat="45.85661" lon="4.6724">
        <ele>200.28287</ele>
        <time>2023-06-19T16:04:34.000Z</time>
      </trkpt>
      <trkpt lat="45.85658" lon="4.67238">
        <ele>200.36076</ele>
        <time>2023-06-19T16:04:35.000Z</time>
      </trkpt>
      <trkpt lat="45.85654" lon="4.67234">
        <ele>200.42337</ele>
        <time>2023-06-19T16:04:36.000Z</time>
      </trkpt>
      <trkpt lat="45.8565" lon="4.67232">
        <ele>200.50935</ele>
        <time>2023-06-19T16:04:37.000Z</time>
      </trkpt>
      <trkpt lat="45.85647" lon="4.67229">
        <ele>200.57808</ele>
        <time>2023-06-19T16:04:38.000Z</time>
      </trkpt>
      <trkpt lat="45.85644" lon="4.67227">
        <ele>200.58435</ele>
        <time>2023-06-19T16:04:39.000Z</time>
      </trkpt>
      <trkpt lat="45.85641" lon="4.67225">
        <ele>200.64244</ele>
        <time>2023-06-19T16:04:40.000Z</time>
      </trkpt>
      <trkpt lat="45.8564" lon="4.67221">
        <ele>200.72507</ele>
        <time>2023-06-19T16:04:41.000Z</time>
      </trkpt>
      <trkpt lat="45.85635" lon="4.67217">
        <ele>200.81564</ele>
        <time>2023-06-19T16:04:42.000Z</time>
      </trkpt>
      <trkpt lat="45.85631" lon="4.67212">
        <ele>200.92935</ele>
        <time>2023-06-19T16:04:43.000Z</time>
      </trkpt>
      <trkpt lat="45.85628" lon="4.67208">
        <ele>201.00577</ele>
        <time>2023-06-19T16:04:44.000Z</time>
      </trkpt>
      <trkpt lat="45.85625" lon="4.67203">
        <ele>201.12703</ele>
        <time>2023-06-19T16:04:45.000Z</time>
      </trkpt>
      <trkpt lat="45.85621" lon="4.67197">
        <ele>201.21304</ele>
        <time>2023-06-19T16:04:46.000Z</time>
      </trkpt>
      <trkpt lat="45.85618" lon="4.67191">
        <ele>201.32857</ele>
        <time>2023-06-19T16:04:47.000Z</time>
      </trkpt>
      <trkpt lat="45.85616" lon="4.67186">
        <ele>201.41165</ele>
        <time>2023-06-19T16:04:48.000Z</time>
      </trkpt>
      <trkpt lat="45.85615" lon="4.67184">
        <ele>201.43939</ele>
        <time>2023-06-19T16:04:49.000Z</time>
      </trkpt>
      <trkpt lat="45.85613" lon="4.67177">
        <ele>201.48935</ele>
        <time>2023-06-19T16:04:50.000Z</time>
      </trkpt>
      <trkpt lat="45.8561" lon="4.6717">
        <ele>201.565</ele>
        <time>2023-06-19T16:04:51.000Z</time>
      </trkpt>
      <trkpt lat="45.85607" lon="4.67164">
        <ele>201.55875</ele>
        <time>2023-06-19T16:04:52.000Z</time>
      </trkpt>
      <trkpt lat="45.85604" lon="4.67157">
        <ele>201.55403</ele>
        <time>2023-06-19T16:04:53.000Z</time>
      </trkpt>
      <trkpt lat="45.856" lon="4.6715">
        <ele>201.55389</ele>
        <time>2023-06-19T16:04:54.000Z</time>
      </trkpt>
      <trkpt lat="45.85597" lon="4.67143">
        <ele>201.60886</ele>
        <time>2023-06-19T16:04:55.000Z</time>
      </trkpt>
      <trkpt lat="45.85593" lon="4.67136">
        <ele>201.62692</ele>
        <time>2023-06-19T16:04:56.000Z</time>
      </trkpt>
      <trkpt lat="45.8559" lon="4.67128">
        <ele>201.65646</ele>
        <time>2023-06-19T16:04:57.000Z</time>
      </trkpt>
      <trkpt lat="45.85587" lon="4.67121">
        <ele>201.67296</ele>
        <time>2023-06-19T16:04:58.000Z</time>
      </trkpt>
      <trkpt lat="45.85585" lon="4.67114">
        <ele>201.76248</ele>
        <time>2023-06-19T16:04:59.000Z</time>
      </trkpt>
      <trkpt lat="45.85582" lon="4.67107">
        <ele>201.83992</ele>
        <time>2023-06-19T16:05:00.000Z</time>
      </trkpt>
      <trkpt lat="45.85579" lon="4.671">
        <ele>201.92023</ele>
        <time>2023-06-19T16:05:01.000Z</time>
      </trkpt>
      <trkpt lat="45.85576" lon="4.67092">
        <ele>202.00388</ele>
        <time>2023-06-19T16:05:02.000Z</time>
      </trkpt>
      <trkpt lat="45.85574" lon="4.67086">
        <ele>202.03757</ele>
        <time>2023-06-19T16:05:03.000Z</time>
      </trkpt>
      <trkpt lat="45.85571" lon="4.67078">
        <ele>202.11044</ele>
        <time>2023-06-19T16:05:04.000Z</time>
      </trkpt>
      <trkpt lat="45.85569" lon="4.67072">
        <ele>202.1727</ele>
        <time>2023-06-19T16:05:05.000Z</time>
      </trkpt>
      <trkpt lat="45.85566" lon="4.67065">
        <ele>202.27356</ele>
        <time>2023-06-19T16:05:06.000Z</time>
      </trkpt>
      <trkpt lat="45.85564" lon="4.67059">
        <ele>202.36813</ele>
        <time>2023-06-19T16:05:07.000Z</time>
      </trkpt>
      <trkpt lat="45.85561" lon="4.67052">
        <ele>202.50128</ele>
        <time>2023-06-19T16:05:08.000Z</time>
      </trkpt>
      <trkpt lat="45.85559" lon="4.67045">
        <ele>202.7057</ele>
        <time>2023-06-19T16:05:09.000Z</time>
      </trkpt>
      <trkpt lat="45.85557" lon="4.67038">
        <ele>202.83867</ele>
        <time>2023-06-19T16:05:10.000Z</time>
      </trkpt>
      <trkpt lat="45.85555" lon="4.67032">
        <ele>202.96637</ele>
        <time>2023-06-19T16:05:11.000Z</time>
      </trkpt>
      <trkpt lat="45.85553" lon="4.67026">
        <ele>203.14064</ele>
        <time>2023-06-19T16:05:12.000Z</time>
      </trkpt>
      <trkpt lat="45.85552" lon="4.6702">
        <ele>203.28603</ele>
        <time>2023-06-19T16:05:13.000Z</time>
      </trkpt>
      <trkpt lat="45.8555" lon="4.67014">
        <ele>203.42093</ele>
        <time>2023-06-19T16:05:14.000Z</time>
      </trkpt>
      <trkpt lat="45.85549" lon="4.67007">
        <ele>203.50937</ele>
        <time>2023-06-19T16:05:15.000Z</time>
      </trkpt>
      <trkpt lat="45.85547" lon="4.67001">
        <ele>203.58484</ele>
        <time>2023-06-19T16:05:16.000Z</time>
      </trkpt>
      <trkpt lat="45.85545" lon="4.66994">
        <ele>203.64525</ele>
        <time>2023-06-19T16:05:17.000Z</time>
      </trkpt>
      <trkpt lat="45.85544" lon="4.6699">
        <ele>203.7267</ele>
        <time>2023-06-19T16:05:18.000Z</time>
      </trkpt>
      <trkpt lat="45.85543" lon="4.66984">
        <ele>203.83665</ele>
        <time>2023-06-19T16:05:19.000Z</time>
      </trkpt>
      <trkpt lat="45.85541" lon="4.66979">
        <ele>203.923</ele>
        <time>2023-06-19T16:05:20.000Z</time>
      </trkpt>
      <trkpt lat="45.8554" lon="4.66975">
        <ele>204.01726</ele>
        <time>2023-06-19T16:05:21.000Z</time>
      </trkpt>
      <trkpt lat="45.85539" lon="4.66972">
        <ele>204.09682</ele>
        <time>2023-06-19T16:05:22.000Z</time>
      </trkpt>
      <trkpt lat="45.85538" lon="4.66969">
        <ele>204.2153</ele>
        <time>2023-06-19T16:05:23.000Z</time>
      </trkpt>
      <trkpt lat="45.85537" lon="4.66966">
        <ele>204.34616</ele>
        <time>2023-06-19T16:05:24.000Z</time>
      </trkpt>
      <trkpt lat="45.85537" lon="4.66962">
        <ele>204.45483</ele>
        <time>2023-06-19T16:05:25.000Z</time>
      </trkpt>
      <trkpt lat="45.85536" lon="4.66959">
        <ele>204.52184</ele>
        <time>2023-06-19T16:05:26.000Z</time>
      </trkpt>
      <trkpt lat="45.85536" lon="4.66955">
        <ele>204.59795</ele>
        <time>2023-06-19T16:05:27.000Z</time>
      </trkpt>
      <trkpt lat="45.85535" lon="4.6695">
        <ele>204.65257</ele>
        <time>2023-06-19T16:05:28.000Z</time>
      </trkpt>
      <trkpt lat="45.85534" lon="4.66945">
        <ele>204.66261</ele>
        <time>2023-06-19T16:05:29.000Z</time>
      </trkpt>
      <trkpt lat="45.85533" lon="4.6694">
        <ele>204.7236</ele>
        <time>2023-06-19T16:05:30.000Z</time>
      </trkpt>
      <trkpt lat="45.85532" lon="4.66935">
        <ele>204.79935</ele>
        <time>2023-06-19T16:05:31.000Z</time>
      </trkpt>
      <trkpt lat="45.85531" lon="4.66927">
        <ele>204.80196</ele>
        <time>2023-06-19T16:05:32.000Z</time>
      </trkpt>
      <trkpt lat="45.85531" lon="4.66921">
        <ele>204.86612</ele>
        <time>2023-06-19T16:05:33.000Z</time>
      </trkpt>
      <trkpt lat="45.85529" lon="4.66915">
        <ele>204.92696</ele>
        <time>2023-06-19T16:05:34.000Z</time>
      </trkpt>
      <trkpt lat="45.85526" lon="4.66908">
        <ele>205.01151</ele>
        <time>2023-06-19T16:05:35.000Z</time>
      </trkpt>
      <trkpt lat="45.85525" lon="4.66901">
        <ele>205.11996</ele>
        <time>2023-06-19T16:05:36.000Z</time>
      </trkpt>
      <trkpt lat="45.85524" lon="4.66893">
        <ele>205.19853</ele>
        <time>2023-06-19T16:05:37.000Z</time>
      </trkpt>
      <trkpt lat="45.85523" lon="4.66884">
        <ele>205.25314</ele>
        <time>2023-06-19T16:05:38.000Z</time>
      </trkpt>
      <trkpt lat="45.85523" lon="4.66875">
        <ele>205.27669</ele>
        <time>2023-06-19T16:05:39.000Z</time>
      </trkpt>
      <trkpt lat="45.85523" lon="4.66866">
        <ele>205.29472</ele>
        <time>2023-06-19T16:05:40.000Z</time>
      </trkpt>
      <trkpt lat="45.85524" lon="4.66858">
        <ele>205.26529</ele>
        <time>2023-06-19T16:05:41.000Z</time>
      </trkpt>
      <trkpt lat="45.85523" lon="4.6685">
        <ele>205.23648</ele>
        <time>2023-06-19T16:05:42.000Z</time>
      </trkpt>
      <trkpt lat="45.85524" lon="4.66844">
        <ele>205.16724</ele>
        <time>2023-06-19T16:05:43.000Z</time>
      </trkpt>
      <trkpt lat="45.85524" lon="4.66837">
        <ele>205.03716</ele>
        <time>2023-06-19T16:05:44.000Z</time>
      </trkpt>
      <trkpt lat="45.85526" lon="4.66831">
        <ele>204.93106</ele>
        <time>2023-06-19T16:05:45.000Z</time>
      </trkpt>
      <trkpt lat="45.85524" lon="4.66821">
        <ele>204.86247</ele>
        <time>2023-06-19T16:05:46.000Z</time>
      </trkpt>
      <trkpt lat="45.85523" lon="4.66814">
        <ele>204.75961</ele>
        <time>2023-06-19T16:05:47.000Z</time>
      </trkpt>
      <trkpt lat="45.85523" lon="4.66808">
        <ele>204.65289</ele>
        <time>2023-06-19T16:05:48.000Z</time>
      </trkpt>
      <trkpt lat="45.85523" lon="4.66801">
        <ele>204.52866</ele>
        <time>2023-06-19T16:05:49.000Z</time>
      </trkpt>
      <trkpt lat="45.85522" lon="4.66793">
        <ele>204.45291</ele>
        <time>2023-06-19T16:05:50.000Z</time>
      </trkpt>
      <trkpt lat="45.85521" lon="4.66788">
        <ele>204.36761</ele>
        <time>2023-06-19T16:05:51.000Z</time>
      </trkpt>
      <trkpt lat="45.85521" lon="4.66781">
        <ele>204.30142</ele>
        <time>2023-06-19T16:05:52.000Z</time>
      </trkpt>
      <trkpt lat="45.85519" lon="4.66775">
        <ele>204.20839</ele>
        <time>2023-06-19T16:05:53.000Z</time>
      </trkpt>
      <trkpt lat="45.85518" lon="4.6677">
        <ele>204.08885</ele>
        <time>2023-06-19T16:05:54.000Z</time>
      </trkpt>
      <trkpt lat="45.85515" lon="4.66762">
        <ele>203.96362</ele>
        <time>2023-06-19T16:05:55.000Z</time>
      </trkpt>
      <trkpt lat="45.85513" lon="4.66757">
        <ele>203.81367</ele>
        <time>2023-06-19T16:05:56.000Z</time>
      </trkpt>
      <trkpt lat="45.85512" lon="4.66752">
        <ele>203.61919</ele>
        <time>2023-06-19T16:05:57.000Z</time>
      </trkpt>
      <trkpt lat="45.85509" lon="4.66744">
        <ele>203.39011</ele>
        <time>2023-06-19T16:05:58.000Z</time>
      </trkpt>
      <trkpt lat="45.85507" lon="4.66738">
        <ele>203.18919</ele>
        <time>2023-06-19T16:05:59.000Z</time>
      </trkpt>
      <trkpt lat="45.85505" lon="4.66731">
        <ele>202.99785</ele>
        <time>2023-06-19T16:06:00.000Z</time>
      </trkpt>
      <trkpt lat="45.85503" lon="4.66725">
        <ele>202.81657</ele>
        <time>2023-06-19T16:06:01.000Z</time>
      </trkpt>
      <trkpt lat="45.85503" lon="4.66719">
        <ele>202.63223</ele>
        <time>2023-06-19T16:06:02.000Z</time>
      </trkpt>
      <trkpt lat="45.85502" lon="4.66711">
        <ele>202.48227</ele>
        <time>2023-06-19T16:06:03.000Z</time>
      </trkpt>
      <trkpt lat="45.85503" lon="4.66704">
        <ele>202.25047</ele>
        <time>2023-06-19T16:06:04.000Z</time>
      </trkpt>
      <trkpt lat="45.85502" lon="4.66698">
        <ele>202.05362</ele>
        <time>2023-06-19T16:06:05.000Z</time>
      </trkpt>
      <trkpt lat="45.85501" lon="4.66692">
        <ele>201.83809</ele>
        <time>2023-06-19T16:06:06.000Z</time>
      </trkpt>
      <trkpt lat="45.85501" lon="4.66686">
        <ele>201.65788</ele>
        <time>2023-06-19T16:06:07.000Z</time>
      </trkpt>
      <trkpt lat="45.85501" lon="4.6668">
        <ele>201.51221</ele>
        <time>2023-06-19T16:06:08.000Z</time>
      </trkpt>
      <trkpt lat="45.85501" lon="4.66675">
        <ele>201.41608</ele>
        <time>2023-06-19T16:06:09.000Z</time>
      </trkpt>
      <trkpt lat="45.85501" lon="4.66669">
        <ele>201.24986</ele>
        <time>2023-06-19T16:06:10.000Z</time>
      </trkpt>
      <trkpt lat="45.85502" lon="4.66664">
        <ele>201.11584</ele>
        <time>2023-06-19T16:06:11.000Z</time>
      </trkpt>
      <trkpt lat="45.85502" lon="4.66659">
        <ele>201.00479</ele>
        <time>2023-06-19T16:06:12.000Z</time>
      </trkpt>
      <trkpt lat="45.85501" lon="4.66653">
        <ele>200.84987</ele>
        <time>2023-06-19T16:06:13.000Z</time>
      </trkpt>
      <trkpt lat="45.855" lon="4.66648">
        <ele>200.72629</ele>
        <time>2023-06-19T16:06:14.000Z</time>
      </trkpt>
      <trkpt lat="45.855" lon="4.66642">
        <ele>200.61639</ele>
        <time>2023-06-19T16:06:15.000Z</time>
      </trkpt>
      <trkpt lat="45.85499" lon="4.66637">
        <ele>200.52289</ele>
        <time>2023-06-19T16:06:16.000Z</time>
      </trkpt>
      <trkpt lat="45.85499" lon="4.66632">
        <ele>200.48918</ele>
        <time>2023-06-19T16:06:17.000Z</time>
      </trkpt>
      <trkpt lat="45.85499" lon="4.66626">
        <ele>200.51831</ele>
        <time>2023-06-19T16:06:18.000Z</time>
      </trkpt>
      <trkpt lat="45.85499" lon="4.6662">
        <ele>200.57065</ele>
        <time>2023-06-19T16:06:19.000Z</time>
      </trkpt>
      <trkpt lat="45.855" lon="4.66614">
        <ele>200.67758</ele>
        <time>2023-06-19T16:06:20.000Z</time>
      </trkpt>
      <trkpt lat="45.855" lon="4.66608">
        <ele>200.80104</ele>
        <time>2023-06-19T16:06:21.000Z</time>
      </trkpt>
      <trkpt lat="45.85502" lon="4.66602">
        <ele>200.92136</ele>
        <time>2023-06-19T16:06:22.000Z</time>
      </trkpt>
      <trkpt lat="45.85502" lon="4.66596">
        <ele>201.03859</ele>
        <time>2023-06-19T16:06:23.000Z</time>
      </trkpt>
      <trkpt lat="45.85503" lon="4.6659">
        <ele>201.26106</ele>
        <time>2023-06-19T16:06:24.000Z</time>
      </trkpt>
      <trkpt lat="45.85503" lon="4.66584">
        <ele>201.48289</ele>
        <time>2023-06-19T16:06:25.000Z</time>
      </trkpt>
      <trkpt lat="45.85503" lon="4.66578">
        <ele>201.73064</ele>
        <time>2023-06-19T16:06:26.000Z</time>
      </trkpt>
      <trkpt lat="45.85501" lon="4.66573">
        <ele>201.94966</ele>
        <time>2023-06-19T16:06:27.000Z</time>
      </trkpt>
      <trkpt lat="45.85498" lon="4.66569">
        <ele>202.14636</ele>
        <time>2023-06-19T16:06:28.000Z</time>
      </trkpt>
      <trkpt lat="45.85494" lon="4.66567">
        <ele>202.32144</ele>
        <time>2023-06-19T16:06:29.000Z</time>
      </trkpt>
      <trkpt lat="45.8549" lon="4.66567">
        <ele>202.49852</ele>
        <time>2023-06-19T16:06:30.000Z</time>
      </trkpt>
      <trkpt lat="45.85487" lon="4.66566">
        <ele>202.62929</ele>
        <time>2023-06-19T16:06:31.000Z</time>
      </trkpt>
      <trkpt lat="45.85483" lon="4.66566">
        <ele>202.73831</ele>
        <time>2023-06-19T16:06:32.000Z</time>
      </trkpt>
      <trkpt lat="45.85479" lon="4.66565">
        <ele>202.86682</ele>
        <time>2023-06-19T16:06:33.000Z</time>
      </trkpt>
      <trkpt lat="45.85476" lon="4.66562">
        <ele>203.02144</ele>
        <time>2023-06-19T16:06:34.000Z</time>
      </trkpt>
      <trkpt lat="45.85473" lon="4.66559">
        <ele>203.1812</ele>
        <time>2023-06-19T16:06:35.000Z</time>
      </trkpt>
      <trkpt lat="45.85471" lon="4.66555">
        <ele>203.3308</ele>
        <time>2023-06-19T16:06:36.000Z</time>
      </trkpt>
      <trkpt lat="45.85469" lon="4.6655">
        <ele>203.47218</ele>
        <time>2023-06-19T16:06:37.000Z</time>
      </trkpt>
      <trkpt lat="45.85468" lon="4.66545">
        <ele>203.60913</ele>
        <time>2023-06-19T16:06:38.000Z</time>
      </trkpt>
      <trkpt lat="45.85467" lon="4.66539">
        <ele>203.73599</ele>
        <time>2023-06-19T16:06:39.000Z</time>
      </trkpt>
      <trkpt lat="45.85466" lon="4.66534">
        <ele>203.82112</ele>
        <time>2023-06-19T16:06:40.000Z</time>
      </trkpt>
      <trkpt lat="45.85465" lon="4.66529">
        <ele>203.90396</ele>
        <time>2023-06-19T16:06:41.000Z</time>
      </trkpt>
      <trkpt lat="45.85465" lon="4.66525">
        <ele>204.01353</ele>
        <time>2023-06-19T16:06:42.000Z</time>
      </trkpt>
      <trkpt lat="45.85464" lon="4.6652">
        <ele>204.09525</ele>
        <time>2023-06-19T16:06:43.000Z</time>
      </trkpt>
      <trkpt lat="45.85464" lon="4.66515">
        <ele>204.1571</ele>
        <time>2023-06-19T16:06:44.000Z</time>
      </trkpt>
      <trkpt lat="45.85463" lon="4.66511">
        <ele>204.20314</ele>
        <time>2023-06-19T16:06:45.000Z</time>
      </trkpt>
      <trkpt lat="45.85462" lon="4.66507">
        <ele>204.22955</ele>
        <time>2023-06-19T16:06:46.000Z</time>
      </trkpt>
      <trkpt lat="45.85462" lon="4.66504">
        <ele>204.28467</ele>
        <time>2023-06-19T16:06:47.000Z</time>
      </trkpt>
      <trkpt lat="45.85462" lon="4.665">
        <ele>204.3322</ele>
        <time>2023-06-19T16:06:48.000Z</time>
      </trkpt>
      <trkpt lat="45.85462" lon="4.66496">
        <ele>204.39632</ele>
        <time>2023-06-19T16:06:49.000Z</time>
      </trkpt>
      <trkpt lat="45.85463" lon="4.66492">
        <ele>204.42961</ele>
        <time>2023-06-19T16:06:50.000Z</time>
      </trkpt>
      <trkpt lat="45.85465" lon="4.66488">
        <ele>204.4734</ele>
        <time>2023-06-19T16:06:51.000Z</time>
      </trkpt>
      <trkpt lat="45.85466" lon="4.66484">
        <ele>204.53221</ele>
        <time>2023-06-19T16:06:52.000Z</time>
      </trkpt>
      <trkpt lat="45.85468" lon="4.6648">
        <ele>204.62332</ele>
        <time>2023-06-19T16:06:53.000Z</time>
      </trkpt>
      <trkpt lat="45.8547" lon="4.66475">
        <ele>204.73602</ele>
        <time>2023-06-19T16:06:54.000Z</time>
      </trkpt>
      <trkpt lat="45.8547" lon="4.66469">
        <ele>204.854</ele>
        <time>2023-06-19T16:06:55.000Z</time>
      </trkpt>
      <trkpt lat="45.85471" lon="4.66464">
        <ele>205.00806</ele>
        <time>2023-06-19T16:06:56.000Z</time>
      </trkpt>
      <trkpt lat="45.85472" lon="4.66458">
        <ele>205.16415</ele>
        <time>2023-06-19T16:06:57.000Z</time>
      </trkpt>
      <trkpt lat="45.85473" lon="4.66452">
        <ele>205.26619</ele>
        <time>2023-06-19T16:06:58.000Z</time>
      </trkpt>
      <trkpt lat="45.85474" lon="4.66448">
        <ele>205.37581</ele>
        <time>2023-06-19T16:06:59.000Z</time>
      </trkpt>
      <trkpt lat="45.85476" lon="4.66443">
        <ele>205.50009</ele>
        <time>2023-06-19T16:07:00.000Z</time>
      </trkpt>
      <trkpt lat="45.85478" lon="4.66438">
        <ele>205.62833</ele>
        <time>2023-06-19T16:07:01.000Z</time>
      </trkpt>
      <trkpt lat="45.85481" lon="4.66434">
        <ele>205.67436</ele>
        <time>2023-06-19T16:07:02.000Z</time>
      </trkpt>
      <trkpt lat="45.85483" lon="4.6643">
        <ele>205.71346</ele>
        <time>2023-06-19T16:07:03.000Z</time>
      </trkpt>
      <trkpt lat="45.85485" lon="4.66426">
        <ele>205.8604</ele>
        <time>2023-06-19T16:07:04.000Z</time>
      </trkpt>
      <trkpt lat="45.85486" lon="4.66422">
        <ele>205.96452</ele>
        <time>2023-06-19T16:07:05.000Z</time>
      </trkpt>
      <trkpt lat="45.85487" lon="4.66417">
        <ele>206.05603</ele>
        <time>2023-06-19T16:07:06.000Z</time>
      </trkpt>
      <trkpt lat="45.85488" lon="4.66412">
        <ele>206.16837</ele>
        <time>2023-06-19T16:07:07.000Z</time>
      </trkpt>
      <trkpt lat="45.85489" lon="4.66406">
        <ele>206.31633</ele>
        <time>2023-06-19T16:07:08.000Z</time>
      </trkpt>
      <trkpt lat="45.8549" lon="4.664">
        <ele>206.45581</ele>
        <time>2023-06-19T16:07:09.000Z</time>
      </trkpt>
      <trkpt lat="45.85491" lon="4.66394">
        <ele>206.64717</ele>
        <time>2023-06-19T16:07:10.000Z</time>
      </trkpt>
      <trkpt lat="45.85492" lon="4.66387">
        <ele>206.82541</ele>
        <time>2023-06-19T16:07:11.000Z</time>
      </trkpt>
      <trkpt lat="45.85493" lon="4.66381">
        <ele>207.05515</ele>
        <time>2023-06-19T16:07:12.000Z</time>
      </trkpt>
      <trkpt lat="45.85493" lon="4.66375">
        <ele>207.24553</ele>
        <time>2023-06-19T16:07:13.000Z</time>
      </trkpt>
      <trkpt lat="45.85493" lon="4.66369">
        <ele>207.42461</ele>
        <time>2023-06-19T16:07:14.000Z</time>
      </trkpt>
      <trkpt lat="45.85493" lon="4.66363">
        <ele>207.58061</ele>
        <time>2023-06-19T16:07:15.000Z</time>
      </trkpt>
      <trkpt lat="45.85493" lon="4.66357">
        <ele>207.83304</ele>
        <time>2023-06-19T16:07:16.000Z</time>
      </trkpt>
      <trkpt lat="45.85493" lon="4.66351">
        <ele>208.04736</ele>
        <time>2023-06-19T16:07:17.000Z</time>
      </trkpt>
      <trkpt lat="45.85494" lon="4.66345">
        <ele>208.35088</ele>
        <time>2023-06-19T16:07:18.000Z</time>
      </trkpt>
      <trkpt lat="45.85495" lon="4.66339">
        <ele>208.63875</ele>
        <time>2023-06-19T16:07:19.000Z</time>
      </trkpt>
      <trkpt lat="45.85496" lon="4.66334">
        <ele>208.93686</ele>
        <time>2023-06-19T16:07:20.000Z</time>
      </trkpt>
      <trkpt lat="45.85497" lon="4.66328">
        <ele>209.13171</ele>
        <time>2023-06-19T16:07:21.000Z</time>
      </trkpt>
      <trkpt lat="45.85498" lon="4.66322">
        <ele>209.32956</ele>
        <time>2023-06-19T16:07:22.000Z</time>
      </trkpt>
      <trkpt lat="45.85499" lon="4.66317">
        <ele>209.4686</ele>
        <time>2023-06-19T16:07:23.000Z</time>
      </trkpt>
      <trkpt lat="45.855" lon="4.66312">
        <ele>209.60359</ele>
        <time>2023-06-19T16:07:24.000Z</time>
      </trkpt>
      <trkpt lat="45.855" lon="4.66306">
        <ele>209.80334</ele>
        <time>2023-06-19T16:07:25.000Z</time>
      </trkpt>
      <trkpt lat="45.85501" lon="4.663">
        <ele>210.06723</ele>
        <time>2023-06-19T16:07:26.000Z</time>
      </trkpt>
      <trkpt lat="45.85502" lon="4.66294">
        <ele>210.32634</ele>
        <time>2023-06-19T16:07:27.000Z</time>
      </trkpt>
      <trkpt lat="45.85504" lon="4.66288">
        <ele>210.62361</ele>
        <time>2023-06-19T16:07:28.000Z</time>
      </trkpt>
      <trkpt lat="45.85505" lon="4.66282">
        <ele>210.92358</ele>
        <time>2023-06-19T16:07:29.000Z</time>
      </trkpt>
      <trkpt lat="45.85507" lon="4.66277">
        <ele>211.22514</ele>
        <time>2023-06-19T16:07:30.000Z</time>
      </trkpt>
      <trkpt lat="45.85509" lon="4.66271">
        <ele>211.48723</ele>
        <time>2023-06-19T16:07:31.000Z</time>
      </trkpt>
      <trkpt lat="45.85511" lon="4.66266">
        <ele>211.61484</ele>
        <time>2023-06-19T16:07:32.000Z</time>
      </trkpt>
      <trkpt lat="45.85513" lon="4.6626">
        <ele>211.7063</ele>
        <time>2023-06-19T16:07:33.000Z</time>
      </trkpt>
      <trkpt lat="45.85515" lon="4.66252">
        <ele>211.71799</ele>
        <time>2023-06-19T16:07:34.000Z</time>
      </trkpt>
      <trkpt lat="45.85517" lon="4.66246">
        <ele>211.74348</ele>
        <time>2023-06-19T16:07:35.000Z</time>
      </trkpt>
      <trkpt lat="45.85518" lon="4.66239">
        <ele>211.73824</ele>
        <time>2023-06-19T16:07:36.000Z</time>
      </trkpt>
      <trkpt lat="45.85518" lon="4.66232">
        <ele>211.79936</ele>
        <time>2023-06-19T16:07:37.000Z</time>
      </trkpt>
      <trkpt lat="45.85519" lon="4.66225">
        <ele>211.79456</ele>
        <time>2023-06-19T16:07:38.000Z</time>
      </trkpt>
      <trkpt lat="45.8552" lon="4.66219">
        <ele>211.79773</ele>
        <time>2023-06-19T16:07:39.000Z</time>
      </trkpt>
      <trkpt lat="45.8552" lon="4.66213">
        <ele>211.69133</ele>
        <time>2023-06-19T16:07:40.000Z</time>
      </trkpt>
      <trkpt lat="45.85522" lon="4.66206">
        <ele>211.71939</ele>
        <time>2023-06-19T16:07:41.000Z</time>
      </trkpt>
      <trkpt lat="45.85523" lon="4.662">
        <ele>211.79871</ele>
        <time>2023-06-19T16:07:42.000Z</time>
      </trkpt>
      <trkpt lat="45.85524" lon="4.66194">
        <ele>211.96225</ele>
        <time>2023-06-19T16:07:43.000Z</time>
      </trkpt>
      <trkpt lat="45.85526" lon="4.66187">
        <ele>212.12466</ele>
        <time>2023-06-19T16:07:44.000Z</time>
      </trkpt>
      <trkpt lat="45.85526" lon="4.66179">
        <ele>212.24496</ele>
        <time>2023-06-19T16:07:45.000Z</time>
      </trkpt>
      <trkpt lat="45.85527" lon="4.66172">
        <ele>212.34065</ele>
        <time>2023-06-19T16:07:46.000Z</time>
      </trkpt>
      <trkpt lat="45.85528" lon="4.66165">
        <ele>212.41362</ele>
        <time>2023-06-19T16:07:47.000Z</time>
      </trkpt>
      <trkpt lat="45.85529" lon="4.66157">
        <ele>212.43228</ele>
        <time>2023-06-19T16:07:48.000Z</time>
      </trkpt>
      <trkpt lat="45.85528" lon="4.66149">
        <ele>212.45932</ele>
        <time>2023-06-19T16:07:49.000Z</time>
      </trkpt>
      <trkpt lat="45.85528" lon="4.66141">
        <ele>212.4313</ele>
        <time>2023-06-19T16:07:50.000Z</time>
      </trkpt>
      <trkpt lat="45.85527" lon="4.66133">
        <ele>212.45969</ele>
        <time>2023-06-19T16:07:51.000Z</time>
      </trkpt>
      <trkpt lat="45.85527" lon="4.66126">
        <ele>212.5479</ele>
        <time>2023-06-19T16:07:52.000Z</time>
      </trkpt>
      <trkpt lat="45.85526" lon="4.6612">
        <ele>212.78838</ele>
        <time>2023-06-19T16:07:53.000Z</time>
      </trkpt>
      <trkpt lat="45.85525" lon="4.66112">
        <ele>213.0592</ele>
        <time>2023-06-19T16:07:54.000Z</time>
      </trkpt>
      <trkpt lat="45.85526" lon="4.66105">
        <ele>213.33365</ele>
        <time>2023-06-19T16:07:55.000Z</time>
      </trkpt>
      <trkpt lat="45.85526" lon="4.66099">
        <ele>213.50671</ele>
        <time>2023-06-19T16:07:56.000Z</time>
      </trkpt>
      <trkpt lat="45.85525" lon="4.66093">
        <ele>213.67697</ele>
        <time>2023-06-19T16:07:57.000Z</time>
      </trkpt>
      <trkpt lat="45.85524" lon="4.66086">
        <ele>213.86528</ele>
        <time>2023-06-19T16:07:58.000Z</time>
      </trkpt>
      <trkpt lat="45.85523" lon="4.66081">
        <ele>214.04671</ele>
        <time>2023-06-19T16:07:59.000Z</time>
      </trkpt>
      <trkpt lat="45.85522" lon="4.66076">
        <ele>214.34241</ele>
        <time>2023-06-19T16:08:00.000Z</time>
      </trkpt>
      <trkpt lat="45.85523" lon="4.66073">
        <ele>214.57504</ele>
        <time>2023-06-19T16:09:50.000Z</time>
      </trkpt>
      <trkpt lat="45.85523" lon="4.66068">
        <ele>214.79517</ele>
        <time>2023-06-19T16:09:52.000Z</time>
      </trkpt>
      <trkpt lat="45.85523" lon="4.66064">
        <ele>215.00931</ele>
        <time>2023-06-19T16:09:53.000Z</time>
      </trkpt>
      <trkpt lat="45.85523" lon="4.6606">
        <ele>215.14212</ele>
        <time>2023-06-19T16:09:54.000Z</time>
      </trkpt>
      <trkpt lat="45.85522" lon="4.66056">
        <ele>215.29871</ele>
        <time>2023-06-19T16:09:55.000Z</time>
      </trkpt>
      <trkpt lat="45.85522" lon="4.66052">
        <ele>215.44124</ele>
        <time>2023-06-19T16:09:56.000Z</time>
      </trkpt>
      <trkpt lat="45.85522" lon="4.66047">
        <ele>215.5654</ele>
        <time>2023-06-19T16:09:57.000Z</time>
      </trkpt>
      <trkpt lat="45.85521" lon="4.66042">
        <ele>215.65884</ele>
        <time>2023-06-19T16:09:58.000Z</time>
      </trkpt>
      <trkpt lat="45.85521" lon="4.66037">
        <ele>215.63858</ele>
        <time>2023-06-19T16:09:59.000Z</time>
      </trkpt>
      <trkpt lat="45.8552" lon="4.66032">
        <ele>215.61772</ele>
        <time>2023-06-19T16:10:00.000Z</time>
      </trkpt>
      <trkpt lat="45.85519" lon="4.66027">
        <ele>215.5939</ele>
        <time>2023-06-19T16:10:01.000Z</time>
      </trkpt>
      <trkpt lat="45.85518" lon="4.66021">
        <ele>215.58154</ele>
        <time>2023-06-19T16:10:02.000Z</time>
      </trkpt>
      <trkpt lat="45.85518" lon="4.66016">
        <ele>215.46054</ele>
        <time>2023-06-19T16:10:03.000Z</time>
      </trkpt>
      <trkpt lat="45.85517" lon="4.6601">
        <ele>215.37256</ele>
        <time>2023-06-19T16:10:04.000Z</time>
      </trkpt>
      <trkpt lat="45.85517" lon="4.66004">
        <ele>215.26929</ele>
        <time>2023-06-19T16:10:05.000Z</time>
      </trkpt>
      <trkpt lat="45.85517" lon="4.65999">
        <ele>215.15556</ele>
        <time>2023-06-19T16:10:06.000Z</time>
      </trkpt>
      <trkpt lat="45.85516" lon="4.65994">
        <ele>215.17395</ele>
        <time>2023-06-19T16:10:07.000Z</time>
      </trkpt>
      <trkpt lat="45.85517" lon="4.65989">
        <ele>215.16585</ele>
        <time>2023-06-19T16:10:08.000Z</time>
      </trkpt>
      <trkpt lat="45.85517" lon="4.65984">
        <ele>215.15369</ele>
        <time>2023-06-19T16:10:09.000Z</time>
      </trkpt>
      <trkpt lat="45.85517" lon="4.65978">
        <ele>215.10071</ele>
        <time>2023-06-19T16:10:10.000Z</time>
      </trkpt>
      <trkpt lat="45.85518" lon="4.65972">
        <ele>215.07529</ele>
        <time>2023-06-19T16:10:11.000Z</time>
      </trkpt>
      <trkpt lat="45.85518" lon="4.65966">
        <ele>215.02925</ele>
        <time>2023-06-19T16:10:12.000Z</time>
      </trkpt>
      <trkpt lat="45.85518" lon="4.6596">
        <ele>214.97307</ele>
        <time>2023-06-19T16:10:13.000Z</time>
      </trkpt>
      <trkpt lat="45.85519" lon="4.65954">
        <ele>214.89742</ele>
        <time>2023-06-19T16:10:14.000Z</time>
      </trkpt>
      <trkpt lat="45.85519" lon="4.65948">
        <ele>214.75327</ele>
        <time>2023-06-19T16:10:15.000Z</time>
      </trkpt>
      <trkpt lat="45.85519" lon="4.65943">
        <ele>214.54985</ele>
        <time>2023-06-19T16:10:16.000Z</time>
      </trkpt>
      <trkpt lat="45.85518" lon="4.65937">
        <ele>214.33011</ele>
        <time>2023-06-19T16:10:17.000Z</time>
      </trkpt>
      <trkpt lat="45.85517" lon="4.65931">
        <ele>214.21411</ele>
        <time>2023-06-19T16:10:18.000Z</time>
      </trkpt>
      <trkpt lat="45.85516" lon="4.65926">
        <ele>214.17195</ele>
        <time>2023-06-19T16:10:19.000Z</time>
      </trkpt>
      <trkpt lat="45.85513" lon="4.65921">
        <ele>214.16231</ele>
        <time>2023-06-19T16:10:20.000Z</time>
      </trkpt>
      <trkpt lat="45.8551" lon="4.65918">
        <ele>214.16562</ele>
        <time>2023-06-19T16:10:21.000Z</time>
      </trkpt>
      <trkpt lat="45.85507" lon="4.65917">
        <ele>214.17593</ele>
        <time>2023-06-19T16:10:22.000Z</time>
      </trkpt>
      <trkpt lat="45.85504" lon="4.65917">
        <ele>214.18816</ele>
        <time>2023-06-19T16:10:23.000Z</time>
      </trkpt>
      <trkpt lat="45.855" lon="4.65918">
        <ele>214.18071</ele>
        <time>2023-06-19T16:10:24.000Z</time>
      </trkpt>
      <trkpt lat="45.85497" lon="4.65918">
        <ele>214.17395</ele>
        <time>2023-06-19T16:10:25.000Z</time>
      </trkpt>
      <trkpt lat="45.85493" lon="4.65918">
        <ele>214.18677</ele>
        <time>2023-06-19T16:10:26.000Z</time>
      </trkpt>
      <trkpt lat="45.85489" lon="4.65918">
        <ele>214.04013</ele>
        <time>2023-06-19T16:10:27.000Z</time>
      </trkpt>
      <trkpt lat="45.85486" lon="4.65918">
        <ele>213.81657</ele>
        <time>2023-06-19T16:10:28.000Z</time>
      </trkpt>
      <trkpt lat="45.85483" lon="4.65918">
        <ele>213.60864</ele>
        <time>2023-06-19T16:10:29.000Z</time>
      </trkpt>
      <trkpt lat="45.8548" lon="4.65919">
        <ele>213.40059</ele>
        <time>2023-06-19T16:10:30.000Z</time>
      </trkpt>
      <trkpt lat="45.85477" lon="4.6592">
        <ele>213.23071</ele>
        <time>2023-06-19T16:10:32.000Z</time>
      </trkpt>
      <trkpt lat="45.85474" lon="4.65921">
        <ele>213.16301</ele>
        <time>2023-06-19T16:10:33.000Z</time>
      </trkpt>
      <trkpt lat="45.85471" lon="4.65921">
        <ele>213.12578</ele>
        <time>2023-06-19T16:10:34.000Z</time>
      </trkpt>
      <trkpt lat="45.85467" lon="4.6592">
        <ele>213.14865</ele>
        <time>2023-06-19T16:10:35.000Z</time>
      </trkpt>
      <trkpt lat="45.85464" lon="4.65918">
        <ele>213.23669</ele>
        <time>2023-06-19T16:10:36.000Z</time>
      </trkpt>
      <trkpt lat="45.85461" lon="4.65917">
        <ele>213.39302</ele>
        <time>2023-06-19T16:10:37.000Z</time>
      </trkpt>
      <trkpt lat="45.85458" lon="4.65916">
        <ele>213.60925</ele>
        <time>2023-06-19T16:10:38.000Z</time>
      </trkpt>
      <trkpt lat="45.85455" lon="4.65914">
        <ele>213.73352</ele>
        <time>2023-06-19T16:10:39.000Z</time>
      </trkpt>
      <trkpt lat="45.85452" lon="4.65913">
        <ele>213.86453</ele>
        <time>2023-06-19T16:10:40.000Z</time>
      </trkpt>
      <trkpt lat="45.8545" lon="4.65913">
        <ele>213.99377</ele>
        <time>2023-06-19T16:10:41.000Z</time>
      </trkpt>
      <trkpt lat="45.85447" lon="4.65912">
        <ele>214.04959</ele>
        <time>2023-06-19T16:10:42.000Z</time>
      </trkpt>
      <trkpt lat="45.85445" lon="4.65912">
        <ele>214.00325</ele>
        <time>2023-06-19T16:10:43.000Z</time>
      </trkpt>
      <trkpt lat="45.85442" lon="4.6591">
        <ele>213.90694</ele>
        <time>2023-06-19T16:10:44.000Z</time>
      </trkpt>
      <trkpt lat="45.85439" lon="4.65908">
        <ele>213.84395</ele>
        <time>2023-06-19T16:10:45.000Z</time>
      </trkpt>
      <trkpt lat="45.85436" lon="4.65906">
        <ele>213.83224</ele>
        <time>2023-06-19T16:10:46.000Z</time>
      </trkpt>
      <trkpt lat="45.85432" lon="4.65905">
        <ele>213.84624</ele>
        <time>2023-06-19T16:10:47.000Z</time>
      </trkpt>
      <trkpt lat="45.85429" lon="4.65903">
        <ele>213.90349</ele>
        <time>2023-06-19T16:10:48.000Z</time>
      </trkpt>
      <trkpt lat="45.85426" lon="4.659">
        <ele>214.15767</ele>
        <time>2023-06-19T16:10:49.000Z</time>
      </trkpt>
      <trkpt lat="45.85422" lon="4.65898">
        <ele>214.39017</ele>
        <time>2023-06-19T16:10:50.000Z</time>
      </trkpt>
      <trkpt lat="45.85419" lon="4.65895">
        <ele>214.66599</ele>
        <time>2023-06-19T16:10:51.000Z</time>
      </trkpt>
      <trkpt lat="45.85415" lon="4.65893">
        <ele>214.9229</ele>
        <time>2023-06-19T16:10:52.000Z</time>
      </trkpt>
      <trkpt lat="45.85412" lon="4.65891">
        <ele>215.07751</ele>
        <time>2023-06-19T16:10:53.000Z</time>
      </trkpt>
      <trkpt lat="45.85409" lon="4.65889">
        <ele>215.16878</ele>
        <time>2023-06-19T16:10:54.000Z</time>
      </trkpt>
      <trkpt lat="45.85406" lon="4.65886">
        <ele>215.21504</ele>
        <time>2023-06-19T16:10:55.000Z</time>
      </trkpt>
      <trkpt lat="45.85403" lon="4.65883">
        <ele>215.24075</ele>
        <time>2023-06-19T16:10:56.000Z</time>
      </trkpt>
      <trkpt lat="45.854" lon="4.6588">
        <ele>215.23923</ele>
        <time>2023-06-19T16:10:57.000Z</time>
      </trkpt>
      <trkpt lat="45.85397" lon="4.65877">
        <ele>215.36299</ele>
        <time>2023-06-19T16:10:58.000Z</time>
      </trkpt>
      <trkpt lat="45.85394" lon="4.65875">
        <ele>215.44914</ele>
        <time>2023-06-19T16:10:59.000Z</time>
      </trkpt>
      <trkpt lat="45.85391" lon="4.65872">
        <ele>215.52368</ele>
        <time>2023-06-19T16:11:00.000Z</time>
      </trkpt>
      <trkpt lat="45.85388" lon="4.6587">
        <ele>215.61482</ele>
        <time>2023-06-19T16:11:01.000Z</time>
      </trkpt>
      <trkpt lat="45.85385" lon="4.65869">
        <ele>215.77327</ele>
        <time>2023-06-19T16:11:02.000Z</time>
      </trkpt>
      <trkpt lat="45.85382" lon="4.65867">
        <ele>216.02005</ele>
        <time>2023-06-19T16:11:03.000Z</time>
      </trkpt>
      <trkpt lat="45.85379" lon="4.65864">
        <ele>216.27583</ele>
        <time>2023-06-19T16:11:04.000Z</time>
      </trkpt>
      <trkpt lat="45.85376" lon="4.65861">
        <ele>216.45468</ele>
        <time>2023-06-19T16:11:05.000Z</time>
      </trkpt>
      <trkpt lat="45.85373" lon="4.65859">
        <ele>216.54765</ele>
        <time>2023-06-19T16:11:06.000Z</time>
      </trkpt>
      <trkpt lat="45.8537" lon="4.65857">
        <ele>216.5732</ele>
        <time>2023-06-19T16:11:07.000Z</time>
      </trkpt>
      <trkpt lat="45.85367" lon="4.65855">
        <ele>216.52966</ele>
        <time>2023-06-19T16:11:08.000Z</time>
      </trkpt>
      <trkpt lat="45.85365" lon="4.65853">
        <ele>216.3468</ele>
        <time>2023-06-19T16:11:09.000Z</time>
      </trkpt>
      <trkpt lat="45.85361" lon="4.6585">
        <ele>216.12871</ele>
        <time>2023-06-19T16:11:10.000Z</time>
      </trkpt>
      <trkpt lat="45.85358" lon="4.65847">
        <ele>215.85693</ele>
        <time>2023-06-19T16:11:11.000Z</time>
      </trkpt>
      <trkpt lat="45.85355" lon="4.65844">
        <ele>215.56595</ele>
        <time>2023-06-19T16:11:12.000Z</time>
      </trkpt>
      <trkpt lat="45.85351" lon="4.65842">
        <ele>215.43982</ele>
        <time>2023-06-19T16:11:13.000Z</time>
      </trkpt>
      <trkpt lat="45.85348" lon="4.65841">
        <ele>215.37241</ele>
        <time>2023-06-19T16:11:14.000Z</time>
      </trkpt>
      <trkpt lat="45.85345" lon="4.6584">
        <ele>215.45564</ele>
        <time>2023-06-19T16:11:15.000Z</time>
      </trkpt>
      <trkpt lat="45.85342" lon="4.6584">
        <ele>215.63188</ele>
        <time>2023-06-19T16:11:16.000Z</time>
      </trkpt>
      <trkpt lat="45.8534" lon="4.65839">
        <ele>215.80801</ele>
        <time>2023-06-19T16:11:17.000Z</time>
      </trkpt>
      <trkpt lat="45.85337" lon="4.65839">
        <ele>215.88663</ele>
        <time>2023-06-19T16:11:18.000Z</time>
      </trkpt>
      <trkpt lat="45.85334" lon="4.65838">
        <ele>216.00174</ele>
        <time>2023-06-19T16:11:19.000Z</time>
      </trkpt>
      <trkpt lat="45.85332" lon="4.65838">
        <ele>216.17838</ele>
        <time>2023-06-19T16:11:20.000Z</time>
      </trkpt>
      <trkpt lat="45.8533" lon="4.65837">
        <ele>216.34029</ele>
        <time>2023-06-19T16:11:21.000Z</time>
      </trkpt>
      <trkpt lat="45.85328" lon="4.65836">
        <ele>216.52451</ele>
        <time>2023-06-19T16:11:22.000Z</time>
      </trkpt>
      <trkpt lat="45.85326" lon="4.65835">
        <ele>216.71834</ele>
        <time>2023-06-19T16:11:23.000Z</time>
      </trkpt>
      <trkpt lat="45.85325" lon="4.65834">
        <ele>216.96797</ele>
        <time>2023-06-19T16:11:24.000Z</time>
      </trkpt>
      <trkpt lat="45.85323" lon="4.65832">
        <ele>217.27249</ele>
        <time>2023-06-19T16:11:25.000Z</time>
      </trkpt>
      <trkpt lat="45.85322" lon="4.65829">
        <ele>217.61275</ele>
        <time>2023-06-19T16:11:26.000Z</time>
      </trkpt>
      <trkpt lat="45.85321" lon="4.65826">
        <ele>217.98547</ele>
        <time>2023-06-19T16:11:27.000Z</time>
      </trkpt>
      <trkpt lat="45.85319" lon="4.65822">
        <ele>218.57439</ele>
        <time>2023-06-19T16:11:29.000Z</time>
      </trkpt>
      <trkpt lat="45.8532" lon="4.6582">
        <ele>219.09329</ele>
        <time>2023-06-19T16:12:25.000Z</time>
      </trkpt>
      <trkpt lat="45.85318" lon="4.65819">
        <ele>219.66264</ele>
        <time>2023-06-19T16:12:30.000Z</time>
      </trkpt>
      <trkpt lat="45.85315" lon="4.65821">
        <ele>220.25211</ele>
        <time>2023-06-19T16:12:32.000Z</time>
      </trkpt>
      <trkpt lat="45.85314" lon="4.65825">
        <ele>220.8676</ele>
        <time>2023-06-19T16:12:34.000Z</time>
      </trkpt>
      <trkpt lat="45.85315" lon="4.65828">
        <ele>221.35274</ele>
        <time>2023-06-19T16:12:35.000Z</time>
      </trkpt>
      <trkpt lat="45.85314" lon="4.65833">
        <ele>221.814</ele>
        <time>2023-06-19T16:12:37.000Z</time>
      </trkpt>
      <trkpt lat="45.85313" lon="4.65838">
        <ele>222.19092</ele>
        <time>2023-06-19T16:12:39.000Z</time>
      </trkpt>
      <trkpt lat="45.85312" lon="4.6584">
        <ele>222.49222</ele>
        <time>2023-06-19T16:12:40.000Z</time>
      </trkpt>
      <trkpt lat="45.8531" lon="4.65841">
        <ele>222.81125</ele>
        <time>2023-06-19T16:12:41.000Z</time>
      </trkpt>
      <trkpt lat="45.85309" lon="4.65844">
        <ele>223.04903</ele>
        <time>2023-06-19T16:12:42.000Z</time>
      </trkpt>
      <trkpt lat="45.85309" lon="4.65847">
        <ele>223.31075</ele>
        <time>2023-06-19T16:12:43.000Z</time>
      </trkpt>
      <trkpt lat="45.85309" lon="4.6585">
        <ele>223.52429</ele>
        <time>2023-06-19T16:12:44.000Z</time>
      </trkpt>
      <trkpt lat="45.85308" lon="4.65854">
        <ele>223.74333</ele>
        <time>2023-06-19T16:12:45.000Z</time>
      </trkpt>
      <trkpt lat="45.85308" lon="4.65857">
        <ele>223.93904</ele>
        <time>2023-06-19T16:12:46.000Z</time>
      </trkpt>
      <trkpt lat="45.85308" lon="4.6586">
        <ele>224.14011</ele>
        <time>2023-06-19T16:12:47.000Z</time>
      </trkpt>
      <trkpt lat="45.85308" lon="4.65863">
        <ele>224.34412</ele>
        <time>2023-06-19T16:12:48.000Z</time>
      </trkpt>
      <trkpt lat="45.85307" lon="4.65866">
        <ele>224.54459</ele>
        <time>2023-06-19T16:12:49.000Z</time>
      </trkpt>
      <trkpt lat="45.85307" lon="4.6587">
        <ele>224.7695</ele>
        <time>2023-06-19T16:12:50.000Z</time>
      </trkpt>
      <trkpt lat="45.85307" lon="4.65874">
        <ele>225.03409</ele>
        <time>2023-06-19T16:12:51.000Z</time>
      </trkpt>
      <trkpt lat="45.85307" lon="4.65877">
        <ele>225.11511</ele>
        <time>2023-06-19T16:12:52.000Z</time>
      </trkpt>
      <trkpt lat="45.85307" lon="4.65881">
        <ele>225.31949</ele>
        <time>2023-06-19T16:12:53.000Z</time>
      </trkpt>
      <trkpt lat="45.85307" lon="4.65885">
        <ele>225.51118</ele>
        <time>2023-06-19T16:12:54.000Z</time>
      </trkpt>
      <trkpt lat="45.85307" lon="4.65888">
        <ele>225.75137</ele>
        <time>2023-06-19T16:12:55.000Z</time>
      </trkpt>
      <trkpt lat="45.85307" lon="4.65892">
        <ele>225.96672</ele>
        <time>2023-06-19T16:12:56.000Z</time>
      </trkpt>
      <trkpt lat="45.85307" lon="4.65895">
        <ele>226.17477</ele>
        <time>2023-06-19T16:12:57.000Z</time>
      </trkpt>
      <trkpt lat="45.85307" lon="4.65898">
        <ele>226.40422</ele>
        <time>2023-06-19T16:12:58.000Z</time>
      </trkpt>
      <trkpt lat="45.85307" lon="4.65902">
        <ele>226.59354</ele>
        <time>2023-06-19T16:12:59.000Z</time>
      </trkpt>
      <trkpt lat="45.85307" lon="4.65905">
        <ele>226.77287</ele>
        <time>2023-06-19T16:13:00.000Z</time>
      </trkpt>
      <trkpt lat="45.85307" lon="4.65909">
        <ele>226.94096</ele>
        <time>2023-06-19T16:13:01.000Z</time>
      </trkpt>
      <trkpt lat="45.85308" lon="4.65912">
        <ele>227.10893</ele>
        <time>2023-06-19T16:13:02.000Z</time>
      </trkpt>
      <trkpt lat="45.85308" lon="4.65916">
        <ele>227.28069</ele>
        <time>2023-06-19T16:13:03.000Z</time>
      </trkpt>
      <trkpt lat="45.85309" lon="4.65919">
        <ele>227.46269</ele>
        <time>2023-06-19T16:13:04.000Z</time>
      </trkpt>
      <trkpt lat="45.8531" lon="4.65923">
        <ele>227.64328</ele>
        <time>2023-06-19T16:13:05.000Z</time>
      </trkpt>
      <trkpt lat="45.8531" lon="4.65927">
        <ele>227.70493</ele>
        <time>2023-06-19T16:13:06.000Z</time>
      </trkpt>
      <trkpt lat="45.85311" lon="4.65931">
        <ele>227.76065</ele>
        <time>2023-06-19T16:13:07.000Z</time>
      </trkpt>
      <trkpt lat="45.8531" lon="4.65934">
        <ele>227.80672</ele>
        <time>2023-06-19T16:13:08.000Z</time>
      </trkpt>
      <trkpt lat="45.85308" lon="4.65937">
        <ele>227.85013</ele>
        <time>2023-06-19T16:13:09.000Z</time>
      </trkpt>
      <trkpt lat="45.85306" lon="4.65939">
        <ele>227.88525</ele>
        <time>2023-06-19T16:13:10.000Z</time>
      </trkpt>
      <trkpt lat="45.85303" lon="4.6594">
        <ele>227.82695</ele>
        <time>2023-06-19T16:13:11.000Z</time>
      </trkpt>
      <trkpt lat="45.853" lon="4.65941">
        <ele>227.77844</ele>
        <time>2023-06-19T16:13:12.000Z</time>
      </trkpt>
      <trkpt lat="45.85298" lon="4.65942">
        <ele>227.63098</ele>
        <time>2023-06-19T16:13:13.000Z</time>
      </trkpt>
      <trkpt lat="45.85295" lon="4.65942">
        <ele>227.76985</ele>
        <time>2023-06-19T16:13:14.000Z</time>
      </trkpt>
      <trkpt lat="45.85292" lon="4.65943">
        <ele>227.83794</ele>
        <time>2023-06-19T16:13:15.000Z</time>
      </trkpt>
      <trkpt lat="45.85289" lon="4.65944">
        <ele>227.91382</ele>
        <time>2023-06-19T16:13:16.000Z</time>
      </trkpt>
      <trkpt lat="45.85287" lon="4.65944">
        <ele>227.9989</ele>
        <time>2023-06-19T16:13:17.000Z</time>
      </trkpt>
      <trkpt lat="45.85284" lon="4.65944">
        <ele>228.07816</ele>
        <time>2023-06-19T16:13:18.000Z</time>
      </trkpt>
      <trkpt lat="45.85282" lon="4.65945">
        <ele>228.16972</ele>
        <time>2023-06-19T16:13:19.000Z</time>
      </trkpt>
      <trkpt lat="45.85279" lon="4.65946">
        <ele>228.24606</ele>
        <time>2023-06-19T16:13:20.000Z</time>
      </trkpt>
      <trkpt lat="45.85277" lon="4.65948">
        <ele>228.32846</ele>
        <time>2023-06-19T16:13:21.000Z</time>
      </trkpt>
      <trkpt lat="45.85275" lon="4.65949">
        <ele>228.43147</ele>
        <time>2023-06-19T16:13:22.000Z</time>
      </trkpt>
      <trkpt lat="45.85272" lon="4.6595">
        <ele>228.50146</ele>
        <time>2023-06-19T16:13:23.000Z</time>
      </trkpt>
      <trkpt lat="45.8527" lon="4.65952">
        <ele>228.56233</ele>
        <time>2023-06-19T16:13:24.000Z</time>
      </trkpt>
      <trkpt lat="45.85268" lon="4.65954">
        <ele>228.64294</ele>
        <time>2023-06-19T16:13:25.000Z</time>
      </trkpt>
      <trkpt lat="45.85265" lon="4.65956">
        <ele>228.85811</ele>
        <time>2023-06-19T16:13:26.000Z</time>
      </trkpt>
      <trkpt lat="45.85263" lon="4.65959">
        <ele>228.93033</ele>
        <time>2023-06-19T16:13:27.000Z</time>
      </trkpt>
      <trkpt lat="45.85261" lon="4.65961">
        <ele>228.92888</ele>
        <time>2023-06-19T16:13:28.000Z</time>
      </trkpt>
      <trkpt lat="45.85259" lon="4.65963">
        <ele>228.90923</ele>
        <time>2023-06-19T16:13:29.000Z</time>
      </trkpt>
      <trkpt lat="45.85256" lon="4.65966">
        <ele>229.17607</ele>
        <time>2023-06-19T16:13:30.000Z</time>
      </trkpt>
      <trkpt lat="45.85254" lon="4.65968">
        <ele>229.44553</ele>
        <time>2023-06-19T16:13:31.000Z</time>
      </trkpt>
      <trkpt lat="45.85252" lon="4.6597">
        <ele>229.73032</ele>
        <time>2023-06-19T16:13:32.000Z</time>
      </trkpt>
      <trkpt lat="45.85249" lon="4.65973">
        <ele>230.11328</ele>
        <time>2023-06-19T16:13:33.000Z</time>
      </trkpt>
      <trkpt lat="45.85247" lon="4.65975">
        <ele>230.21626</ele>
        <time>2023-06-19T16:13:34.000Z</time>
      </trkpt>
      <trkpt lat="45.85245" lon="4.65977">
        <ele>230.33691</ele>
        <time>2023-06-19T16:13:35.000Z</time>
      </trkpt>
      <trkpt lat="45.85242" lon="4.65978">
        <ele>230.47493</ele>
        <time>2023-06-19T16:13:36.000Z</time>
      </trkpt>
      <trkpt lat="45.85239" lon="4.65979">
        <ele>230.57959</ele>
        <time>2023-06-19T16:13:37.000Z</time>
      </trkpt>
      <trkpt lat="45.85237" lon="4.6598">
        <ele>230.69348</ele>
        <time>2023-06-19T16:13:38.000Z</time>
      </trkpt>
      <trkpt lat="45.85234" lon="4.65981">
        <ele>230.77454</ele>
        <time>2023-06-19T16:13:39.000Z</time>
      </trkpt>
      <trkpt lat="45.85231" lon="4.65983">
        <ele>230.74716</ele>
        <time>2023-06-19T16:13:40.000Z</time>
      </trkpt>
      <trkpt lat="45.85229" lon="4.65984">
        <ele>230.68143</ele>
        <time>2023-06-19T16:13:41.000Z</time>
      </trkpt>
      <trkpt lat="45.85227" lon="4.65986">
        <ele>230.52158</ele>
        <time>2023-06-19T16:13:42.000Z</time>
      </trkpt>
      <trkpt lat="45.85225" lon="4.65988">
        <ele>230.39204</ele>
        <time>2023-06-19T16:13:43.000Z</time>
      </trkpt>
      <trkpt lat="45.85222" lon="4.65989">
        <ele>230.26807</ele>
        <time>2023-06-19T16:13:44.000Z</time>
      </trkpt>
      <trkpt lat="45.85219" lon="4.6599">
        <ele>230.15295</ele>
        <time>2023-06-19T16:13:45.000Z</time>
      </trkpt>
      <trkpt lat="45.85216" lon="4.65991">
        <ele>230.39583</ele>
        <time>2023-06-19T16:13:46.000Z</time>
      </trkpt>
      <trkpt lat="45.85213" lon="4.65991">
        <ele>230.7572</ele>
        <time>2023-06-19T16:13:47.000Z</time>
      </trkpt>
      <trkpt lat="45.8521" lon="4.65992">
        <ele>231.194</ele>
        <time>2023-06-19T16:13:48.000Z</time>
      </trkpt>
      <trkpt lat="45.85207" lon="4.65992">
        <ele>231.63992</ele>
        <time>2023-06-19T16:13:49.000Z</time>
      </trkpt>
      <trkpt lat="45.85205" lon="4.65993">
        <ele>231.77353</ele>
        <time>2023-06-19T16:13:50.000Z</time>
      </trkpt>
      <trkpt lat="45.85202" lon="4.65995">
        <ele>231.98434</ele>
        <time>2023-06-19T16:13:51.000Z</time>
      </trkpt>
      <trkpt lat="45.85199" lon="4.65996">
        <ele>232.16391</ele>
        <time>2023-06-19T16:13:52.000Z</time>
      </trkpt>
      <trkpt lat="45.85197" lon="4.65997">
        <ele>232.37143</ele>
        <time>2023-06-19T16:13:53.000Z</time>
      </trkpt>
      <trkpt lat="45.85194" lon="4.65999">
        <ele>232.52408</ele>
        <time>2023-06-19T16:13:54.000Z</time>
      </trkpt>
      <trkpt lat="45.85191" lon="4.66">
        <ele>232.54895</ele>
        <time>2023-06-19T16:13:55.000Z</time>
      </trkpt>
      <trkpt lat="45.85188" lon="4.66001">
        <ele>232.48788</ele>
        <time>2023-06-19T16:13:56.000Z</time>
      </trkpt>
      <trkpt lat="45.85186" lon="4.66003">
        <ele>232.42961</ele>
        <time>2023-06-19T16:13:57.000Z</time>
      </trkpt>
      <trkpt lat="45.85183" lon="4.66004">
        <ele>232.73918</ele>
        <time>2023-06-19T16:13:58.000Z</time>
      </trkpt>
      <trkpt lat="45.8518" lon="4.66005">
        <ele>232.99014</ele>
        <time>2023-06-19T16:13:59.000Z</time>
      </trkpt>
      <trkpt lat="45.85177" lon="4.66006">
        <ele>233.41008</ele>
        <time>2023-06-19T16:14:00.000Z</time>
      </trkpt>
      <trkpt lat="45.85175" lon="4.66007">
        <ele>233.8761</ele>
        <time>2023-06-19T16:14:01.000Z</time>
      </trkpt>
      <trkpt lat="45.85172" lon="4.66007">
        <ele>234.42752</ele>
        <time>2023-06-19T16:14:02.000Z</time>
      </trkpt>
      <trkpt lat="45.8517" lon="4.66008">
        <ele>234.95935</ele>
        <time>2023-06-19T16:14:03.000Z</time>
      </trkpt>
      <trkpt lat="45.85167" lon="4.66009">
        <ele>235.4823</ele>
        <time>2023-06-19T16:14:04.000Z</time>
      </trkpt>
      <trkpt lat="45.85164" lon="4.6601">
        <ele>235.99287</ele>
        <time>2023-06-19T16:14:05.000Z</time>
      </trkpt>
      <trkpt lat="45.85162" lon="4.6601">
        <ele>236.15176</ele>
        <time>2023-06-19T16:14:06.000Z</time>
      </trkpt>
      <trkpt lat="45.85159" lon="4.66011">
        <ele>236.36426</ele>
        <time>2023-06-19T16:14:07.000Z</time>
      </trkpt>
      <trkpt lat="45.85157" lon="4.66012">
        <ele>236.58218</ele>
        <time>2023-06-19T16:14:08.000Z</time>
      </trkpt>
      <trkpt lat="45.85154" lon="4.66012">
        <ele>236.80936</ele>
        <time>2023-06-19T16:14:09.000Z</time>
      </trkpt>
      <trkpt lat="45.85151" lon="4.66013">
        <ele>237.05298</ele>
        <time>2023-06-19T16:14:10.000Z</time>
      </trkpt>
      <trkpt lat="45.85149" lon="4.66013">
        <ele>237.2845</ele>
        <time>2023-06-19T16:14:11.000Z</time>
      </trkpt>
      <trkpt lat="45.85146" lon="4.66014">
        <ele>237.53349</ele>
        <time>2023-06-19T16:14:12.000Z</time>
      </trkpt>
      <trkpt lat="45.85143" lon="4.66014">
        <ele>237.72888</ele>
        <time>2023-06-19T16:14:13.000Z</time>
      </trkpt>
      <trkpt lat="45.85141" lon="4.66015">
        <ele>238.03342</ele>
        <time>2023-06-19T16:14:14.000Z</time>
      </trkpt>
      <trkpt lat="45.85138" lon="4.66015">
        <ele>238.4985</ele>
        <time>2023-06-19T16:14:15.000Z</time>
      </trkpt>
      <trkpt lat="45.85135" lon="4.66015">
        <ele>239.03055</ele>
        <time>2023-06-19T16:14:16.000Z</time>
      </trkpt>
      <trkpt lat="45.85132" lon="4.66016">
        <ele>239.6116</ele>
        <time>2023-06-19T16:14:17.000Z</time>
      </trkpt>
      <trkpt lat="45.85129" lon="4.66017">
        <ele>239.85603</ele>
        <time>2023-06-19T16:14:18.000Z</time>
      </trkpt>
      <trkpt lat="45.85126" lon="4.66017">
        <ele>240.13692</ele>
        <time>2023-06-19T16:14:19.000Z</time>
      </trkpt>
      <trkpt lat="45.85123" lon="4.66018">
        <ele>240.34392</ele>
        <time>2023-06-19T16:14:20.000Z</time>
      </trkpt>
      <trkpt lat="45.8512" lon="4.66018">
        <ele>240.26335</ele>
        <time>2023-06-19T16:14:21.000Z</time>
      </trkpt>
      <trkpt lat="45.85118" lon="4.66019">
        <ele>240.09993</ele>
        <time>2023-06-19T16:14:22.000Z</time>
      </trkpt>
      <trkpt lat="45.85115" lon="4.6602">
        <ele>239.89883</ele>
        <time>2023-06-19T16:14:23.000Z</time>
      </trkpt>
      <trkpt lat="45.85112" lon="4.6602">
        <ele>239.71729</ele>
        <time>2023-06-19T16:14:24.000Z</time>
      </trkpt>
      <trkpt lat="45.85109" lon="4.66021">
        <ele>239.97928</ele>
        <time>2023-06-19T16:14:25.000Z</time>
      </trkpt>
      <trkpt lat="45.85106" lon="4.66022">
        <ele>240.16806</ele>
        <time>2023-06-19T16:14:26.000Z</time>
      </trkpt>
      <trkpt lat="45.85104" lon="4.66023">
        <ele>240.32986</ele>
        <time>2023-06-19T16:14:27.000Z</time>
      </trkpt>
      <trkpt lat="45.85101" lon="4.66024">
        <ele>240.48032</ele>
        <time>2023-06-19T16:14:28.000Z</time>
      </trkpt>
      <trkpt lat="45.85098" lon="4.66024">
        <ele>240.56612</ele>
        <time>2023-06-19T16:14:29.000Z</time>
      </trkpt>
      <trkpt lat="45.85095" lon="4.66025">
        <ele>240.64841</ele>
        <time>2023-06-19T16:14:30.000Z</time>
      </trkpt>
      <trkpt lat="45.85092" lon="4.66026">
        <ele>240.73698</ele>
        <time>2023-06-19T16:14:31.000Z</time>
      </trkpt>
      <trkpt lat="45.8509" lon="4.66026">
        <ele>240.81906</ele>
        <time>2023-06-19T16:14:32.000Z</time>
      </trkpt>
      <trkpt lat="45.85087" lon="4.66027">
        <ele>240.91914</ele>
        <time>2023-06-19T16:14:33.000Z</time>
      </trkpt>
      <trkpt lat="45.85084" lon="4.66027">
        <ele>240.98433</ele>
        <time>2023-06-19T16:14:34.000Z</time>
      </trkpt>
      <trkpt lat="45.85081" lon="4.66028">
        <ele>240.76611</ele>
        <time>2023-06-19T16:14:35.000Z</time>
      </trkpt>
      <trkpt lat="45.85077" lon="4.66029">
        <ele>240.56345</ele>
        <time>2023-06-19T16:14:36.000Z</time>
      </trkpt>
      <trkpt lat="45.85074" lon="4.66029">
        <ele>240.35368</ele>
        <time>2023-06-19T16:14:37.000Z</time>
      </trkpt>
      <trkpt lat="45.85071" lon="4.6603">
        <ele>240.09709</ele>
        <time>2023-06-19T16:14:38.000Z</time>
      </trkpt>
      <trkpt lat="45.85068" lon="4.6603">
        <ele>239.72574</ele>
        <time>2023-06-19T16:14:39.000Z</time>
      </trkpt>
      <trkpt lat="45.85064" lon="4.6603">
        <ele>239.37593</ele>
        <time>2023-06-19T16:14:40.000Z</time>
      </trkpt>
      <trkpt lat="45.85061" lon="4.6603">
        <ele>239.76604</ele>
        <time>2023-06-19T16:14:41.000Z</time>
      </trkpt>
      <trkpt lat="45.85058" lon="4.66031">
        <ele>240.21524</ele>
        <time>2023-06-19T16:14:42.000Z</time>
      </trkpt>
      <trkpt lat="45.85054" lon="4.66031">
        <ele>240.71175</ele>
        <time>2023-06-19T16:14:43.000Z</time>
      </trkpt>
      <trkpt lat="45.85051" lon="4.66031">
        <ele>241.2347</ele>
        <time>2023-06-19T16:14:44.000Z</time>
      </trkpt>
      <trkpt lat="45.85047" lon="4.66031">
        <ele>241.28352</ele>
        <time>2023-06-19T16:14:45.000Z</time>
      </trkpt>
      <trkpt lat="45.85044" lon="4.66031">
        <ele>241.45483</ele>
        <time>2023-06-19T16:14:46.000Z</time>
      </trkpt>
      <trkpt lat="45.8504" lon="4.66031">
        <ele>241.61136</ele>
        <time>2023-06-19T16:14:47.000Z</time>
      </trkpt>
      <trkpt lat="45.85037" lon="4.6603">
        <ele>241.78503</ele>
        <time>2023-06-19T16:14:48.000Z</time>
      </trkpt>
      <trkpt lat="45.85033" lon="4.6603">
        <ele>242.00903</ele>
        <time>2023-06-19T16:14:49.000Z</time>
      </trkpt>
      <trkpt lat="45.8503" lon="4.66029">
        <ele>242.26509</ele>
        <time>2023-06-19T16:14:50.000Z</time>
      </trkpt>
      <trkpt lat="45.85027" lon="4.66029">
        <ele>242.17952</ele>
        <time>2023-06-19T16:14:51.000Z</time>
      </trkpt>
      <trkpt lat="45.85023" lon="4.66029">
        <ele>242.07683</ele>
        <time>2023-06-19T16:14:52.000Z</time>
      </trkpt>
      <trkpt lat="45.8502" lon="4.66029">
        <ele>241.88152</ele>
        <time>2023-06-19T16:14:53.000Z</time>
      </trkpt>
      <trkpt lat="45.85016" lon="4.66028">
        <ele>242.1541</ele>
        <time>2023-06-19T16:14:54.000Z</time>
      </trkpt>
      <trkpt lat="45.85013" lon="4.66028">
        <ele>242.66841</ele>
        <time>2023-06-19T16:14:55.000Z</time>
      </trkpt>
      <trkpt lat="45.85009" lon="4.66028">
        <ele>243.15442</ele>
        <time>2023-06-19T16:14:56.000Z</time>
      </trkpt>
      <trkpt lat="45.85006" lon="4.66028">
        <ele>243.63208</ele>
        <time>2023-06-19T16:14:57.000Z</time>
      </trkpt>
      <trkpt lat="45.85002" lon="4.66028">
        <ele>244.12927</ele>
        <time>2023-06-19T16:14:58.000Z</time>
      </trkpt>
      <trkpt lat="45.84999" lon="4.66028">
        <ele>244.77478</ele>
        <time>2023-06-19T16:14:59.000Z</time>
      </trkpt>
      <trkpt lat="45.84995" lon="4.66027">
        <ele>245.22549</ele>
        <time>2023-06-19T16:15:00.000Z</time>
      </trkpt>
      <trkpt lat="45.84991" lon="4.66026">
        <ele>245.11557</ele>
        <time>2023-06-19T16:15:01.000Z</time>
      </trkpt>
      <trkpt lat="45.84988" lon="4.66026">
        <ele>245.04575</ele>
        <time>2023-06-19T16:15:02.000Z</time>
      </trkpt>
      <trkpt lat="45.84984" lon="4.66026">
        <ele>244.84238</ele>
        <time>2023-06-19T16:15:03.000Z</time>
      </trkpt>
      <trkpt lat="45.84981" lon="4.66026">
        <ele>245.1149</ele>
        <time>2023-06-19T16:15:04.000Z</time>
      </trkpt>
      <trkpt lat="45.84977" lon="4.66026">
        <ele>245.36539</ele>
        <time>2023-06-19T16:15:05.000Z</time>
      </trkpt>
      <trkpt lat="45.84974" lon="4.66026">
        <ele>245.5264</ele>
        <time>2023-06-19T16:15:06.000Z</time>
      </trkpt>
      <trkpt lat="45.8497" lon="4.66025">
        <ele>245.69089</ele>
        <time>2023-06-19T16:15:07.000Z</time>
      </trkpt>
      <trkpt lat="45.84967" lon="4.66024">
        <ele>245.80899</ele>
        <time>2023-06-19T16:15:08.000Z</time>
      </trkpt>
      <trkpt lat="45.84963" lon="4.66023">
        <ele>245.99104</ele>
        <time>2023-06-19T16:15:09.000Z</time>
      </trkpt>
      <trkpt lat="45.84959" lon="4.66023">
        <ele>246.15376</ele>
        <time>2023-06-19T16:15:10.000Z</time>
      </trkpt>
      <trkpt lat="45.84955" lon="4.66023">
        <ele>246.61398</ele>
        <time>2023-06-19T16:15:11.000Z</time>
      </trkpt>
      <trkpt lat="45.84952" lon="4.66023">
        <ele>247.08884</ele>
        <time>2023-06-19T16:15:12.000Z</time>
      </trkpt>
      <trkpt lat="45.84948" lon="4.66023">
        <ele>247.65372</ele>
        <time>2023-06-19T16:15:13.000Z</time>
      </trkpt>
      <trkpt lat="45.84944" lon="4.66023">
        <ele>247.72253</ele>
        <time>2023-06-19T16:15:14.000Z</time>
      </trkpt>
      <trkpt lat="45.8494" lon="4.66023">
        <ele>247.80722</ele>
        <time>2023-06-19T16:15:15.000Z</time>
      </trkpt>
      <trkpt lat="45.84937" lon="4.66023">
        <ele>247.90158</ele>
        <time>2023-06-19T16:15:16.000Z</time>
      </trkpt>
      <trkpt lat="45.84933" lon="4.66022">
        <ele>247.99292</ele>
        <time>2023-06-19T16:15:17.000Z</time>
      </trkpt>
      <trkpt lat="45.84929" lon="4.66022">
        <ele>248.10977</ele>
        <time>2023-06-19T16:15:18.000Z</time>
      </trkpt>
      <trkpt lat="45.84925" lon="4.66021">
        <ele>248.26611</ele>
        <time>2023-06-19T16:15:19.000Z</time>
      </trkpt>
      <trkpt lat="45.84922" lon="4.66021">
        <ele>248.6326</ele>
        <time>2023-06-19T16:15:20.000Z</time>
      </trkpt>
      <trkpt lat="45.84918" lon="4.66021">
        <ele>249.11743</ele>
        <time>2023-06-19T16:15:21.000Z</time>
      </trkpt>
      <trkpt lat="45.84914" lon="4.6602">
        <ele>249.55289</ele>
        <time>2023-06-19T16:15:22.000Z</time>
      </trkpt>
      <trkpt lat="45.84911" lon="4.6602">
        <ele>250.10007</ele>
        <time>2023-06-19T16:15:23.000Z</time>
      </trkpt>
      <trkpt lat="45.84907" lon="4.6602">
        <ele>250.16048</ele>
        <time>2023-06-19T16:15:24.000Z</time>
      </trkpt>
      <trkpt lat="45.84903" lon="4.66019">
        <ele>250.27054</ele>
        <time>2023-06-19T16:15:25.000Z</time>
      </trkpt>
      <trkpt lat="45.84899" lon="4.66018">
        <ele>250.42343</ele>
        <time>2023-06-19T16:15:26.000Z</time>
      </trkpt>
      <trkpt lat="45.84896" lon="4.66017">
        <ele>250.57797</ele>
        <time>2023-06-19T16:15:27.000Z</time>
      </trkpt>
      <trkpt lat="45.84892" lon="4.66017">
        <ele>250.80142</ele>
        <time>2023-06-19T16:15:28.000Z</time>
      </trkpt>
      <trkpt lat="45.84888" lon="4.66016">
        <ele>250.94601</ele>
        <time>2023-06-19T16:15:29.000Z</time>
      </trkpt>
      <trkpt lat="45.84884" lon="4.66016">
        <ele>251.06282</ele>
        <time>2023-06-19T16:15:30.000Z</time>
      </trkpt>
      <trkpt lat="45.8488" lon="4.66016">
        <ele>251.24097</ele>
        <time>2023-06-19T16:15:31.000Z</time>
      </trkpt>
      <trkpt lat="45.84876" lon="4.66016">
        <ele>251.4063</ele>
        <time>2023-06-19T16:15:32.000Z</time>
      </trkpt>
      <trkpt lat="45.84873" lon="4.66017">
        <ele>251.52567</ele>
        <time>2023-06-19T16:15:33.000Z</time>
      </trkpt>
      <trkpt lat="45.84869" lon="4.66018">
        <ele>251.68198</ele>
        <time>2023-06-19T16:15:34.000Z</time>
      </trkpt>
      <trkpt lat="45.84865" lon="4.66019">
        <ele>251.61372</ele>
        <time>2023-06-19T16:15:35.000Z</time>
      </trkpt>
      <trkpt lat="45.84862" lon="4.66021">
        <ele>251.42581</ele>
        <time>2023-06-19T16:15:36.000Z</time>
      </trkpt>
      <trkpt lat="45.84858" lon="4.66023">
        <ele>251.17827</ele>
        <time>2023-06-19T16:15:37.000Z</time>
      </trkpt>
      <trkpt lat="45.84854" lon="4.66025">
        <ele>251.42996</ele>
        <time>2023-06-19T16:15:38.000Z</time>
      </trkpt>
      <trkpt lat="45.84851" lon="4.66026">
        <ele>251.5186</ele>
        <time>2023-06-19T16:15:39.000Z</time>
      </trkpt>
      <trkpt lat="45.84847" lon="4.66028">
        <ele>251.62752</ele>
        <time>2023-06-19T16:15:40.000Z</time>
      </trkpt>
      <trkpt lat="45.84844" lon="4.6603">
        <ele>251.68814</ele>
        <time>2023-06-19T16:15:41.000Z</time>
      </trkpt>
      <trkpt lat="45.8484" lon="4.66032">
        <ele>251.7926</ele>
        <time>2023-06-19T16:15:42.000Z</time>
      </trkpt>
      <trkpt lat="45.84837" lon="4.66033">
        <ele>251.88809</ele>
        <time>2023-06-19T16:15:43.000Z</time>
      </trkpt>
      <trkpt lat="45.84833" lon="4.66035">
        <ele>251.61685</ele>
        <time>2023-06-19T16:15:44.000Z</time>
      </trkpt>
      <trkpt lat="45.8483" lon="4.66037">
        <ele>251.34407</ele>
        <time>2023-06-19T16:15:45.000Z</time>
      </trkpt>
      <trkpt lat="45.84826" lon="4.66038">
        <ele>251.04831</ele>
        <time>2023-06-19T16:15:46.000Z</time>
      </trkpt>
      <trkpt lat="45.84822" lon="4.6604">
        <ele>250.70744</ele>
        <time>2023-06-19T16:15:47.000Z</time>
      </trkpt>
      <trkpt lat="45.84818" lon="4.66041">
        <ele>250.828</ele>
        <time>2023-06-19T16:15:48.000Z</time>
      </trkpt>
      <trkpt lat="45.84814" lon="4.66043">
        <ele>250.87509</ele>
        <time>2023-06-19T16:15:49.000Z</time>
      </trkpt>
      <trkpt lat="45.8481" lon="4.66044">
        <ele>250.93918</ele>
        <time>2023-06-19T16:15:50.000Z</time>
      </trkpt>
      <trkpt lat="45.84806" lon="4.66046">
        <ele>250.99809</ele>
        <time>2023-06-19T16:15:51.000Z</time>
      </trkpt>
      <trkpt lat="45.84802" lon="4.66049">
        <ele>251.08005</ele>
        <time>2023-06-19T16:15:52.000Z</time>
      </trkpt>
      <trkpt lat="45.84797" lon="4.66051">
        <ele>251.17969</ele>
        <time>2023-06-19T16:15:53.000Z</time>
      </trkpt>
      <trkpt lat="45.84794" lon="4.66053">
        <ele>251.21782</ele>
        <time>2023-06-19T16:15:54.000Z</time>
      </trkpt>
      <trkpt lat="45.84789" lon="4.66055">
        <ele>251.2762</ele>
        <time>2023-06-19T16:15:55.000Z</time>
      </trkpt>
      <trkpt lat="45.84785" lon="4.66057">
        <ele>251.47453</ele>
        <time>2023-06-19T16:15:56.000Z</time>
      </trkpt>
      <trkpt lat="45.84781" lon="4.66059">
        <ele>251.61255</ele>
        <time>2023-06-19T16:15:57.000Z</time>
      </trkpt>
      <trkpt lat="45.84777" lon="4.66063">
        <ele>251.10469</ele>
        <time>2023-06-19T16:15:58.000Z</time>
      </trkpt>
      <trkpt lat="45.84773" lon="4.66066">
        <ele>250.69162</ele>
        <time>2023-06-19T16:15:59.000Z</time>
      </trkpt>
      <trkpt lat="45.84768" lon="4.66068">
        <ele>250.83884</ele>
        <time>2023-06-19T16:16:00.000Z</time>
      </trkpt>
      <trkpt lat="45.84764" lon="4.6607">
        <ele>250.92302</ele>
        <time>2023-06-19T16:16:01.000Z</time>
      </trkpt>
      <trkpt lat="45.84759" lon="4.66072">
        <ele>251.04871</ele>
        <time>2023-06-19T16:16:02.000Z</time>
      </trkpt>
      <trkpt lat="45.84755" lon="4.66074">
        <ele>250.90518</ele>
        <time>2023-06-19T16:16:03.000Z</time>
      </trkpt>
      <trkpt lat="45.8475" lon="4.66077">
        <ele>250.95711</ele>
        <time>2023-06-19T16:16:04.000Z</time>
      </trkpt>
      <trkpt lat="45.84746" lon="4.66079">
        <ele>251.00691</ele>
        <time>2023-06-19T16:16:05.000Z</time>
      </trkpt>
      <trkpt lat="45.84742" lon="4.66081">
        <ele>251.00867</ele>
        <time>2023-06-19T16:16:06.000Z</time>
      </trkpt>
      <trkpt lat="45.84738" lon="4.66084">
        <ele>251.0563</ele>
        <time>2023-06-19T16:16:07.000Z</time>
      </trkpt>
      <trkpt lat="45.84734" lon="4.66086">
        <ele>251.16927</ele>
        <time>2023-06-19T16:16:08.000Z</time>
      </trkpt>
      <trkpt lat="45.84729" lon="4.66088">
        <ele>251.31767</ele>
        <time>2023-06-19T16:16:09.000Z</time>
      </trkpt>
      <trkpt lat="45.84725" lon="4.66089">
        <ele>251.47171</ele>
        <time>2023-06-19T16:16:10.000Z</time>
      </trkpt>
      <trkpt lat="45.8472" lon="4.6609">
        <ele>251.5876</ele>
        <time>2023-06-19T16:16:11.000Z</time>
      </trkpt>
      <trkpt lat="45.84716" lon="4.66092">
        <ele>251.71834</ele>
        <time>2023-06-19T16:16:12.000Z</time>
      </trkpt>
      <trkpt lat="45.84711" lon="4.66093">
        <ele>251.80208</ele>
        <time>2023-06-19T16:16:13.000Z</time>
      </trkpt>
      <trkpt lat="45.84707" lon="4.66095">
        <ele>251.95918</ele>
        <time>2023-06-19T16:16:14.000Z</time>
      </trkpt>
      <trkpt lat="45.84702" lon="4.66096">
        <ele>252.32288</ele>
        <time>2023-06-19T16:16:15.000Z</time>
      </trkpt>
      <trkpt lat="45.84697" lon="4.66097">
        <ele>252.67122</ele>
        <time>2023-06-19T16:16:16.000Z</time>
      </trkpt>
      <trkpt lat="45.84693" lon="4.66099">
        <ele>253.13042</ele>
        <time>2023-06-19T16:16:17.000Z</time>
      </trkpt>
      <trkpt lat="45.84688" lon="4.661">
        <ele>253.68051</ele>
        <time>2023-06-19T16:16:18.000Z</time>
      </trkpt>
      <trkpt lat="45.84684" lon="4.66102">
        <ele>254.26421</ele>
        <time>2023-06-19T16:16:19.000Z</time>
      </trkpt>
      <trkpt lat="45.84679" lon="4.66104">
        <ele>254.27945</ele>
        <time>2023-06-19T16:16:20.000Z</time>
      </trkpt>
      <trkpt lat="45.84674" lon="4.66106">
        <ele>254.35916</ele>
        <time>2023-06-19T16:16:21.000Z</time>
      </trkpt>
      <trkpt lat="45.8467" lon="4.66108">
        <ele>254.37691</ele>
        <time>2023-06-19T16:16:22.000Z</time>
      </trkpt>
      <trkpt lat="45.84665" lon="4.6611">
        <ele>254.68399</ele>
        <time>2023-06-19T16:16:23.000Z</time>
      </trkpt>
      <trkpt lat="45.8466" lon="4.66112">
        <ele>255.12241</ele>
        <time>2023-06-19T16:16:24.000Z</time>
      </trkpt>
      <trkpt lat="45.84656" lon="4.66113">
        <ele>255.54654</ele>
        <time>2023-06-19T16:16:25.000Z</time>
      </trkpt>
      <trkpt lat="45.84651" lon="4.66116">
        <ele>256.01752</ele>
        <time>2023-06-19T16:16:26.000Z</time>
      </trkpt>
      <trkpt lat="45.84646" lon="4.66118">
        <ele>256.47406</ele>
        <time>2023-06-19T16:16:27.000Z</time>
      </trkpt>
      <trkpt lat="45.84641" lon="4.6612">
        <ele>256.41269</ele>
        <time>2023-06-19T16:16:28.000Z</time>
      </trkpt>
      <trkpt lat="45.84635" lon="4.66123">
        <ele>256.4205</ele>
        <time>2023-06-19T16:16:29.000Z</time>
      </trkpt>
      <trkpt lat="45.84631" lon="4.66126">
        <ele>256.43384</ele>
        <time>2023-06-19T16:16:30.000Z</time>
      </trkpt>
      <trkpt lat="45.84627" lon="4.6613">
        <ele>256.46771</ele>
        <time>2023-06-19T16:16:31.000Z</time>
      </trkpt>
      <trkpt lat="45.84624" lon="4.66133">
        <ele>256.42984</ele>
        <time>2023-06-19T16:16:32.000Z</time>
      </trkpt>
      <trkpt lat="45.84621" lon="4.66137">
        <ele>256.45938</ele>
        <time>2023-06-19T16:16:33.000Z</time>
      </trkpt>
      <trkpt lat="45.84618" lon="4.6614">
        <ele>256.47644</ele>
        <time>2023-06-19T16:16:34.000Z</time>
      </trkpt>
      <trkpt lat="45.84616" lon="4.66143">
        <ele>256.51422</ele>
        <time>2023-06-19T16:16:35.000Z</time>
      </trkpt>
      <trkpt lat="45.84613" lon="4.66145">
        <ele>256.59247</ele>
        <time>2023-06-19T16:16:36.000Z</time>
      </trkpt>
      <trkpt lat="45.84611" lon="4.66149">
        <ele>256.64819</ele>
        <time>2023-06-19T16:16:37.000Z</time>
      </trkpt>
      <trkpt lat="45.84608" lon="4.66152">
        <ele>256.78027</ele>
        <time>2023-06-19T16:16:38.000Z</time>
      </trkpt>
      <trkpt lat="45.84606" lon="4.66155">
        <ele>256.83667</ele>
        <time>2023-06-19T16:16:39.000Z</time>
      </trkpt>
      <trkpt lat="45.84603" lon="4.66158">
        <ele>256.90604</ele>
        <time>2023-06-19T16:16:40.000Z</time>
      </trkpt>
      <trkpt lat="45.84601" lon="4.66161">
        <ele>257.01035</ele>
        <time>2023-06-19T16:16:41.000Z</time>
      </trkpt>
      <trkpt lat="45.84599" lon="4.66164">
        <ele>257.15915</ele>
        <time>2023-06-19T16:16:42.000Z</time>
      </trkpt>
      <trkpt lat="45.84597" lon="4.66166">
        <ele>257.30817</ele>
        <time>2023-06-19T16:16:43.000Z</time>
      </trkpt>
      <trkpt lat="45.84595" lon="4.66168">
        <ele>257.47879</ele>
        <time>2023-06-19T16:16:44.000Z</time>
      </trkpt>
      <trkpt lat="45.84592" lon="4.66169">
        <ele>257.64856</ele>
        <time>2023-06-19T16:16:45.000Z</time>
      </trkpt>
      <trkpt lat="45.8459" lon="4.6617">
        <ele>257.81369</ele>
        <time>2023-06-19T16:16:46.000Z</time>
      </trkpt>
      <trkpt lat="45.84587" lon="4.66171">
        <ele>257.9985</ele>
        <time>2023-06-19T16:16:47.000Z</time>
      </trkpt>
      <trkpt lat="45.84584" lon="4.66171">
        <ele>258.12793</ele>
        <time>2023-06-19T16:16:48.000Z</time>
      </trkpt>
      <trkpt lat="45.84581" lon="4.6617">
        <ele>258.22784</ele>
        <time>2023-06-19T16:16:49.000Z</time>
      </trkpt>
      <trkpt lat="45.84577" lon="4.66168">
        <ele>258.27451</ele>
        <time>2023-06-19T16:16:50.000Z</time>
      </trkpt>
      <trkpt lat="45.84574" lon="4.66166">
        <ele>258.30621</ele>
        <time>2023-06-19T16:16:51.000Z</time>
      </trkpt>
      <trkpt lat="45.84571" lon="4.66164">
        <ele>258.39545</ele>
        <time>2023-06-19T16:16:52.000Z</time>
      </trkpt>
      <trkpt lat="45.84568" lon="4.66162">
        <ele>258.50262</ele>
        <time>2023-06-19T16:16:53.000Z</time>
      </trkpt>
      <trkpt lat="45.84565" lon="4.6616">
        <ele>258.57111</ele>
        <time>2023-06-19T16:16:54.000Z</time>
      </trkpt>
      <trkpt lat="45.84562" lon="4.66158">
        <ele>258.34805</ele>
        <time>2023-06-19T16:16:55.000Z</time>
      </trkpt>
      <trkpt lat="45.84558" lon="4.66156">
        <ele>258.07809</ele>
        <time>2023-06-19T16:16:56.000Z</time>
      </trkpt>
      <trkpt lat="45.84555" lon="4.66154">
        <ele>257.84219</ele>
        <time>2023-06-19T16:16:57.000Z</time>
      </trkpt>
      <trkpt lat="45.84552" lon="4.66151">
        <ele>257.54831</ele>
        <time>2023-06-19T16:16:58.000Z</time>
      </trkpt>
      <trkpt lat="45.84549" lon="4.66149">
        <ele>257.30646</ele>
        <time>2023-06-19T16:16:59.000Z</time>
      </trkpt>
      <trkpt lat="45.84547" lon="4.66146">
        <ele>257.0416</ele>
        <time>2023-06-19T16:17:00.000Z</time>
      </trkpt>
      <trkpt lat="45.84544" lon="4.66142">
        <ele>256.76312</ele>
        <time>2023-06-19T16:17:01.000Z</time>
      </trkpt>
      <trkpt lat="45.84541" lon="4.66139">
        <ele>256.31161</ele>
        <time>2023-06-19T16:17:02.000Z</time>
      </trkpt>
      <trkpt lat="45.84538" lon="4.66136">
        <ele>255.86057</ele>
        <time>2023-06-19T16:17:03.000Z</time>
      </trkpt>
      <trkpt lat="45.84535" lon="4.66132">
        <ele>255.99605</ele>
        <time>2023-06-19T16:17:04.000Z</time>
      </trkpt>
      <trkpt lat="45.84532" lon="4.66129">
        <ele>256.02045</ele>
        <time>2023-06-19T16:17:05.000Z</time>
      </trkpt>
      <trkpt lat="45.8453" lon="4.66125">
        <ele>256.06732</ele>
        <time>2023-06-19T16:17:06.000Z</time>
      </trkpt>
      <trkpt lat="45.84527" lon="4.66122">
        <ele>256.10242</ele>
        <time>2023-06-19T16:17:07.000Z</time>
      </trkpt>
      <trkpt lat="45.84524" lon="4.66118">
        <ele>256.14917</ele>
        <time>2023-06-19T16:17:08.000Z</time>
      </trkpt>
      <trkpt lat="45.84521" lon="4.66114">
        <ele>256.21487</ele>
        <time>2023-06-19T16:17:09.000Z</time>
      </trkpt>
      <trkpt lat="45.84519" lon="4.6611">
        <ele>256.36469</ele>
        <time>2023-06-19T16:17:10.000Z</time>
      </trkpt>
      <trkpt lat="45.84516" lon="4.66107">
        <ele>256.51886</ele>
        <time>2023-06-19T16:17:11.000Z</time>
      </trkpt>
      <trkpt lat="45.84514" lon="4.66103">
        <ele>256.66788</ele>
        <time>2023-06-19T16:17:12.000Z</time>
      </trkpt>
      <trkpt lat="45.84511" lon="4.66099">
        <ele>256.85272</ele>
        <time>2023-06-19T16:17:13.000Z</time>
      </trkpt>
      <trkpt lat="45.84509" lon="4.66096">
        <ele>256.9942</ele>
        <time>2023-06-19T16:17:14.000Z</time>
      </trkpt>
      <trkpt lat="45.84506" lon="4.66092">
        <ele>257.41373</ele>
        <time>2023-06-19T16:17:15.000Z</time>
      </trkpt>
      <trkpt lat="45.84504" lon="4.66089">
        <ele>257.85892</ele>
        <time>2023-06-19T16:17:16.000Z</time>
      </trkpt>
      <trkpt lat="45.84502" lon="4.66085">
        <ele>258.29346</ele>
        <time>2023-06-19T16:17:17.000Z</time>
      </trkpt>
      <trkpt lat="45.84499" lon="4.66082">
        <ele>258.73395</ele>
        <time>2023-06-19T16:17:18.000Z</time>
      </trkpt>
      <trkpt lat="45.84497" lon="4.66079">
        <ele>259.18698</ele>
        <time>2023-06-19T16:17:19.000Z</time>
      </trkpt>
      <trkpt lat="45.84494" lon="4.66077">
        <ele>259.36417</ele>
        <time>2023-06-19T16:17:20.000Z</time>
      </trkpt>
      <trkpt lat="45.84491" lon="4.66076">
        <ele>259.41199</ele>
        <time>2023-06-19T16:17:21.000Z</time>
      </trkpt>
      <trkpt lat="45.84488" lon="4.66075">
        <ele>259.5658</ele>
        <time>2023-06-19T16:17:22.000Z</time>
      </trkpt>
      <trkpt lat="45.84484" lon="4.66076">
        <ele>259.57587</ele>
        <time>2023-06-19T16:17:23.000Z</time>
      </trkpt>
      <trkpt lat="45.84481" lon="4.66079">
        <ele>259.63315</ele>
        <time>2023-06-19T16:17:24.000Z</time>
      </trkpt>
      <trkpt lat="45.84478" lon="4.66082">
        <ele>259.74289</ele>
        <time>2023-06-19T16:17:25.000Z</time>
      </trkpt>
      <trkpt lat="45.84475" lon="4.66087">
        <ele>259.83804</ele>
        <time>2023-06-19T16:17:26.000Z</time>
      </trkpt>
      <trkpt lat="45.84473" lon="4.66091">
        <ele>259.91132</ele>
        <time>2023-06-19T16:17:27.000Z</time>
      </trkpt>
      <trkpt lat="45.8447" lon="4.66096">
        <ele>259.9693</ele>
        <time>2023-06-19T16:17:28.000Z</time>
      </trkpt>
      <trkpt lat="45.84468" lon="4.66101">
        <ele>260.08636</ele>
        <time>2023-06-19T16:17:29.000Z</time>
      </trkpt>
      <trkpt lat="45.84466" lon="4.66106">
        <ele>260.15878</ele>
        <time>2023-06-19T16:17:30.000Z</time>
      </trkpt>
      <trkpt lat="45.84463" lon="4.66113">
        <ele>260.18719</ele>
        <time>2023-06-19T16:17:31.000Z</time>
      </trkpt>
      <trkpt lat="45.8446" lon="4.66118">
        <ele>260.16837</ele>
        <time>2023-06-19T16:17:32.000Z</time>
      </trkpt>
      <trkpt lat="45.84457" lon="4.66123">
        <ele>260.11185</ele>
        <time>2023-06-19T16:17:33.000Z</time>
      </trkpt>
      <trkpt lat="45.84454" lon="4.66128">
        <ele>259.80743</ele>
        <time>2023-06-19T16:17:34.000Z</time>
      </trkpt>
      <trkpt lat="45.8445" lon="4.66134">
        <ele>259.50262</ele>
        <time>2023-06-19T16:17:35.000Z</time>
      </trkpt>
      <trkpt lat="45.84447" lon="4.66139">
        <ele>259.1713</ele>
        <time>2023-06-19T16:17:36.000Z</time>
      </trkpt>
      <trkpt lat="45.84444" lon="4.66145">
        <ele>258.54404</ele>
        <time>2023-06-19T16:17:37.000Z</time>
      </trkpt>
      <trkpt lat="45.84441" lon="4.6615">
        <ele>258.50735</ele>
        <time>2023-06-19T16:17:38.000Z</time>
      </trkpt>
      <trkpt lat="45.84437" lon="4.66156">
        <ele>258.39923</ele>
        <time>2023-06-19T16:17:39.000Z</time>
      </trkpt>
      <trkpt lat="45.84434" lon="4.66162">
        <ele>258.53186</ele>
        <time>2023-06-19T16:17:40.000Z</time>
      </trkpt>
      <trkpt lat="45.8443" lon="4.66169">
        <ele>258.76947</ele>
        <time>2023-06-19T16:17:41.000Z</time>
      </trkpt>
      <trkpt lat="45.84426" lon="4.66175">
        <ele>259.07053</ele>
        <time>2023-06-19T16:17:42.000Z</time>
      </trkpt>
      <trkpt lat="45.84422" lon="4.66182">
        <ele>259.51013</ele>
        <time>2023-06-19T16:17:43.000Z</time>
      </trkpt>
      <trkpt lat="45.84419" lon="4.66189">
        <ele>259.28226</ele>
        <time>2023-06-19T16:17:44.000Z</time>
      </trkpt>
      <trkpt lat="45.84415" lon="4.66196">
        <ele>259.10638</ele>
        <time>2023-06-19T16:17:45.000Z</time>
      </trkpt>
      <trkpt lat="45.84412" lon="4.66203">
        <ele>258.922</ele>
        <time>2023-06-19T16:17:46.000Z</time>
      </trkpt>
      <trkpt lat="45.84408" lon="4.6621">
        <ele>258.77777</ele>
        <time>2023-06-19T16:17:47.000Z</time>
      </trkpt>
      <trkpt lat="45.84405" lon="4.66217">
        <ele>258.37238</ele>
        <time>2023-06-19T16:17:48.000Z</time>
      </trkpt>
      <trkpt lat="45.84402" lon="4.66224">
        <ele>257.91461</ele>
        <time>2023-06-19T16:17:49.000Z</time>
      </trkpt>
      <trkpt lat="45.84398" lon="4.6623">
        <ele>257.2691</ele>
        <time>2023-06-19T16:17:50.000Z</time>
      </trkpt>
      <trkpt lat="45.84394" lon="4.66235">
        <ele>257.27121</ele>
        <time>2023-06-19T16:17:51.000Z</time>
      </trkpt>
      <trkpt lat="45.8439" lon="4.66237">
        <ele>257.2226</ele>
        <time>2023-06-19T16:17:52.000Z</time>
      </trkpt>
      <trkpt lat="45.84386" lon="4.66238">
        <ele>257.18671</ele>
        <time>2023-06-19T16:17:53.000Z</time>
      </trkpt>
      <trkpt lat="45.84383" lon="4.66239">
        <ele>257.42767</ele>
        <time>2023-06-19T16:17:54.000Z</time>
      </trkpt>
      <trkpt lat="45.8438" lon="4.66239">
        <ele>257.67392</ele>
        <time>2023-06-19T16:17:55.000Z</time>
      </trkpt>
      <trkpt lat="45.84377" lon="4.66239">
        <ele>257.95081</ele>
        <time>2023-06-19T16:17:56.000Z</time>
      </trkpt>
      <trkpt lat="45.84375" lon="4.66239">
        <ele>259.54288</ele>
        <time>2023-06-19T16:17:57.000Z</time>
      </trkpt>
      <trkpt lat="45.84372" lon="4.66239">
        <ele>260.47678</ele>
        <time>2023-06-19T16:17:58.000Z</time>
      </trkpt>
      <trkpt lat="45.84369" lon="4.6624">
        <ele>261.45135</ele>
        <time>2023-06-19T16:17:59.000Z</time>
      </trkpt>
      <trkpt lat="45.84366" lon="4.66242">
        <ele>262.45905</ele>
        <time>2023-06-19T16:18:00.000Z</time>
      </trkpt>
      <trkpt lat="45.84362" lon="4.66243">
        <ele>263.40372</ele>
        <time>2023-06-19T16:18:01.000Z</time>
      </trkpt>
      <trkpt lat="45.84357" lon="4.66243">
        <ele>264.31769</ele>
        <time>2023-06-19T16:18:02.000Z</time>
      </trkpt>
      <trkpt lat="45.84353" lon="4.66242">
        <ele>264.28799</ele>
        <time>2023-06-19T16:18:03.000Z</time>
      </trkpt>
      <trkpt lat="45.84348" lon="4.66242">
        <ele>263.89209</ele>
        <time>2023-06-19T16:18:04.000Z</time>
      </trkpt>
      <trkpt lat="45.84344" lon="4.6624">
        <ele>264.83911</ele>
        <time>2023-06-19T16:18:05.000Z</time>
      </trkpt>
      <trkpt lat="45.84338" lon="4.6624">
        <ele>265.80484</ele>
        <time>2023-06-19T16:18:06.000Z</time>
      </trkpt>
      <trkpt lat="45.84333" lon="4.66239">
        <ele>266.75607</ele>
        <time>2023-06-19T16:18:07.000Z</time>
      </trkpt>
      <trkpt lat="45.84328" lon="4.66238">
        <ele>267.9964</ele>
        <time>2023-06-19T16:18:08.000Z</time>
      </trkpt>
      <trkpt lat="45.84323" lon="4.66236">
        <ele>269.26617</ele>
        <time>2023-06-19T16:18:09.000Z</time>
      </trkpt>
      <trkpt lat="45.84317" lon="4.66236">
        <ele>270.69632</ele>
        <time>2023-06-19T16:18:10.000Z</time>
      </trkpt>
      <trkpt lat="45.84312" lon="4.66235">
        <ele>271.52972</ele>
        <time>2023-06-19T16:18:11.000Z</time>
      </trkpt>
      <trkpt lat="45.84307" lon="4.66234">
        <ele>272.44156</ele>
        <time>2023-06-19T16:18:12.000Z</time>
      </trkpt>
      <trkpt lat="45.84302" lon="4.66233">
        <ele>273.35004</ele>
        <time>2023-06-19T16:18:13.000Z</time>
      </trkpt>
      <trkpt lat="45.84296" lon="4.66232">
        <ele>274.26028</ele>
        <time>2023-06-19T16:18:14.000Z</time>
      </trkpt>
      <trkpt lat="45.84291" lon="4.66232">
        <ele>275.14233</ele>
        <time>2023-06-19T16:18:15.000Z</time>
      </trkpt>
      <trkpt lat="45.84285" lon="4.66232">
        <ele>275.99225</ele>
        <time>2023-06-19T16:18:16.000Z</time>
      </trkpt>
      <trkpt lat="45.8428" lon="4.66232">
        <ele>275.80542</ele>
        <time>2023-06-19T16:18:17.000Z</time>
      </trkpt>
      <trkpt lat="45.84274" lon="4.66233">
        <ele>275.66577</ele>
        <time>2023-06-19T16:18:18.000Z</time>
      </trkpt>
      <trkpt lat="45.84269" lon="4.66235">
        <ele>275.55981</ele>
        <time>2023-06-19T16:18:19.000Z</time>
      </trkpt>
      <trkpt lat="45.84265" lon="4.66238">
        <ele>275.48798</ele>
        <time>2023-06-19T16:18:20.000Z</time>
      </trkpt>
      <trkpt lat="45.8426" lon="4.6624">
        <ele>275.51898</ele>
        <time>2023-06-19T16:18:21.000Z</time>
      </trkpt>
      <trkpt lat="45.84254" lon="4.66243">
        <ele>275.54291</ele>
        <time>2023-06-19T16:18:22.000Z</time>
      </trkpt>
      <trkpt lat="45.84248" lon="4.66247">
        <ele>276.4697</ele>
        <time>2023-06-19T16:18:23.000Z</time>
      </trkpt>
      <trkpt lat="45.84242" lon="4.66251">
        <ele>277.763</ele>
        <time>2023-06-19T16:18:24.000Z</time>
      </trkpt>
      <trkpt lat="45.84237" lon="4.66255">
        <ele>277.72943</ele>
        <time>2023-06-19T16:18:25.000Z</time>
      </trkpt>
      <trkpt lat="45.84231" lon="4.6626">
        <ele>277.65067</ele>
        <time>2023-06-19T16:18:26.000Z</time>
      </trkpt>
      <trkpt lat="45.84226" lon="4.66266">
        <ele>277.54318</ele>
        <time>2023-06-19T16:18:27.000Z</time>
      </trkpt>
      <trkpt lat="45.8422" lon="4.66272">
        <ele>277.40277</ele>
        <time>2023-06-19T16:18:28.000Z</time>
      </trkpt>
      <trkpt lat="45.84214" lon="4.66278">
        <ele>277.23996</ele>
        <time>2023-06-19T16:18:29.000Z</time>
      </trkpt>
      <trkpt lat="45.8421" lon="4.66282">
        <ele>277.13712</ele>
        <time>2023-06-19T16:18:30.000Z</time>
      </trkpt>
      <trkpt lat="45.84204" lon="4.66284">
        <ele>276.99127</ele>
        <time>2023-06-19T16:18:31.000Z</time>
      </trkpt>
      <trkpt lat="45.84197" lon="4.66286">
        <ele>276.82635</ele>
        <time>2023-06-19T16:18:32.000Z</time>
      </trkpt>
      <trkpt lat="45.84191" lon="4.66286">
        <ele>276.66461</ele>
        <time>2023-06-19T16:18:33.000Z</time>
      </trkpt>
      <trkpt lat="45.84186" lon="4.66285">
        <ele>276.5661</ele>
        <time>2023-06-19T16:18:34.000Z</time>
      </trkpt>
      <trkpt lat="45.8418" lon="4.66284">
        <ele>276.51086</ele>
        <time>2023-06-19T16:18:35.000Z</time>
      </trkpt>
      <trkpt lat="45.84175" lon="4.66282">
        <ele>276.46631</ele>
        <time>2023-06-19T16:18:36.000Z</time>
      </trkpt>
      <trkpt lat="45.84171" lon="4.66281">
        <ele>276.46686</ele>
        <time>2023-06-19T16:18:37.000Z</time>
      </trkpt>
      <trkpt lat="45.84169" lon="4.66279">
        <ele>276.44431</ele>
        <time>2023-06-19T16:18:38.000Z</time>
      </trkpt>
      <trkpt lat="45.84167" lon="4.66278">
        <ele>276.40604</ele>
        <time>2023-06-19T16:18:39.000Z</time>
      </trkpt>
      <trkpt lat="45.84165" lon="4.66276">
        <ele>276.32562</ele>
        <time>2023-06-19T16:18:40.000Z</time>
      </trkpt>
      <trkpt lat="45.84164" lon="4.66273">
        <ele>276.23911</ele>
        <time>2023-06-19T16:18:41.000Z</time>
      </trkpt>
      <trkpt lat="45.84163" lon="4.6627">
        <ele>276.18814</ele>
        <time>2023-06-19T16:18:42.000Z</time>
      </trkpt>
      <trkpt lat="45.84164" lon="4.66267">
        <ele>276.17969</ele>
        <time>2023-06-19T16:18:43.000Z</time>
      </trkpt>
      <trkpt lat="45.84167" lon="4.66267">
        <ele>276.17929</ele>
        <time>2023-06-19T16:18:45.000Z</time>
      </trkpt>
      <trkpt lat="45.84167" lon="4.6627">
        <ele>276.30109</ele>
        <time>2023-06-19T16:18:46.000Z</time>
      </trkpt>
      <trkpt lat="45.84166" lon="4.66273">
        <ele>276.42807</ele>
        <time>2023-06-19T16:18:47.000Z</time>
      </trkpt>
      <trkpt lat="45.84165" lon="4.66278">
        <ele>276.5921</ele>
        <time>2023-06-19T16:18:48.000Z</time>
      </trkpt>
      <trkpt lat="45.84165" lon="4.66282">
        <ele>276.76694</ele>
        <time>2023-06-19T16:18:49.000Z</time>
      </trkpt>
      <trkpt lat="45.84164" lon="4.66288">
        <ele>276.94492</ele>
        <time>2023-06-19T16:18:50.000Z</time>
      </trkpt>
      <trkpt lat="45.84164" lon="4.66293">
        <ele>277.03229</ele>
        <time>2023-06-19T16:18:51.000Z</time>
      </trkpt>
      <trkpt lat="45.84164" lon="4.66299">
        <ele>277.15591</ele>
        <time>2023-06-19T16:18:52.000Z</time>
      </trkpt>
      <trkpt lat="45.84164" lon="4.66305">
        <ele>277.29654</ele>
        <time>2023-06-19T16:18:53.000Z</time>
      </trkpt>
      <trkpt lat="45.84164" lon="4.66312">
        <ele>277.37357</ele>
        <time>2023-06-19T16:18:54.000Z</time>
      </trkpt>
      <trkpt lat="45.84163" lon="4.66319">
        <ele>277.39377</ele>
        <time>2023-06-19T16:18:55.000Z</time>
      </trkpt>
      <trkpt lat="45.84163" lon="4.66326">
        <ele>277.36136</ele>
        <time>2023-06-19T16:18:56.000Z</time>
      </trkpt>
      <trkpt lat="45.84162" lon="4.66333">
        <ele>277.31317</ele>
        <time>2023-06-19T16:18:57.000Z</time>
      </trkpt>
      <trkpt lat="45.8416" lon="4.66339">
        <ele>277.22382</ele>
        <time>2023-06-19T16:18:58.000Z</time>
      </trkpt>
      <trkpt lat="45.84155" lon="4.66343">
        <ele>277.15094</ele>
        <time>2023-06-19T16:18:59.000Z</time>
      </trkpt>
      <trkpt lat="45.84151" lon="4.66347">
        <ele>276.9743</ele>
        <time>2023-06-19T16:19:00.000Z</time>
      </trkpt>
      <trkpt lat="45.84145" lon="4.66348">
        <ele>276.80524</ele>
        <time>2023-06-19T16:19:01.000Z</time>
      </trkpt>
      <trkpt lat="45.84139" lon="4.66349">
        <ele>276.60645</ele>
        <time>2023-06-19T16:19:02.000Z</time>
      </trkpt>
      <trkpt lat="45.84132" lon="4.66349">
        <ele>276.3772</ele>
        <time>2023-06-19T16:19:03.000Z</time>
      </trkpt>
      <trkpt lat="45.84125" lon="4.66349">
        <ele>276.12177</ele>
        <time>2023-06-19T16:19:04.000Z</time>
      </trkpt>
      <trkpt lat="45.84118" lon="4.66349">
        <ele>275.83603</ele>
        <time>2023-06-19T16:19:05.000Z</time>
      </trkpt>
      <trkpt lat="45.84111" lon="4.6635">
        <ele>275.40692</ele>
        <time>2023-06-19T16:19:06.000Z</time>
      </trkpt>
      <trkpt lat="45.84103" lon="4.66349">
        <ele>275.00644</ele>
        <time>2023-06-19T16:19:07.000Z</time>
      </trkpt>
      <trkpt lat="45.84096" lon="4.66348">
        <ele>274.56976</ele>
        <time>2023-06-19T16:19:08.000Z</time>
      </trkpt>
      <trkpt lat="45.8409" lon="4.66343">
        <ele>274.19315</ele>
        <time>2023-06-19T16:19:09.000Z</time>
      </trkpt>
      <trkpt lat="45.84085" lon="4.66337">
        <ele>273.80811</ele>
        <time>2023-06-19T16:19:10.000Z</time>
      </trkpt>
      <trkpt lat="45.84082" lon="4.66328">
        <ele>273.4715</ele>
        <time>2023-06-19T16:19:11.000Z</time>
      </trkpt>
      <trkpt lat="45.84079" lon="4.66318">
        <ele>273.14349</ele>
        <time>2023-06-19T16:19:12.000Z</time>
      </trkpt>
      <trkpt lat="45.84079" lon="4.66307">
        <ele>272.71567</ele>
        <time>2023-06-19T16:19:13.000Z</time>
      </trkpt>
      <trkpt lat="45.84077" lon="4.66295">
        <ele>272.3371</ele>
        <time>2023-06-19T16:19:14.000Z</time>
      </trkpt>
      <trkpt lat="45.84076" lon="4.66284">
        <ele>271.96454</ele>
        <time>2023-06-19T16:19:15.000Z</time>
      </trkpt>
      <trkpt lat="45.84075" lon="4.66272">
        <ele>271.60022</ele>
        <time>2023-06-19T16:19:16.000Z</time>
      </trkpt>
      <trkpt lat="45.84076" lon="4.66259">
        <ele>271.27646</ele>
        <time>2023-06-19T16:19:17.000Z</time>
      </trkpt>
      <trkpt lat="45.84074" lon="4.66247">
        <ele>271.01782</ele>
        <time>2023-06-19T16:19:18.000Z</time>
      </trkpt>
      <trkpt lat="45.84073" lon="4.66235">
        <ele>270.69897</ele>
        <time>2023-06-19T16:19:19.000Z</time>
      </trkpt>
      <trkpt lat="45.84073" lon="4.66225">
        <ele>270.46628</ele>
        <time>2023-06-19T16:19:20.000Z</time>
      </trkpt>
      <trkpt lat="45.84074" lon="4.66218">
        <ele>270.24634</ele>
        <time>2023-06-19T16:19:21.000Z</time>
      </trkpt>
      <trkpt lat="45.84072" lon="4.66213">
        <ele>270.03229</ele>
        <time>2023-06-19T16:19:22.000Z</time>
      </trkpt>
      <trkpt lat="45.84072" lon="4.66209">
        <ele>269.79758</ele>
        <time>2023-06-19T16:19:23.000Z</time>
      </trkpt>
      <trkpt lat="45.84069" lon="4.66207">
        <ele>269.55597</ele>
        <time>2023-06-19T16:19:24.000Z</time>
      </trkpt>
      <trkpt lat="45.84066" lon="4.66205">
        <ele>269.36005</ele>
        <time>2023-06-19T16:19:25.000Z</time>
      </trkpt>
      <trkpt lat="45.84063" lon="4.66205">
        <ele>269.13998</ele>
        <time>2023-06-19T16:19:26.000Z</time>
      </trkpt>
      <trkpt lat="45.8406" lon="4.66207">
        <ele>268.91089</ele>
        <time>2023-06-19T16:19:27.000Z</time>
      </trkpt>
      <trkpt lat="45.8406" lon="4.6621">
        <ele>268.70944</ele>
        <time>2023-06-19T16:19:28.000Z</time>
      </trkpt>
      <trkpt lat="45.84059" lon="4.66214">
        <ele>268.46747</ele>
        <time>2023-06-19T16:19:30.000Z</time>
      </trkpt>
      <trkpt lat="45.84059" lon="4.66218">
        <ele>268.21231</ele>
        <time>2023-06-19T16:19:32.000Z</time>
      </trkpt>
      <trkpt lat="45.84059" lon="4.66215">
        <ele>267.89844</ele>
        <time>2023-06-19T16:19:57.000Z</time>
      </trkpt>
      <trkpt lat="45.84056" lon="4.66212">
        <ele>267.53119</ele>
        <time>2023-06-19T16:20:11.000Z</time>
      </trkpt>
      <trkpt lat="45.84053" lon="4.66213">
        <ele>267.26935</ele>
        <time>2023-06-19T16:20:12.000Z</time>
      </trkpt>
      <trkpt lat="45.84048" lon="4.66214">
        <ele>266.99567</ele>
        <time>2023-06-19T16:20:13.000Z</time>
      </trkpt>
      <trkpt lat="45.84044" lon="4.66213">
        <ele>266.7695</ele>
        <time>2023-06-19T16:20:14.000Z</time>
      </trkpt>
      <trkpt lat="45.8404" lon="4.66212">
        <ele>266.56778</ele>
        <time>2023-06-19T16:20:15.000Z</time>
      </trkpt>
      <trkpt lat="45.84035" lon="4.66213">
        <ele>266.34546</ele>
        <time>2023-06-19T16:20:16.000Z</time>
      </trkpt>
      <trkpt lat="45.84031" lon="4.66214">
        <ele>266.09625</ele>
        <time>2023-06-19T16:20:17.000Z</time>
      </trkpt>
      <trkpt lat="45.84027" lon="4.66216">
        <ele>265.94812</ele>
        <time>2023-06-19T16:20:18.000Z</time>
      </trkpt>
      <trkpt lat="45.84024" lon="4.66218">
        <ele>265.81418</ele>
        <time>2023-06-19T16:20:19.000Z</time>
      </trkpt>
      <trkpt lat="45.84022" lon="4.6622">
        <ele>265.6774</ele>
        <time>2023-06-19T16:20:20.000Z</time>
      </trkpt>
      <trkpt lat="45.84019" lon="4.66222">
        <ele>265.5564</ele>
        <time>2023-06-19T16:20:21.000Z</time>
      </trkpt>
      <trkpt lat="45.84017" lon="4.66224">
        <ele>265.49603</ele>
        <time>2023-06-19T16:20:22.000Z</time>
      </trkpt>
      <trkpt lat="45.84014" lon="4.66226">
        <ele>265.49432</ele>
        <time>2023-06-19T16:20:23.000Z</time>
      </trkpt>
      <trkpt lat="45.84011" lon="4.66229">
        <ele>265.49533</ele>
        <time>2023-06-19T16:20:24.000Z</time>
      </trkpt>
      <trkpt lat="45.84008" lon="4.66231">
        <ele>265.54657</ele>
        <time>2023-06-19T16:20:25.000Z</time>
      </trkpt>
      <trkpt lat="45.84004" lon="4.66234">
        <ele>265.60187</ele>
        <time>2023-06-19T16:20:26.000Z</time>
      </trkpt>
      <trkpt lat="45.84001" lon="4.66235">
        <ele>265.68445</ele>
        <time>2023-06-19T16:20:27.000Z</time>
      </trkpt>
      <trkpt lat="45.83997" lon="4.66237">
        <ele>265.80768</ele>
        <time>2023-06-19T16:20:28.000Z</time>
      </trkpt>
      <trkpt lat="45.83994" lon="4.66239">
        <ele>265.95215</ele>
        <time>2023-06-19T16:20:29.000Z</time>
      </trkpt>
      <trkpt lat="45.83991" lon="4.6624">
        <ele>266.15741</ele>
        <time>2023-06-19T16:20:30.000Z</time>
      </trkpt>
      <trkpt lat="45.83988" lon="4.66242">
        <ele>266.42468</ele>
        <time>2023-06-19T16:20:31.000Z</time>
      </trkpt>
      <trkpt lat="45.83986" lon="4.66244">
        <ele>266.71405</ele>
        <time>2023-06-19T16:20:33.000Z</time>
      </trkpt>
      <trkpt lat="45.83988" lon="4.66248">
        <ele>266.85721</ele>
        <time>2023-06-19T16:21:41.000Z</time>
      </trkpt>
      <trkpt lat="45.83989" lon="4.66251">
        <ele>266.95831</ele>
        <time>2023-06-19T16:21:42.000Z</time>
      </trkpt>
      <trkpt lat="45.83991" lon="4.66254">
        <ele>267.05795</ele>
        <time>2023-06-19T16:21:43.000Z</time>
      </trkpt>
      <trkpt lat="45.83994" lon="4.66257">
        <ele>267.18378</ele>
        <time>2023-06-19T16:21:44.000Z</time>
      </trkpt>
      <trkpt lat="45.83996" lon="4.6626">
        <ele>267.27716</ele>
        <time>2023-06-19T16:21:45.000Z</time>
      </trkpt>
      <trkpt lat="45.83999" lon="4.66263">
        <ele>267.35855</ele>
        <time>2023-06-19T16:21:46.000Z</time>
      </trkpt>
      <trkpt lat="45.84002" lon="4.66266">
        <ele>267.47021</ele>
        <time>2023-06-19T16:21:47.000Z</time>
      </trkpt>
      <trkpt lat="45.84005" lon="4.6627">
        <ele>267.55414</ele>
        <time>2023-06-19T16:21:48.000Z</time>
      </trkpt>
      <trkpt lat="45.84007" lon="4.66274">
        <ele>267.66974</ele>
        <time>2023-06-19T16:21:49.000Z</time>
      </trkpt>
      <trkpt lat="45.84008" lon="4.66277">
        <ele>267.74713</ele>
        <time>2023-06-19T16:21:50.000Z</time>
      </trkpt>
      <trkpt lat="45.84008" lon="4.6628">
        <ele>267.80328</ele>
        <time>2023-06-19T16:21:52.000Z</time>
      </trkpt>
      <trkpt lat="45.84007" lon="4.66283">
        <ele>267.88129</ele>
        <time>2023-06-19T16:21:57.000Z</time>
      </trkpt>
      <trkpt lat="45.84007" lon="4.66286">
        <ele>267.93945</ele>
        <time>2023-06-19T16:22:12.000Z</time>
      </trkpt>
      <trkpt lat="45.84007" lon="4.66288">
        <ele>268.02518</ele>
        <time>2023-06-19T16:22:14.000Z</time>
      </trkpt>
      <trkpt lat="45.84006" lon="4.66294">
        <ele>268.04239</ele>
        <time>2023-06-19T16:22:32.000Z</time>
      </trkpt>
      <trkpt lat="45.84006" lon="4.66298">
        <ele>268.01645</ele>
        <time>2023-06-19T16:22:33.000Z</time>
      </trkpt>
      <trkpt lat="45.84005" lon="4.66303">
        <ele>267.9826</ele>
        <time>2023-06-19T16:22:34.000Z</time>
      </trkpt>
      <trkpt lat="45.84004" lon="4.66309">
        <ele>267.96201</ele>
        <time>2023-06-19T16:22:35.000Z</time>
      </trkpt>
      <trkpt lat="45.84002" lon="4.66317">
        <ele>267.91248</ele>
        <time>2023-06-19T16:22:36.000Z</time>
      </trkpt>
      <trkpt lat="45.84001" lon="4.66325">
        <ele>267.83313</ele>
        <time>2023-06-19T16:22:37.000Z</time>
      </trkpt>
      <trkpt lat="45.84001" lon="4.66333">
        <ele>267.88177</ele>
        <time>2023-06-19T16:22:38.000Z</time>
      </trkpt>
      <trkpt lat="45.84" lon="4.6634">
        <ele>267.9201</ele>
        <time>2023-06-19T16:22:39.000Z</time>
      </trkpt>
      <trkpt lat="45.84" lon="4.6635">
        <ele>267.90439</ele>
        <time>2023-06-19T16:22:40.000Z</time>
      </trkpt>
      <trkpt lat="45.83998" lon="4.6636">
        <ele>267.84735</ele>
        <time>2023-06-19T16:22:41.000Z</time>
      </trkpt>
      <trkpt lat="45.83997" lon="4.66371">
        <ele>267.87259</ele>
        <time>2023-06-19T16:22:42.000Z</time>
      </trkpt>
      <trkpt lat="45.83997" lon="4.66382">
        <ele>267.68793</ele>
        <time>2023-06-19T16:22:43.000Z</time>
      </trkpt>
      <trkpt lat="45.83997" lon="4.66393">
        <ele>267.63794</ele>
        <time>2023-06-19T16:22:44.000Z</time>
      </trkpt>
      <trkpt lat="45.83997" lon="4.66406">
        <ele>267.66162</ele>
        <time>2023-06-19T16:22:45.000Z</time>
      </trkpt>
      <trkpt lat="45.83999" lon="4.66416">
        <ele>267.63458</ele>
        <time>2023-06-19T16:22:46.000Z</time>
      </trkpt>
      <trkpt lat="45.84003" lon="4.66425">
        <ele>267.55865</ele>
        <time>2023-06-19T16:22:47.000Z</time>
      </trkpt>
      <trkpt lat="45.84007" lon="4.66434">
        <ele>267.4744</ele>
        <time>2023-06-19T16:22:48.000Z</time>
      </trkpt>
      <trkpt lat="45.84008" lon="4.6644">
        <ele>267.45575</ele>
        <time>2023-06-19T16:22:49.000Z</time>
      </trkpt>
      <trkpt lat="45.84009" lon="4.66447">
        <ele>267.44806</ele>
        <time>2023-06-19T16:22:50.000Z</time>
      </trkpt>
      <trkpt lat="45.84008" lon="4.66453">
        <ele>267.31967</ele>
        <time>2023-06-19T16:22:51.000Z</time>
      </trkpt>
      <trkpt lat="45.84007" lon="4.66457">
        <ele>267.2218</ele>
        <time>2023-06-19T16:22:52.000Z</time>
      </trkpt>
      <trkpt lat="45.84004" lon="4.66461">
        <ele>267.09564</ele>
        <time>2023-06-19T16:22:53.000Z</time>
      </trkpt>
      <trkpt lat="45.84001" lon="4.66465">
        <ele>266.90222</ele>
        <time>2023-06-19T16:22:54.000Z</time>
      </trkpt>
      <trkpt lat="45.83998" lon="4.66469">
        <ele>266.85187</ele>
        <time>2023-06-19T16:22:55.000Z</time>
      </trkpt>
      <trkpt lat="45.83994" lon="4.66472">
        <ele>266.88098</ele>
        <time>2023-06-19T16:22:56.000Z</time>
      </trkpt>
      <trkpt lat="45.8399" lon="4.66476">
        <ele>266.66266</ele>
        <time>2023-06-19T16:22:57.000Z</time>
      </trkpt>
      <trkpt lat="45.83986" lon="4.66479">
        <ele>266.49359</ele>
        <time>2023-06-19T16:22:58.000Z</time>
      </trkpt>
      <trkpt lat="45.83982" lon="4.66482">
        <ele>266.32245</ele>
        <time>2023-06-19T16:22:59.000Z</time>
      </trkpt>
      <trkpt lat="45.83978" lon="4.66485">
        <ele>266.1806</ele>
        <time>2023-06-19T16:23:00.000Z</time>
      </trkpt>
      <trkpt lat="45.83974" lon="4.66487">
        <ele>266.00546</ele>
        <time>2023-06-19T16:23:01.000Z</time>
      </trkpt>
      <trkpt lat="45.8397" lon="4.6649">
        <ele>265.73813</ele>
        <time>2023-06-19T16:23:02.000Z</time>
      </trkpt>
      <trkpt lat="45.83965" lon="4.66494">
        <ele>265.63382</ele>
        <time>2023-06-19T16:23:03.000Z</time>
      </trkpt>
      <trkpt lat="45.8396" lon="4.66496">
        <ele>265.34076</ele>
        <time>2023-06-19T16:23:04.000Z</time>
      </trkpt>
      <trkpt lat="45.83955" lon="4.66498">
        <ele>265.10712</ele>
        <time>2023-06-19T16:23:05.000Z</time>
      </trkpt>
      <trkpt lat="45.83951" lon="4.66501">
        <ele>264.88046</ele>
        <time>2023-06-19T16:23:06.000Z</time>
      </trkpt>
      <trkpt lat="45.83947" lon="4.66502">
        <ele>264.72101</ele>
        <time>2023-06-19T16:23:07.000Z</time>
      </trkpt>
      <trkpt lat="45.83943" lon="4.66503">
        <ele>264.58676</ele>
        <time>2023-06-19T16:23:08.000Z</time>
      </trkpt>
      <trkpt lat="45.83941" lon="4.66504">
        <ele>264.53214</ele>
        <time>2023-06-19T16:23:09.000Z</time>
      </trkpt>
      <trkpt lat="45.83938" lon="4.66504">
        <ele>264.56827</ele>
        <time>2023-06-19T16:23:10.000Z</time>
      </trkpt>
      <trkpt lat="45.83936" lon="4.66503">
        <ele>264.43124</ele>
        <time>2023-06-19T16:23:11.000Z</time>
      </trkpt>
      <trkpt lat="45.83934" lon="4.66502">
        <ele>264.4223</ele>
        <time>2023-06-19T16:23:12.000Z</time>
      </trkpt>
      <trkpt lat="45.83933" lon="4.66504">
        <ele>264.27167</ele>
        <time>2023-06-19T16:23:26.000Z</time>
      </trkpt>
      <trkpt lat="45.8393" lon="4.66505">
        <ele>264.14026</ele>
        <time>2023-06-19T16:23:42.000Z</time>
      </trkpt>
      <trkpt lat="45.83928" lon="4.66505">
        <ele>263.84634</ele>
        <time>2023-06-19T16:23:43.000Z</time>
      </trkpt>
      <trkpt lat="45.83926" lon="4.66505">
        <ele>263.48996</ele>
        <time>2023-06-19T16:23:44.000Z</time>
      </trkpt>
      <trkpt lat="45.83923" lon="4.66504">
        <ele>263.44754</ele>
        <time>2023-06-19T16:23:45.000Z</time>
      </trkpt>
      <trkpt lat="45.8392" lon="4.66504">
        <ele>263.39407</ele>
        <time>2023-06-19T16:23:46.000Z</time>
      </trkpt>
      <trkpt lat="45.83917" lon="4.66505">
        <ele>263.31082</ele>
        <time>2023-06-19T16:23:47.000Z</time>
      </trkpt>
      <trkpt lat="45.83914" lon="4.66506">
        <ele>263.25916</ele>
        <time>2023-06-19T16:23:48.000Z</time>
      </trkpt>
      <trkpt lat="45.83911" lon="4.66506">
        <ele>263.24112</ele>
        <time>2023-06-19T16:23:49.000Z</time>
      </trkpt>
      <trkpt lat="45.83907" lon="4.66507">
        <ele>263.23859</ele>
        <time>2023-06-19T16:23:50.000Z</time>
      </trkpt>
      <trkpt lat="45.83904" lon="4.66508">
        <ele>263.22034</ele>
        <time>2023-06-19T16:23:51.000Z</time>
      </trkpt>
      <trkpt lat="45.83901" lon="4.66508">
        <ele>263.28143</ele>
        <time>2023-06-19T16:23:52.000Z</time>
      </trkpt>
      <trkpt lat="45.83898" lon="4.66509">
        <ele>263.40057</ele>
        <time>2023-06-19T16:23:53.000Z</time>
      </trkpt>
      <trkpt lat="45.83895" lon="4.66511">
        <ele>263.51483</ele>
        <time>2023-06-19T16:23:54.000Z</time>
      </trkpt>
      <trkpt lat="45.83891" lon="4.66512">
        <ele>263.62067</ele>
        <time>2023-06-19T16:23:55.000Z</time>
      </trkpt>
      <trkpt lat="45.83888" lon="4.66514">
        <ele>263.66193</ele>
        <time>2023-06-19T16:23:56.000Z</time>
      </trkpt>
      <trkpt lat="45.83885" lon="4.66517">
        <ele>263.49216</ele>
        <time>2023-06-19T16:23:57.000Z</time>
      </trkpt>
      <trkpt lat="45.83883" lon="4.6652">
        <ele>263.40359</ele>
        <time>2023-06-19T16:23:58.000Z</time>
      </trkpt>
      <trkpt lat="45.83881" lon="4.66524">
        <ele>263.13455</ele>
        <time>2023-06-19T16:23:59.000Z</time>
      </trkpt>
      <trkpt lat="45.83879" lon="4.66529">
        <ele>262.79276</ele>
        <time>2023-06-19T16:24:00.000Z</time>
      </trkpt>
      <trkpt lat="45.83877" lon="4.66533">
        <ele>262.51068</ele>
        <time>2023-06-19T16:24:01.000Z</time>
      </trkpt>
      <trkpt lat="45.83875" lon="4.66537">
        <ele>262.2868</ele>
        <time>2023-06-19T16:24:02.000Z</time>
      </trkpt>
      <trkpt lat="45.83874" lon="4.6654">
        <ele>262.15552</ele>
        <time>2023-06-19T16:24:03.000Z</time>
      </trkpt>
      <trkpt lat="45.83872" lon="4.66544">
        <ele>262.19983</ele>
        <time>2023-06-19T16:24:04.000Z</time>
      </trkpt>
      <trkpt lat="45.83871" lon="4.66548">
        <ele>262.12445</ele>
        <time>2023-06-19T16:24:05.000Z</time>
      </trkpt>
      <trkpt lat="45.83869" lon="4.66553">
        <ele>262.02014</ele>
        <time>2023-06-19T16:24:06.000Z</time>
      </trkpt>
      <trkpt lat="45.83868" lon="4.66557">
        <ele>261.88467</ele>
        <time>2023-06-19T16:24:07.000Z</time>
      </trkpt>
      <trkpt lat="45.83867" lon="4.66559">
        <ele>261.69778</ele>
        <time>2023-06-19T16:24:08.000Z</time>
      </trkpt>
      <trkpt lat="45.83866" lon="4.66561">
        <ele>261.3815</ele>
        <time>2023-06-19T16:24:13.000Z</time>
      </trkpt>
      <trkpt lat="45.83863" lon="4.6656">
        <ele>261.0452</ele>
        <time>2023-06-19T16:24:56.000Z</time>
      </trkpt>
      <trkpt lat="45.83861" lon="4.66561">
        <ele>260.88068</ele>
        <time>2023-06-19T16:24:57.000Z</time>
      </trkpt>
      <trkpt lat="45.83858" lon="4.66562">
        <ele>260.74371</ele>
        <time>2023-06-19T16:24:58.000Z</time>
      </trkpt>
      <trkpt lat="45.83855" lon="4.66564">
        <ele>260.56049</ele>
        <time>2023-06-19T16:24:59.000Z</time>
      </trkpt>
      <trkpt lat="45.83852" lon="4.66566">
        <ele>260.44022</ele>
        <time>2023-06-19T16:25:00.000Z</time>
      </trkpt>
      <trkpt lat="45.83848" lon="4.66568">
        <ele>259.90204</ele>
        <time>2023-06-19T16:25:01.000Z</time>
      </trkpt>
      <trkpt lat="45.83844" lon="4.6657">
        <ele>259.4697</ele>
        <time>2023-06-19T16:25:02.000Z</time>
      </trkpt>
      <trkpt lat="45.8384" lon="4.66571">
        <ele>259.15237</ele>
        <time>2023-06-19T16:25:03.000Z</time>
      </trkpt>
      <trkpt lat="45.83832" lon="4.66573">
        <ele>258.65164</ele>
        <time>2023-06-19T16:25:04.000Z</time>
      </trkpt>
      <trkpt lat="45.83828" lon="4.66577">
        <ele>258.52939</ele>
        <time>2023-06-19T16:25:05.000Z</time>
      </trkpt>
      <trkpt lat="45.83824" lon="4.66579">
        <ele>258.42914</ele>
        <time>2023-06-19T16:25:06.000Z</time>
      </trkpt>
      <trkpt lat="45.83817" lon="4.6658">
        <ele>258.4957</ele>
        <time>2023-06-19T16:25:07.000Z</time>
      </trkpt>
      <trkpt lat="45.83812" lon="4.6658">
        <ele>258.51636</ele>
        <time>2023-06-19T16:25:08.000Z</time>
      </trkpt>
      <trkpt lat="45.83807" lon="4.66582">
        <ele>258.35123</ele>
        <time>2023-06-19T16:25:09.000Z</time>
      </trkpt>
      <trkpt lat="45.83801" lon="4.66584">
        <ele>257.96875</ele>
        <time>2023-06-19T16:25:10.000Z</time>
      </trkpt>
      <trkpt lat="45.83797" lon="4.66585">
        <ele>257.57913</ele>
        <time>2023-06-19T16:25:11.000Z</time>
      </trkpt>
      <trkpt lat="45.83794" lon="4.66586">
        <ele>257.17102</ele>
        <time>2023-06-19T16:25:12.000Z</time>
      </trkpt>
      <trkpt lat="45.83789" lon="4.66587">
        <ele>256.87045</ele>
        <time>2023-06-19T16:25:13.000Z</time>
      </trkpt>
      <trkpt lat="45.83787" lon="4.6659">
        <ele>256.66003</ele>
        <time>2023-06-19T16:25:14.000Z</time>
      </trkpt>
      <trkpt lat="45.83783" lon="4.66594">
        <ele>256.6936</ele>
        <time>2023-06-19T16:25:15.000Z</time>
      </trkpt>
      <trkpt lat="45.8378" lon="4.66597">
        <ele>256.6745</ele>
        <time>2023-06-19T16:25:16.000Z</time>
      </trkpt>
      <trkpt lat="45.83778" lon="4.666">
        <ele>256.55707</ele>
        <time>2023-06-19T16:25:17.000Z</time>
      </trkpt>
      <trkpt lat="45.83777" lon="4.66605">
        <ele>256.42047</ele>
        <time>2023-06-19T16:25:18.000Z</time>
      </trkpt>
      <trkpt lat="45.83776" lon="4.6661">
        <ele>256.2099</ele>
        <time>2023-06-19T16:25:19.000Z</time>
      </trkpt>
      <trkpt lat="45.83776" lon="4.66616">
        <ele>255.94864</ele>
        <time>2023-06-19T16:25:20.000Z</time>
      </trkpt>
      <trkpt lat="45.83776" lon="4.66621">
        <ele>256.22604</ele>
        <time>2023-06-19T16:25:21.000Z</time>
      </trkpt>
      <trkpt lat="45.83778" lon="4.66626">
        <ele>256.56161</ele>
        <time>2023-06-19T16:25:22.000Z</time>
      </trkpt>
      <trkpt lat="45.83781" lon="4.6663">
        <ele>256.81604</ele>
        <time>2023-06-19T16:25:23.000Z</time>
      </trkpt>
      <trkpt lat="45.83785" lon="4.66633">
        <ele>257.11444</ele>
        <time>2023-06-19T16:25:24.000Z</time>
      </trkpt>
      <trkpt lat="45.83789" lon="4.66635">
        <ele>257.49954</ele>
        <time>2023-06-19T16:25:25.000Z</time>
      </trkpt>
      <trkpt lat="45.83792" lon="4.66637">
        <ele>257.73151</ele>
        <time>2023-06-19T16:25:26.000Z</time>
      </trkpt>
      <trkpt lat="45.83796" lon="4.6664">
        <ele>257.86325</ele>
        <time>2023-06-19T16:25:27.000Z</time>
      </trkpt>
      <trkpt lat="45.83799" lon="4.66642">
        <ele>258.07153</ele>
        <time>2023-06-19T16:25:28.000Z</time>
      </trkpt>
      <trkpt lat="45.83803" lon="4.66645">
        <ele>258.39722</ele>
        <time>2023-06-19T16:25:29.000Z</time>
      </trkpt>
      <trkpt lat="45.83807" lon="4.66648">
        <ele>258.86551</ele>
        <time>2023-06-19T16:25:30.000Z</time>
      </trkpt>
      <trkpt lat="45.8381" lon="4.6665">
        <ele>259.47156</ele>
        <time>2023-06-19T16:25:31.000Z</time>
      </trkpt>
      <trkpt lat="45.83814" lon="4.66653">
        <ele>260.08786</ele>
        <time>2023-06-19T16:25:32.000Z</time>
      </trkpt>
      <trkpt lat="45.83817" lon="4.66655">
        <ele>260.65512</ele>
        <time>2023-06-19T16:25:33.000Z</time>
      </trkpt>
      <trkpt lat="45.8382" lon="4.66658">
        <ele>261.25876</ele>
        <time>2023-06-19T16:25:34.000Z</time>
      </trkpt>
      <trkpt lat="45.83824" lon="4.6666">
        <ele>261.65927</ele>
        <time>2023-06-19T16:25:35.000Z</time>
      </trkpt>
      <trkpt lat="45.83828" lon="4.66663">
        <ele>262.16473</ele>
        <time>2023-06-19T16:25:36.000Z</time>
      </trkpt>
      <trkpt lat="45.83831" lon="4.66666">
        <ele>262.6424</ele>
        <time>2023-06-19T16:25:37.000Z</time>
      </trkpt>
      <trkpt lat="45.83835" lon="4.6667">
        <ele>263.039</ele>
        <time>2023-06-19T16:25:38.000Z</time>
      </trkpt>
      <trkpt lat="45.83838" lon="4.66673">
        <ele>263.4021</ele>
        <time>2023-06-19T16:25:39.000Z</time>
      </trkpt>
      <trkpt lat="45.83842" lon="4.66676">
        <ele>263.77087</ele>
        <time>2023-06-19T16:25:40.000Z</time>
      </trkpt>
      <trkpt lat="45.83845" lon="4.66679">
        <ele>263.98837</ele>
        <time>2023-06-19T16:25:41.000Z</time>
      </trkpt>
      <trkpt lat="45.83849" lon="4.66683">
        <ele>264.1153</ele>
        <time>2023-06-19T16:25:42.000Z</time>
      </trkpt>
      <trkpt lat="45.83853" lon="4.66686">
        <ele>264.25693</ele>
        <time>2023-06-19T16:25:43.000Z</time>
      </trkpt>
      <trkpt lat="45.83856" lon="4.66688">
        <ele>264.39792</ele>
        <time>2023-06-19T16:25:44.000Z</time>
      </trkpt>
      <trkpt lat="45.8386" lon="4.66691">
        <ele>264.54315</ele>
        <time>2023-06-19T16:25:45.000Z</time>
      </trkpt>
      <trkpt lat="45.83864" lon="4.66694">
        <ele>264.81335</ele>
        <time>2023-06-19T16:25:46.000Z</time>
      </trkpt>
      <trkpt lat="45.83867" lon="4.66698">
        <ele>265.11926</ele>
        <time>2023-06-19T16:25:47.000Z</time>
      </trkpt>
      <trkpt lat="45.83871" lon="4.66701">
        <ele>265.4404</ele>
        <time>2023-06-19T16:25:48.000Z</time>
      </trkpt>
      <trkpt lat="45.83874" lon="4.66705">
        <ele>265.61322</ele>
        <time>2023-06-19T16:25:49.000Z</time>
      </trkpt>
      <trkpt lat="45.83877" lon="4.66709">
        <ele>265.73541</ele>
        <time>2023-06-19T16:25:50.000Z</time>
      </trkpt>
      <trkpt lat="45.8388" lon="4.66714">
        <ele>265.79959</ele>
        <time>2023-06-19T16:25:51.000Z</time>
      </trkpt>
      <trkpt lat="45.83883" lon="4.66718">
        <ele>265.90103</ele>
        <time>2023-06-19T16:25:52.000Z</time>
      </trkpt>
      <trkpt lat="45.83886" lon="4.66722">
        <ele>266.04755</ele>
        <time>2023-06-19T16:25:53.000Z</time>
      </trkpt>
      <trkpt lat="45.83889" lon="4.66727">
        <ele>266.13016</ele>
        <time>2023-06-19T16:25:54.000Z</time>
      </trkpt>
      <trkpt lat="45.83891" lon="4.66732">
        <ele>266.37463</ele>
        <time>2023-06-19T16:25:55.000Z</time>
      </trkpt>
      <trkpt lat="45.83893" lon="4.66737">
        <ele>266.61172</ele>
        <time>2023-06-19T16:25:56.000Z</time>
      </trkpt>
      <trkpt lat="45.83895" lon="4.66741">
        <ele>266.87418</ele>
        <time>2023-06-19T16:25:57.000Z</time>
      </trkpt>
      <trkpt lat="45.83897" lon="4.66746">
        <ele>267.18085</ele>
        <time>2023-06-19T16:25:58.000Z</time>
      </trkpt>
      <trkpt lat="45.83898" lon="4.66751">
        <ele>267.49905</ele>
        <time>2023-06-19T16:25:59.000Z</time>
      </trkpt>
      <trkpt lat="45.839" lon="4.66757">
        <ele>267.84216</ele>
        <time>2023-06-19T16:26:00.000Z</time>
      </trkpt>
      <trkpt lat="45.83901" lon="4.66762">
        <ele>268.24884</ele>
        <time>2023-06-19T16:26:01.000Z</time>
      </trkpt>
      <trkpt lat="45.83902" lon="4.66768">
        <ele>268.65002</ele>
        <time>2023-06-19T16:26:02.000Z</time>
      </trkpt>
      <trkpt lat="45.83903" lon="4.66773">
        <ele>268.96881</ele>
        <time>2023-06-19T16:26:03.000Z</time>
      </trkpt>
      <trkpt lat="45.83904" lon="4.66779">
        <ele>269.29272</ele>
        <time>2023-06-19T16:26:04.000Z</time>
      </trkpt>
      <trkpt lat="45.83905" lon="4.66785">
        <ele>269.60266</ele>
        <time>2023-06-19T16:26:05.000Z</time>
      </trkpt>
      <trkpt lat="45.83907" lon="4.66791">
        <ele>269.89111</ele>
        <time>2023-06-19T16:26:06.000Z</time>
      </trkpt>
      <trkpt lat="45.83909" lon="4.66797">
        <ele>270.16376</ele>
        <time>2023-06-19T16:26:07.000Z</time>
      </trkpt>
      <trkpt lat="45.8391" lon="4.66802">
        <ele>270.35809</ele>
        <time>2023-06-19T16:26:08.000Z</time>
      </trkpt>
      <trkpt lat="45.83911" lon="4.66808">
        <ele>270.71161</ele>
        <time>2023-06-19T16:26:09.000Z</time>
      </trkpt>
      <trkpt lat="45.83911" lon="4.66814">
        <ele>271.02682</ele>
        <time>2023-06-19T16:26:10.000Z</time>
      </trkpt>
      <trkpt lat="45.83912" lon="4.66819">
        <ele>271.34821</ele>
        <time>2023-06-19T16:26:11.000Z</time>
      </trkpt>
      <trkpt lat="45.83913" lon="4.66824">
        <ele>271.6839</ele>
        <time>2023-06-19T16:26:12.000Z</time>
      </trkpt>
      <trkpt lat="45.83913" lon="4.6683">
        <ele>272.0376</ele>
        <time>2023-06-19T16:26:13.000Z</time>
      </trkpt>
      <trkpt lat="45.83915" lon="4.66837">
        <ele>272.40134</ele>
        <time>2023-06-19T16:26:14.000Z</time>
      </trkpt>
      <trkpt lat="45.83916" lon="4.66842">
        <ele>272.69315</ele>
        <time>2023-06-19T16:26:15.000Z</time>
      </trkpt>
      <trkpt lat="45.83916" lon="4.66848">
        <ele>273.26779</ele>
        <time>2023-06-19T16:26:16.000Z</time>
      </trkpt>
      <trkpt lat="45.83917" lon="4.66854">
        <ele>273.69952</ele>
        <time>2023-06-19T16:26:17.000Z</time>
      </trkpt>
      <trkpt lat="45.83918" lon="4.66859">
        <ele>274.15216</ele>
        <time>2023-06-19T16:26:18.000Z</time>
      </trkpt>
      <trkpt lat="45.83918" lon="4.66865">
        <ele>274.5932</ele>
        <time>2023-06-19T16:26:19.000Z</time>
      </trkpt>
      <trkpt lat="45.83919" lon="4.6687">
        <ele>274.80267</ele>
        <time>2023-06-19T16:26:20.000Z</time>
      </trkpt>
      <trkpt lat="45.83919" lon="4.66876">
        <ele>274.95575</ele>
        <time>2023-06-19T16:26:21.000Z</time>
      </trkpt>
      <trkpt lat="45.8392" lon="4.66881">
        <ele>275.07895</ele>
        <time>2023-06-19T16:26:22.000Z</time>
      </trkpt>
      <trkpt lat="45.8392" lon="4.66887">
        <ele>275.26764</ele>
        <time>2023-06-19T16:26:23.000Z</time>
      </trkpt>
      <trkpt lat="45.83921" lon="4.66892">
        <ele>275.45212</ele>
        <time>2023-06-19T16:26:24.000Z</time>
      </trkpt>
      <trkpt lat="45.83921" lon="4.66897">
        <ele>275.91064</ele>
        <time>2023-06-19T16:26:25.000Z</time>
      </trkpt>
      <trkpt lat="45.83922" lon="4.66903">
        <ele>276.01102</ele>
        <time>2023-06-19T16:26:26.000Z</time>
      </trkpt>
      <trkpt lat="45.83922" lon="4.66908">
        <ele>276.15509</ele>
        <time>2023-06-19T16:26:27.000Z</time>
      </trkpt>
      <trkpt lat="45.83923" lon="4.66914">
        <ele>276.50604</ele>
        <time>2023-06-19T16:26:28.000Z</time>
      </trkpt>
      <trkpt lat="45.83923" lon="4.66919">
        <ele>276.81485</ele>
        <time>2023-06-19T16:26:29.000Z</time>
      </trkpt>
      <trkpt lat="45.83924" lon="4.66925">
        <ele>277.07257</ele>
        <time>2023-06-19T16:26:30.000Z</time>
      </trkpt>
      <trkpt lat="45.83924" lon="4.6693">
        <ele>277.32477</ele>
        <time>2023-06-19T16:26:31.000Z</time>
      </trkpt>
      <trkpt lat="45.83925" lon="4.66935">
        <ele>277.55853</ele>
        <time>2023-06-19T16:26:32.000Z</time>
      </trkpt>
      <trkpt lat="45.83926" lon="4.66941">
        <ele>277.75742</ele>
        <time>2023-06-19T16:26:33.000Z</time>
      </trkpt>
      <trkpt lat="45.83926" lon="4.66946">
        <ele>277.92081</ele>
        <time>2023-06-19T16:26:34.000Z</time>
      </trkpt>
      <trkpt lat="45.83927" lon="4.66951">
        <ele>278.10202</ele>
        <time>2023-06-19T16:26:35.000Z</time>
      </trkpt>
      <trkpt lat="45.83928" lon="4.66957">
        <ele>277.98746</ele>
        <time>2023-06-19T16:26:36.000Z</time>
      </trkpt>
      <trkpt lat="45.83929" lon="4.66962">
        <ele>278.00922</ele>
        <time>2023-06-19T16:26:37.000Z</time>
      </trkpt>
      <trkpt lat="45.83929" lon="4.66967">
        <ele>278.00558</ele>
        <time>2023-06-19T16:26:38.000Z</time>
      </trkpt>
      <trkpt lat="45.8393" lon="4.66973">
        <ele>277.97961</ele>
        <time>2023-06-19T16:26:39.000Z</time>
      </trkpt>
      <trkpt lat="45.83931" lon="4.66978">
        <ele>278.18268</ele>
        <time>2023-06-19T16:26:40.000Z</time>
      </trkpt>
      <trkpt lat="45.83931" lon="4.66984">
        <ele>278.42926</ele>
        <time>2023-06-19T16:26:41.000Z</time>
      </trkpt>
      <trkpt lat="45.83931" lon="4.66989">
        <ele>278.71899</ele>
        <time>2023-06-19T16:26:42.000Z</time>
      </trkpt>
      <trkpt lat="45.83931" lon="4.66995">
        <ele>278.78525</ele>
        <time>2023-06-19T16:26:43.000Z</time>
      </trkpt>
      <trkpt lat="45.83931" lon="4.66998">
        <ele>278.83282</ele>
        <time>2023-06-19T16:26:44.000Z</time>
      </trkpt>
      <trkpt lat="45.83932" lon="4.67003">
        <ele>278.62534</ele>
        <time>2023-06-19T16:26:46.000Z</time>
      </trkpt>
      <trkpt lat="45.83933" lon="4.67006">
        <ele>278.76236</ele>
        <time>2023-06-19T16:26:47.000Z</time>
      </trkpt>
      <trkpt lat="45.83934" lon="4.67009">
        <ele>279.08591</ele>
        <time>2023-06-19T16:26:48.000Z</time>
      </trkpt>
      <trkpt lat="45.83933" lon="4.67012">
        <ele>279.22195</ele>
        <time>2023-06-19T16:26:49.000Z</time>
      </trkpt>
      <trkpt lat="45.8393" lon="4.67014">
        <ele>279.38135</ele>
        <time>2023-06-19T16:26:50.000Z</time>
      </trkpt>
      <trkpt lat="45.83927" lon="4.67014">
        <ele>279.36252</ele>
        <time>2023-06-19T16:26:51.000Z</time>
      </trkpt>
      <trkpt lat="45.83924" lon="4.67013">
        <ele>279.35864</ele>
        <time>2023-06-19T16:26:52.000Z</time>
      </trkpt>
      <trkpt lat="45.8392" lon="4.67012">
        <ele>279.35077</ele>
        <time>2023-06-19T16:26:53.000Z</time>
      </trkpt>
      <trkpt lat="45.83917" lon="4.6701">
        <ele>279.3443</ele>
        <time>2023-06-19T16:26:54.000Z</time>
      </trkpt>
      <trkpt lat="45.83913" lon="4.67008">
        <ele>279.34064</ele>
        <time>2023-06-19T16:26:55.000Z</time>
      </trkpt>
      <trkpt lat="45.83909" lon="4.67006">
        <ele>279.31946</ele>
        <time>2023-06-19T16:26:56.000Z</time>
      </trkpt>
      <trkpt lat="45.83906" lon="4.67005">
        <ele>279.27658</ele>
        <time>2023-06-19T16:26:57.000Z</time>
      </trkpt>
      <trkpt lat="45.83902" lon="4.67004">
        <ele>279.20175</ele>
        <time>2023-06-19T16:26:58.000Z</time>
      </trkpt>
      <trkpt lat="45.83898" lon="4.67003">
        <ele>279.11929</ele>
        <time>2023-06-19T16:26:59.000Z</time>
      </trkpt>
      <trkpt lat="45.83895" lon="4.67001">
        <ele>279.06006</ele>
        <time>2023-06-19T16:27:00.000Z</time>
      </trkpt>
      <trkpt lat="45.83891" lon="4.67">
        <ele>278.98935</ele>
        <time>2023-06-19T16:27:01.000Z</time>
      </trkpt>
      <trkpt lat="45.83887" lon="4.66999">
        <ele>279.16211</ele>
        <time>2023-06-19T16:27:02.000Z</time>
      </trkpt>
      <trkpt lat="45.83884" lon="4.66998">
        <ele>279.30789</ele>
        <time>2023-06-19T16:27:03.000Z</time>
      </trkpt>
      <trkpt lat="45.8388" lon="4.66997">
        <ele>279.67688</ele>
        <time>2023-06-19T16:27:04.000Z</time>
      </trkpt>
      <trkpt lat="45.83876" lon="4.66996">
        <ele>280.03699</ele>
        <time>2023-06-19T16:27:05.000Z</time>
      </trkpt>
      <trkpt lat="45.83873" lon="4.66995">
        <ele>280.37531</ele>
        <time>2023-06-19T16:27:06.000Z</time>
      </trkpt>
      <trkpt lat="45.83869" lon="4.66994">
        <ele>280.72812</ele>
        <time>2023-06-19T16:27:07.000Z</time>
      </trkpt>
      <trkpt lat="45.83865" lon="4.66992">
        <ele>280.86893</ele>
        <time>2023-06-19T16:27:08.000Z</time>
      </trkpt>
      <trkpt lat="45.83861" lon="4.66991">
        <ele>281.0202</ele>
        <time>2023-06-19T16:27:09.000Z</time>
      </trkpt>
      <trkpt lat="45.83857" lon="4.6699">
        <ele>281.17831</ele>
        <time>2023-06-19T16:27:10.000Z</time>
      </trkpt>
      <trkpt lat="45.83853" lon="4.66989">
        <ele>281.56247</ele>
        <time>2023-06-19T16:27:11.000Z</time>
      </trkpt>
      <trkpt lat="45.8385" lon="4.66988">
        <ele>281.92621</ele>
        <time>2023-06-19T16:27:12.000Z</time>
      </trkpt>
      <trkpt lat="45.83846" lon="4.66987">
        <ele>282.28717</ele>
        <time>2023-06-19T16:27:13.000Z</time>
      </trkpt>
      <trkpt lat="45.83842" lon="4.66986">
        <ele>282.65723</ele>
        <time>2023-06-19T16:27:14.000Z</time>
      </trkpt>
      <trkpt lat="45.83838" lon="4.66985">
        <ele>283.04553</ele>
        <time>2023-06-19T16:27:15.000Z</time>
      </trkpt>
      <trkpt lat="45.83835" lon="4.66985">
        <ele>283.41977</ele>
        <time>2023-06-19T16:27:16.000Z</time>
      </trkpt>
      <trkpt lat="45.83831" lon="4.66984">
        <ele>283.84357</ele>
        <time>2023-06-19T16:27:17.000Z</time>
      </trkpt>
      <trkpt lat="45.83827" lon="4.66984">
        <ele>284.28918</ele>
        <time>2023-06-19T16:27:18.000Z</time>
      </trkpt>
      <trkpt lat="45.83823" lon="4.66984">
        <ele>284.74701</ele>
        <time>2023-06-19T16:27:19.000Z</time>
      </trkpt>
      <trkpt lat="45.83819" lon="4.66984">
        <ele>285.18304</ele>
        <time>2023-06-19T16:27:20.000Z</time>
      </trkpt>
      <trkpt lat="45.83815" lon="4.66983">
        <ele>285.62555</ele>
        <time>2023-06-19T16:27:21.000Z</time>
      </trkpt>
      <trkpt lat="45.83811" lon="4.66983">
        <ele>285.81158</ele>
        <time>2023-06-19T16:27:22.000Z</time>
      </trkpt>
      <trkpt lat="45.83808" lon="4.66982">
        <ele>285.98267</ele>
        <time>2023-06-19T16:27:23.000Z</time>
      </trkpt>
      <trkpt lat="45.83804" lon="4.66981">
        <ele>286.16165</ele>
        <time>2023-06-19T16:27:24.000Z</time>
      </trkpt>
      <trkpt lat="45.838" lon="4.66981">
        <ele>286.34933</ele>
        <time>2023-06-19T16:27:25.000Z</time>
      </trkpt>
      <trkpt lat="45.83796" lon="4.66981">
        <ele>286.57571</ele>
        <time>2023-06-19T16:27:26.000Z</time>
      </trkpt>
      <trkpt lat="45.83791" lon="4.66981">
        <ele>286.81979</ele>
        <time>2023-06-19T16:27:27.000Z</time>
      </trkpt>
      <trkpt lat="45.83787" lon="4.6698">
        <ele>287.04456</ele>
        <time>2023-06-19T16:27:28.000Z</time>
      </trkpt>
      <trkpt lat="45.83783" lon="4.6698">
        <ele>287.25757</ele>
        <time>2023-06-19T16:27:29.000Z</time>
      </trkpt>
      <trkpt lat="45.83779" lon="4.66979">
        <ele>287.46289</ele>
        <time>2023-06-19T16:27:30.000Z</time>
      </trkpt>
      <trkpt lat="45.83775" lon="4.66979">
        <ele>287.65811</ele>
        <time>2023-06-19T16:27:31.000Z</time>
      </trkpt>
      <trkpt lat="45.83771" lon="4.66978">
        <ele>287.87274</ele>
        <time>2023-06-19T16:27:32.000Z</time>
      </trkpt>
      <trkpt lat="45.83767" lon="4.66978">
        <ele>288.00842</ele>
        <time>2023-06-19T16:27:33.000Z</time>
      </trkpt>
      <trkpt lat="45.83763" lon="4.66978">
        <ele>288.13571</ele>
        <time>2023-06-19T16:27:34.000Z</time>
      </trkpt>
      <trkpt lat="45.83759" lon="4.66978">
        <ele>288.26129</ele>
        <time>2023-06-19T16:27:35.000Z</time>
      </trkpt>
      <trkpt lat="45.83755" lon="4.66978">
        <ele>288.41107</ele>
        <time>2023-06-19T16:27:36.000Z</time>
      </trkpt>
      <trkpt lat="45.83751" lon="4.66977">
        <ele>288.52084</ele>
        <time>2023-06-19T16:27:37.000Z</time>
      </trkpt>
      <trkpt lat="45.83747" lon="4.66976">
        <ele>288.6442</ele>
        <time>2023-06-19T16:27:38.000Z</time>
      </trkpt>
      <trkpt lat="45.83743" lon="4.66975">
        <ele>288.75269</ele>
        <time>2023-06-19T16:27:39.000Z</time>
      </trkpt>
      <trkpt lat="45.83739" lon="4.66975">
        <ele>288.87656</ele>
        <time>2023-06-19T16:27:40.000Z</time>
      </trkpt>
      <trkpt lat="45.83735" lon="4.66974">
        <ele>288.99063</ele>
        <time>2023-06-19T16:27:41.000Z</time>
      </trkpt>
      <trkpt lat="45.83731" lon="4.66974">
        <ele>289.12772</ele>
        <time>2023-06-19T16:27:42.000Z</time>
      </trkpt>
      <trkpt lat="45.83727" lon="4.66974">
        <ele>289.27756</ele>
        <time>2023-06-19T16:27:43.000Z</time>
      </trkpt>
      <trkpt lat="45.83722" lon="4.66974">
        <ele>289.40799</ele>
        <time>2023-06-19T16:27:44.000Z</time>
      </trkpt>
      <trkpt lat="45.83718" lon="4.66973">
        <ele>289.52155</ele>
        <time>2023-06-19T16:27:45.000Z</time>
      </trkpt>
      <trkpt lat="45.83714" lon="4.66973">
        <ele>289.5918</ele>
        <time>2023-06-19T16:27:46.000Z</time>
      </trkpt>
      <trkpt lat="45.83709" lon="4.66972">
        <ele>289.67462</ele>
        <time>2023-06-19T16:27:47.000Z</time>
      </trkpt>
      <trkpt lat="45.83705" lon="4.66971">
        <ele>289.79486</ele>
        <time>2023-06-19T16:27:48.000Z</time>
      </trkpt>
      <trkpt lat="45.83701" lon="4.66971">
        <ele>289.9325</ele>
        <time>2023-06-19T16:27:49.000Z</time>
      </trkpt>
      <trkpt lat="45.83696" lon="4.6697">
        <ele>289.9827</ele>
        <time>2023-06-19T16:27:50.000Z</time>
      </trkpt>
      <trkpt lat="45.83692" lon="4.6697">
        <ele>290.0459</ele>
        <time>2023-06-19T16:27:51.000Z</time>
      </trkpt>
      <trkpt lat="45.83688" lon="4.66969">
        <ele>290.09995</ele>
        <time>2023-06-19T16:27:52.000Z</time>
      </trkpt>
      <trkpt lat="45.83684" lon="4.66969">
        <ele>290.2309</ele>
        <time>2023-06-19T16:27:53.000Z</time>
      </trkpt>
      <trkpt lat="45.8368" lon="4.66968">
        <ele>290.34637</ele>
        <time>2023-06-19T16:27:54.000Z</time>
      </trkpt>
      <trkpt lat="45.83675" lon="4.66967">
        <ele>290.46771</ele>
        <time>2023-06-19T16:27:55.000Z</time>
      </trkpt>
      <trkpt lat="45.83671" lon="4.66967">
        <ele>290.59262</ele>
        <time>2023-06-19T16:27:56.000Z</time>
      </trkpt>
      <trkpt lat="45.83667" lon="4.66966">
        <ele>290.70892</ele>
        <time>2023-06-19T16:27:57.000Z</time>
      </trkpt>
      <trkpt lat="45.83663" lon="4.66965">
        <ele>290.82617</ele>
        <time>2023-06-19T16:27:58.000Z</time>
      </trkpt>
      <trkpt lat="45.83659" lon="4.66965">
        <ele>290.95093</ele>
        <time>2023-06-19T16:27:59.000Z</time>
      </trkpt>
      <trkpt lat="45.83655" lon="4.66964">
        <ele>291.06271</ele>
        <time>2023-06-19T16:28:00.000Z</time>
      </trkpt>
      <trkpt lat="45.83651" lon="4.66964">
        <ele>291.17902</ele>
        <time>2023-06-19T16:28:01.000Z</time>
      </trkpt>
      <trkpt lat="45.83646" lon="4.66963">
        <ele>291.2951</ele>
        <time>2023-06-19T16:28:02.000Z</time>
      </trkpt>
      <trkpt lat="45.83642" lon="4.66962">
        <ele>291.40375</ele>
        <time>2023-06-19T16:28:03.000Z</time>
      </trkpt>
      <trkpt lat="45.83637" lon="4.66961">
        <ele>291.52603</ele>
        <time>2023-06-19T16:28:04.000Z</time>
      </trkpt>
      <trkpt lat="45.83633" lon="4.66961">
        <ele>291.65817</ele>
        <time>2023-06-19T16:28:05.000Z</time>
      </trkpt>
      <trkpt lat="45.83628" lon="4.6696">
        <ele>291.84729</ele>
        <time>2023-06-19T16:28:06.000Z</time>
      </trkpt>
      <trkpt lat="45.83623" lon="4.6696">
        <ele>291.98834</ele>
        <time>2023-06-19T16:28:07.000Z</time>
      </trkpt>
      <trkpt lat="45.83619" lon="4.66959">
        <ele>292.10382</ele>
        <time>2023-06-19T16:28:08.000Z</time>
      </trkpt>
      <trkpt lat="45.83614" lon="4.66957">
        <ele>292.20102</ele>
        <time>2023-06-19T16:28:09.000Z</time>
      </trkpt>
      <trkpt lat="45.83609" lon="4.66957">
        <ele>292.37494</ele>
        <time>2023-06-19T16:28:10.000Z</time>
      </trkpt>
      <trkpt lat="45.83605" lon="4.66955">
        <ele>292.54938</ele>
        <time>2023-06-19T16:28:11.000Z</time>
      </trkpt>
      <trkpt lat="45.836" lon="4.66954">
        <ele>292.72559</ele>
        <time>2023-06-19T16:28:12.000Z</time>
      </trkpt>
      <trkpt lat="45.83595" lon="4.66953">
        <ele>292.88251</ele>
        <time>2023-06-19T16:28:13.000Z</time>
      </trkpt>
      <trkpt lat="45.8359" lon="4.66953">
        <ele>293.04321</ele>
        <time>2023-06-19T16:28:14.000Z</time>
      </trkpt>
      <trkpt lat="45.83586" lon="4.66952">
        <ele>293.18155</ele>
        <time>2023-06-19T16:28:15.000Z</time>
      </trkpt>
      <trkpt lat="45.83581" lon="4.66951">
        <ele>293.37228</ele>
        <time>2023-06-19T16:28:16.000Z</time>
      </trkpt>
      <trkpt lat="45.83576" lon="4.66951">
        <ele>293.57193</ele>
        <time>2023-06-19T16:28:17.000Z</time>
      </trkpt>
      <trkpt lat="45.83571" lon="4.66951">
        <ele>293.73019</ele>
        <time>2023-06-19T16:28:18.000Z</time>
      </trkpt>
      <trkpt lat="45.83566" lon="4.66951">
        <ele>293.8924</ele>
        <time>2023-06-19T16:28:19.000Z</time>
      </trkpt>
      <trkpt lat="45.83561" lon="4.6695">
        <ele>294.06708</ele>
        <time>2023-06-19T16:28:20.000Z</time>
      </trkpt>
      <trkpt lat="45.83555" lon="4.66949">
        <ele>294.24112</ele>
        <time>2023-06-19T16:28:21.000Z</time>
      </trkpt>
      <trkpt lat="45.83551" lon="4.66949">
        <ele>294.36432</ele>
        <time>2023-06-19T16:28:22.000Z</time>
      </trkpt>
      <trkpt lat="45.83545" lon="4.66948">
        <ele>294.55765</ele>
        <time>2023-06-19T16:28:23.000Z</time>
      </trkpt>
      <trkpt lat="45.8354" lon="4.66948">
        <ele>294.74127</ele>
        <time>2023-06-19T16:28:24.000Z</time>
      </trkpt>
      <trkpt lat="45.83536" lon="4.66947">
        <ele>294.93439</ele>
        <time>2023-06-19T16:28:25.000Z</time>
      </trkpt>
      <trkpt lat="45.83531" lon="4.66947">
        <ele>294.93378</ele>
        <time>2023-06-19T16:28:26.000Z</time>
      </trkpt>
      <trkpt lat="45.83527" lon="4.66947">
        <ele>294.97049</ele>
        <time>2023-06-19T16:28:27.000Z</time>
      </trkpt>
      <trkpt lat="45.83522" lon="4.66947">
        <ele>295.01965</ele>
        <time>2023-06-19T16:28:28.000Z</time>
      </trkpt>
      <trkpt lat="45.83517" lon="4.66946">
        <ele>295.07248</ele>
        <time>2023-06-19T16:28:29.000Z</time>
      </trkpt>
      <trkpt lat="45.83512" lon="4.66946">
        <ele>295.16034</ele>
        <time>2023-06-19T16:28:30.000Z</time>
      </trkpt>
      <trkpt lat="45.83507" lon="4.66946">
        <ele>295.23865</ele>
        <time>2023-06-19T16:28:31.000Z</time>
      </trkpt>
      <trkpt lat="45.83503" lon="4.66947">
        <ele>295.3089</ele>
        <time>2023-06-19T16:28:32.000Z</time>
      </trkpt>
      <trkpt lat="45.83498" lon="4.66947">
        <ele>295.40134</ele>
        <time>2023-06-19T16:28:33.000Z</time>
      </trkpt>
      <trkpt lat="45.83494" lon="4.66948">
        <ele>295.50116</ele>
        <time>2023-06-19T16:28:34.000Z</time>
      </trkpt>
      <trkpt lat="45.8349" lon="4.66948">
        <ele>295.61816</ele>
        <time>2023-06-19T16:28:35.000Z</time>
      </trkpt>
      <trkpt lat="45.83484" lon="4.66949">
        <ele>295.52493</ele>
        <time>2023-06-19T16:28:36.000Z</time>
      </trkpt>
      <trkpt lat="45.83479" lon="4.66949">
        <ele>295.43207</ele>
        <time>2023-06-19T16:28:37.000Z</time>
      </trkpt>
      <trkpt lat="45.83474" lon="4.66951">
        <ele>295.31946</ele>
        <time>2023-06-19T16:28:38.000Z</time>
      </trkpt>
      <trkpt lat="45.8347" lon="4.66951">
        <ele>295.46228</ele>
        <time>2023-06-19T16:28:39.000Z</time>
      </trkpt>
      <trkpt lat="45.83465" lon="4.66952">
        <ele>295.73236</ele>
        <time>2023-06-19T16:28:40.000Z</time>
      </trkpt>
      <trkpt lat="45.8346" lon="4.66953">
        <ele>296.04669</ele>
        <time>2023-06-19T16:28:41.000Z</time>
      </trkpt>
      <trkpt lat="45.83455" lon="4.66954">
        <ele>296.38593</ele>
        <time>2023-06-19T16:28:42.000Z</time>
      </trkpt>
      <trkpt lat="45.8345" lon="4.66954">
        <ele>296.67935</ele>
        <time>2023-06-19T16:28:43.000Z</time>
      </trkpt>
      <trkpt lat="45.83445" lon="4.66954">
        <ele>296.79938</ele>
        <time>2023-06-19T16:28:44.000Z</time>
      </trkpt>
      <trkpt lat="45.8344" lon="4.66955">
        <ele>296.92462</ele>
        <time>2023-06-19T16:28:45.000Z</time>
      </trkpt>
      <trkpt lat="45.83435" lon="4.66955">
        <ele>297.17523</ele>
        <time>2023-06-19T16:28:46.000Z</time>
      </trkpt>
      <trkpt lat="45.8343" lon="4.66956">
        <ele>297.3779</ele>
        <time>2023-06-19T16:28:47.000Z</time>
      </trkpt>
      <trkpt lat="45.83424" lon="4.66957">
        <ele>297.57645</ele>
        <time>2023-06-19T16:28:48.000Z</time>
      </trkpt>
      <trkpt lat="45.8342" lon="4.66958">
        <ele>297.77039</ele>
        <time>2023-06-19T16:28:49.000Z</time>
      </trkpt>
      <trkpt lat="45.83414" lon="4.66959">
        <ele>297.81888</ele>
        <time>2023-06-19T16:28:50.000Z</time>
      </trkpt>
      <trkpt lat="45.8341" lon="4.66961">
        <ele>297.79868</ele>
        <time>2023-06-19T16:28:51.000Z</time>
      </trkpt>
      <trkpt lat="45.83406" lon="4.66962">
        <ele>297.76709</ele>
        <time>2023-06-19T16:28:52.000Z</time>
      </trkpt>
      <trkpt lat="45.83401" lon="4.66963">
        <ele>297.74933</ele>
        <time>2023-06-19T16:28:53.000Z</time>
      </trkpt>
      <trkpt lat="45.83397" lon="4.66963">
        <ele>297.67899</ele>
        <time>2023-06-19T16:28:54.000Z</time>
      </trkpt>
      <trkpt lat="45.83392" lon="4.66963">
        <ele>297.56418</ele>
        <time>2023-06-19T16:28:55.000Z</time>
      </trkpt>
      <trkpt lat="45.83389" lon="4.66963">
        <ele>297.85043</ele>
        <time>2023-06-19T16:28:56.000Z</time>
      </trkpt>
      <trkpt lat="45.83385" lon="4.66964">
        <ele>298.09259</ele>
        <time>2023-06-19T16:28:57.000Z</time>
      </trkpt>
      <trkpt lat="45.8338" lon="4.66964">
        <ele>298.38046</ele>
        <time>2023-06-19T16:28:58.000Z</time>
      </trkpt>
      <trkpt lat="45.83376" lon="4.66965">
        <ele>298.41959</ele>
        <time>2023-06-19T16:28:59.000Z</time>
      </trkpt>
      <trkpt lat="45.83372" lon="4.66968">
        <ele>298.30133</ele>
        <time>2023-06-19T16:29:00.000Z</time>
      </trkpt>
      <trkpt lat="45.83369" lon="4.66971">
        <ele>297.96976</ele>
        <time>2023-06-19T16:29:01.000Z</time>
      </trkpt>
      <trkpt lat="45.83367" lon="4.66977">
        <ele>297.61926</ele>
        <time>2023-06-19T16:29:02.000Z</time>
      </trkpt>
      <trkpt lat="45.83367" lon="4.66983">
        <ele>297.16931</ele>
        <time>2023-06-19T16:29:03.000Z</time>
      </trkpt>
      <trkpt lat="45.83367" lon="4.66991">
        <ele>297.17804</ele>
        <time>2023-06-19T16:29:04.000Z</time>
      </trkpt>
      <trkpt lat="45.83368" lon="4.66999">
        <ele>297.12204</ele>
        <time>2023-06-19T16:29:05.000Z</time>
      </trkpt>
      <trkpt lat="45.83368" lon="4.67006">
        <ele>297.06149</ele>
        <time>2023-06-19T16:29:06.000Z</time>
      </trkpt>
      <trkpt lat="45.83367" lon="4.67014">
        <ele>297.00766</ele>
        <time>2023-06-19T16:29:07.000Z</time>
      </trkpt>
      <trkpt lat="45.83366" lon="4.67019">
        <ele>296.99237</ele>
        <time>2023-06-19T16:29:08.000Z</time>
      </trkpt>
      <trkpt lat="45.83362" lon="4.67022">
        <ele>296.96182</ele>
        <time>2023-06-19T16:29:09.000Z</time>
      </trkpt>
      <trkpt lat="45.83358" lon="4.67022">
        <ele>297.03879</ele>
        <time>2023-06-19T16:29:10.000Z</time>
      </trkpt>
      <trkpt lat="45.83354" lon="4.67018">
        <ele>297.16412</ele>
        <time>2023-06-19T16:29:11.000Z</time>
      </trkpt>
      <trkpt lat="45.83349" lon="4.67014">
        <ele>297.30289</ele>
        <time>2023-06-19T16:29:12.000Z</time>
      </trkpt>
      <trkpt lat="45.83345" lon="4.67011">
        <ele>297.41733</ele>
        <time>2023-06-19T16:29:13.000Z</time>
      </trkpt>
      <trkpt lat="45.83341" lon="4.67008">
        <ele>297.55103</ele>
        <time>2023-06-19T16:29:14.000Z</time>
      </trkpt>
      <trkpt lat="45.83338" lon="4.67004">
        <ele>297.58545</ele>
        <time>2023-06-19T16:29:15.000Z</time>
      </trkpt>
      <trkpt lat="45.83333" lon="4.67">
        <ele>297.33145</ele>
        <time>2023-06-19T16:29:16.000Z</time>
      </trkpt>
      <trkpt lat="45.83329" lon="4.66995">
        <ele>297.06226</ele>
        <time>2023-06-19T16:29:17.000Z</time>
      </trkpt>
      <trkpt lat="45.83325" lon="4.66991">
        <ele>296.7641</ele>
        <time>2023-06-19T16:29:18.000Z</time>
      </trkpt>
      <trkpt lat="45.8332" lon="4.66985">
        <ele>296.70724</ele>
        <time>2023-06-19T16:29:19.000Z</time>
      </trkpt>
      <trkpt lat="45.83316" lon="4.66981">
        <ele>296.64761</ele>
        <time>2023-06-19T16:29:20.000Z</time>
      </trkpt>
      <trkpt lat="45.83311" lon="4.66978">
        <ele>296.73874</ele>
        <time>2023-06-19T16:29:21.000Z</time>
      </trkpt>
      <trkpt lat="45.83306" lon="4.66977">
        <ele>296.83929</ele>
        <time>2023-06-19T16:29:22.000Z</time>
      </trkpt>
      <trkpt lat="45.83301" lon="4.66976">
        <ele>297.02954</ele>
        <time>2023-06-19T16:29:23.000Z</time>
      </trkpt>
      <trkpt lat="45.83296" lon="4.66978">
        <ele>296.95392</ele>
        <time>2023-06-19T16:29:24.000Z</time>
      </trkpt>
      <trkpt lat="45.83291" lon="4.66982">
        <ele>296.9169</ele>
        <time>2023-06-19T16:29:25.000Z</time>
      </trkpt>
      <trkpt lat="45.83287" lon="4.66989">
        <ele>296.8873</ele>
        <time>2023-06-19T16:29:26.000Z</time>
      </trkpt>
      <trkpt lat="45.83282" lon="4.66995">
        <ele>296.85492</ele>
        <time>2023-06-19T16:29:27.000Z</time>
      </trkpt>
      <trkpt lat="45.83277" lon="4.67">
        <ele>296.76511</ele>
        <time>2023-06-19T16:29:28.000Z</time>
      </trkpt>
      <trkpt lat="45.83273" lon="4.67006">
        <ele>296.6857</ele>
        <time>2023-06-19T16:29:29.000Z</time>
      </trkpt>
      <trkpt lat="45.83267" lon="4.67011">
        <ele>296.6088</ele>
        <time>2023-06-19T16:29:30.000Z</time>
      </trkpt>
      <trkpt lat="45.83262" lon="4.67017">
        <ele>296.52298</ele>
        <time>2023-06-19T16:29:31.000Z</time>
      </trkpt>
      <trkpt lat="45.83257" lon="4.67021">
        <ele>296.41629</ele>
        <time>2023-06-19T16:29:32.000Z</time>
      </trkpt>
      <trkpt lat="45.83251" lon="4.67026">
        <ele>296.30011</ele>
        <time>2023-06-19T16:29:33.000Z</time>
      </trkpt>
      <trkpt lat="45.83246" lon="4.67033">
        <ele>296.21799</ele>
        <time>2023-06-19T16:29:34.000Z</time>
      </trkpt>
      <trkpt lat="45.83241" lon="4.67037">
        <ele>296.2561</ele>
        <time>2023-06-19T16:29:35.000Z</time>
      </trkpt>
      <trkpt lat="45.83237" lon="4.67042">
        <ele>296.20605</ele>
        <time>2023-06-19T16:29:36.000Z</time>
      </trkpt>
      <trkpt lat="45.83232" lon="4.67047">
        <ele>296.11444</ele>
        <time>2023-06-19T16:29:37.000Z</time>
      </trkpt>
      <trkpt lat="45.83228" lon="4.67051">
        <ele>296.06818</ele>
        <time>2023-06-19T16:29:38.000Z</time>
      </trkpt>
      <trkpt lat="45.83223" lon="4.67057">
        <ele>295.95569</ele>
        <time>2023-06-19T16:29:39.000Z</time>
      </trkpt>
      <trkpt lat="45.83219" lon="4.67062">
        <ele>295.82224</ele>
        <time>2023-06-19T16:29:40.000Z</time>
      </trkpt>
      <trkpt lat="45.83215" lon="4.67066">
        <ele>295.69788</ele>
        <time>2023-06-19T16:29:41.000Z</time>
      </trkpt>
      <trkpt lat="45.83213" lon="4.67072">
        <ele>295.54507</ele>
        <time>2023-06-19T16:29:42.000Z</time>
      </trkpt>
      <trkpt lat="45.83212" lon="4.67078">
        <ele>295.36627</ele>
        <time>2023-06-19T16:29:43.000Z</time>
      </trkpt>
      <trkpt lat="45.83214" lon="4.67085">
        <ele>295.16125</ele>
        <time>2023-06-19T16:29:44.000Z</time>
      </trkpt>
      <trkpt lat="45.83214" lon="4.67092">
        <ele>294.97137</ele>
        <time>2023-06-19T16:29:45.000Z</time>
      </trkpt>
      <trkpt lat="45.83215" lon="4.671">
        <ele>294.79047</ele>
        <time>2023-06-19T16:29:46.000Z</time>
      </trkpt>
      <trkpt lat="45.83217" lon="4.67108">
        <ele>294.60242</ele>
        <time>2023-06-19T16:29:47.000Z</time>
      </trkpt>
      <trkpt lat="45.83218" lon="4.67116">
        <ele>294.41132</ele>
        <time>2023-06-19T16:29:48.000Z</time>
      </trkpt>
      <trkpt lat="45.8322" lon="4.67125">
        <ele>294.20724</ele>
        <time>2023-06-19T16:29:49.000Z</time>
      </trkpt>
      <trkpt lat="45.83221" lon="4.67133">
        <ele>293.9971</ele>
        <time>2023-06-19T16:29:50.000Z</time>
      </trkpt>
      <trkpt lat="45.83223" lon="4.67142">
        <ele>293.95499</ele>
        <time>2023-06-19T16:29:51.000Z</time>
      </trkpt>
      <trkpt lat="45.83225" lon="4.67151">
        <ele>293.99533</ele>
        <time>2023-06-19T16:29:52.000Z</time>
      </trkpt>
      <trkpt lat="45.83227" lon="4.67158">
        <ele>294.04849</ele>
        <time>2023-06-19T16:29:53.000Z</time>
      </trkpt>
      <trkpt lat="45.83231" lon="4.67167">
        <ele>294.10846</ele>
        <time>2023-06-19T16:29:54.000Z</time>
      </trkpt>
      <trkpt lat="45.83235" lon="4.67176">
        <ele>294.16275</ele>
        <time>2023-06-19T16:29:55.000Z</time>
      </trkpt>
      <trkpt lat="45.83239" lon="4.67184">
        <ele>294.3222</ele>
        <time>2023-06-19T16:29:56.000Z</time>
      </trkpt>
      <trkpt lat="45.83242" lon="4.67192">
        <ele>294.552</ele>
        <time>2023-06-19T16:29:57.000Z</time>
      </trkpt>
      <trkpt lat="45.83246" lon="4.672">
        <ele>294.74725</ele>
        <time>2023-06-19T16:29:58.000Z</time>
      </trkpt>
      <trkpt lat="45.83249" lon="4.67209">
        <ele>294.74197</ele>
        <time>2023-06-19T16:29:59.000Z</time>
      </trkpt>
      <trkpt lat="45.83252" lon="4.67219">
        <ele>294.76276</ele>
        <time>2023-06-19T16:30:00.000Z</time>
      </trkpt>
      <trkpt lat="45.83254" lon="4.6723">
        <ele>294.76337</ele>
        <time>2023-06-19T16:30:01.000Z</time>
      </trkpt>
      <trkpt lat="45.83256" lon="4.67241">
        <ele>294.7637</ele>
        <time>2023-06-19T16:30:02.000Z</time>
      </trkpt>
      <trkpt lat="45.83258" lon="4.67253">
        <ele>294.73615</ele>
        <time>2023-06-19T16:30:03.000Z</time>
      </trkpt>
      <trkpt lat="45.8326" lon="4.67266">
        <ele>294.69019</ele>
        <time>2023-06-19T16:30:04.000Z</time>
      </trkpt>
      <trkpt lat="45.8326" lon="4.67277">
        <ele>294.60883</ele>
        <time>2023-06-19T16:30:05.000Z</time>
      </trkpt>
      <trkpt lat="45.83261" lon="4.67287">
        <ele>294.54382</ele>
        <time>2023-06-19T16:30:06.000Z</time>
      </trkpt>
      <trkpt lat="45.83262" lon="4.67297">
        <ele>294.4765</ele>
        <time>2023-06-19T16:30:07.000Z</time>
      </trkpt>
      <trkpt lat="45.83262" lon="4.67307">
        <ele>294.42014</ele>
        <time>2023-06-19T16:30:08.000Z</time>
      </trkpt>
      <trkpt lat="45.83262" lon="4.67316">
        <ele>294.36313</ele>
        <time>2023-06-19T16:30:09.000Z</time>
      </trkpt>
      <trkpt lat="45.83259" lon="4.67325">
        <ele>294.27853</ele>
        <time>2023-06-19T16:30:10.000Z</time>
      </trkpt>
      <trkpt lat="45.83257" lon="4.67335">
        <ele>293.96091</ele>
        <time>2023-06-19T16:30:11.000Z</time>
      </trkpt>
      <trkpt lat="45.83253" lon="4.67345">
        <ele>293.62799</ele>
        <time>2023-06-19T16:30:12.000Z</time>
      </trkpt>
      <trkpt lat="45.83249" lon="4.67352">
        <ele>293.2688</ele>
        <time>2023-06-19T16:30:13.000Z</time>
      </trkpt>
      <trkpt lat="45.83246" lon="4.67361">
        <ele>292.86688</ele>
        <time>2023-06-19T16:30:14.000Z</time>
      </trkpt>
      <trkpt lat="45.83243" lon="4.67367">
        <ele>292.49152</ele>
        <time>2023-06-19T16:30:15.000Z</time>
      </trkpt>
      <trkpt lat="45.83239" lon="4.67371">
        <ele>292.13208</ele>
        <time>2023-06-19T16:30:16.000Z</time>
      </trkpt>
      <trkpt lat="45.83237" lon="4.67375">
        <ele>291.81232</ele>
        <time>2023-06-19T16:30:17.000Z</time>
      </trkpt>
      <trkpt lat="45.83235" lon="4.67379">
        <ele>291.49542</ele>
        <time>2023-06-19T16:30:18.000Z</time>
      </trkpt>
      <trkpt lat="45.83233" lon="4.67383">
        <ele>291.17645</ele>
        <time>2023-06-19T16:30:19.000Z</time>
      </trkpt>
      <trkpt lat="45.83231" lon="4.67384">
        <ele>290.89816</ele>
        <time>2023-06-19T16:30:20.000Z</time>
      </trkpt>
      <trkpt lat="45.83226" lon="4.67386">
        <ele>290.55197</ele>
        <time>2023-06-19T16:30:21.000Z</time>
      </trkpt>
      <trkpt lat="45.83222" lon="4.67389">
        <ele>290.24445</ele>
        <time>2023-06-19T16:30:22.000Z</time>
      </trkpt>
      <trkpt lat="45.83218" lon="4.67391">
        <ele>289.94199</ele>
        <time>2023-06-19T16:30:23.000Z</time>
      </trkpt>
      <trkpt lat="45.83215" lon="4.67394">
        <ele>289.6546</ele>
        <time>2023-06-19T16:30:24.000Z</time>
      </trkpt>
      <trkpt lat="45.83212" lon="4.67397">
        <ele>289.34467</ele>
        <time>2023-06-19T16:30:25.000Z</time>
      </trkpt>
      <trkpt lat="45.8321" lon="4.67401">
        <ele>288.99725</ele>
        <time>2023-06-19T16:30:26.000Z</time>
      </trkpt>
      <trkpt lat="45.83208" lon="4.67404">
        <ele>288.65427</ele>
        <time>2023-06-19T16:30:27.000Z</time>
      </trkpt>
      <trkpt lat="45.83206" lon="4.67407">
        <ele>288.38409</ele>
        <time>2023-06-19T16:30:28.000Z</time>
      </trkpt>
      <trkpt lat="45.83203" lon="4.67409">
        <ele>287.9505</ele>
        <time>2023-06-19T16:30:29.000Z</time>
      </trkpt>
      <trkpt lat="45.83201" lon="4.67411">
        <ele>287.57452</ele>
        <time>2023-06-19T16:30:30.000Z</time>
      </trkpt>
      <trkpt lat="45.83198" lon="4.67413">
        <ele>287.24396</ele>
        <time>2023-06-19T16:30:31.000Z</time>
      </trkpt>
      <trkpt lat="45.83195" lon="4.67416">
        <ele>286.8623</ele>
        <time>2023-06-19T16:30:32.000Z</time>
      </trkpt>
      <trkpt lat="45.83192" lon="4.67419">
        <ele>286.46906</ele>
        <time>2023-06-19T16:30:33.000Z</time>
      </trkpt>
      <trkpt lat="45.83188" lon="4.67422">
        <ele>286.1185</ele>
        <time>2023-06-19T16:30:34.000Z</time>
      </trkpt>
      <trkpt lat="45.83183" lon="4.67426">
        <ele>285.72308</ele>
        <time>2023-06-19T16:30:35.000Z</time>
      </trkpt>
      <trkpt lat="45.83178" lon="4.67428">
        <ele>285.32803</ele>
        <time>2023-06-19T16:30:36.000Z</time>
      </trkpt>
      <trkpt lat="45.83173" lon="4.6743">
        <ele>284.88824</ele>
        <time>2023-06-19T16:30:37.000Z</time>
      </trkpt>
      <trkpt lat="45.83168" lon="4.67433">
        <ele>284.46176</ele>
        <time>2023-06-19T16:30:38.000Z</time>
      </trkpt>
      <trkpt lat="45.83163" lon="4.67434">
        <ele>284.01462</ele>
        <time>2023-06-19T16:30:39.000Z</time>
      </trkpt>
      <trkpt lat="45.83159" lon="4.67436">
        <ele>283.58627</ele>
        <time>2023-06-19T16:30:40.000Z</time>
      </trkpt>
      <trkpt lat="45.83153" lon="4.67439">
        <ele>283.23831</ele>
        <time>2023-06-19T16:30:41.000Z</time>
      </trkpt>
      <trkpt lat="45.83148" lon="4.67442">
        <ele>282.86105</ele>
        <time>2023-06-19T16:30:42.000Z</time>
      </trkpt>
      <trkpt lat="45.83144" lon="4.67445">
        <ele>282.53741</ele>
        <time>2023-06-19T16:30:43.000Z</time>
      </trkpt>
      <trkpt lat="45.8314" lon="4.67449">
        <ele>282.24835</ele>
        <time>2023-06-19T16:30:44.000Z</time>
      </trkpt>
      <trkpt lat="45.83139" lon="4.67454">
        <ele>281.97733</ele>
        <time>2023-06-19T16:30:45.000Z</time>
      </trkpt>
      <trkpt lat="45.83138" lon="4.67458">
        <ele>281.75729</ele>
        <time>2023-06-19T16:30:46.000Z</time>
      </trkpt>
      <trkpt lat="45.83139" lon="4.67463">
        <ele>281.57047</ele>
        <time>2023-06-19T16:30:47.000Z</time>
      </trkpt>
      <trkpt lat="45.8314" lon="4.67466">
        <ele>281.41254</ele>
        <time>2023-06-19T16:30:48.000Z</time>
      </trkpt>
      <trkpt lat="45.83142" lon="4.67469">
        <ele>281.34668</ele>
        <time>2023-06-19T16:31:49.000Z</time>
      </trkpt>
      <trkpt lat="45.83144" lon="4.6747">
        <ele>281.26129</ele>
        <time>2023-06-19T16:31:50.000Z</time>
      </trkpt>
      <trkpt lat="45.83147" lon="4.67471">
        <ele>281.21365</ele>
        <time>2023-06-19T16:31:51.000Z</time>
      </trkpt>
      <trkpt lat="45.8315" lon="4.67472">
        <ele>281.14645</ele>
        <time>2023-06-19T16:31:52.000Z</time>
      </trkpt>
      <trkpt lat="45.83154" lon="4.67472">
        <ele>281.12222</ele>
        <time>2023-06-19T16:31:53.000Z</time>
      </trkpt>
      <trkpt lat="45.83158" lon="4.67472">
        <ele>281.09299</ele>
        <time>2023-06-19T16:31:54.000Z</time>
      </trkpt>
      <trkpt lat="45.83161" lon="4.67472">
        <ele>281.0961</ele>
        <time>2023-06-19T16:31:55.000Z</time>
      </trkpt>
      <trkpt lat="45.83165" lon="4.67471">
        <ele>281.2002</ele>
        <time>2023-06-19T16:31:56.000Z</time>
      </trkpt>
      <trkpt lat="45.83168" lon="4.67472">
        <ele>281.42538</ele>
        <time>2023-06-19T16:31:57.000Z</time>
      </trkpt>
      <trkpt lat="45.83172" lon="4.67474">
        <ele>281.63513</ele>
        <time>2023-06-19T16:31:58.000Z</time>
      </trkpt>
      <trkpt lat="45.83176" lon="4.67476">
        <ele>281.69839</ele>
        <time>2023-06-19T16:31:59.000Z</time>
      </trkpt>
      <trkpt lat="45.83179" lon="4.67479">
        <ele>281.7233</ele>
        <time>2023-06-19T16:32:00.000Z</time>
      </trkpt>
      <trkpt lat="45.83183" lon="4.67484">
        <ele>281.74783</ele>
        <time>2023-06-19T16:32:01.000Z</time>
      </trkpt>
      <trkpt lat="45.83187" lon="4.67488">
        <ele>281.78876</ele>
        <time>2023-06-19T16:32:02.000Z</time>
      </trkpt>
      <trkpt lat="45.83191" lon="4.67493">
        <ele>281.77774</ele>
        <time>2023-06-19T16:32:03.000Z</time>
      </trkpt>
      <trkpt lat="45.83194" lon="4.67498">
        <ele>281.83627</ele>
        <time>2023-06-19T16:32:04.000Z</time>
      </trkpt>
      <trkpt lat="45.83198" lon="4.67501">
        <ele>282.00546</ele>
        <time>2023-06-19T16:32:05.000Z</time>
      </trkpt>
      <trkpt lat="45.83201" lon="4.67505">
        <ele>281.94547</ele>
        <time>2023-06-19T16:32:06.000Z</time>
      </trkpt>
      <trkpt lat="45.83205" lon="4.67509">
        <ele>281.86484</ele>
        <time>2023-06-19T16:32:07.000Z</time>
      </trkpt>
      <trkpt lat="45.83209" lon="4.67512">
        <ele>281.70239</ele>
        <time>2023-06-19T16:32:08.000Z</time>
      </trkpt>
      <trkpt lat="45.83213" lon="4.67516">
        <ele>281.63184</ele>
        <time>2023-06-19T16:32:09.000Z</time>
      </trkpt>
      <trkpt lat="45.83218" lon="4.6752">
        <ele>281.56714</ele>
        <time>2023-06-19T16:32:10.000Z</time>
      </trkpt>
      <trkpt lat="45.83222" lon="4.67523">
        <ele>281.48785</ele>
        <time>2023-06-19T16:32:11.000Z</time>
      </trkpt>
      <trkpt lat="45.83227" lon="4.67528">
        <ele>281.53577</ele>
        <time>2023-06-19T16:32:12.000Z</time>
      </trkpt>
      <trkpt lat="45.83232" lon="4.67531">
        <ele>281.54755</ele>
        <time>2023-06-19T16:32:13.000Z</time>
      </trkpt>
      <trkpt lat="45.83236" lon="4.67538">
        <ele>281.53195</ele>
        <time>2023-06-19T16:32:14.000Z</time>
      </trkpt>
      <trkpt lat="45.8324" lon="4.67542">
        <ele>281.58508</ele>
        <time>2023-06-19T16:32:15.000Z</time>
      </trkpt>
      <trkpt lat="45.83241" lon="4.67551">
        <ele>281.5433</ele>
        <time>2023-06-19T16:32:16.000Z</time>
      </trkpt>
      <trkpt lat="45.8324" lon="4.67559">
        <ele>281.18781</ele>
        <time>2023-06-19T16:32:17.000Z</time>
      </trkpt>
      <trkpt lat="45.8324" lon="4.67568">
        <ele>280.87189</ele>
        <time>2023-06-19T16:32:18.000Z</time>
      </trkpt>
      <trkpt lat="45.83238" lon="4.67577">
        <ele>280.70245</ele>
        <time>2023-06-19T16:32:19.000Z</time>
      </trkpt>
      <trkpt lat="45.83236" lon="4.67586">
        <ele>280.61981</ele>
        <time>2023-06-19T16:32:20.000Z</time>
      </trkpt>
      <trkpt lat="45.83234" lon="4.67596">
        <ele>280.60938</ele>
        <time>2023-06-19T16:32:21.000Z</time>
      </trkpt>
      <trkpt lat="45.83235" lon="4.67606">
        <ele>280.59784</ele>
        <time>2023-06-19T16:32:22.000Z</time>
      </trkpt>
      <trkpt lat="45.83237" lon="4.67615">
        <ele>280.61899</ele>
        <time>2023-06-19T16:32:23.000Z</time>
      </trkpt>
      <trkpt lat="45.83241" lon="4.67622">
        <ele>280.31708</ele>
        <time>2023-06-19T16:32:24.000Z</time>
      </trkpt>
      <trkpt lat="45.83246" lon="4.67627">
        <ele>279.97101</ele>
        <time>2023-06-19T16:32:25.000Z</time>
      </trkpt>
      <trkpt lat="45.83252" lon="4.6763">
        <ele>279.83844</ele>
        <time>2023-06-19T16:32:26.000Z</time>
      </trkpt>
      <trkpt lat="45.83258" lon="4.67632">
        <ele>279.73822</ele>
        <time>2023-06-19T16:32:27.000Z</time>
      </trkpt>
      <trkpt lat="45.83263" lon="4.67633">
        <ele>279.64154</ele>
        <time>2023-06-19T16:32:28.000Z</time>
      </trkpt>
      <trkpt lat="45.83268" lon="4.67634">
        <ele>279.53296</ele>
        <time>2023-06-19T16:32:29.000Z</time>
      </trkpt>
      <trkpt lat="45.83273" lon="4.67635">
        <ele>279.42084</ele>
        <time>2023-06-19T16:32:30.000Z</time>
      </trkpt>
      <trkpt lat="45.83278" lon="4.67636">
        <ele>279.3425</ele>
        <time>2023-06-19T16:32:31.000Z</time>
      </trkpt>
      <trkpt lat="45.83282" lon="4.67637">
        <ele>279.1463</ele>
        <time>2023-06-19T16:32:32.000Z</time>
      </trkpt>
      <trkpt lat="45.83287" lon="4.67636">
        <ele>278.98199</ele>
        <time>2023-06-19T16:32:33.000Z</time>
      </trkpt>
      <trkpt lat="45.83292" lon="4.67638">
        <ele>278.81479</ele>
        <time>2023-06-19T16:32:34.000Z</time>
      </trkpt>
      <trkpt lat="45.83296" lon="4.67639">
        <ele>278.56567</ele>
        <time>2023-06-19T16:32:35.000Z</time>
      </trkpt>
      <trkpt lat="45.833" lon="4.67641">
        <ele>278.44888</ele>
        <time>2023-06-19T16:32:36.000Z</time>
      </trkpt>
      <trkpt lat="45.83305" lon="4.67642">
        <ele>278.54559</ele>
        <time>2023-06-19T16:32:37.000Z</time>
      </trkpt>
      <trkpt lat="45.83311" lon="4.67645">
        <ele>278.64267</ele>
        <time>2023-06-19T16:32:38.000Z</time>
      </trkpt>
      <trkpt lat="45.83316" lon="4.67647">
        <ele>278.8327</ele>
        <time>2023-06-19T16:32:39.000Z</time>
      </trkpt>
      <trkpt lat="45.83322" lon="4.67649">
        <ele>278.96078</ele>
        <time>2023-06-19T16:32:40.000Z</time>
      </trkpt>
      <trkpt lat="45.83326" lon="4.67652">
        <ele>278.82742</ele>
        <time>2023-06-19T16:32:41.000Z</time>
      </trkpt>
      <trkpt lat="45.83333" lon="4.67655">
        <ele>278.71033</ele>
        <time>2023-06-19T16:32:42.000Z</time>
      </trkpt>
      <trkpt lat="45.83339" lon="4.67658">
        <ele>278.61237</ele>
        <time>2023-06-19T16:32:43.000Z</time>
      </trkpt>
      <trkpt lat="45.83345" lon="4.67661">
        <ele>278.73016</ele>
        <time>2023-06-19T16:32:44.000Z</time>
      </trkpt>
      <trkpt lat="45.83351" lon="4.67664">
        <ele>278.80679</ele>
        <time>2023-06-19T16:32:45.000Z</time>
      </trkpt>
      <trkpt lat="45.83357" lon="4.67667">
        <ele>278.89233</ele>
        <time>2023-06-19T16:32:46.000Z</time>
      </trkpt>
      <trkpt lat="45.83362" lon="4.6767">
        <ele>278.90503</ele>
        <time>2023-06-19T16:32:47.000Z</time>
      </trkpt>
      <trkpt lat="45.83369" lon="4.67674">
        <ele>278.91959</ele>
        <time>2023-06-19T16:32:48.000Z</time>
      </trkpt>
      <trkpt lat="45.83375" lon="4.67678">
        <ele>278.90216</ele>
        <time>2023-06-19T16:32:49.000Z</time>
      </trkpt>
      <trkpt lat="45.83381" lon="4.67683">
        <ele>278.87393</ele>
        <time>2023-06-19T16:32:50.000Z</time>
      </trkpt>
      <trkpt lat="45.83387" lon="4.67688">
        <ele>278.79715</ele>
        <time>2023-06-19T16:32:51.000Z</time>
      </trkpt>
      <trkpt lat="45.83393" lon="4.67692">
        <ele>278.70456</ele>
        <time>2023-06-19T16:32:52.000Z</time>
      </trkpt>
      <trkpt lat="45.83399" lon="4.67696">
        <ele>278.59479</ele>
        <time>2023-06-19T16:32:53.000Z</time>
      </trkpt>
      <trkpt lat="45.83405" lon="4.677">
        <ele>278.51263</ele>
        <time>2023-06-19T16:32:54.000Z</time>
      </trkpt>
      <trkpt lat="45.83411" lon="4.67705">
        <ele>278.42023</ele>
        <time>2023-06-19T16:32:55.000Z</time>
      </trkpt>
      <trkpt lat="45.83417" lon="4.6771">
        <ele>278.15543</ele>
        <time>2023-06-19T16:32:56.000Z</time>
      </trkpt>
      <trkpt lat="45.83422" lon="4.67716">
        <ele>277.88699</ele>
        <time>2023-06-19T16:32:57.000Z</time>
      </trkpt>
      <trkpt lat="45.83425" lon="4.67722">
        <ele>277.55707</ele>
        <time>2023-06-19T16:32:58.000Z</time>
      </trkpt>
      <trkpt lat="45.83429" lon="4.67729">
        <ele>277.15289</ele>
        <time>2023-06-19T16:32:59.000Z</time>
      </trkpt>
      <trkpt lat="45.83433" lon="4.67737">
        <ele>276.70093</ele>
        <time>2023-06-19T16:33:00.000Z</time>
      </trkpt>
      <trkpt lat="45.83436" lon="4.67746">
        <ele>276.42181</ele>
        <time>2023-06-19T16:33:01.000Z</time>
      </trkpt>
      <trkpt lat="45.83437" lon="4.67755">
        <ele>276.18793</ele>
        <time>2023-06-19T16:33:02.000Z</time>
      </trkpt>
      <trkpt lat="45.83438" lon="4.67764">
        <ele>276.00543</ele>
        <time>2023-06-19T16:33:03.000Z</time>
      </trkpt>
      <trkpt lat="45.83438" lon="4.67771">
        <ele>275.87524</ele>
        <time>2023-06-19T16:33:04.000Z</time>
      </trkpt>
      <trkpt lat="45.83438" lon="4.67779">
        <ele>275.72134</ele>
        <time>2023-06-19T16:33:05.000Z</time>
      </trkpt>
      <trkpt lat="45.8344" lon="4.67787">
        <ele>275.57391</ele>
        <time>2023-06-19T16:33:06.000Z</time>
      </trkpt>
      <trkpt lat="45.83444" lon="4.67797">
        <ele>275.48584</ele>
        <time>2023-06-19T16:33:07.000Z</time>
      </trkpt>
      <trkpt lat="45.83447" lon="4.67802">
        <ele>275.39813</ele>
        <time>2023-06-19T16:33:08.000Z</time>
      </trkpt>
      <trkpt lat="45.83453" lon="4.67806">
        <ele>275.51852</ele>
        <time>2023-06-19T16:33:09.000Z</time>
      </trkpt>
      <trkpt lat="45.83459" lon="4.67809">
        <ele>275.62933</ele>
        <time>2023-06-19T16:33:10.000Z</time>
      </trkpt>
      <trkpt lat="45.83465" lon="4.67811">
        <ele>275.87201</ele>
        <time>2023-06-19T16:33:11.000Z</time>
      </trkpt>
      <trkpt lat="45.83471" lon="4.67815">
        <ele>275.92218</ele>
        <time>2023-06-19T16:33:12.000Z</time>
      </trkpt>
      <trkpt lat="45.83476" lon="4.67816">
        <ele>275.99374</ele>
        <time>2023-06-19T16:33:13.000Z</time>
      </trkpt>
      <trkpt lat="45.83481" lon="4.67818">
        <ele>276.05826</ele>
        <time>2023-06-19T16:33:14.000Z</time>
      </trkpt>
      <trkpt lat="45.83486" lon="4.67822">
        <ele>276.14795</ele>
        <time>2023-06-19T16:33:15.000Z</time>
      </trkpt>
      <trkpt lat="45.83491" lon="4.67825">
        <ele>276.27307</ele>
        <time>2023-06-19T16:33:16.000Z</time>
      </trkpt>
      <trkpt lat="45.83495" lon="4.67829">
        <ele>276.47845</ele>
        <time>2023-06-19T16:33:17.000Z</time>
      </trkpt>
      <trkpt lat="45.83499" lon="4.67832">
        <ele>276.75217</ele>
        <time>2023-06-19T16:33:18.000Z</time>
      </trkpt>
      <trkpt lat="45.83504" lon="4.67837">
        <ele>277.02917</ele>
        <time>2023-06-19T16:33:19.000Z</time>
      </trkpt>
      <trkpt lat="45.83507" lon="4.6784">
        <ele>277.32321</ele>
        <time>2023-06-19T16:33:20.000Z</time>
      </trkpt>
      <trkpt lat="45.83511" lon="4.67845">
        <ele>277.61551</ele>
        <time>2023-06-19T16:33:21.000Z</time>
      </trkpt>
      <trkpt lat="45.83514" lon="4.67849">
        <ele>277.9505</ele>
        <time>2023-06-19T16:33:22.000Z</time>
      </trkpt>
      <trkpt lat="45.83518" lon="4.67855">
        <ele>278.30841</ele>
        <time>2023-06-19T16:33:23.000Z</time>
      </trkpt>
      <trkpt lat="45.83522" lon="4.6786">
        <ele>278.39453</ele>
        <time>2023-06-19T16:33:24.000Z</time>
      </trkpt>
      <trkpt lat="45.83526" lon="4.67866">
        <ele>278.53864</ele>
        <time>2023-06-19T16:33:25.000Z</time>
      </trkpt>
      <trkpt lat="45.83531" lon="4.67871">
        <ele>278.67508</ele>
        <time>2023-06-19T16:33:26.000Z</time>
      </trkpt>
      <trkpt lat="45.83535" lon="4.67878">
        <ele>278.87833</ele>
        <time>2023-06-19T16:33:27.000Z</time>
      </trkpt>
      <trkpt lat="45.83539" lon="4.67884">
        <ele>279.06845</ele>
        <time>2023-06-19T16:33:28.000Z</time>
      </trkpt>
      <trkpt lat="45.83543" lon="4.67891">
        <ele>278.88116</ele>
        <time>2023-06-19T16:33:29.000Z</time>
      </trkpt>
      <trkpt lat="45.83547" lon="4.67897">
        <ele>278.7261</ele>
        <time>2023-06-19T16:33:30.000Z</time>
      </trkpt>
      <trkpt lat="45.83551" lon="4.67903">
        <ele>278.37247</ele>
        <time>2023-06-19T16:33:31.000Z</time>
      </trkpt>
      <trkpt lat="45.83556" lon="4.67909">
        <ele>278.21698</ele>
        <time>2023-06-19T16:33:32.000Z</time>
      </trkpt>
      <trkpt lat="45.8356" lon="4.67916">
        <ele>278.06363</ele>
        <time>2023-06-19T16:33:33.000Z</time>
      </trkpt>
      <trkpt lat="45.83565" lon="4.6792">
        <ele>277.87592</ele>
        <time>2023-06-19T16:33:34.000Z</time>
      </trkpt>
      <trkpt lat="45.8357" lon="4.67923">
        <ele>277.69241</ele>
        <time>2023-06-19T16:33:35.000Z</time>
      </trkpt>
      <trkpt lat="45.83575" lon="4.67926">
        <ele>277.69745</ele>
        <time>2023-06-19T16:33:36.000Z</time>
      </trkpt>
      <trkpt lat="45.8358" lon="4.67929">
        <ele>277.6503</ele>
        <time>2023-06-19T16:33:37.000Z</time>
      </trkpt>
      <trkpt lat="45.83585" lon="4.67932">
        <ele>277.58722</ele>
        <time>2023-06-19T16:33:38.000Z</time>
      </trkpt>
      <trkpt lat="45.83589" lon="4.67935">
        <ele>277.43484</ele>
        <time>2023-06-19T16:33:39.000Z</time>
      </trkpt>
      <trkpt lat="45.83593" lon="4.67939">
        <ele>277.29105</ele>
        <time>2023-06-19T16:33:40.000Z</time>
      </trkpt>
      <trkpt lat="45.83598" lon="4.67942">
        <ele>277.013</ele>
        <time>2023-06-19T16:33:41.000Z</time>
      </trkpt>
      <trkpt lat="45.83603" lon="4.67946">
        <ele>276.65591</ele>
        <time>2023-06-19T16:33:42.000Z</time>
      </trkpt>
      <trkpt lat="45.83608" lon="4.67949">
        <ele>276.22006</ele>
        <time>2023-06-19T16:33:43.000Z</time>
      </trkpt>
      <trkpt lat="45.83613" lon="4.67954">
        <ele>276.04861</ele>
        <time>2023-06-19T16:33:44.000Z</time>
      </trkpt>
      <trkpt lat="45.83617" lon="4.67958">
        <ele>275.83017</ele>
        <time>2023-06-19T16:33:45.000Z</time>
      </trkpt>
      <trkpt lat="45.83622" lon="4.67962">
        <ele>275.58148</ele>
        <time>2023-06-19T16:33:46.000Z</time>
      </trkpt>
      <trkpt lat="45.83627" lon="4.67967">
        <ele>275.22394</ele>
        <time>2023-06-19T16:33:47.000Z</time>
      </trkpt>
      <trkpt lat="45.83631" lon="4.67972">
        <ele>274.99161</ele>
        <time>2023-06-19T16:33:48.000Z</time>
      </trkpt>
      <trkpt lat="45.83636" lon="4.67977">
        <ele>275.0051</ele>
        <time>2023-06-19T16:33:49.000Z</time>
      </trkpt>
      <trkpt lat="45.8364" lon="4.67981">
        <ele>274.8465</ele>
        <time>2023-06-19T16:33:50.000Z</time>
      </trkpt>
      <trkpt lat="45.83645" lon="4.67987">
        <ele>274.75259</ele>
        <time>2023-06-19T16:33:51.000Z</time>
      </trkpt>
      <trkpt lat="45.8365" lon="4.67992">
        <ele>274.71338</ele>
        <time>2023-06-19T16:33:52.000Z</time>
      </trkpt>
      <trkpt lat="45.83655" lon="4.67997">
        <ele>274.63214</ele>
        <time>2023-06-19T16:33:53.000Z</time>
      </trkpt>
      <trkpt lat="45.83659" lon="4.68003">
        <ele>274.56992</ele>
        <time>2023-06-19T16:33:54.000Z</time>
      </trkpt>
      <trkpt lat="45.83663" lon="4.68008">
        <ele>274.508</ele>
        <time>2023-06-19T16:33:55.000Z</time>
      </trkpt>
      <trkpt lat="45.83667" lon="4.68014">
        <ele>274.33475</ele>
        <time>2023-06-19T16:33:56.000Z</time>
      </trkpt>
      <trkpt lat="45.83671" lon="4.6802">
        <ele>274.14691</ele>
        <time>2023-06-19T16:33:57.000Z</time>
      </trkpt>
      <trkpt lat="45.83675" lon="4.68026">
        <ele>273.92462</ele>
        <time>2023-06-19T16:33:58.000Z</time>
      </trkpt>
      <trkpt lat="45.8368" lon="4.68031">
        <ele>273.78983</ele>
        <time>2023-06-19T16:33:59.000Z</time>
      </trkpt>
      <trkpt lat="45.83684" lon="4.68037">
        <ele>273.69989</ele>
        <time>2023-06-19T16:34:00.000Z</time>
      </trkpt>
      <trkpt lat="45.83689" lon="4.68043">
        <ele>273.53802</ele>
        <time>2023-06-19T16:34:01.000Z</time>
      </trkpt>
      <trkpt lat="45.83693" lon="4.68049">
        <ele>273.39307</ele>
        <time>2023-06-19T16:34:02.000Z</time>
      </trkpt>
      <trkpt lat="45.83695" lon="4.68057">
        <ele>273.23642</ele>
        <time>2023-06-19T16:34:03.000Z</time>
      </trkpt>
      <trkpt lat="45.83695" lon="4.68065">
        <ele>273.12811</ele>
        <time>2023-06-19T16:34:04.000Z</time>
      </trkpt>
      <trkpt lat="45.83693" lon="4.68072">
        <ele>273.08459</ele>
        <time>2023-06-19T16:34:05.000Z</time>
      </trkpt>
      <trkpt lat="45.83689" lon="4.68075">
        <ele>273.05844</ele>
        <time>2023-06-19T16:34:06.000Z</time>
      </trkpt>
      <trkpt lat="45.83686" lon="4.68079">
        <ele>273.06946</ele>
        <time>2023-06-19T16:34:07.000Z</time>
      </trkpt>
      <trkpt lat="45.83682" lon="4.68082">
        <ele>272.95499</ele>
        <time>2023-06-19T16:34:08.000Z</time>
      </trkpt>
      <trkpt lat="45.83679" lon="4.68086">
        <ele>272.80576</ele>
        <time>2023-06-19T16:34:09.000Z</time>
      </trkpt>
      <trkpt lat="45.83676" lon="4.6809">
        <ele>272.84476</ele>
        <time>2023-06-19T16:34:10.000Z</time>
      </trkpt>
      <trkpt lat="45.83673" lon="4.68094">
        <ele>272.94952</ele>
        <time>2023-06-19T16:34:11.000Z</time>
      </trkpt>
      <trkpt lat="45.8367" lon="4.68097">
        <ele>273.03629</ele>
        <time>2023-06-19T16:34:12.000Z</time>
      </trkpt>
      <trkpt lat="45.83668" lon="4.68102">
        <ele>273.16278</ele>
        <time>2023-06-19T16:34:13.000Z</time>
      </trkpt>
      <trkpt lat="45.83665" lon="4.68106">
        <ele>273.32477</ele>
        <time>2023-06-19T16:34:14.000Z</time>
      </trkpt>
      <trkpt lat="45.83661" lon="4.6811">
        <ele>273.4841</ele>
        <time>2023-06-19T16:34:15.000Z</time>
      </trkpt>
      <trkpt lat="45.83658" lon="4.68113">
        <ele>273.65268</ele>
        <time>2023-06-19T16:34:16.000Z</time>
      </trkpt>
      <trkpt lat="45.83654" lon="4.68116">
        <ele>273.84357</ele>
        <time>2023-06-19T16:34:17.000Z</time>
      </trkpt>
      <trkpt lat="45.83652" lon="4.6812">
        <ele>274.05988</ele>
        <time>2023-06-19T16:34:18.000Z</time>
      </trkpt>
      <trkpt lat="45.83649" lon="4.68124">
        <ele>274.30945</ele>
        <time>2023-06-19T16:34:19.000Z</time>
      </trkpt>
      <trkpt lat="45.83646" lon="4.68128">
        <ele>274.48688</ele>
        <time>2023-06-19T16:34:20.000Z</time>
      </trkpt>
      <trkpt lat="45.83644" lon="4.68133">
        <ele>274.69525</ele>
        <time>2023-06-19T16:34:21.000Z</time>
      </trkpt>
      <trkpt lat="45.83641" lon="4.68137">
        <ele>274.89932</ele>
        <time>2023-06-19T16:34:22.000Z</time>
      </trkpt>
      <trkpt lat="45.83639" lon="4.68142">
        <ele>275.09317</ele>
        <time>2023-06-19T16:34:23.000Z</time>
      </trkpt>
      <trkpt lat="45.83636" lon="4.68147">
        <ele>275.22369</ele>
        <time>2023-06-19T16:34:24.000Z</time>
      </trkpt>
      <trkpt lat="45.83634" lon="4.68152">
        <ele>275.31387</ele>
        <time>2023-06-19T16:34:25.000Z</time>
      </trkpt>
      <trkpt lat="45.83632" lon="4.68157">
        <ele>275.39328</ele>
        <time>2023-06-19T16:34:26.000Z</time>
      </trkpt>
      <trkpt lat="45.83629" lon="4.68162">
        <ele>275.47064</ele>
        <time>2023-06-19T16:34:27.000Z</time>
      </trkpt>
      <trkpt lat="45.83627" lon="4.68167">
        <ele>275.62228</ele>
        <time>2023-06-19T16:34:28.000Z</time>
      </trkpt>
      <trkpt lat="45.83625" lon="4.68172">
        <ele>275.77567</ele>
        <time>2023-06-19T16:34:29.000Z</time>
      </trkpt>
      <trkpt lat="45.83623" lon="4.68177">
        <ele>275.95123</ele>
        <time>2023-06-19T16:34:30.000Z</time>
      </trkpt>
      <trkpt lat="45.83621" lon="4.68183">
        <ele>275.90668</ele>
        <time>2023-06-19T16:34:31.000Z</time>
      </trkpt>
      <trkpt lat="45.83619" lon="4.68188">
        <ele>275.87787</ele>
        <time>2023-06-19T16:34:32.000Z</time>
      </trkpt>
      <trkpt lat="45.83616" lon="4.68194">
        <ele>276.00867</ele>
        <time>2023-06-19T16:34:33.000Z</time>
      </trkpt>
      <trkpt lat="45.83614" lon="4.68199">
        <ele>275.98492</ele>
        <time>2023-06-19T16:34:34.000Z</time>
      </trkpt>
      <trkpt lat="45.83612" lon="4.68205">
        <ele>275.93597</ele>
        <time>2023-06-19T16:34:35.000Z</time>
      </trkpt>
      <trkpt lat="45.83609" lon="4.6821">
        <ele>275.71713</ele>
        <time>2023-06-19T16:34:36.000Z</time>
      </trkpt>
      <trkpt lat="45.83607" lon="4.68215">
        <ele>275.49182</ele>
        <time>2023-06-19T16:34:37.000Z</time>
      </trkpt>
      <trkpt lat="45.83605" lon="4.6822">
        <ele>275.27762</ele>
        <time>2023-06-19T16:34:38.000Z</time>
      </trkpt>
      <trkpt lat="45.83603" lon="4.68225">
        <ele>275.03473</ele>
        <time>2023-06-19T16:34:39.000Z</time>
      </trkpt>
      <trkpt lat="45.83601" lon="4.6823">
        <ele>274.81183</ele>
        <time>2023-06-19T16:34:40.000Z</time>
      </trkpt>
      <trkpt lat="45.83599" lon="4.68235">
        <ele>274.81134</ele>
        <time>2023-06-19T16:34:41.000Z</time>
      </trkpt>
      <trkpt lat="45.83597" lon="4.68239">
        <ele>274.77438</ele>
        <time>2023-06-19T16:34:42.000Z</time>
      </trkpt>
      <trkpt lat="45.83595" lon="4.68244">
        <ele>274.91122</ele>
        <time>2023-06-19T16:34:43.000Z</time>
      </trkpt>
      <trkpt lat="45.83594" lon="4.68248">
        <ele>275.08405</ele>
        <time>2023-06-19T16:34:44.000Z</time>
      </trkpt>
      <trkpt lat="45.83593" lon="4.68253">
        <ele>275.04742</ele>
        <time>2023-06-19T16:34:45.000Z</time>
      </trkpt>
      <trkpt lat="45.83592" lon="4.68258">
        <ele>275.07843</ele>
        <time>2023-06-19T16:34:46.000Z</time>
      </trkpt>
      <trkpt lat="45.83591" lon="4.68263">
        <ele>275.13531</ele>
        <time>2023-06-19T16:34:47.000Z</time>
      </trkpt>
      <trkpt lat="45.8359" lon="4.68267">
        <ele>275.11914</ele>
        <time>2023-06-19T16:34:48.000Z</time>
      </trkpt>
      <trkpt lat="45.8359" lon="4.68272">
        <ele>275.16638</ele>
        <time>2023-06-19T16:34:49.000Z</time>
      </trkpt>
      <trkpt lat="45.83589" lon="4.68275">
        <ele>275.19214</ele>
        <time>2023-06-19T16:34:50.000Z</time>
      </trkpt>
      <trkpt lat="45.83589" lon="4.68278">
        <ele>275.40765</ele>
        <time>2023-06-19T16:34:51.000Z</time>
      </trkpt>
      <trkpt lat="45.83588" lon="4.68282">
        <ele>275.58087</ele>
        <time>2023-06-19T16:34:53.000Z</time>
      </trkpt>
      <trkpt lat="45.83587" lon="4.68284">
        <ele>275.5242</ele>
        <time>2023-06-19T16:34:59.000Z</time>
      </trkpt>
      <trkpt lat="45.83586" lon="4.68287">
        <ele>275.5943</ele>
        <time>2023-06-19T16:36:13.000Z</time>
      </trkpt>
      <trkpt lat="45.83584" lon="4.68291">
        <ele>275.67813</ele>
        <time>2023-06-19T16:36:15.000Z</time>
      </trkpt>
      <trkpt lat="45.83583" lon="4.68293">
        <ele>275.83398</ele>
        <time>2023-06-19T16:36:16.000Z</time>
      </trkpt>
      <trkpt lat="45.83582" lon="4.68296">
        <ele>276.01328</ele>
        <time>2023-06-19T16:36:17.000Z</time>
      </trkpt>
      <trkpt lat="45.83581" lon="4.68299">
        <ele>276.17471</ele>
        <time>2023-06-19T16:36:18.000Z</time>
      </trkpt>
      <trkpt lat="45.8358" lon="4.68303">
        <ele>276.34875</ele>
        <time>2023-06-19T16:36:19.000Z</time>
      </trkpt>
      <trkpt lat="45.8358" lon="4.68307">
        <ele>276.52777</ele>
        <time>2023-06-19T16:36:20.000Z</time>
      </trkpt>
      <trkpt lat="45.83579" lon="4.68312">
        <ele>276.66632</ele>
        <time>2023-06-19T16:36:21.000Z</time>
      </trkpt>
      <trkpt lat="45.83578" lon="4.68318">
        <ele>276.80731</ele>
        <time>2023-06-19T16:36:22.000Z</time>
      </trkpt>
      <trkpt lat="45.83578" lon="4.68324">
        <ele>276.78217</ele>
        <time>2023-06-19T16:36:23.000Z</time>
      </trkpt>
      <trkpt lat="45.8358" lon="4.6833">
        <ele>276.70673</ele>
        <time>2023-06-19T16:36:24.000Z</time>
      </trkpt>
      <trkpt lat="45.8358" lon="4.68338">
        <ele>276.82529</ele>
        <time>2023-06-19T16:36:25.000Z</time>
      </trkpt>
      <trkpt lat="45.8358" lon="4.68345">
        <ele>276.89005</ele>
        <time>2023-06-19T16:36:26.000Z</time>
      </trkpt>
      <trkpt lat="45.83581" lon="4.68352">
        <ele>276.94305</ele>
        <time>2023-06-19T16:36:27.000Z</time>
      </trkpt>
      <trkpt lat="45.83582" lon="4.6836">
        <ele>276.96811</ele>
        <time>2023-06-19T16:36:28.000Z</time>
      </trkpt>
      <trkpt lat="45.83582" lon="4.68368">
        <ele>276.91684</ele>
        <time>2023-06-19T16:36:29.000Z</time>
      </trkpt>
      <trkpt lat="45.83582" lon="4.68375">
        <ele>276.8732</ele>
        <time>2023-06-19T16:36:30.000Z</time>
      </trkpt>
      <trkpt lat="45.83577" lon="4.68383">
        <ele>276.7883</ele>
        <time>2023-06-19T16:36:31.000Z</time>
      </trkpt>
      <trkpt lat="45.83574" lon="4.6839">
        <ele>276.73227</ele>
        <time>2023-06-19T16:36:32.000Z</time>
      </trkpt>
      <trkpt lat="45.83572" lon="4.68397">
        <ele>276.71191</ele>
        <time>2023-06-19T16:36:33.000Z</time>
      </trkpt>
      <trkpt lat="45.83568" lon="4.68402">
        <ele>276.68253</ele>
        <time>2023-06-19T16:36:34.000Z</time>
      </trkpt>
      <trkpt lat="45.83565" lon="4.68408">
        <ele>276.66724</ele>
        <time>2023-06-19T16:36:35.000Z</time>
      </trkpt>
      <trkpt lat="45.8356" lon="4.68411">
        <ele>276.66473</ele>
        <time>2023-06-19T16:36:36.000Z</time>
      </trkpt>
      <trkpt lat="45.83556" lon="4.68416">
        <ele>276.7222</ele>
        <time>2023-06-19T16:36:37.000Z</time>
      </trkpt>
      <trkpt lat="45.83552" lon="4.68422">
        <ele>276.62711</ele>
        <time>2023-06-19T16:36:38.000Z</time>
      </trkpt>
      <trkpt lat="45.83547" lon="4.68426">
        <ele>276.52206</ele>
        <time>2023-06-19T16:36:39.000Z</time>
      </trkpt>
      <trkpt lat="45.83542" lon="4.68432">
        <ele>276.42117</ele>
        <time>2023-06-19T16:36:40.000Z</time>
      </trkpt>
      <trkpt lat="45.83538" lon="4.68436">
        <ele>276.33456</ele>
        <time>2023-06-19T16:36:41.000Z</time>
      </trkpt>
      <trkpt lat="45.83533" lon="4.6844">
        <ele>276.26636</ele>
        <time>2023-06-19T16:36:42.000Z</time>
      </trkpt>
      <trkpt lat="45.83529" lon="4.68443">
        <ele>276.23041</ele>
        <time>2023-06-19T16:36:43.000Z</time>
      </trkpt>
      <trkpt lat="45.83524" lon="4.68446">
        <ele>276.19257</ele>
        <time>2023-06-19T16:36:44.000Z</time>
      </trkpt>
      <trkpt lat="45.8352" lon="4.68448">
        <ele>276.21478</ele>
        <time>2023-06-19T16:36:45.000Z</time>
      </trkpt>
      <trkpt lat="45.83515" lon="4.68452">
        <ele>276.22723</ele>
        <time>2023-06-19T16:36:46.000Z</time>
      </trkpt>
      <trkpt lat="45.83511" lon="4.68455">
        <ele>276.22031</ele>
        <time>2023-06-19T16:36:47.000Z</time>
      </trkpt>
      <trkpt lat="45.83507" lon="4.68458">
        <ele>276.2439</ele>
        <time>2023-06-19T16:36:48.000Z</time>
      </trkpt>
      <trkpt lat="45.83502" lon="4.68461">
        <ele>276.28717</ele>
        <time>2023-06-19T16:36:49.000Z</time>
      </trkpt>
      <trkpt lat="45.83497" lon="4.68464">
        <ele>276.31476</ele>
        <time>2023-06-19T16:36:50.000Z</time>
      </trkpt>
      <trkpt lat="45.83493" lon="4.68467">
        <ele>276.3674</ele>
        <time>2023-06-19T16:36:51.000Z</time>
      </trkpt>
      <trkpt lat="45.83488" lon="4.6847">
        <ele>276.39313</ele>
        <time>2023-06-19T16:36:52.000Z</time>
      </trkpt>
      <trkpt lat="45.83484" lon="4.68472">
        <ele>276.45953</ele>
        <time>2023-06-19T16:36:53.000Z</time>
      </trkpt>
      <trkpt lat="45.8348" lon="4.68476">
        <ele>276.62946</ele>
        <time>2023-06-19T16:36:54.000Z</time>
      </trkpt>
      <trkpt lat="45.83475" lon="4.68478">
        <ele>276.80014</ele>
        <time>2023-06-19T16:36:55.000Z</time>
      </trkpt>
      <trkpt lat="45.83472" lon="4.6848">
        <ele>277.00861</ele>
        <time>2023-06-19T16:36:56.000Z</time>
      </trkpt>
      <trkpt lat="45.83468" lon="4.68483">
        <ele>276.95929</ele>
        <time>2023-06-19T16:36:57.000Z</time>
      </trkpt>
      <trkpt lat="45.83464" lon="4.68486">
        <ele>277.07257</ele>
        <time>2023-06-19T16:36:58.000Z</time>
      </trkpt>
      <trkpt lat="45.8346" lon="4.68489">
        <ele>277.19489</ele>
        <time>2023-06-19T16:36:59.000Z</time>
      </trkpt>
      <trkpt lat="45.83456" lon="4.6849">
        <ele>277.30206</ele>
        <time>2023-06-19T16:37:00.000Z</time>
      </trkpt>
      <trkpt lat="45.83452" lon="4.68493">
        <ele>277.44174</ele>
        <time>2023-06-19T16:37:01.000Z</time>
      </trkpt>
      <trkpt lat="45.83448" lon="4.68495">
        <ele>277.56967</ele>
        <time>2023-06-19T16:37:02.000Z</time>
      </trkpt>
      <trkpt lat="45.83444" lon="4.68498">
        <ele>277.65717</ele>
        <time>2023-06-19T16:37:03.000Z</time>
      </trkpt>
      <trkpt lat="45.8344" lon="4.685">
        <ele>277.76093</ele>
        <time>2023-06-19T16:37:04.000Z</time>
      </trkpt>
      <trkpt lat="45.83437" lon="4.68502">
        <ele>277.8111</ele>
        <time>2023-06-19T16:37:05.000Z</time>
      </trkpt>
      <trkpt lat="45.83433" lon="4.68504">
        <ele>277.9462</ele>
        <time>2023-06-19T16:37:06.000Z</time>
      </trkpt>
      <trkpt lat="45.83429" lon="4.68506">
        <ele>278.12866</ele>
        <time>2023-06-19T16:37:07.000Z</time>
      </trkpt>
      <trkpt lat="45.83426" lon="4.68508">
        <ele>278.32541</ele>
        <time>2023-06-19T16:37:08.000Z</time>
      </trkpt>
      <trkpt lat="45.83422" lon="4.6851">
        <ele>278.34927</ele>
        <time>2023-06-19T16:37:09.000Z</time>
      </trkpt>
      <trkpt lat="45.83418" lon="4.68513">
        <ele>278.41675</ele>
        <time>2023-06-19T16:37:10.000Z</time>
      </trkpt>
      <trkpt lat="45.83414" lon="4.68514">
        <ele>278.50638</ele>
        <time>2023-06-19T16:37:11.000Z</time>
      </trkpt>
      <trkpt lat="45.83411" lon="4.68516">
        <ele>278.61139</ele>
        <time>2023-06-19T16:37:12.000Z</time>
      </trkpt>
      <trkpt lat="45.83407" lon="4.68518">
        <ele>278.7348</ele>
        <time>2023-06-19T16:37:13.000Z</time>
      </trkpt>
      <trkpt lat="45.83403" lon="4.6852">
        <ele>278.78488</ele>
        <time>2023-06-19T16:37:14.000Z</time>
      </trkpt>
      <trkpt lat="45.83399" lon="4.68523">
        <ele>278.82892</ele>
        <time>2023-06-19T16:37:15.000Z</time>
      </trkpt>
      <trkpt lat="45.83396" lon="4.68525">
        <ele>278.90698</ele>
        <time>2023-06-19T16:37:16.000Z</time>
      </trkpt>
      <trkpt lat="45.83392" lon="4.68527">
        <ele>279.19348</ele>
        <time>2023-06-19T16:37:17.000Z</time>
      </trkpt>
      <trkpt lat="45.83388" lon="4.68529">
        <ele>279.48975</ele>
        <time>2023-06-19T16:37:18.000Z</time>
      </trkpt>
      <trkpt lat="45.83385" lon="4.68531">
        <ele>279.66718</ele>
        <time>2023-06-19T16:37:19.000Z</time>
      </trkpt>
      <trkpt lat="45.83381" lon="4.68534">
        <ele>279.87131</ele>
        <time>2023-06-19T16:37:20.000Z</time>
      </trkpt>
      <trkpt lat="45.83377" lon="4.68536">
        <ele>280.07352</ele>
        <time>2023-06-19T16:37:21.000Z</time>
      </trkpt>
      <trkpt lat="45.83374" lon="4.68538">
        <ele>280.28186</ele>
        <time>2023-06-19T16:37:22.000Z</time>
      </trkpt>
      <trkpt lat="45.8337" lon="4.6854">
        <ele>280.50952</ele>
        <time>2023-06-19T16:37:23.000Z</time>
      </trkpt>
      <trkpt lat="45.83367" lon="4.68542">
        <ele>280.7323</ele>
        <time>2023-06-19T16:37:24.000Z</time>
      </trkpt>
      <trkpt lat="45.83363" lon="4.68544">
        <ele>280.96225</ele>
        <time>2023-06-19T16:37:25.000Z</time>
      </trkpt>
      <trkpt lat="45.8336" lon="4.68545">
        <ele>281.12274</ele>
        <time>2023-06-19T16:37:26.000Z</time>
      </trkpt>
      <trkpt lat="45.83356" lon="4.68545">
        <ele>281.23813</ele>
        <time>2023-06-19T16:37:27.000Z</time>
      </trkpt>
      <trkpt lat="45.83352" lon="4.68545">
        <ele>281.32382</ele>
        <time>2023-06-19T16:37:28.000Z</time>
      </trkpt>
      <trkpt lat="45.83349" lon="4.68545">
        <ele>281.58966</ele>
        <time>2023-06-19T16:37:29.000Z</time>
      </trkpt>
      <trkpt lat="45.83345" lon="4.68543">
        <ele>281.81039</ele>
        <time>2023-06-19T16:37:30.000Z</time>
      </trkpt>
      <trkpt lat="45.83342" lon="4.68541">
        <ele>282.02927</ele>
        <time>2023-06-19T16:37:31.000Z</time>
      </trkpt>
      <trkpt lat="45.83338" lon="4.68538">
        <ele>282.25943</ele>
        <time>2023-06-19T16:37:32.000Z</time>
      </trkpt>
      <trkpt lat="45.83335" lon="4.68535">
        <ele>282.44803</ele>
        <time>2023-06-19T16:37:33.000Z</time>
      </trkpt>
      <trkpt lat="45.83332" lon="4.68533">
        <ele>282.61462</ele>
        <time>2023-06-19T16:37:34.000Z</time>
      </trkpt>
      <trkpt lat="45.83328" lon="4.6853">
        <ele>282.75421</ele>
        <time>2023-06-19T16:37:35.000Z</time>
      </trkpt>
      <trkpt lat="45.83324" lon="4.68528">
        <ele>282.90152</ele>
        <time>2023-06-19T16:37:36.000Z</time>
      </trkpt>
      <trkpt lat="45.83321" lon="4.68527">
        <ele>282.99039</ele>
        <time>2023-06-19T16:37:37.000Z</time>
      </trkpt>
      <trkpt lat="45.83316" lon="4.68526">
        <ele>283.08838</ele>
        <time>2023-06-19T16:37:38.000Z</time>
      </trkpt>
      <trkpt lat="45.83312" lon="4.68528">
        <ele>283.16632</ele>
        <time>2023-06-19T16:37:39.000Z</time>
      </trkpt>
      <trkpt lat="45.83308" lon="4.68531">
        <ele>283.22925</ele>
        <time>2023-06-19T16:37:40.000Z</time>
      </trkpt>
      <trkpt lat="45.83306" lon="4.68537">
        <ele>283.26044</ele>
        <time>2023-06-19T16:37:41.000Z</time>
      </trkpt>
      <trkpt lat="45.83307" lon="4.68546">
        <ele>283.29053</ele>
        <time>2023-06-19T16:37:42.000Z</time>
      </trkpt>
      <trkpt lat="45.83308" lon="4.68552">
        <ele>283.31192</ele>
        <time>2023-06-19T16:37:43.000Z</time>
      </trkpt>
      <trkpt lat="45.83311" lon="4.68558">
        <ele>283.33151</ele>
        <time>2023-06-19T16:37:44.000Z</time>
      </trkpt>
      <trkpt lat="45.83314" lon="4.68565">
        <ele>283.30048</ele>
        <time>2023-06-19T16:37:45.000Z</time>
      </trkpt>
      <trkpt lat="45.83317" lon="4.68572">
        <ele>283.25693</ele>
        <time>2023-06-19T16:37:46.000Z</time>
      </trkpt>
      <trkpt lat="45.83318" lon="4.6858">
        <ele>283.19821</ele>
        <time>2023-06-19T16:37:47.000Z</time>
      </trkpt>
      <trkpt lat="45.8332" lon="4.68588">
        <ele>283.13922</ele>
        <time>2023-06-19T16:37:48.000Z</time>
      </trkpt>
      <trkpt lat="45.83321" lon="4.68597">
        <ele>283.05792</ele>
        <time>2023-06-19T16:37:49.000Z</time>
      </trkpt>
      <trkpt lat="45.83321" lon="4.68607">
        <ele>282.97968</ele>
        <time>2023-06-19T16:37:50.000Z</time>
      </trkpt>
      <trkpt lat="45.83322" lon="4.68615">
        <ele>282.88626</ele>
        <time>2023-06-19T16:37:51.000Z</time>
      </trkpt>
      <trkpt lat="45.83322" lon="4.68624">
        <ele>282.90399</ele>
        <time>2023-06-19T16:37:52.000Z</time>
      </trkpt>
      <trkpt lat="45.83322" lon="4.68633">
        <ele>282.94147</ele>
        <time>2023-06-19T16:37:53.000Z</time>
      </trkpt>
      <trkpt lat="45.83329" lon="4.68641">
        <ele>282.98224</ele>
        <time>2023-06-19T16:37:54.000Z</time>
      </trkpt>
      <trkpt lat="45.83331" lon="4.68649">
        <ele>282.93927</ele>
        <time>2023-06-19T16:37:55.000Z</time>
      </trkpt>
      <trkpt lat="45.83333" lon="4.68657">
        <ele>282.63559</ele>
        <time>2023-06-19T16:37:56.000Z</time>
      </trkpt>
      <trkpt lat="45.83336" lon="4.68664">
        <ele>282.40332</ele>
        <time>2023-06-19T16:37:57.000Z</time>
      </trkpt>
      <trkpt lat="45.83339" lon="4.68671">
        <ele>282.13586</ele>
        <time>2023-06-19T16:37:58.000Z</time>
      </trkpt>
      <trkpt lat="45.83342" lon="4.68679">
        <ele>282.01727</ele>
        <time>2023-06-19T16:37:59.000Z</time>
      </trkpt>
      <trkpt lat="45.83345" lon="4.68687">
        <ele>281.89606</ele>
        <time>2023-06-19T16:38:00.000Z</time>
      </trkpt>
      <trkpt lat="45.83349" lon="4.68693">
        <ele>281.76169</ele>
        <time>2023-06-19T16:38:01.000Z</time>
      </trkpt>
      <trkpt lat="45.83353" lon="4.687">
        <ele>281.62305</ele>
        <time>2023-06-19T16:38:02.000Z</time>
      </trkpt>
      <trkpt lat="45.83356" lon="4.68707">
        <ele>281.47028</ele>
        <time>2023-06-19T16:38:03.000Z</time>
      </trkpt>
      <trkpt lat="45.83359" lon="4.68714">
        <ele>281.31241</ele>
        <time>2023-06-19T16:38:04.000Z</time>
      </trkpt>
      <trkpt lat="45.83362" lon="4.68721">
        <ele>281.17975</ele>
        <time>2023-06-19T16:38:05.000Z</time>
      </trkpt>
      <trkpt lat="45.83365" lon="4.68728">
        <ele>281.02325</ele>
        <time>2023-06-19T16:38:06.000Z</time>
      </trkpt>
      <trkpt lat="45.83368" lon="4.68733">
        <ele>280.89075</ele>
        <time>2023-06-19T16:38:07.000Z</time>
      </trkpt>
      <trkpt lat="45.83371" lon="4.68741">
        <ele>280.73346</ele>
        <time>2023-06-19T16:38:08.000Z</time>
      </trkpt>
      <trkpt lat="45.83374" lon="4.68747">
        <ele>280.57916</ele>
        <time>2023-06-19T16:38:09.000Z</time>
      </trkpt>
      <trkpt lat="45.83378" lon="4.68754">
        <ele>280.41501</ele>
        <time>2023-06-19T16:38:10.000Z</time>
      </trkpt>
      <trkpt lat="45.83381" lon="4.68762">
        <ele>280.27448</ele>
        <time>2023-06-19T16:38:11.000Z</time>
      </trkpt>
      <trkpt lat="45.83384" lon="4.6877">
        <ele>279.9744</ele>
        <time>2023-06-19T16:38:12.000Z</time>
      </trkpt>
      <trkpt lat="45.83387" lon="4.68777">
        <ele>279.65048</ele>
        <time>2023-06-19T16:38:13.000Z</time>
      </trkpt>
      <trkpt lat="45.8339" lon="4.68785">
        <ele>279.34094</ele>
        <time>2023-06-19T16:38:14.000Z</time>
      </trkpt>
      <trkpt lat="45.83393" lon="4.68794">
        <ele>279.1413</ele>
        <time>2023-06-19T16:38:15.000Z</time>
      </trkpt>
      <trkpt lat="45.83395" lon="4.68802">
        <ele>279.18036</ele>
        <time>2023-06-19T16:38:16.000Z</time>
      </trkpt>
      <trkpt lat="45.83398" lon="4.68811">
        <ele>279.20795</ele>
        <time>2023-06-19T16:38:17.000Z</time>
      </trkpt>
      <trkpt lat="45.834" lon="4.6882">
        <ele>279.25482</ele>
        <time>2023-06-19T16:38:18.000Z</time>
      </trkpt>
      <trkpt lat="45.83402" lon="4.68829">
        <ele>279.31174</ele>
        <time>2023-06-19T16:38:19.000Z</time>
      </trkpt>
      <trkpt lat="45.83405" lon="4.68839">
        <ele>279.23566</ele>
        <time>2023-06-19T16:38:20.000Z</time>
      </trkpt>
      <trkpt lat="45.83408" lon="4.68848">
        <ele>279.1445</ele>
        <time>2023-06-19T16:38:21.000Z</time>
      </trkpt>
      <trkpt lat="45.8341" lon="4.68856">
        <ele>279.04877</ele>
        <time>2023-06-19T16:38:22.000Z</time>
      </trkpt>
      <trkpt lat="45.83411" lon="4.68865">
        <ele>278.98871</ele>
        <time>2023-06-19T16:38:23.000Z</time>
      </trkpt>
      <trkpt lat="45.83414" lon="4.68874">
        <ele>278.95465</ele>
        <time>2023-06-19T16:38:24.000Z</time>
      </trkpt>
      <trkpt lat="45.83416" lon="4.68883">
        <ele>278.96088</ele>
        <time>2023-06-19T16:38:25.000Z</time>
      </trkpt>
      <trkpt lat="45.83416" lon="4.68889">
        <ele>278.9841</ele>
        <time>2023-06-19T16:38:26.000Z</time>
      </trkpt>
      <trkpt lat="45.83418" lon="4.68896">
        <ele>279.03464</ele>
        <time>2023-06-19T16:38:27.000Z</time>
      </trkpt>
      <trkpt lat="45.83419" lon="4.68901">
        <ele>279.14386</ele>
        <time>2023-06-19T16:38:28.000Z</time>
      </trkpt>
      <trkpt lat="45.8342" lon="4.68908">
        <ele>279.2438</ele>
        <time>2023-06-19T16:38:29.000Z</time>
      </trkpt>
      <trkpt lat="45.83422" lon="4.68913">
        <ele>279.33533</ele>
        <time>2023-06-19T16:38:30.000Z</time>
      </trkpt>
      <trkpt lat="45.83423" lon="4.68919">
        <ele>279.41409</ele>
        <time>2023-06-19T16:38:31.000Z</time>
      </trkpt>
      <trkpt lat="45.83424" lon="4.68925">
        <ele>279.57745</ele>
        <time>2023-06-19T16:38:32.000Z</time>
      </trkpt>
      <trkpt lat="45.83424" lon="4.68931">
        <ele>279.77094</ele>
        <time>2023-06-19T16:38:33.000Z</time>
      </trkpt>
      <trkpt lat="45.83422" lon="4.68935">
        <ele>279.97943</ele>
        <time>2023-06-19T16:38:34.000Z</time>
      </trkpt>
      <trkpt lat="45.8342" lon="4.68942">
        <ele>280.20242</ele>
        <time>2023-06-19T16:38:35.000Z</time>
      </trkpt>
      <trkpt lat="45.83418" lon="4.68946">
        <ele>280.45679</ele>
        <time>2023-06-19T16:38:36.000Z</time>
      </trkpt>
      <trkpt lat="45.83416" lon="4.68951">
        <ele>280.70667</ele>
        <time>2023-06-19T16:38:37.000Z</time>
      </trkpt>
      <trkpt lat="45.83415" lon="4.68956">
        <ele>280.9436</ele>
        <time>2023-06-19T16:38:38.000Z</time>
      </trkpt>
      <trkpt lat="45.83413" lon="4.68962">
        <ele>281.0463</ele>
        <time>2023-06-19T16:38:39.000Z</time>
      </trkpt>
      <trkpt lat="45.83411" lon="4.68967">
        <ele>281.33688</ele>
        <time>2023-06-19T16:38:40.000Z</time>
      </trkpt>
      <trkpt lat="45.83409" lon="4.68973">
        <ele>281.69226</ele>
        <time>2023-06-19T16:38:41.000Z</time>
      </trkpt>
      <trkpt lat="45.83407" lon="4.68979">
        <ele>282.0751</ele>
        <time>2023-06-19T16:38:42.000Z</time>
      </trkpt>
      <trkpt lat="45.83406" lon="4.68985">
        <ele>282.45148</ele>
        <time>2023-06-19T16:38:43.000Z</time>
      </trkpt>
      <trkpt lat="45.83405" lon="4.6899">
        <ele>282.78302</ele>
        <time>2023-06-19T16:38:44.000Z</time>
      </trkpt>
      <trkpt lat="45.83404" lon="4.68996">
        <ele>283.13028</ele>
        <time>2023-06-19T16:38:45.000Z</time>
      </trkpt>
      <trkpt lat="45.83402" lon="4.69004">
        <ele>283.53201</ele>
        <time>2023-06-19T16:38:46.000Z</time>
      </trkpt>
      <trkpt lat="45.83401" lon="4.69009">
        <ele>283.90308</ele>
        <time>2023-06-19T16:38:47.000Z</time>
      </trkpt>
      <trkpt lat="45.83398" lon="4.69014">
        <ele>284.20728</ele>
        <time>2023-06-19T16:38:48.000Z</time>
      </trkpt>
      <trkpt lat="45.83396" lon="4.69019">
        <ele>284.62518</ele>
        <time>2023-06-19T16:38:49.000Z</time>
      </trkpt>
      <trkpt lat="45.83394" lon="4.69024">
        <ele>285.08984</ele>
        <time>2023-06-19T16:38:50.000Z</time>
      </trkpt>
      <trkpt lat="45.83392" lon="4.6903">
        <ele>285.55319</ele>
        <time>2023-06-19T16:38:51.000Z</time>
      </trkpt>
      <trkpt lat="45.83389" lon="4.69035">
        <ele>286.00433</ele>
        <time>2023-06-19T16:38:52.000Z</time>
      </trkpt>
      <trkpt lat="45.83386" lon="4.6904">
        <ele>286.44891</ele>
        <time>2023-06-19T16:38:53.000Z</time>
      </trkpt>
      <trkpt lat="45.83383" lon="4.69046">
        <ele>286.88885</ele>
        <time>2023-06-19T16:38:54.000Z</time>
      </trkpt>
      <trkpt lat="45.8338" lon="4.6905">
        <ele>287.30167</ele>
        <time>2023-06-19T16:38:55.000Z</time>
      </trkpt>
      <trkpt lat="45.83379" lon="4.69054">
        <ele>287.65894</ele>
        <time>2023-06-19T16:38:56.000Z</time>
      </trkpt>
      <trkpt lat="45.83377" lon="4.69059">
        <ele>288.00226</ele>
        <time>2023-06-19T16:38:57.000Z</time>
      </trkpt>
      <trkpt lat="45.83376" lon="4.69064">
        <ele>288.30609</ele>
        <time>2023-06-19T16:38:58.000Z</time>
      </trkpt>
      <trkpt lat="45.83375" lon="4.69069">
        <ele>288.7695</ele>
        <time>2023-06-19T16:38:59.000Z</time>
      </trkpt>
      <trkpt lat="45.83374" lon="4.69073">
        <ele>289.19803</ele>
        <time>2023-06-19T16:39:00.000Z</time>
      </trkpt>
      <trkpt lat="45.83372" lon="4.69079">
        <ele>289.61908</ele>
        <time>2023-06-19T16:39:01.000Z</time>
      </trkpt>
      <trkpt lat="45.83371" lon="4.69085">
        <ele>290.03766</ele>
        <time>2023-06-19T16:39:02.000Z</time>
      </trkpt>
      <trkpt lat="45.8337" lon="4.69092">
        <ele>290.46756</ele>
        <time>2023-06-19T16:39:03.000Z</time>
      </trkpt>
      <trkpt lat="45.83369" lon="4.69098">
        <ele>290.95407</ele>
        <time>2023-06-19T16:39:04.000Z</time>
      </trkpt>
      <trkpt lat="45.83369" lon="4.69104">
        <ele>291.41122</ele>
        <time>2023-06-19T16:39:05.000Z</time>
      </trkpt>
      <trkpt lat="45.83368" lon="4.6911">
        <ele>291.83679</ele>
        <time>2023-06-19T16:39:06.000Z</time>
      </trkpt>
      <trkpt lat="45.83367" lon="4.69116">
        <ele>292.27472</ele>
        <time>2023-06-19T16:39:07.000Z</time>
      </trkpt>
      <trkpt lat="45.83366" lon="4.69122">
        <ele>292.77484</ele>
        <time>2023-06-19T16:39:08.000Z</time>
      </trkpt>
      <trkpt lat="45.83366" lon="4.69128">
        <ele>293.16675</ele>
        <time>2023-06-19T16:39:09.000Z</time>
      </trkpt>
      <trkpt lat="45.83366" lon="4.69133">
        <ele>293.52972</ele>
        <time>2023-06-19T16:39:10.000Z</time>
      </trkpt>
      <trkpt lat="45.83366" lon="4.69139">
        <ele>293.85455</ele>
        <time>2023-06-19T16:39:11.000Z</time>
      </trkpt>
      <trkpt lat="45.83365" lon="4.69145">
        <ele>294.15747</ele>
        <time>2023-06-19T16:39:12.000Z</time>
      </trkpt>
      <trkpt lat="45.83365" lon="4.6915">
        <ele>294.47382</ele>
        <time>2023-06-19T16:39:13.000Z</time>
      </trkpt>
      <trkpt lat="45.83364" lon="4.69155">
        <ele>294.78583</ele>
        <time>2023-06-19T16:39:14.000Z</time>
      </trkpt>
      <trkpt lat="45.83364" lon="4.69161">
        <ele>295.11615</ele>
        <time>2023-06-19T16:39:15.000Z</time>
      </trkpt>
      <trkpt lat="45.83363" lon="4.69166">
        <ele>295.41629</ele>
        <time>2023-06-19T16:39:16.000Z</time>
      </trkpt>
      <trkpt lat="45.83363" lon="4.6917">
        <ele>295.6839</ele>
        <time>2023-06-19T16:39:17.000Z</time>
      </trkpt>
      <trkpt lat="45.83363" lon="4.69174">
        <ele>296.00522</ele>
        <time>2023-06-19T16:39:18.000Z</time>
      </trkpt>
      <trkpt lat="45.83364" lon="4.69177">
        <ele>296.29782</ele>
        <time>2023-06-19T16:39:19.000Z</time>
      </trkpt>
      <trkpt lat="45.83364" lon="4.6918">
        <ele>296.54669</ele>
        <time>2023-06-19T16:39:20.000Z</time>
      </trkpt>
      <trkpt lat="45.83364" lon="4.69183">
        <ele>296.73166</ele>
        <time>2023-06-19T16:39:21.000Z</time>
      </trkpt>
      <trkpt lat="45.83364" lon="4.69186">
        <ele>296.90396</ele>
        <time>2023-06-19T16:39:22.000Z</time>
      </trkpt>
      <trkpt lat="45.83363" lon="4.69189">
        <ele>297.05084</ele>
        <time>2023-06-19T16:39:23.000Z</time>
      </trkpt>
      <trkpt lat="45.83362" lon="4.69192">
        <ele>297.17017</ele>
        <time>2023-06-19T16:39:24.000Z</time>
      </trkpt>
      <trkpt lat="45.83362" lon="4.69195">
        <ele>297.30072</ele>
        <time>2023-06-19T16:39:25.000Z</time>
      </trkpt>
      <trkpt lat="45.83361" lon="4.69199">
        <ele>297.40897</ele>
        <time>2023-06-19T16:39:26.000Z</time>
      </trkpt>
      <trkpt lat="45.83361" lon="4.69201">
        <ele>297.50687</ele>
        <time>2023-06-19T16:39:27.000Z</time>
      </trkpt>
      <trkpt lat="45.8336" lon="4.69204">
        <ele>297.5672</ele>
        <time>2023-06-19T16:39:28.000Z</time>
      </trkpt>
      <trkpt lat="45.8336" lon="4.69207">
        <ele>297.5976</ele>
        <time>2023-06-19T16:39:29.000Z</time>
      </trkpt>
      <trkpt lat="45.83359" lon="4.69211">
        <ele>297.61127</ele>
        <time>2023-06-19T16:39:30.000Z</time>
      </trkpt>
      <trkpt lat="45.83358" lon="4.69214">
        <ele>297.64658</ele>
        <time>2023-06-19T16:39:31.000Z</time>
      </trkpt>
      <trkpt lat="45.83358" lon="4.69218">
        <ele>297.64124</ele>
        <time>2023-06-19T16:39:32.000Z</time>
      </trkpt>
      <trkpt lat="45.83358" lon="4.69221">
        <ele>297.62506</ele>
        <time>2023-06-19T16:39:33.000Z</time>
      </trkpt>
      <trkpt lat="45.83358" lon="4.69225">
        <ele>297.57404</ele>
        <time>2023-06-19T16:39:34.000Z</time>
      </trkpt>
      <trkpt lat="45.83358" lon="4.69228">
        <ele>297.51428</ele>
        <time>2023-06-19T16:39:35.000Z</time>
      </trkpt>
      <trkpt lat="45.83358" lon="4.69231">
        <ele>297.43048</ele>
        <time>2023-06-19T16:39:36.000Z</time>
      </trkpt>
      <trkpt lat="45.83358" lon="4.69234">
        <ele>297.36896</ele>
        <time>2023-06-19T16:39:37.000Z</time>
      </trkpt>
      <trkpt lat="45.83357" lon="4.69237">
        <ele>297.28421</ele>
        <time>2023-06-19T16:39:38.000Z</time>
      </trkpt>
      <trkpt lat="45.83356" lon="4.6924">
        <ele>297.19626</ele>
        <time>2023-06-19T16:39:39.000Z</time>
      </trkpt>
      <trkpt lat="45.83356" lon="4.69243">
        <ele>297.11826</ele>
        <time>2023-06-19T16:39:40.000Z</time>
      </trkpt>
      <trkpt lat="45.83355" lon="4.69247">
        <ele>297.09253</ele>
        <time>2023-06-19T16:39:41.000Z</time>
      </trkpt>
      <trkpt lat="45.83355" lon="4.69251">
        <ele>297.05508</ele>
        <time>2023-06-19T16:39:42.000Z</time>
      </trkpt>
      <trkpt lat="45.83354" lon="4.69254">
        <ele>297.00677</ele>
        <time>2023-06-19T16:39:43.000Z</time>
      </trkpt>
      <trkpt lat="45.83354" lon="4.69258">
        <ele>296.96365</ele>
        <time>2023-06-19T16:39:44.000Z</time>
      </trkpt>
      <trkpt lat="45.83354" lon="4.69262">
        <ele>296.89053</ele>
        <time>2023-06-19T16:39:45.000Z</time>
      </trkpt>
      <trkpt lat="45.83353" lon="4.69266">
        <ele>296.81952</ele>
        <time>2023-06-19T16:39:46.000Z</time>
      </trkpt>
      <trkpt lat="45.83353" lon="4.69269">
        <ele>296.69727</ele>
        <time>2023-06-19T16:39:47.000Z</time>
      </trkpt>
      <trkpt lat="45.83352" lon="4.69273">
        <ele>296.57141</ele>
        <time>2023-06-19T16:39:48.000Z</time>
      </trkpt>
      <trkpt lat="45.83352" lon="4.69277">
        <ele>296.52771</ele>
        <time>2023-06-19T16:39:49.000Z</time>
      </trkpt>
      <trkpt lat="45.83351" lon="4.69281">
        <ele>296.49399</ele>
        <time>2023-06-19T16:39:50.000Z</time>
      </trkpt>
      <trkpt lat="45.83351" lon="4.69285">
        <ele>296.50589</ele>
        <time>2023-06-19T16:39:51.000Z</time>
      </trkpt>
      <trkpt lat="45.8335" lon="4.69289">
        <ele>296.54501</ele>
        <time>2023-06-19T16:39:52.000Z</time>
      </trkpt>
      <trkpt lat="45.8335" lon="4.69292">
        <ele>296.55243</ele>
        <time>2023-06-19T16:39:53.000Z</time>
      </trkpt>
      <trkpt lat="45.83349" lon="4.69296">
        <ele>296.59061</ele>
        <time>2023-06-19T16:39:54.000Z</time>
      </trkpt>
      <trkpt lat="45.83349" lon="4.693">
        <ele>296.63998</ele>
        <time>2023-06-19T16:39:55.000Z</time>
      </trkpt>
      <trkpt lat="45.83349" lon="4.69304">
        <ele>296.72696</ele>
        <time>2023-06-19T16:39:56.000Z</time>
      </trkpt>
      <trkpt lat="45.8335" lon="4.69309">
        <ele>296.79025</ele>
        <time>2023-06-19T16:39:57.000Z</time>
      </trkpt>
      <trkpt lat="45.8335" lon="4.69315">
        <ele>296.84848</ele>
        <time>2023-06-19T16:39:58.000Z</time>
      </trkpt>
      <trkpt lat="45.8335" lon="4.6932">
        <ele>296.90506</ele>
        <time>2023-06-19T16:39:59.000Z</time>
      </trkpt>
      <trkpt lat="45.83349" lon="4.69325">
        <ele>296.95001</ele>
        <time>2023-06-19T16:40:00.000Z</time>
      </trkpt>
      <trkpt lat="45.83349" lon="4.6933">
        <ele>296.99173</ele>
        <time>2023-06-19T16:40:01.000Z</time>
      </trkpt>
      <trkpt lat="45.83348" lon="4.69335">
        <ele>297.03079</ele>
        <time>2023-06-19T16:40:02.000Z</time>
      </trkpt>
      <trkpt lat="45.83348" lon="4.6934">
        <ele>297.0578</ele>
        <time>2023-06-19T16:40:03.000Z</time>
      </trkpt>
      <trkpt lat="45.83347" lon="4.69345">
        <ele>297.0683</ele>
        <time>2023-06-19T16:40:04.000Z</time>
      </trkpt>
      <trkpt lat="45.83347" lon="4.6935">
        <ele>297.09149</ele>
        <time>2023-06-19T16:40:05.000Z</time>
      </trkpt>
      <trkpt lat="45.83346" lon="4.69355">
        <ele>297.10944</ele>
        <time>2023-06-19T16:40:06.000Z</time>
      </trkpt>
      <trkpt lat="45.83346" lon="4.69361">
        <ele>297.15149</ele>
        <time>2023-06-19T16:40:07.000Z</time>
      </trkpt>
      <trkpt lat="45.83345" lon="4.69366">
        <ele>297.23212</ele>
        <time>2023-06-19T16:40:08.000Z</time>
      </trkpt>
      <trkpt lat="45.83345" lon="4.69371">
        <ele>297.26077</ele>
        <time>2023-06-19T16:40:09.000Z</time>
      </trkpt>
      <trkpt lat="45.83344" lon="4.69377">
        <ele>297.27878</ele>
        <time>2023-06-19T16:40:10.000Z</time>
      </trkpt>
      <trkpt lat="45.83344" lon="4.69382">
        <ele>297.25009</ele>
        <time>2023-06-19T16:40:11.000Z</time>
      </trkpt>
      <trkpt lat="45.83343" lon="4.69388">
        <ele>297.1922</ele>
        <time>2023-06-19T16:40:12.000Z</time>
      </trkpt>
      <trkpt lat="45.83342" lon="4.69393">
        <ele>297.1423</ele>
        <time>2023-06-19T16:40:13.000Z</time>
      </trkpt>
      <trkpt lat="45.83341" lon="4.69399">
        <ele>297.06195</ele>
        <time>2023-06-19T16:40:14.000Z</time>
      </trkpt>
      <trkpt lat="45.8334" lon="4.69405">
        <ele>296.95688</ele>
        <time>2023-06-19T16:40:15.000Z</time>
      </trkpt>
      <trkpt lat="45.8334" lon="4.69411">
        <ele>296.83759</ele>
        <time>2023-06-19T16:40:16.000Z</time>
      </trkpt>
      <trkpt lat="45.83339" lon="4.69417">
        <ele>296.75079</ele>
        <time>2023-06-19T16:40:17.000Z</time>
      </trkpt>
      <trkpt lat="45.83338" lon="4.69423">
        <ele>296.67596</ele>
        <time>2023-06-19T16:40:18.000Z</time>
      </trkpt>
      <trkpt lat="45.83337" lon="4.69429">
        <ele>296.5954</ele>
        <time>2023-06-19T16:40:19.000Z</time>
      </trkpt>
      <trkpt lat="45.83336" lon="4.69434">
        <ele>296.52161</ele>
        <time>2023-06-19T16:40:20.000Z</time>
      </trkpt>
      <trkpt lat="45.83336" lon="4.6944">
        <ele>296.45004</ele>
        <time>2023-06-19T16:40:21.000Z</time>
      </trkpt>
      <trkpt lat="45.83335" lon="4.69446">
        <ele>296.37347</ele>
        <time>2023-06-19T16:40:22.000Z</time>
      </trkpt>
      <trkpt lat="45.83335" lon="4.69452">
        <ele>296.32236</ele>
        <time>2023-06-19T16:40:23.000Z</time>
      </trkpt>
      <trkpt lat="45.83334" lon="4.69457">
        <ele>296.25806</ele>
        <time>2023-06-19T16:40:24.000Z</time>
      </trkpt>
      <trkpt lat="45.83334" lon="4.69463">
        <ele>296.19745</ele>
        <time>2023-06-19T16:40:25.000Z</time>
      </trkpt>
      <trkpt lat="45.83334" lon="4.6947">
        <ele>296.14835</ele>
        <time>2023-06-19T16:40:26.000Z</time>
      </trkpt>
      <trkpt lat="45.83334" lon="4.69476">
        <ele>296.1239</ele>
        <time>2023-06-19T16:40:27.000Z</time>
      </trkpt>
      <trkpt lat="45.83333" lon="4.69482">
        <ele>296.08655</ele>
        <time>2023-06-19T16:40:28.000Z</time>
      </trkpt>
      <trkpt lat="45.83333" lon="4.69489">
        <ele>296.02307</ele>
        <time>2023-06-19T16:40:29.000Z</time>
      </trkpt>
      <trkpt lat="45.83334" lon="4.69495">
        <ele>295.97403</ele>
        <time>2023-06-19T16:40:30.000Z</time>
      </trkpt>
      <trkpt lat="45.83334" lon="4.69502">
        <ele>295.92694</ele>
        <time>2023-06-19T16:40:31.000Z</time>
      </trkpt>
      <trkpt lat="45.83334" lon="4.69509">
        <ele>295.90912</ele>
        <time>2023-06-19T16:40:32.000Z</time>
      </trkpt>
      <trkpt lat="45.83335" lon="4.69515">
        <ele>295.88654</ele>
        <time>2023-06-19T16:40:33.000Z</time>
      </trkpt>
      <trkpt lat="45.83336" lon="4.69522">
        <ele>295.86456</ele>
        <time>2023-06-19T16:40:34.000Z</time>
      </trkpt>
      <trkpt lat="45.83336" lon="4.69529">
        <ele>295.86847</ele>
        <time>2023-06-19T16:40:35.000Z</time>
      </trkpt>
      <trkpt lat="45.83337" lon="4.69537">
        <ele>295.84439</ele>
        <time>2023-06-19T16:40:36.000Z</time>
      </trkpt>
      <trkpt lat="45.83338" lon="4.69544">
        <ele>295.78342</ele>
        <time>2023-06-19T16:40:37.000Z</time>
      </trkpt>
      <trkpt lat="45.83339" lon="4.69552">
        <ele>295.7377</ele>
        <time>2023-06-19T16:40:38.000Z</time>
      </trkpt>
      <trkpt lat="45.83339" lon="4.69558">
        <ele>295.69598</ele>
        <time>2023-06-19T16:40:39.000Z</time>
      </trkpt>
      <trkpt lat="45.8334" lon="4.69565">
        <ele>295.66608</ele>
        <time>2023-06-19T16:40:40.000Z</time>
      </trkpt>
      <trkpt lat="45.83341" lon="4.69571">
        <ele>295.64212</ele>
        <time>2023-06-19T16:40:41.000Z</time>
      </trkpt>
      <trkpt lat="45.83342" lon="4.69578">
        <ele>295.62833</ele>
        <time>2023-06-19T16:40:42.000Z</time>
      </trkpt>
      <trkpt lat="45.83344" lon="4.69586">
        <ele>295.60144</ele>
        <time>2023-06-19T16:40:43.000Z</time>
      </trkpt>
      <trkpt lat="45.83344" lon="4.69592">
        <ele>295.59341</ele>
        <time>2023-06-19T16:40:44.000Z</time>
      </trkpt>
      <trkpt lat="45.83345" lon="4.69599">
        <ele>295.5802</ele>
        <time>2023-06-19T16:40:45.000Z</time>
      </trkpt>
      <trkpt lat="45.83345" lon="4.69607">
        <ele>295.53284</ele>
        <time>2023-06-19T16:40:46.000Z</time>
      </trkpt>
      <trkpt lat="45.83347" lon="4.69615">
        <ele>295.44986</ele>
        <time>2023-06-19T16:40:47.000Z</time>
      </trkpt>
      <trkpt lat="45.83348" lon="4.69622">
        <ele>295.34943</ele>
        <time>2023-06-19T16:40:48.000Z</time>
      </trkpt>
      <trkpt lat="45.83349" lon="4.69629">
        <ele>295.27472</ele>
        <time>2023-06-19T16:40:49.000Z</time>
      </trkpt>
      <trkpt lat="45.8335" lon="4.69636">
        <ele>295.19492</ele>
        <time>2023-06-19T16:40:50.000Z</time>
      </trkpt>
      <trkpt lat="45.83351" lon="4.69643">
        <ele>295.14175</ele>
        <time>2023-06-19T16:40:51.000Z</time>
      </trkpt>
      <trkpt lat="45.83352" lon="4.69649">
        <ele>295.09116</ele>
        <time>2023-06-19T16:40:52.000Z</time>
      </trkpt>
      <trkpt lat="45.83354" lon="4.69656">
        <ele>295.06189</ele>
        <time>2023-06-19T16:40:53.000Z</time>
      </trkpt>
      <trkpt lat="45.83356" lon="4.69663">
        <ele>295.06158</ele>
        <time>2023-06-19T16:40:54.000Z</time>
      </trkpt>
      <trkpt lat="45.83356" lon="4.6967">
        <ele>295.00458</ele>
        <time>2023-06-19T16:40:55.000Z</time>
      </trkpt>
      <trkpt lat="45.83358" lon="4.69678">
        <ele>294.97037</ele>
        <time>2023-06-19T16:40:56.000Z</time>
      </trkpt>
      <trkpt lat="45.83359" lon="4.69685">
        <ele>294.96149</ele>
        <time>2023-06-19T16:40:57.000Z</time>
      </trkpt>
      <trkpt lat="45.8336" lon="4.69691">
        <ele>294.95212</ele>
        <time>2023-06-19T16:40:58.000Z</time>
      </trkpt>
      <trkpt lat="45.83362" lon="4.69698">
        <ele>294.94086</ele>
        <time>2023-06-19T16:40:59.000Z</time>
      </trkpt>
      <trkpt lat="45.83363" lon="4.69705">
        <ele>294.92529</ele>
        <time>2023-06-19T16:41:00.000Z</time>
      </trkpt>
      <trkpt lat="45.83364" lon="4.69712">
        <ele>294.91489</ele>
        <time>2023-06-19T16:41:01.000Z</time>
      </trkpt>
      <trkpt lat="45.83366" lon="4.69719">
        <ele>294.92102</ele>
        <time>2023-06-19T16:41:02.000Z</time>
      </trkpt>
      <trkpt lat="45.83367" lon="4.69724">
        <ele>294.91437</ele>
        <time>2023-06-19T16:41:03.000Z</time>
      </trkpt>
      <trkpt lat="45.83368" lon="4.69731">
        <ele>294.92688</ele>
        <time>2023-06-19T16:41:04.000Z</time>
      </trkpt>
      <trkpt lat="45.8337" lon="4.69738">
        <ele>294.93329</ele>
        <time>2023-06-19T16:41:05.000Z</time>
      </trkpt>
      <trkpt lat="45.83371" lon="4.69744">
        <ele>294.9809</ele>
        <time>2023-06-19T16:41:06.000Z</time>
      </trkpt>
      <trkpt lat="45.83373" lon="4.69749">
        <ele>295.06146</ele>
        <time>2023-06-19T16:41:07.000Z</time>
      </trkpt>
      <trkpt lat="45.83373" lon="4.69755">
        <ele>295.13431</ele>
        <time>2023-06-19T16:41:08.000Z</time>
      </trkpt>
      <trkpt lat="45.83374" lon="4.69761">
        <ele>295.19241</ele>
        <time>2023-06-19T16:41:09.000Z</time>
      </trkpt>
      <trkpt lat="45.83375" lon="4.69768">
        <ele>295.23657</ele>
        <time>2023-06-19T16:41:10.000Z</time>
      </trkpt>
      <trkpt lat="45.83376" lon="4.69774">
        <ele>295.26288</ele>
        <time>2023-06-19T16:41:11.000Z</time>
      </trkpt>
      <trkpt lat="45.83378" lon="4.6978">
        <ele>295.28058</ele>
        <time>2023-06-19T16:41:12.000Z</time>
      </trkpt>
      <trkpt lat="45.83379" lon="4.69786">
        <ele>295.29865</ele>
        <time>2023-06-19T16:41:13.000Z</time>
      </trkpt>
      <trkpt lat="45.8338" lon="4.69792">
        <ele>295.30328</ele>
        <time>2023-06-19T16:41:14.000Z</time>
      </trkpt>
      <trkpt lat="45.83382" lon="4.69798">
        <ele>295.36227</ele>
        <time>2023-06-19T16:41:15.000Z</time>
      </trkpt>
      <trkpt lat="45.83383" lon="4.69804">
        <ele>295.42044</ele>
        <time>2023-06-19T16:41:16.000Z</time>
      </trkpt>
      <trkpt lat="45.83384" lon="4.6981">
        <ele>295.45273</ele>
        <time>2023-06-19T16:41:17.000Z</time>
      </trkpt>
      <trkpt lat="45.83386" lon="4.69816">
        <ele>295.47058</ele>
        <time>2023-06-19T16:41:18.000Z</time>
      </trkpt>
      <trkpt lat="45.83387" lon="4.69821">
        <ele>295.4809</ele>
        <time>2023-06-19T16:41:19.000Z</time>
      </trkpt>
      <trkpt lat="45.83387" lon="4.69826">
        <ele>295.48914</ele>
        <time>2023-06-19T16:41:20.000Z</time>
      </trkpt>
      <trkpt lat="45.83389" lon="4.69831">
        <ele>295.49042</ele>
        <time>2023-06-19T16:41:21.000Z</time>
      </trkpt>
      <trkpt lat="45.83389" lon="4.69835">
        <ele>295.44833</ele>
        <time>2023-06-19T16:41:22.000Z</time>
      </trkpt>
      <trkpt lat="45.8339" lon="4.6984">
        <ele>295.44501</ele>
        <time>2023-06-19T16:41:23.000Z</time>
      </trkpt>
      <trkpt lat="45.83391" lon="4.69843">
        <ele>295.42191</ele>
        <time>2023-06-19T16:41:24.000Z</time>
      </trkpt>
      <trkpt lat="45.83392" lon="4.69847">
        <ele>295.392</ele>
        <time>2023-06-19T16:41:25.000Z</time>
      </trkpt>
      <trkpt lat="45.83394" lon="4.6985">
        <ele>295.35217</ele>
        <time>2023-06-19T16:41:26.000Z</time>
      </trkpt>
      <trkpt lat="45.83396" lon="4.69853">
        <ele>295.32098</ele>
        <time>2023-06-19T16:41:27.000Z</time>
      </trkpt>
      <trkpt lat="45.83396" lon="4.69856">
        <ele>295.31717</ele>
        <time>2023-06-19T16:41:28.000Z</time>
      </trkpt>
      <trkpt lat="45.83396" lon="4.6986">
        <ele>295.33923</ele>
        <time>2023-06-19T16:41:29.000Z</time>
      </trkpt>
      <trkpt lat="45.83394" lon="4.69864">
        <ele>295.35779</ele>
        <time>2023-06-19T16:41:30.000Z</time>
      </trkpt>
      <trkpt lat="45.83392" lon="4.69866">
        <ele>295.39459</ele>
        <time>2023-06-19T16:41:31.000Z</time>
      </trkpt>
      <trkpt lat="45.83389" lon="4.69869">
        <ele>295.44507</ele>
        <time>2023-06-19T16:41:32.000Z</time>
      </trkpt>
      <trkpt lat="45.83386" lon="4.69871">
        <ele>295.51385</ele>
        <time>2023-06-19T16:41:33.000Z</time>
      </trkpt>
      <trkpt lat="45.83383" lon="4.69875">
        <ele>295.5918</ele>
        <time>2023-06-19T16:41:34.000Z</time>
      </trkpt>
      <trkpt lat="45.83383" lon="4.6988">
        <ele>295.65631</ele>
        <time>2023-06-19T16:41:35.000Z</time>
      </trkpt>
      <trkpt lat="45.83383" lon="4.69885">
        <ele>295.72256</ele>
        <time>2023-06-19T16:41:36.000Z</time>
      </trkpt>
      <trkpt lat="45.83383" lon="4.6989">
        <ele>295.80365</ele>
        <time>2023-06-19T16:41:37.000Z</time>
      </trkpt>
      <trkpt lat="45.83384" lon="4.69896">
        <ele>295.88666</ele>
        <time>2023-06-19T16:41:38.000Z</time>
      </trkpt>
      <trkpt lat="45.83387" lon="4.69901">
        <ele>295.96622</ele>
        <time>2023-06-19T16:41:39.000Z</time>
      </trkpt>
      <trkpt lat="45.8339" lon="4.69907">
        <ele>296.03516</ele>
        <time>2023-06-19T16:41:40.000Z</time>
      </trkpt>
      <trkpt lat="45.83393" lon="4.69912">
        <ele>296.08286</ele>
        <time>2023-06-19T16:41:41.000Z</time>
      </trkpt>
      <trkpt lat="45.83397" lon="4.69917">
        <ele>296.15948</ele>
        <time>2023-06-19T16:41:42.000Z</time>
      </trkpt>
      <trkpt lat="45.834" lon="4.69923">
        <ele>296.21738</ele>
        <time>2023-06-19T16:41:43.000Z</time>
      </trkpt>
      <trkpt lat="45.83403" lon="4.6993">
        <ele>296.27078</ele>
        <time>2023-06-19T16:41:44.000Z</time>
      </trkpt>
      <trkpt lat="45.83403" lon="4.69938">
        <ele>296.35385</ele>
        <time>2023-06-19T16:41:45.000Z</time>
      </trkpt>
      <trkpt lat="45.83403" lon="4.69945">
        <ele>296.45035</ele>
        <time>2023-06-19T16:41:46.000Z</time>
      </trkpt>
      <trkpt lat="45.83401" lon="4.69952">
        <ele>296.53778</ele>
        <time>2023-06-19T16:41:47.000Z</time>
      </trkpt>
      <trkpt lat="45.834" lon="4.69959">
        <ele>296.62503</ele>
        <time>2023-06-19T16:41:48.000Z</time>
      </trkpt>
      <trkpt lat="45.83399" lon="4.69966">
        <ele>296.7392</ele>
        <time>2023-06-19T16:41:49.000Z</time>
      </trkpt>
      <trkpt lat="45.83399" lon="4.69972">
        <ele>296.88129</ele>
        <time>2023-06-19T16:41:50.000Z</time>
      </trkpt>
      <trkpt lat="45.83398" lon="4.69979">
        <ele>297.00909</ele>
        <time>2023-06-19T16:41:51.000Z</time>
      </trkpt>
      <trkpt lat="45.83397" lon="4.69986">
        <ele>297.11096</ele>
        <time>2023-06-19T16:41:52.000Z</time>
      </trkpt>
      <trkpt lat="45.83396" lon="4.69994">
        <ele>297.18082</ele>
        <time>2023-06-19T16:41:53.000Z</time>
      </trkpt>
      <trkpt lat="45.83396" lon="4.70001">
        <ele>297.22925</ele>
        <time>2023-06-19T16:41:54.000Z</time>
      </trkpt>
      <trkpt lat="45.83395" lon="4.70008">
        <ele>297.30536</ele>
        <time>2023-06-19T16:41:55.000Z</time>
      </trkpt>
      <trkpt lat="45.83395" lon="4.70015">
        <ele>297.40079</ele>
        <time>2023-06-19T16:41:56.000Z</time>
      </trkpt>
      <trkpt lat="45.83394" lon="4.70022">
        <ele>297.50925</ele>
        <time>2023-06-19T16:41:57.000Z</time>
      </trkpt>
      <trkpt lat="45.83394" lon="4.70029">
        <ele>297.64789</ele>
        <time>2023-06-19T16:41:58.000Z</time>
      </trkpt>
      <trkpt lat="45.83393" lon="4.70035">
        <ele>297.81839</ele>
        <time>2023-06-19T16:41:59.000Z</time>
      </trkpt>
      <trkpt lat="45.83393" lon="4.70042">
        <ele>297.98154</ele>
        <time>2023-06-19T16:42:00.000Z</time>
      </trkpt>
      <trkpt lat="45.83392" lon="4.7005">
        <ele>298.1348</ele>
        <time>2023-06-19T16:42:01.000Z</time>
      </trkpt>
      <trkpt lat="45.83392" lon="4.70058">
        <ele>298.28595</ele>
        <time>2023-06-19T16:42:02.000Z</time>
      </trkpt>
      <trkpt lat="45.83391" lon="4.70065">
        <ele>298.42902</ele>
        <time>2023-06-19T16:42:03.000Z</time>
      </trkpt>
      <trkpt lat="45.83391" lon="4.70073">
        <ele>298.57971</ele>
        <time>2023-06-19T16:42:04.000Z</time>
      </trkpt>
      <trkpt lat="45.8339" lon="4.7008">
        <ele>298.72711</ele>
        <time>2023-06-19T16:42:05.000Z</time>
      </trkpt>
      <trkpt lat="45.83389" lon="4.70087">
        <ele>298.87457</ele>
        <time>2023-06-19T16:42:06.000Z</time>
      </trkpt>
      <trkpt lat="45.83389" lon="4.70095">
        <ele>299.05386</ele>
        <time>2023-06-19T16:42:07.000Z</time>
      </trkpt>
      <trkpt lat="45.83388" lon="4.70103">
        <ele>299.2196</ele>
        <time>2023-06-19T16:42:08.000Z</time>
      </trkpt>
      <trkpt lat="45.83387" lon="4.70111">
        <ele>299.36206</ele>
        <time>2023-06-19T16:42:09.000Z</time>
      </trkpt>
      <trkpt lat="45.83385" lon="4.70119">
        <ele>299.44156</ele>
        <time>2023-06-19T16:42:10.000Z</time>
      </trkpt>
      <trkpt lat="45.83384" lon="4.70126">
        <ele>299.53387</ele>
        <time>2023-06-19T16:42:11.000Z</time>
      </trkpt>
      <trkpt lat="45.83383" lon="4.70133">
        <ele>299.63474</ele>
        <time>2023-06-19T16:42:12.000Z</time>
      </trkpt>
      <trkpt lat="45.83381" lon="4.70141">
        <ele>299.78021</ele>
        <time>2023-06-19T16:42:13.000Z</time>
      </trkpt>
      <trkpt lat="45.83379" lon="4.70148">
        <ele>299.96335</ele>
        <time>2023-06-19T16:42:14.000Z</time>
      </trkpt>
      <trkpt lat="45.83376" lon="4.70155">
        <ele>300.13388</ele>
        <time>2023-06-19T16:42:15.000Z</time>
      </trkpt>
      <trkpt lat="45.83374" lon="4.70163">
        <ele>300.30887</ele>
        <time>2023-06-19T16:42:16.000Z</time>
      </trkpt>
      <trkpt lat="45.83371" lon="4.70169">
        <ele>300.44907</ele>
        <time>2023-06-19T16:42:17.000Z</time>
      </trkpt>
      <trkpt lat="45.83369" lon="4.70177">
        <ele>300.55396</ele>
        <time>2023-06-19T16:42:18.000Z</time>
      </trkpt>
      <trkpt lat="45.83367" lon="4.70186">
        <ele>300.61072</ele>
        <time>2023-06-19T16:42:19.000Z</time>
      </trkpt>
      <trkpt lat="45.83365" lon="4.70193">
        <ele>300.66632</ele>
        <time>2023-06-19T16:42:20.000Z</time>
      </trkpt>
      <trkpt lat="45.83363" lon="4.70202">
        <ele>300.72235</ele>
        <time>2023-06-19T16:42:21.000Z</time>
      </trkpt>
      <trkpt lat="45.8336" lon="4.70209">
        <ele>300.78827</ele>
        <time>2023-06-19T16:42:22.000Z</time>
      </trkpt>
      <trkpt lat="45.83357" lon="4.70217">
        <ele>300.854</ele>
        <time>2023-06-19T16:42:23.000Z</time>
      </trkpt>
      <trkpt lat="45.83355" lon="4.70226">
        <ele>300.974</ele>
        <time>2023-06-19T16:42:24.000Z</time>
      </trkpt>
      <trkpt lat="45.83353" lon="4.70234">
        <ele>301.0806</ele>
        <time>2023-06-19T16:42:25.000Z</time>
      </trkpt>
      <trkpt lat="45.83349" lon="4.70242">
        <ele>301.16162</ele>
        <time>2023-06-19T16:42:26.000Z</time>
      </trkpt>
      <trkpt lat="45.83347" lon="4.7025">
        <ele>301.20386</ele>
        <time>2023-06-19T16:42:27.000Z</time>
      </trkpt>
      <trkpt lat="45.83344" lon="4.70258">
        <ele>301.18695</ele>
        <time>2023-06-19T16:42:28.000Z</time>
      </trkpt>
      <trkpt lat="45.83341" lon="4.70266">
        <ele>301.13031</ele>
        <time>2023-06-19T16:42:29.000Z</time>
      </trkpt>
      <trkpt lat="45.83339" lon="4.70273">
        <ele>301.12766</ele>
        <time>2023-06-19T16:42:30.000Z</time>
      </trkpt>
      <trkpt lat="45.83336" lon="4.7028">
        <ele>301.10764</ele>
        <time>2023-06-19T16:42:31.000Z</time>
      </trkpt>
      <trkpt lat="45.83333" lon="4.70288">
        <ele>301.06741</ele>
        <time>2023-06-19T16:42:32.000Z</time>
      </trkpt>
      <trkpt lat="45.83331" lon="4.70297">
        <ele>300.97913</ele>
        <time>2023-06-19T16:42:33.000Z</time>
      </trkpt>
      <trkpt lat="45.83328" lon="4.70305">
        <ele>300.87592</ele>
        <time>2023-06-19T16:42:34.000Z</time>
      </trkpt>
      <trkpt lat="45.83326" lon="4.70313">
        <ele>300.77386</ele>
        <time>2023-06-19T16:42:35.000Z</time>
      </trkpt>
      <trkpt lat="45.83324" lon="4.70319">
        <ele>300.65765</ele>
        <time>2023-06-19T16:42:36.000Z</time>
      </trkpt>
      <trkpt lat="45.83322" lon="4.70327">
        <ele>300.5499</ele>
        <time>2023-06-19T16:42:37.000Z</time>
      </trkpt>
      <trkpt lat="45.83321" lon="4.70334">
        <ele>300.45935</ele>
        <time>2023-06-19T16:42:38.000Z</time>
      </trkpt>
      <trkpt lat="45.83323" lon="4.70341">
        <ele>300.41443</ele>
        <time>2023-06-19T16:42:39.000Z</time>
      </trkpt>
      <trkpt lat="45.83324" lon="4.70348">
        <ele>300.40668</ele>
        <time>2023-06-19T16:42:40.000Z</time>
      </trkpt>
      <trkpt lat="45.83325" lon="4.70356">
        <ele>300.44403</ele>
        <time>2023-06-19T16:42:41.000Z</time>
      </trkpt>
      <trkpt lat="45.83327" lon="4.70365">
        <ele>300.42398</ele>
        <time>2023-06-19T16:42:42.000Z</time>
      </trkpt>
      <trkpt lat="45.83327" lon="4.70373">
        <ele>300.43701</ele>
        <time>2023-06-19T16:42:43.000Z</time>
      </trkpt>
      <trkpt lat="45.83328" lon="4.7038">
        <ele>300.41449</ele>
        <time>2023-06-19T16:42:44.000Z</time>
      </trkpt>
      <trkpt lat="45.83328" lon="4.70389">
        <ele>300.38528</ele>
        <time>2023-06-19T16:42:45.000Z</time>
      </trkpt>
      <trkpt lat="45.83329" lon="4.70397">
        <ele>300.371</ele>
        <time>2023-06-19T16:42:46.000Z</time>
      </trkpt>
      <trkpt lat="45.8333" lon="4.70405">
        <ele>300.34589</ele>
        <time>2023-06-19T16:42:47.000Z</time>
      </trkpt>
      <trkpt lat="45.83331" lon="4.70413">
        <ele>300.37735</ele>
        <time>2023-06-19T16:42:48.000Z</time>
      </trkpt>
      <trkpt lat="45.83333" lon="4.70421">
        <ele>300.43417</ele>
        <time>2023-06-19T16:42:49.000Z</time>
      </trkpt>
      <trkpt lat="45.83334" lon="4.7043">
        <ele>300.46136</ele>
        <time>2023-06-19T16:42:50.000Z</time>
      </trkpt>
      <trkpt lat="45.83334" lon="4.70437">
        <ele>300.50845</ele>
        <time>2023-06-19T16:42:51.000Z</time>
      </trkpt>
      <trkpt lat="45.83335" lon="4.70444">
        <ele>300.59991</ele>
        <time>2023-06-19T16:42:52.000Z</time>
      </trkpt>
      <trkpt lat="45.83336" lon="4.70452">
        <ele>300.7352</ele>
        <time>2023-06-19T16:42:53.000Z</time>
      </trkpt>
      <trkpt lat="45.83337" lon="4.70461">
        <ele>300.8421</ele>
        <time>2023-06-19T16:42:54.000Z</time>
      </trkpt>
      <trkpt lat="45.83338" lon="4.7047">
        <ele>300.9437</ele>
        <time>2023-06-19T16:42:55.000Z</time>
      </trkpt>
      <trkpt lat="45.83338" lon="4.70479">
        <ele>300.96918</ele>
        <time>2023-06-19T16:42:56.000Z</time>
      </trkpt>
      <trkpt lat="45.8334" lon="4.70487">
        <ele>300.94983</ele>
        <time>2023-06-19T16:42:57.000Z</time>
      </trkpt>
      <trkpt lat="45.83341" lon="4.70496">
        <ele>300.89001</ele>
        <time>2023-06-19T16:42:58.000Z</time>
      </trkpt>
      <trkpt lat="45.83342" lon="4.70504">
        <ele>300.83704</ele>
        <time>2023-06-19T16:42:59.000Z</time>
      </trkpt>
      <trkpt lat="45.83343" lon="4.70512">
        <ele>300.74438</ele>
        <time>2023-06-19T16:43:00.000Z</time>
      </trkpt>
      <trkpt lat="45.83344" lon="4.70522">
        <ele>300.64688</ele>
        <time>2023-06-19T16:43:01.000Z</time>
      </trkpt>
      <trkpt lat="45.83344" lon="4.7053">
        <ele>300.61774</ele>
        <time>2023-06-19T16:43:02.000Z</time>
      </trkpt>
      <trkpt lat="45.83345" lon="4.70539">
        <ele>300.54514</ele>
        <time>2023-06-19T16:43:03.000Z</time>
      </trkpt>
      <trkpt lat="45.83346" lon="4.70547">
        <ele>300.44879</ele>
        <time>2023-06-19T16:43:04.000Z</time>
      </trkpt>
      <trkpt lat="45.83346" lon="4.70555">
        <ele>300.35028</ele>
        <time>2023-06-19T16:43:05.000Z</time>
      </trkpt>
      <trkpt lat="45.83345" lon="4.70564">
        <ele>300.26242</ele>
        <time>2023-06-19T16:43:06.000Z</time>
      </trkpt>
      <trkpt lat="45.83346" lon="4.70573">
        <ele>300.21402</ele>
        <time>2023-06-19T16:43:07.000Z</time>
      </trkpt>
      <trkpt lat="45.83346" lon="4.70581">
        <ele>300.16046</ele>
        <time>2023-06-19T16:43:08.000Z</time>
      </trkpt>
      <trkpt lat="45.83346" lon="4.7059">
        <ele>300.10468</ele>
        <time>2023-06-19T16:43:09.000Z</time>
      </trkpt>
      <trkpt lat="45.83347" lon="4.70599">
        <ele>300.08899</ele>
        <time>2023-06-19T16:43:10.000Z</time>
      </trkpt>
      <trkpt lat="45.83347" lon="4.70609">
        <ele>299.96359</ele>
        <time>2023-06-19T16:43:11.000Z</time>
      </trkpt>
      <trkpt lat="45.83348" lon="4.70617">
        <ele>300.04791</ele>
        <time>2023-06-19T16:43:12.000Z</time>
      </trkpt>
      <trkpt lat="45.83349" lon="4.70626">
        <ele>300.07843</ele>
        <time>2023-06-19T16:43:13.000Z</time>
      </trkpt>
      <trkpt lat="45.83349" lon="4.70634">
        <ele>300.16635</ele>
        <time>2023-06-19T16:43:14.000Z</time>
      </trkpt>
      <trkpt lat="45.83349" lon="4.70643">
        <ele>300.26923</ele>
        <time>2023-06-19T16:43:15.000Z</time>
      </trkpt>
      <trkpt lat="45.83348" lon="4.70652">
        <ele>300.45026</ele>
        <time>2023-06-19T16:43:16.000Z</time>
      </trkpt>
      <trkpt lat="45.83347" lon="4.70661">
        <ele>300.70551</ele>
        <time>2023-06-19T16:43:17.000Z</time>
      </trkpt>
      <trkpt lat="45.83347" lon="4.7067">
        <ele>300.99014</ele>
        <time>2023-06-19T16:43:18.000Z</time>
      </trkpt>
      <trkpt lat="45.83346" lon="4.70678">
        <ele>301.02347</ele>
        <time>2023-06-19T16:43:19.000Z</time>
      </trkpt>
      <trkpt lat="45.83345" lon="4.70687">
        <ele>301.05219</ele>
        <time>2023-06-19T16:43:20.000Z</time>
      </trkpt>
      <trkpt lat="45.83344" lon="4.70695">
        <ele>301.31842</ele>
        <time>2023-06-19T16:43:21.000Z</time>
      </trkpt>
      <trkpt lat="45.83343" lon="4.70705">
        <ele>301.58459</ele>
        <time>2023-06-19T16:43:22.000Z</time>
      </trkpt>
      <trkpt lat="45.83342" lon="4.70714">
        <ele>301.89005</ele>
        <time>2023-06-19T16:43:23.000Z</time>
      </trkpt>
      <trkpt lat="45.83342" lon="4.70723">
        <ele>302.2121</ele>
        <time>2023-06-19T16:43:24.000Z</time>
      </trkpt>
      <trkpt lat="45.83341" lon="4.70732">
        <ele>302.54486</ele>
        <time>2023-06-19T16:43:25.000Z</time>
      </trkpt>
      <trkpt lat="45.8334" lon="4.70741">
        <ele>302.86371</ele>
        <time>2023-06-19T16:43:26.000Z</time>
      </trkpt>
      <trkpt lat="45.83339" lon="4.7075">
        <ele>303.16287</ele>
        <time>2023-06-19T16:43:27.000Z</time>
      </trkpt>
      <trkpt lat="45.83339" lon="4.7076">
        <ele>303.48749</ele>
        <time>2023-06-19T16:43:28.000Z</time>
      </trkpt>
      <trkpt lat="45.83339" lon="4.70769">
        <ele>303.81879</ele>
        <time>2023-06-19T16:43:29.000Z</time>
      </trkpt>
      <trkpt lat="45.83338" lon="4.70778">
        <ele>304.11932</ele>
        <time>2023-06-19T16:43:30.000Z</time>
      </trkpt>
      <trkpt lat="45.83338" lon="4.70787">
        <ele>304.49445</ele>
        <time>2023-06-19T16:43:31.000Z</time>
      </trkpt>
      <trkpt lat="45.83337" lon="4.70795">
        <ele>304.6308</ele>
        <time>2023-06-19T16:43:32.000Z</time>
      </trkpt>
      <trkpt lat="45.83337" lon="4.70803">
        <ele>304.80438</ele>
        <time>2023-06-19T16:43:33.000Z</time>
      </trkpt>
      <trkpt lat="45.83337" lon="4.70811">
        <ele>304.944</ele>
        <time>2023-06-19T16:43:34.000Z</time>
      </trkpt>
      <trkpt lat="45.83335" lon="4.70819">
        <ele>305.05536</ele>
        <time>2023-06-19T16:43:35.000Z</time>
      </trkpt>
      <trkpt lat="45.83334" lon="4.70827">
        <ele>305.151</ele>
        <time>2023-06-19T16:43:36.000Z</time>
      </trkpt>
      <trkpt lat="45.83333" lon="4.70836">
        <ele>305.20032</ele>
        <time>2023-06-19T16:43:37.000Z</time>
      </trkpt>
      <trkpt lat="45.83333" lon="4.70843">
        <ele>305.06671</ele>
        <time>2023-06-19T16:43:38.000Z</time>
      </trkpt>
      <trkpt lat="45.83333" lon="4.70851">
        <ele>305.15219</ele>
        <time>2023-06-19T16:43:39.000Z</time>
      </trkpt>
      <trkpt lat="45.83332" lon="4.70857">
        <ele>305.26843</ele>
        <time>2023-06-19T16:43:40.000Z</time>
      </trkpt>
      <trkpt lat="45.83332" lon="4.70861">
        <ele>305.14178</ele>
        <time>2023-06-19T16:43:41.000Z</time>
      </trkpt>
      <trkpt lat="45.83332" lon="4.70866">
        <ele>304.99518</ele>
        <time>2023-06-19T16:43:42.000Z</time>
      </trkpt>
      <trkpt lat="45.83331" lon="4.70869">
        <ele>304.79346</ele>
        <time>2023-06-19T16:43:43.000Z</time>
      </trkpt>
      <trkpt lat="45.83331" lon="4.70873">
        <ele>304.56247</ele>
        <time>2023-06-19T16:43:44.000Z</time>
      </trkpt>
      <trkpt lat="45.8333" lon="4.70876">
        <ele>304.32611</ele>
        <time>2023-06-19T16:43:45.000Z</time>
      </trkpt>
    </trkseg>
  </trk>
</gpx>